<?xml version="1.0" encoding="UTF-8" standalone="no" ?>
<gpx xmlns="http://www.topografix.com/GPX/1/1" xmlns:xsi="http://www.w3.org/2001/XMLSchema-instance" xsi:schemaLocation="http://www.topografix.com/GPX/1/1 http://www.topografix.com/GPX/1/1/gpx.xsd" version="1.1" creator="VisuGPX - https://www.visugpx.com">
  <metadata>
    <name>FLORAC ORANGE J1</name>
  </metadata>
  <trk>
    <name><![CDATA[FLORAC ORANGE J1]]></name>
    <trkseg>
      <trkpt lat="44.32725" lon="3.59308">
        <ele>545.308</ele>
        <time>2018-05-22T14:56:08Z</time>
        <extensions>
          <visugpx:TrkExtension xmlns:visugpx="https://www.visugpx.com/editgpx/">
            <visugpx:node>32</visugpx:node>
            </visugpx:TrkExtension>
        </extensions>
      </trkpt>
      <trkpt lat="44.32746" lon="3.59292">
        <ele>545.325</ele>
        <time>2018-05-22T14:56:04Z</time>
      </trkpt>
      <trkpt lat="44.32764" lon="3.59277">
        <ele>544.923</ele>
        <time>2018-05-22T14:56:00Z</time>
      </trkpt>
      <trkpt lat="44.32781" lon="3.59265">
        <ele>544.197</ele>
        <time>2018-05-22T14:55:56Z</time>
      </trkpt>
      <trkpt lat="44.32801" lon="3.59253">
        <ele>543.338</ele>
        <time>2018-05-22T14:55:51Z</time>
      </trkpt>
      <trkpt lat="44.32818" lon="3.59233">
        <ele>540.322</ele>
        <time>2018-05-22T14:55:43Z</time>
      </trkpt>
      <trkpt lat="44.32817" lon="3.59226">
        <ele>535.458</ele>
        <time>2018-05-22T14:42:20Z</time>
      </trkpt>
      <trkpt lat="44.32832" lon="3.59211">
        <ele>536.115</ele>
        <time>2018-05-22T14:38:33Z</time>
      </trkpt>
      <trkpt lat="44.3285" lon="3.59205">
        <ele>534.356</ele>
        <time>2018-05-22T14:38:29Z</time>
      </trkpt>
      <trkpt lat="44.32867" lon="3.59187">
        <ele>536.11</ele>
        <time>2018-05-22T14:38:25Z</time>
      </trkpt>
      <trkpt lat="44.32873" lon="3.59163">
        <ele>535.331</ele>
        <time>2018-05-22T14:38:22Z</time>
      </trkpt>
      <trkpt lat="44.32894" lon="3.59163">
        <ele>534.358</ele>
        <time>2018-05-22T14:38:18Z</time>
      </trkpt>
      <trkpt lat="44.32916" lon="3.59156">
        <ele>534.308</ele>
        <time>2018-05-22T14:38:14Z</time>
      </trkpt>
      <trkpt lat="44.32937" lon="3.59142">
        <ele>534.321</ele>
        <time>2018-05-22T14:38:10Z</time>
      </trkpt>
      <trkpt lat="44.32944" lon="3.59115">
        <ele>539.529</ele>
        <time>2018-05-22T14:37:08Z</time>
      </trkpt>
      <trkpt lat="44.32948" lon="3.59129">
        <ele>534.366</ele>
        <time>2018-05-22T14:02:22Z</time>
      </trkpt>
      <trkpt lat="44.32967" lon="3.59114">
        <ele>535.391</ele>
        <time>2018-05-22T14:02:18Z</time>
      </trkpt>
      <trkpt lat="44.32984" lon="3.591">
        <ele>535.535</ele>
        <time>2018-05-22T14:02:15Z</time>
      </trkpt>
      <trkpt lat="44.33002" lon="3.59087">
        <ele>535.391</ele>
        <time>2018-05-22T14:02:12Z</time>
      </trkpt>
      <trkpt lat="44.33021" lon="3.59072">
        <ele>535.538</ele>
        <time>2018-05-22T14:02:09Z</time>
      </trkpt>
      <trkpt lat="44.33041" lon="3.59058">
        <ele>536.349</ele>
        <time>2018-05-22T14:02:06Z</time>
      </trkpt>
      <trkpt lat="44.3306" lon="3.59045">
        <ele>537.363</ele>
        <time>2018-05-22T14:02:03Z</time>
      </trkpt>
      <trkpt lat="44.33082" lon="3.59048">
        <ele>538.464</ele>
        <time>2018-05-22T14:02:00Z</time>
      </trkpt>
      <trkpt lat="44.33102" lon="3.59057">
        <ele>538.391</ele>
        <time>2018-05-22T14:01:57Z</time>
      </trkpt>
      <trkpt lat="44.33121" lon="3.59079">
        <ele>538.308</ele>
        <time>2018-05-22T14:01:53Z</time>
      </trkpt>
      <trkpt lat="44.33133" lon="3.59097">
        <ele>537.326</ele>
        <time>2018-05-22T14:01:50Z</time>
      </trkpt>
      <trkpt lat="44.33153" lon="3.59111">
        <ele>537.215</ele>
        <time>2018-05-22T14:01:46Z</time>
      </trkpt>
      <trkpt lat="44.33171" lon="3.59092">
        <ele>536.598</ele>
        <time>2018-05-22T14:01:43Z</time>
      </trkpt>
      <trkpt lat="44.33182" lon="3.5907">
        <ele>537.368</ele>
        <time>2018-05-22T14:01:41Z</time>
      </trkpt>
      <trkpt lat="44.33192" lon="3.59047">
        <ele>537.222</ele>
        <time>2018-05-22T14:01:39Z</time>
      </trkpt>
      <trkpt lat="44.33204" lon="3.59021">
        <ele>538.338</ele>
        <time>2018-05-22T14:01:37Z</time>
      </trkpt>
      <trkpt lat="44.33215" lon="3.58994">
        <ele>538.145</ele>
        <time>2018-05-22T14:01:35Z</time>
      </trkpt>
      <trkpt lat="44.33227" lon="3.58964">
        <ele>538.326</ele>
        <time>2018-05-22T14:01:33Z</time>
      </trkpt>
      <trkpt lat="44.33239" lon="3.58933">
        <ele>538.27</ele>
        <time>2018-05-22T14:01:31Z</time>
      </trkpt>
      <trkpt lat="44.33249" lon="3.58905">
        <ele>539.111</ele>
        <time>2018-05-22T14:01:29Z</time>
      </trkpt>
      <trkpt lat="44.33259" lon="3.58877">
        <ele>539.398</ele>
        <time>2018-05-22T14:01:27Z</time>
      </trkpt>
      <trkpt lat="44.3327" lon="3.58848">
        <ele>539.308</ele>
        <time>2018-05-22T14:01:25Z</time>
      </trkpt>
      <trkpt lat="44.33279" lon="3.58821">
        <ele>539.526</ele>
        <time>2018-05-22T14:01:23Z</time>
      </trkpt>
      <trkpt lat="44.33289" lon="3.58796">
        <ele>540.142</ele>
        <time>2018-05-22T14:01:21Z</time>
      </trkpt>
      <trkpt lat="44.33301" lon="3.58771">
        <ele>540.168</ele>
        <time>2018-05-22T14:01:19Z</time>
      </trkpt>
      <trkpt lat="44.33314" lon="3.58747">
        <ele>540.347</ele>
        <time>2018-05-22T14:01:17Z</time>
      </trkpt>
      <trkpt lat="44.33329" lon="3.58725">
        <ele>540.351</ele>
        <time>2018-05-22T14:01:15Z</time>
      </trkpt>
      <trkpt lat="44.33345" lon="3.58703">
        <ele>540.327</ele>
        <time>2018-05-22T14:01:13Z</time>
      </trkpt>
      <trkpt lat="44.33362" lon="3.58683">
        <ele>540.194</ele>
        <time>2018-05-22T14:01:11Z</time>
      </trkpt>
      <trkpt lat="44.33379" lon="3.58666">
        <ele>539.215</ele>
        <time>2018-05-22T14:01:09Z</time>
      </trkpt>
      <trkpt lat="44.33398" lon="3.5865">
        <ele>538.349</ele>
        <time>2018-05-22T14:01:07Z</time>
      </trkpt>
      <trkpt lat="44.33417" lon="3.58639">
        <ele>539.55</ele>
        <time>2018-05-22T14:01:05Z</time>
      </trkpt>
      <trkpt lat="44.33437" lon="3.58631">
        <ele>540.437</ele>
        <time>2018-05-22T14:01:03Z</time>
      </trkpt>
      <trkpt lat="44.33463" lon="3.58622">
        <ele>537.708</ele>
        <time>2018-05-22T14:01:00Z</time>
      </trkpt>
      <trkpt lat="44.33486" lon="3.58615">
        <ele>535.514</ele>
        <time>2018-05-22T14:00:57Z</time>
      </trkpt>
      <trkpt lat="44.33512" lon="3.58613">
        <ele>536.459</ele>
        <time>2018-05-22T14:00:54Z</time>
      </trkpt>
      <trkpt lat="44.33538" lon="3.58611">
        <ele>539.556</ele>
        <time>2018-05-22T14:00:51Z</time>
      </trkpt>
      <trkpt lat="44.3356" lon="3.58611">
        <ele>540.579</ele>
        <time>2018-05-22T14:00:48Z</time>
      </trkpt>
      <trkpt lat="44.3358" lon="3.58609">
        <ele>541.363</ele>
        <time>2018-05-22T14:00:45Z</time>
      </trkpt>
      <trkpt lat="44.33602" lon="3.58604">
        <ele>544.399</ele>
        <time>2018-05-22T14:00:41Z</time>
      </trkpt>
      <trkpt lat="44.33604" lon="3.58632">
        <ele>546.386</ele>
        <time>2018-05-22T14:00:35Z</time>
      </trkpt>
      <trkpt lat="44.33596" lon="3.58658">
        <ele>546.157</ele>
        <time>2018-05-22T14:00:28Z</time>
      </trkpt>
      <trkpt lat="44.33597" lon="3.58689">
        <ele>545.161</ele>
        <time>2018-05-22T14:00:25Z</time>
      </trkpt>
      <trkpt lat="44.33597" lon="3.58725">
        <ele>545.372</ele>
        <time>2018-05-22T14:00:22Z</time>
      </trkpt>
      <trkpt lat="44.33596" lon="3.5875">
        <ele>545.379</ele>
        <time>2018-05-22T14:00:20Z</time>
      </trkpt>
      <trkpt lat="44.33592" lon="3.58775">
        <ele>545.508</ele>
        <time>2018-05-22T14:00:18Z</time>
      </trkpt>
      <trkpt lat="44.33586" lon="3.58799">
        <ele>546.52</ele>
        <time>2018-05-22T14:00:16Z</time>
      </trkpt>
      <trkpt lat="44.33582" lon="3.58825">
        <ele>547.328</ele>
        <time>2018-05-22T14:00:14Z</time>
      </trkpt>
      <trkpt lat="44.33577" lon="3.58852">
        <ele>546.775</ele>
        <time>2018-05-22T14:00:12Z</time>
      </trkpt>
      <trkpt lat="44.33569" lon="3.58876">
        <ele>545.168</ele>
        <time>2018-05-22T14:00:10Z</time>
      </trkpt>
      <trkpt lat="44.33564" lon="3.589">
        <ele>545.532</ele>
        <time>2018-05-22T14:00:08Z</time>
      </trkpt>
      <trkpt lat="44.3356" lon="3.58926">
        <ele>547.538</ele>
        <time>2018-05-22T14:00:06Z</time>
      </trkpt>
      <trkpt lat="44.33559" lon="3.58954">
        <ele>548.235</ele>
        <time>2018-05-22T14:00:04Z</time>
      </trkpt>
      <trkpt lat="44.33558" lon="3.5898">
        <ele>546.186</ele>
        <time>2018-05-22T14:00:02Z</time>
      </trkpt>
      <trkpt lat="44.3356" lon="3.59018">
        <ele>546.61</ele>
        <time>2018-05-22T13:59:59Z</time>
      </trkpt>
      <trkpt lat="44.33561" lon="3.59045">
        <ele>547.341</ele>
        <time>2018-05-22T13:59:57Z</time>
      </trkpt>
      <trkpt lat="44.33564" lon="3.59077">
        <ele>548.128</ele>
        <time>2018-05-22T13:59:54Z</time>
      </trkpt>
      <trkpt lat="44.33567" lon="3.59106">
        <ele>551.108</ele>
        <time>2018-05-22T13:59:52Z</time>
      </trkpt>
      <trkpt lat="44.33568" lon="3.59134">
        <ele>551.416</ele>
        <time>2018-05-22T13:59:50Z</time>
      </trkpt>
      <trkpt lat="44.33569" lon="3.59163">
        <ele>551.306</ele>
        <time>2018-05-22T13:59:48Z</time>
      </trkpt>
      <trkpt lat="44.33571" lon="3.5919">
        <ele>551.364</ele>
        <time>2018-05-22T13:59:46Z</time>
      </trkpt>
      <trkpt lat="44.33573" lon="3.59217">
        <ele>552.59</ele>
        <time>2018-05-22T13:59:44Z</time>
      </trkpt>
      <trkpt lat="44.33581" lon="3.59253">
        <ele>554.384</ele>
        <time>2018-05-22T13:59:41Z</time>
      </trkpt>
      <trkpt lat="44.33589" lon="3.59276">
        <ele>555.31</ele>
        <time>2018-05-22T13:59:39Z</time>
      </trkpt>
      <trkpt lat="44.33599" lon="3.59309">
        <ele>557.737</ele>
        <time>2018-05-22T13:59:36Z</time>
      </trkpt>
      <trkpt lat="44.33607" lon="3.59332">
        <ele>560.598</ele>
        <time>2018-05-22T13:59:34Z</time>
      </trkpt>
      <trkpt lat="44.3362" lon="3.59364">
        <ele>561.522</ele>
        <time>2018-05-22T13:59:31Z</time>
      </trkpt>
      <trkpt lat="44.3363" lon="3.59399">
        <ele>563.563</ele>
        <time>2018-05-22T13:59:28Z</time>
      </trkpt>
      <trkpt lat="44.33633" lon="3.59427">
        <ele>565.38</ele>
        <time>2018-05-22T13:59:26Z</time>
      </trkpt>
      <trkpt lat="44.33643" lon="3.59464">
        <ele>567.508</ele>
        <time>2018-05-22T13:59:23Z</time>
      </trkpt>
      <trkpt lat="44.3365" lon="3.59487">
        <ele>569.317</ele>
        <time>2018-05-22T13:59:21Z</time>
      </trkpt>
      <trkpt lat="44.33655" lon="3.59513">
        <ele>568.743</ele>
        <time>2018-05-22T13:59:19Z</time>
      </trkpt>
      <trkpt lat="44.3366" lon="3.59538">
        <ele>571.482</ele>
        <time>2018-05-22T13:59:17Z</time>
      </trkpt>
      <trkpt lat="44.33668" lon="3.59562">
        <ele>571.293</ele>
        <time>2018-05-22T13:59:15Z</time>
      </trkpt>
      <trkpt lat="44.33678" lon="3.59583">
        <ele>569.917</ele>
        <time>2018-05-22T13:59:13Z</time>
      </trkpt>
      <trkpt lat="44.3369" lon="3.59603">
        <ele>568.193</ele>
        <time>2018-05-22T13:59:11Z</time>
      </trkpt>
      <trkpt lat="44.3371" lon="3.59626">
        <ele>568.25</ele>
        <time>2018-05-22T13:59:08Z</time>
      </trkpt>
      <trkpt lat="44.33733" lon="3.59645">
        <ele>565.341</ele>
        <time>2018-05-22T13:59:05Z</time>
      </trkpt>
      <trkpt lat="44.33748" lon="3.5966">
        <ele>565.365</ele>
        <time>2018-05-22T13:59:03Z</time>
      </trkpt>
      <trkpt lat="44.33763" lon="3.59675">
        <ele>566.846</ele>
        <time>2018-05-22T13:59:01Z</time>
      </trkpt>
      <trkpt lat="44.33783" lon="3.59686">
        <ele>564.233</ele>
        <time>2018-05-22T13:58:59Z</time>
      </trkpt>
      <trkpt lat="44.33804" lon="3.59689">
        <ele>563.308</ele>
        <time>2018-05-22T13:58:57Z</time>
      </trkpt>
      <trkpt lat="44.33827" lon="3.59692">
        <ele>564.111</ele>
        <time>2018-05-22T13:58:55Z</time>
      </trkpt>
      <trkpt lat="44.33852" lon="3.59694">
        <ele>564.065</ele>
        <time>2018-05-22T13:58:53Z</time>
      </trkpt>
      <trkpt lat="44.33876" lon="3.59697">
        <ele>566.115</ele>
        <time>2018-05-22T13:58:51Z</time>
      </trkpt>
      <trkpt lat="44.33901" lon="3.59701">
        <ele>566.684</ele>
        <time>2018-05-22T13:58:49Z</time>
      </trkpt>
      <trkpt lat="44.33926" lon="3.59704">
        <ele>569.428</ele>
        <time>2018-05-22T13:58:47Z</time>
      </trkpt>
      <trkpt lat="44.33951" lon="3.59706">
        <ele>568.634</ele>
        <time>2018-05-22T13:58:45Z</time>
      </trkpt>
      <trkpt lat="44.33976" lon="3.59703">
        <ele>572.131</ele>
        <time>2018-05-22T13:58:43Z</time>
      </trkpt>
      <trkpt lat="44.33999" lon="3.59702">
        <ele>571.552</ele>
        <time>2018-05-22T13:58:41Z</time>
      </trkpt>
      <trkpt lat="44.34023" lon="3.59701">
        <ele>572.646</ele>
        <time>2018-05-22T13:58:39Z</time>
      </trkpt>
      <trkpt lat="44.34041" lon="3.59697">
        <ele>576.967</ele>
        <time>2018-05-22T13:58:37Z</time>
      </trkpt>
      <trkpt lat="44.34063" lon="3.5969">
        <ele>574.744</ele>
        <time>2018-05-22T13:58:35Z</time>
      </trkpt>
      <trkpt lat="44.34085" lon="3.59683">
        <ele>576.508</ele>
        <time>2018-05-22T13:58:33Z</time>
      </trkpt>
      <trkpt lat="44.34106" lon="3.59674">
        <ele>578.714</ele>
        <time>2018-05-22T13:58:31Z</time>
      </trkpt>
      <trkpt lat="44.34128" lon="3.59664">
        <ele>581.368</ele>
        <time>2018-05-22T13:58:29Z</time>
      </trkpt>
      <trkpt lat="44.3415" lon="3.59653">
        <ele>582.527</ele>
        <time>2018-05-22T13:58:27Z</time>
      </trkpt>
      <trkpt lat="44.34173" lon="3.59639">
        <ele>584.591</ele>
        <time>2018-05-22T13:58:25Z</time>
      </trkpt>
      <trkpt lat="44.34194" lon="3.59625">
        <ele>586.365</ele>
        <time>2018-05-22T13:58:23Z</time>
      </trkpt>
      <trkpt lat="44.34213" lon="3.59607">
        <ele>587.571</ele>
        <time>2018-05-22T13:58:21Z</time>
      </trkpt>
      <trkpt lat="44.34233" lon="3.5959">
        <ele>589.338</ele>
        <time>2018-05-22T13:58:19Z</time>
      </trkpt>
      <trkpt lat="44.34252" lon="3.59574">
        <ele>590.569</ele>
        <time>2018-05-22T13:58:17Z</time>
      </trkpt>
      <trkpt lat="44.34272" lon="3.59561">
        <ele>592.513</ele>
        <time>2018-05-22T13:58:15Z</time>
      </trkpt>
      <trkpt lat="44.3429" lon="3.59557">
        <ele>593.124</ele>
        <time>2018-05-22T13:58:13Z</time>
      </trkpt>
      <trkpt lat="44.34307" lon="3.59566">
        <ele>593.341</ele>
        <time>2018-05-22T13:58:11Z</time>
      </trkpt>
      <trkpt lat="44.34318" lon="3.59587">
        <ele>593.408</ele>
        <time>2018-05-22T13:58:09Z</time>
      </trkpt>
      <trkpt lat="44.34322" lon="3.59617">
        <ele>593.023</ele>
        <time>2018-05-22T13:58:07Z</time>
      </trkpt>
      <trkpt lat="44.34325" lon="3.59649">
        <ele>590.749</ele>
        <time>2018-05-22T13:58:05Z</time>
      </trkpt>
      <trkpt lat="44.34327" lon="3.59681">
        <ele>588.395</ele>
        <time>2018-05-22T13:58:03Z</time>
      </trkpt>
      <trkpt lat="44.34333" lon="3.59712">
        <ele>588.245</ele>
        <time>2018-05-22T13:58:01Z</time>
      </trkpt>
      <trkpt lat="44.34341" lon="3.59744">
        <ele>585.999</ele>
        <time>2018-05-22T13:57:59Z</time>
      </trkpt>
      <trkpt lat="44.34346" lon="3.59775">
        <ele>584.345</ele>
        <time>2018-05-22T13:57:57Z</time>
      </trkpt>
      <trkpt lat="44.34349" lon="3.59807">
        <ele>583.432</ele>
        <time>2018-05-22T13:57:55Z</time>
      </trkpt>
      <trkpt lat="44.34353" lon="3.59841">
        <ele>583.373</ele>
        <time>2018-05-22T13:57:53Z</time>
      </trkpt>
      <trkpt lat="44.34356" lon="3.59875">
        <ele>583.287</ele>
        <time>2018-05-22T13:57:51Z</time>
      </trkpt>
      <trkpt lat="44.34361" lon="3.59906">
        <ele>582.178</ele>
        <time>2018-05-22T13:57:49Z</time>
      </trkpt>
      <trkpt lat="44.34369" lon="3.59931">
        <ele>581.115</ele>
        <time>2018-05-22T13:57:47Z</time>
      </trkpt>
      <trkpt lat="44.34373" lon="3.59958">
        <ele>581.208</ele>
        <time>2018-05-22T13:57:45Z</time>
      </trkpt>
      <trkpt lat="44.34373" lon="3.59985">
        <ele>580.113</ele>
        <time>2018-05-22T13:57:43Z</time>
      </trkpt>
      <trkpt lat="44.34372" lon="3.60013">
        <ele>579.049</ele>
        <time>2018-05-22T13:57:41Z</time>
      </trkpt>
      <trkpt lat="44.3437" lon="3.6004">
        <ele>577.037</ele>
        <time>2018-05-22T13:57:39Z</time>
      </trkpt>
      <trkpt lat="44.34368" lon="3.60068">
        <ele>575.237</ele>
        <time>2018-05-22T13:57:37Z</time>
      </trkpt>
      <trkpt lat="44.34354" lon="3.6009">
        <ele>574.121</ele>
        <time>2018-05-22T13:57:35Z</time>
      </trkpt>
      <trkpt lat="44.34341" lon="3.60114">
        <ele>573.127</ele>
        <time>2018-05-22T13:57:33Z</time>
      </trkpt>
      <trkpt lat="44.34336" lon="3.6014">
        <ele>572.064</ele>
        <time>2018-05-22T13:57:31Z</time>
      </trkpt>
      <trkpt lat="44.34331" lon="3.60168">
        <ele>570.015</ele>
        <time>2018-05-22T13:57:29Z</time>
      </trkpt>
      <trkpt lat="44.34327" lon="3.60195">
        <ele>568.019</ele>
        <time>2018-05-22T13:57:27Z</time>
      </trkpt>
      <trkpt lat="44.34323" lon="3.60221">
        <ele>566.36</ele>
        <time>2018-05-22T13:57:25Z</time>
      </trkpt>
      <trkpt lat="44.3432" lon="3.60248">
        <ele>566.217</ele>
        <time>2018-05-22T13:57:23Z</time>
      </trkpt>
      <trkpt lat="44.34324" lon="3.60273">
        <ele>565.308</ele>
        <time>2018-05-22T13:57:21Z</time>
      </trkpt>
      <trkpt lat="44.34328" lon="3.60299">
        <ele>565.323</ele>
        <time>2018-05-22T13:57:19Z</time>
      </trkpt>
      <trkpt lat="44.34336" lon="3.60335">
        <ele>565.503</ele>
        <time>2018-05-22T13:57:16Z</time>
      </trkpt>
      <trkpt lat="44.34342" lon="3.60361">
        <ele>566.159</ele>
        <time>2018-05-22T13:57:14Z</time>
      </trkpt>
      <trkpt lat="44.34349" lon="3.60387">
        <ele>565.126</ele>
        <time>2018-05-22T13:57:12Z</time>
      </trkpt>
      <trkpt lat="44.3436" lon="3.60422">
        <ele>564.35</ele>
        <time>2018-05-22T13:57:09Z</time>
      </trkpt>
      <trkpt lat="44.34368" lon="3.60457">
        <ele>564.396</ele>
        <time>2018-05-22T13:57:06Z</time>
      </trkpt>
      <trkpt lat="44.34378" lon="3.6049">
        <ele>564.133</ele>
        <time>2018-05-22T13:57:03Z</time>
      </trkpt>
      <trkpt lat="44.34391" lon="3.60518">
        <ele>565.484</ele>
        <time>2018-05-22T13:57:00Z</time>
      </trkpt>
      <trkpt lat="44.34404" lon="3.60544">
        <ele>567.858</ele>
        <time>2018-05-22T13:56:57Z</time>
      </trkpt>
      <trkpt lat="44.34415" lon="3.60565">
        <ele>563.519</ele>
        <time>2018-05-22T13:56:54Z</time>
      </trkpt>
      <trkpt lat="44.34427" lon="3.60589">
        <ele>567.336</ele>
        <time>2018-05-22T13:56:50Z</time>
      </trkpt>
      <trkpt lat="44.34427" lon="3.60619">
        <ele>569.308</ele>
        <time>2018-05-22T13:56:45Z</time>
      </trkpt>
      <trkpt lat="44.34427" lon="3.60647">
        <ele>570.315</ele>
        <time>2018-05-22T13:56:39Z</time>
      </trkpt>
      <trkpt lat="44.3443" lon="3.60675">
        <ele>573.505</ele>
        <time>2018-05-22T13:56:19Z</time>
      </trkpt>
      <trkpt lat="44.34434" lon="3.60701">
        <ele>574.344</ele>
        <time>2018-05-22T13:56:16Z</time>
      </trkpt>
      <trkpt lat="44.34439" lon="3.60728">
        <ele>574.359</ele>
        <time>2018-05-22T13:56:13Z</time>
      </trkpt>
      <trkpt lat="44.34445" lon="3.60757">
        <ele>574.593</ele>
        <time>2018-05-22T13:56:10Z</time>
      </trkpt>
      <trkpt lat="44.3445" lon="3.60782">
        <ele>576.339</ele>
        <time>2018-05-22T13:56:07Z</time>
      </trkpt>
      <trkpt lat="44.34458" lon="3.60813">
        <ele>576.556</ele>
        <time>2018-05-22T13:56:03Z</time>
      </trkpt>
      <trkpt lat="44.34458" lon="3.6084">
        <ele>576.237</ele>
        <time>2018-05-22T13:55:59Z</time>
      </trkpt>
      <trkpt lat="44.34451" lon="3.60864">
        <ele>574.361</ele>
        <time>2018-05-22T13:55:56Z</time>
      </trkpt>
      <trkpt lat="44.34449" lon="3.6089">
        <ele>574.532</ele>
        <time>2018-05-22T13:55:53Z</time>
      </trkpt>
      <trkpt lat="44.34447" lon="3.60922">
        <ele>574.329</ele>
        <time>2018-05-22T13:55:49Z</time>
      </trkpt>
      <trkpt lat="44.34446" lon="3.60953">
        <ele>573.008</ele>
        <time>2018-05-22T13:55:43Z</time>
      </trkpt>
      <trkpt lat="44.34443" lon="3.60979">
        <ele>568.314</ele>
        <time>2018-05-22T13:55:35Z</time>
      </trkpt>
      <trkpt lat="44.34453" lon="3.61004">
        <ele>567.313</ele>
        <time>2018-05-22T13:55:29Z</time>
      </trkpt>
      <trkpt lat="44.34469" lon="3.61023">
        <ele>567.372</ele>
        <time>2018-05-22T13:55:23Z</time>
      </trkpt>
      <trkpt lat="44.34483" lon="3.6104">
        <ele>567.511</ele>
        <time>2018-05-22T13:55:18Z</time>
      </trkpt>
      <trkpt lat="44.34499" lon="3.61058">
        <ele>569.195</ele>
        <time>2018-05-22T13:55:13Z</time>
      </trkpt>
      <trkpt lat="44.3451" lon="3.61083">
        <ele>569.521</ele>
        <time>2018-05-22T13:55:09Z</time>
      </trkpt>
      <trkpt lat="44.34511" lon="3.61108">
        <ele>571.358</ele>
        <time>2018-05-22T13:55:06Z</time>
      </trkpt>
      <trkpt lat="44.34508" lon="3.61138">
        <ele>571.129</ele>
        <time>2018-05-22T13:55:03Z</time>
      </trkpt>
      <trkpt lat="44.34504" lon="3.61167">
        <ele>572.393</ele>
        <time>2018-05-22T13:55:00Z</time>
      </trkpt>
      <trkpt lat="44.34501" lon="3.612">
        <ele>572.164</ele>
        <time>2018-05-22T13:54:57Z</time>
      </trkpt>
      <trkpt lat="44.34496" lon="3.61229">
        <ele>572.391</ele>
        <time>2018-05-22T13:54:54Z</time>
      </trkpt>
      <trkpt lat="44.34493" lon="3.61262">
        <ele>573.308</ele>
        <time>2018-05-22T13:54:51Z</time>
      </trkpt>
      <trkpt lat="44.34489" lon="3.61297">
        <ele>574.319</ele>
        <time>2018-05-22T13:54:48Z</time>
      </trkpt>
      <trkpt lat="44.34487" lon="3.61323">
        <ele>574.381</ele>
        <time>2018-05-22T13:54:46Z</time>
      </trkpt>
      <trkpt lat="44.34491" lon="3.6136">
        <ele>575.391</ele>
        <time>2018-05-22T13:54:43Z</time>
      </trkpt>
      <trkpt lat="44.34499" lon="3.61384">
        <ele>575.589</ele>
        <time>2018-05-22T13:54:41Z</time>
      </trkpt>
      <trkpt lat="44.34507" lon="3.61407">
        <ele>576.743</ele>
        <time>2018-05-22T13:54:39Z</time>
      </trkpt>
      <trkpt lat="44.34514" lon="3.61431">
        <ele>579.589</ele>
        <time>2018-05-22T13:54:37Z</time>
      </trkpt>
      <trkpt lat="44.34519" lon="3.61456">
        <ele>580.536</ele>
        <time>2018-05-22T13:54:35Z</time>
      </trkpt>
      <trkpt lat="44.34525" lon="3.61481">
        <ele>581.517</ele>
        <time>2018-05-22T13:54:33Z</time>
      </trkpt>
      <trkpt lat="44.3453" lon="3.61506">
        <ele>583.541</ele>
        <time>2018-05-22T13:54:31Z</time>
      </trkpt>
      <trkpt lat="44.34536" lon="3.61531">
        <ele>584.512</ele>
        <time>2018-05-22T13:54:29Z</time>
      </trkpt>
      <trkpt lat="44.34541" lon="3.61557">
        <ele>585.579</ele>
        <time>2018-05-22T13:54:27Z</time>
      </trkpt>
      <trkpt lat="44.34548" lon="3.6158">
        <ele>586.508</ele>
        <time>2018-05-22T13:54:25Z</time>
      </trkpt>
      <trkpt lat="44.34557" lon="3.61602">
        <ele>587.613</ele>
        <time>2018-05-22T13:54:23Z</time>
      </trkpt>
      <trkpt lat="44.34566" lon="3.61624">
        <ele>590.385</ele>
        <time>2018-05-22T13:54:21Z</time>
      </trkpt>
      <trkpt lat="44.34575" lon="3.61646">
        <ele>590.773</ele>
        <time>2018-05-22T13:54:19Z</time>
      </trkpt>
      <trkpt lat="44.34589" lon="3.61677">
        <ele>592.531</ele>
        <time>2018-05-22T13:54:16Z</time>
      </trkpt>
      <trkpt lat="44.34602" lon="3.61709">
        <ele>593.345</ele>
        <time>2018-05-22T13:54:13Z</time>
      </trkpt>
      <trkpt lat="44.34612" lon="3.61731">
        <ele>594.521</ele>
        <time>2018-05-22T13:54:11Z</time>
      </trkpt>
      <trkpt lat="44.34624" lon="3.61763">
        <ele>597.748</ele>
        <time>2018-05-22T13:54:08Z</time>
      </trkpt>
      <trkpt lat="44.34637" lon="3.61792">
        <ele>597.699</ele>
        <time>2018-05-22T13:54:05Z</time>
      </trkpt>
      <trkpt lat="44.34648" lon="3.61818">
        <ele>602.333</ele>
        <time>2018-05-22T13:54:02Z</time>
      </trkpt>
      <trkpt lat="44.34662" lon="3.61842">
        <ele>602.334</ele>
        <time>2018-05-22T13:53:59Z</time>
      </trkpt>
      <trkpt lat="44.34679" lon="3.61861">
        <ele>603.391</ele>
        <time>2018-05-22T13:53:56Z</time>
      </trkpt>
      <trkpt lat="44.34697" lon="3.61881">
        <ele>604.308</ele>
        <time>2018-05-22T13:53:53Z</time>
      </trkpt>
      <trkpt lat="44.34711" lon="3.61901">
        <ele>605.325</ele>
        <time>2018-05-22T13:53:50Z</time>
      </trkpt>
      <trkpt lat="44.34722" lon="3.61925">
        <ele>608.323</ele>
        <time>2018-05-22T13:53:47Z</time>
      </trkpt>
      <trkpt lat="44.34731" lon="3.61949">
        <ele>607.797</ele>
        <time>2018-05-22T13:53:44Z</time>
      </trkpt>
      <trkpt lat="44.34743" lon="3.61974">
        <ele>611.315</ele>
        <time>2018-05-22T13:53:41Z</time>
      </trkpt>
      <trkpt lat="44.34756" lon="3.61996">
        <ele>613.559</ele>
        <time>2018-05-22T13:53:38Z</time>
      </trkpt>
      <trkpt lat="44.34768" lon="3.62021">
        <ele>614.855</ele>
        <time>2018-05-22T13:53:35Z</time>
      </trkpt>
      <trkpt lat="44.34781" lon="3.62046">
        <ele>613.552</ele>
        <time>2018-05-22T13:53:32Z</time>
      </trkpt>
      <trkpt lat="44.34793" lon="3.6207">
        <ele>615.553</ele>
        <time>2018-05-22T13:53:29Z</time>
      </trkpt>
      <trkpt lat="44.34805" lon="3.62093">
        <ele>617.517</ele>
        <time>2018-05-22T13:53:26Z</time>
      </trkpt>
      <trkpt lat="44.34817" lon="3.62116">
        <ele>619.378</ele>
        <time>2018-05-22T13:53:23Z</time>
      </trkpt>
      <trkpt lat="44.34825" lon="3.62139">
        <ele>616.315</ele>
        <time>2018-05-22T13:53:20Z</time>
      </trkpt>
      <trkpt lat="44.34839" lon="3.62167">
        <ele>617.208</ele>
        <time>2018-05-22T13:53:16Z</time>
      </trkpt>
      <trkpt lat="44.34847" lon="3.62192">
        <ele>619.31</ele>
        <time>2018-05-22T13:53:13Z</time>
      </trkpt>
      <trkpt lat="44.34855" lon="3.62216">
        <ele>619.355</ele>
        <time>2018-05-22T13:53:10Z</time>
      </trkpt>
      <trkpt lat="44.34861" lon="3.62243">
        <ele>620.334</ele>
        <time>2018-05-22T13:53:07Z</time>
      </trkpt>
      <trkpt lat="44.34867" lon="3.6227">
        <ele>621.517</ele>
        <time>2018-05-22T13:53:04Z</time>
      </trkpt>
      <trkpt lat="44.34874" lon="3.62294">
        <ele>624.371</ele>
        <time>2018-05-22T13:53:01Z</time>
      </trkpt>
      <trkpt lat="44.34879" lon="3.62321">
        <ele>624.397</ele>
        <time>2018-05-22T13:52:58Z</time>
      </trkpt>
      <trkpt lat="44.34882" lon="3.62349">
        <ele>626.474</ele>
        <time>2018-05-22T13:52:55Z</time>
      </trkpt>
      <trkpt lat="44.34885" lon="3.62379">
        <ele>626.315</ele>
        <time>2018-05-22T13:52:52Z</time>
      </trkpt>
      <trkpt lat="44.34889" lon="3.62411">
        <ele>626.539</ele>
        <time>2018-05-22T13:52:49Z</time>
      </trkpt>
      <trkpt lat="44.34886" lon="3.6244">
        <ele>628.62</ele>
        <time>2018-05-22T13:52:46Z</time>
      </trkpt>
      <trkpt lat="44.34881" lon="3.62471">
        <ele>628.147</ele>
        <time>2018-05-22T13:52:43Z</time>
      </trkpt>
      <trkpt lat="44.34877" lon="3.625">
        <ele>627.408</ele>
        <time>2018-05-22T13:52:40Z</time>
      </trkpt>
      <trkpt lat="44.34876" lon="3.62527">
        <ele>629.317</ele>
        <time>2018-05-22T13:52:37Z</time>
      </trkpt>
      <trkpt lat="44.34881" lon="3.62551">
        <ele>629.207</ele>
        <time>2018-05-22T13:52:34Z</time>
      </trkpt>
      <trkpt lat="44.34888" lon="3.62578">
        <ele>628.355</ele>
        <time>2018-05-22T13:52:31Z</time>
      </trkpt>
      <trkpt lat="44.34892" lon="3.6261">
        <ele>628.393</ele>
        <time>2018-05-22T13:52:28Z</time>
      </trkpt>
      <trkpt lat="44.34893" lon="3.62636">
        <ele>629.257</ele>
        <time>2018-05-22T13:52:25Z</time>
      </trkpt>
      <trkpt lat="44.34909" lon="3.6266">
        <ele>626.053</ele>
        <time>2018-05-22T13:52:22Z</time>
      </trkpt>
      <trkpt lat="44.34909" lon="3.62688">
        <ele>626.58</ele>
        <time>2018-05-22T13:52:19Z</time>
      </trkpt>
      <trkpt lat="44.34902" lon="3.62716">
        <ele>626.561</ele>
        <time>2018-05-22T13:52:16Z</time>
      </trkpt>
      <trkpt lat="44.349" lon="3.62746">
        <ele>627.315</ele>
        <time>2018-05-22T13:52:13Z</time>
      </trkpt>
      <trkpt lat="44.34899" lon="3.62774">
        <ele>628.116</ele>
        <time>2018-05-22T13:52:10Z</time>
      </trkpt>
      <trkpt lat="44.34902" lon="3.628">
        <ele>626.113</ele>
        <time>2018-05-22T13:52:07Z</time>
      </trkpt>
      <trkpt lat="44.34915" lon="3.62824">
        <ele>624.308</ele>
        <time>2018-05-22T13:52:04Z</time>
      </trkpt>
      <trkpt lat="44.3493" lon="3.62849">
        <ele>624.011</ele>
        <time>2018-05-22T13:52:01Z</time>
      </trkpt>
      <trkpt lat="44.34932" lon="3.6288">
        <ele>620.465</ele>
        <time>2018-05-22T13:51:58Z</time>
      </trkpt>
      <trkpt lat="44.34935" lon="3.62913">
        <ele>620.515</ele>
        <time>2018-05-22T13:51:55Z</time>
      </trkpt>
      <trkpt lat="44.34933" lon="3.62944">
        <ele>621.219</ele>
        <time>2018-05-22T13:51:52Z</time>
      </trkpt>
      <trkpt lat="44.34931" lon="3.62979">
        <ele>619.983</ele>
        <time>2018-05-22T13:51:49Z</time>
      </trkpt>
      <trkpt lat="44.3493" lon="3.63014">
        <ele>617.039</ele>
        <time>2018-05-22T13:51:46Z</time>
      </trkpt>
      <trkpt lat="44.3493" lon="3.63046">
        <ele>613.386</ele>
        <time>2018-05-22T13:51:43Z</time>
      </trkpt>
      <trkpt lat="44.3493" lon="3.63076">
        <ele>612.587</ele>
        <time>2018-05-22T13:51:40Z</time>
      </trkpt>
      <trkpt lat="44.34938" lon="3.63103">
        <ele>613.191</ele>
        <time>2018-05-22T13:51:37Z</time>
      </trkpt>
      <trkpt lat="44.34955" lon="3.63116">
        <ele>610.292</ele>
        <time>2018-05-22T13:51:34Z</time>
      </trkpt>
      <trkpt lat="44.34973" lon="3.63128">
        <ele>608.029</ele>
        <time>2018-05-22T13:51:31Z</time>
      </trkpt>
      <trkpt lat="44.34994" lon="3.63129">
        <ele>604.008</ele>
        <time>2018-05-22T13:51:28Z</time>
      </trkpt>
      <trkpt lat="44.35014" lon="3.63127">
        <ele>602.314</ele>
        <time>2018-05-22T13:51:25Z</time>
      </trkpt>
      <trkpt lat="44.35033" lon="3.63118">
        <ele>602.213</ele>
        <time>2018-05-22T13:51:22Z</time>
      </trkpt>
      <trkpt lat="44.35052" lon="3.63107">
        <ele>603.572</ele>
        <time>2018-05-22T13:51:19Z</time>
      </trkpt>
      <trkpt lat="44.35068" lon="3.63092">
        <ele>605.319</ele>
        <time>2018-05-22T13:51:16Z</time>
      </trkpt>
      <trkpt lat="44.35088" lon="3.63073">
        <ele>606.373</ele>
        <time>2018-05-22T13:51:13Z</time>
      </trkpt>
      <trkpt lat="44.35102" lon="3.63055">
        <ele>606.389</ele>
        <time>2018-05-22T13:51:10Z</time>
      </trkpt>
      <trkpt lat="44.35118" lon="3.63035">
        <ele>606.516</ele>
        <time>2018-05-22T13:51:07Z</time>
      </trkpt>
      <trkpt lat="44.35135" lon="3.63015">
        <ele>607.737</ele>
        <time>2018-05-22T13:51:04Z</time>
      </trkpt>
      <trkpt lat="44.35153" lon="3.62998">
        <ele>609.021</ele>
        <time>2018-05-22T13:51:01Z</time>
      </trkpt>
      <trkpt lat="44.35171" lon="3.62987">
        <ele>607.362</ele>
        <time>2018-05-22T13:50:58Z</time>
      </trkpt>
      <trkpt lat="44.35192" lon="3.6298">
        <ele>605.599</ele>
        <time>2018-05-22T13:50:55Z</time>
      </trkpt>
      <trkpt lat="44.35216" lon="3.62976">
        <ele>607.508</ele>
        <time>2018-05-22T13:50:52Z</time>
      </trkpt>
      <trkpt lat="44.35241" lon="3.62973">
        <ele>609.314</ele>
        <time>2018-05-22T13:50:49Z</time>
      </trkpt>
      <trkpt lat="44.35265" lon="3.62974">
        <ele>609.313</ele>
        <time>2018-05-22T13:50:46Z</time>
      </trkpt>
      <trkpt lat="44.35288" lon="3.62982">
        <ele>609.372</ele>
        <time>2018-05-22T13:50:43Z</time>
      </trkpt>
      <trkpt lat="44.35307" lon="3.62993">
        <ele>609.376</ele>
        <time>2018-05-22T13:50:40Z</time>
      </trkpt>
      <trkpt lat="44.35327" lon="3.63">
        <ele>609.53</ele>
        <time>2018-05-22T13:50:37Z</time>
      </trkpt>
      <trkpt lat="44.35345" lon="3.62995">
        <ele>610.176</ele>
        <time>2018-05-22T13:50:34Z</time>
      </trkpt>
      <trkpt lat="44.35364" lon="3.62987">
        <ele>609.693</ele>
        <time>2018-05-22T13:50:31Z</time>
      </trkpt>
      <trkpt lat="44.3538" lon="3.63006">
        <ele>609.574</ele>
        <time>2018-05-22T13:50:27Z</time>
      </trkpt>
      <trkpt lat="44.35393" lon="3.63031">
        <ele>608.348</ele>
        <time>2018-05-22T13:50:23Z</time>
      </trkpt>
      <trkpt lat="44.35406" lon="3.63052">
        <ele>608.679</ele>
        <time>2018-05-22T13:50:20Z</time>
      </trkpt>
      <trkpt lat="44.35414" lon="3.63076">
        <ele>606.246</ele>
        <time>2018-05-22T13:50:17Z</time>
      </trkpt>
      <trkpt lat="44.35412" lon="3.63104">
        <ele>609.308</ele>
        <time>2018-05-22T13:49:55Z</time>
      </trkpt>
      <trkpt lat="44.35412" lon="3.63138">
        <ele>610.309</ele>
        <time>2018-05-22T13:49:52Z</time>
      </trkpt>
      <trkpt lat="44.35411" lon="3.63164">
        <ele>609.981</ele>
        <time>2018-05-22T13:49:50Z</time>
      </trkpt>
      <trkpt lat="44.35413" lon="3.63193">
        <ele>608.341</ele>
        <time>2018-05-22T13:49:48Z</time>
      </trkpt>
      <trkpt lat="44.35418" lon="3.63225">
        <ele>608.799</ele>
        <time>2018-05-22T13:49:46Z</time>
      </trkpt>
      <trkpt lat="44.35416" lon="3.6326">
        <ele>609.513</ele>
        <time>2018-05-22T13:49:44Z</time>
      </trkpt>
      <trkpt lat="44.35411" lon="3.63295">
        <ele>611.379</ele>
        <time>2018-05-22T13:49:42Z</time>
      </trkpt>
      <trkpt lat="44.35405" lon="3.63329">
        <ele>611.366</ele>
        <time>2018-05-22T13:49:40Z</time>
      </trkpt>
      <trkpt lat="44.35406" lon="3.63365">
        <ele>611.157</ele>
        <time>2018-05-22T13:49:38Z</time>
      </trkpt>
      <trkpt lat="44.35411" lon="3.63401">
        <ele>611.291</ele>
        <time>2018-05-22T13:49:36Z</time>
      </trkpt>
      <trkpt lat="44.35416" lon="3.63436">
        <ele>613.342</ele>
        <time>2018-05-22T13:49:34Z</time>
      </trkpt>
      <trkpt lat="44.35421" lon="3.63472">
        <ele>614.569</ele>
        <time>2018-05-22T13:49:32Z</time>
      </trkpt>
      <trkpt lat="44.35423" lon="3.63508">
        <ele>615.508</ele>
        <time>2018-05-22T13:49:30Z</time>
      </trkpt>
      <trkpt lat="44.35427" lon="3.63543">
        <ele>616.319</ele>
        <time>2018-05-22T13:49:28Z</time>
      </trkpt>
      <trkpt lat="44.3543" lon="3.63576">
        <ele>615.59</ele>
        <time>2018-05-22T13:49:26Z</time>
      </trkpt>
      <trkpt lat="44.35434" lon="3.63611">
        <ele>616.476</ele>
        <time>2018-05-22T13:49:24Z</time>
      </trkpt>
      <trkpt lat="44.35435" lon="3.63645">
        <ele>616.38</ele>
        <time>2018-05-22T13:49:22Z</time>
      </trkpt>
      <trkpt lat="44.35435" lon="3.63681">
        <ele>616.554</ele>
        <time>2018-05-22T13:49:20Z</time>
      </trkpt>
      <trkpt lat="44.35444" lon="3.63711">
        <ele>618.47</ele>
        <time>2018-05-22T13:49:18Z</time>
      </trkpt>
      <trkpt lat="44.35457" lon="3.63733">
        <ele>618.367</ele>
        <time>2018-05-22T13:49:16Z</time>
      </trkpt>
      <trkpt lat="44.35473" lon="3.63751">
        <ele>618.368</ele>
        <time>2018-05-22T13:49:14Z</time>
      </trkpt>
      <trkpt lat="44.35491" lon="3.63767">
        <ele>618.262</ele>
        <time>2018-05-22T13:49:12Z</time>
      </trkpt>
      <trkpt lat="44.35507" lon="3.63786">
        <ele>617.373</ele>
        <time>2018-05-22T13:49:10Z</time>
      </trkpt>
      <trkpt lat="44.35522" lon="3.63807">
        <ele>617.33</ele>
        <time>2018-05-22T13:49:08Z</time>
      </trkpt>
      <trkpt lat="44.35538" lon="3.63829">
        <ele>617.108</ele>
        <time>2018-05-22T13:49:06Z</time>
      </trkpt>
      <trkpt lat="44.35555" lon="3.63845">
        <ele>616.026</ele>
        <time>2018-05-22T13:49:04Z</time>
      </trkpt>
      <trkpt lat="44.35572" lon="3.63859">
        <ele>614.324</ele>
        <time>2018-05-22T13:49:02Z</time>
      </trkpt>
      <trkpt lat="44.35588" lon="3.63876">
        <ele>614.388</ele>
        <time>2018-05-22T13:49:00Z</time>
      </trkpt>
      <trkpt lat="44.35601" lon="3.63895">
        <ele>613.968</ele>
        <time>2018-05-22T13:48:58Z</time>
      </trkpt>
      <trkpt lat="44.35612" lon="3.63917">
        <ele>613.122</ele>
        <time>2018-05-22T13:48:56Z</time>
      </trkpt>
      <trkpt lat="44.35618" lon="3.63943">
        <ele>611.578</ele>
        <time>2018-05-22T13:48:54Z</time>
      </trkpt>
      <trkpt lat="44.35625" lon="3.63968">
        <ele>612.245</ele>
        <time>2018-05-22T13:48:52Z</time>
      </trkpt>
      <trkpt lat="44.35635" lon="3.63993">
        <ele>609.776</ele>
        <time>2018-05-22T13:48:50Z</time>
      </trkpt>
      <trkpt lat="44.35643" lon="3.64018">
        <ele>607.11</ele>
        <time>2018-05-22T13:48:48Z</time>
      </trkpt>
      <trkpt lat="44.35647" lon="3.64046">
        <ele>606.551</ele>
        <time>2018-05-22T13:48:46Z</time>
      </trkpt>
      <trkpt lat="44.35657" lon="3.6407">
        <ele>607.138</ele>
        <time>2018-05-22T13:48:44Z</time>
      </trkpt>
      <trkpt lat="44.35667" lon="3.64092">
        <ele>609.408</ele>
        <time>2018-05-22T13:48:42Z</time>
      </trkpt>
      <trkpt lat="44.35685" lon="3.64122">
        <ele>612.313</ele>
        <time>2018-05-22T13:48:39Z</time>
      </trkpt>
      <trkpt lat="44.35703" lon="3.64139">
        <ele>612.121</ele>
        <time>2018-05-22T13:48:36Z</time>
      </trkpt>
      <trkpt lat="44.35722" lon="3.6415">
        <ele>613.261</ele>
        <time>2018-05-22T13:48:33Z</time>
      </trkpt>
      <trkpt lat="44.35743" lon="3.64153">
        <ele>611.483</ele>
        <time>2018-05-22T13:48:11Z</time>
      </trkpt>
      <trkpt lat="44.35763" lon="3.64158">
        <ele>612.337</ele>
        <time>2018-05-22T13:48:07Z</time>
      </trkpt>
      <trkpt lat="44.35788" lon="3.64166">
        <ele>613.323</ele>
        <time>2018-05-22T13:48:04Z</time>
      </trkpt>
      <trkpt lat="44.35808" lon="3.64188">
        <ele>615.49</ele>
        <time>2018-05-22T13:48:01Z</time>
      </trkpt>
      <trkpt lat="44.35825" lon="3.64215">
        <ele>615.371</ele>
        <time>2018-05-22T13:47:58Z</time>
      </trkpt>
      <trkpt lat="44.35839" lon="3.6424">
        <ele>615.515</ele>
        <time>2018-05-22T13:47:55Z</time>
      </trkpt>
      <trkpt lat="44.35837" lon="3.64266">
        <ele>616.156</ele>
        <time>2018-05-22T13:47:52Z</time>
      </trkpt>
      <trkpt lat="44.35821" lon="3.64289">
        <ele>615.583</ele>
        <time>2018-05-22T13:47:48Z</time>
      </trkpt>
      <trkpt lat="44.35802" lon="3.64294">
        <ele>617.508</ele>
        <time>2018-05-22T13:47:45Z</time>
      </trkpt>
      <trkpt lat="44.35783" lon="3.64285">
        <ele>621.317</ele>
        <time>2018-05-22T13:47:42Z</time>
      </trkpt>
      <trkpt lat="44.35763" lon="3.64276">
        <ele>621.998</ele>
        <time>2018-05-22T13:47:39Z</time>
      </trkpt>
      <trkpt lat="44.35747" lon="3.64266">
        <ele>621.418</ele>
        <time>2018-05-22T13:47:36Z</time>
      </trkpt>
      <trkpt lat="44.35725" lon="3.64259">
        <ele>621.517</ele>
        <time>2018-05-22T13:47:32Z</time>
      </trkpt>
      <trkpt lat="44.35706" lon="3.64257">
        <ele>621.311</ele>
        <time>2018-05-22T13:47:29Z</time>
      </trkpt>
      <trkpt lat="44.35684" lon="3.64251">
        <ele>622.367</ele>
        <time>2018-05-22T13:47:25Z</time>
      </trkpt>
      <trkpt lat="44.35663" lon="3.64242">
        <ele>624.344</ele>
        <time>2018-05-22T13:47:21Z</time>
      </trkpt>
      <trkpt lat="44.35644" lon="3.64224">
        <ele>624.585</ele>
        <time>2018-05-22T13:47:04Z</time>
      </trkpt>
      <trkpt lat="44.35631" lon="3.64205">
        <ele>622.319</ele>
        <time>2018-05-22T13:46:40Z</time>
      </trkpt>
      <trkpt lat="44.35637" lon="3.64208">
        <ele>632.37</ele>
        <time>2018-05-22T13:34:03Z</time>
      </trkpt>
      <trkpt lat="44.35647" lon="3.6423">
        <ele>634.517</ele>
        <time>2018-05-22T13:33:32Z</time>
      </trkpt>
      <trkpt lat="44.35666" lon="3.64237">
        <ele>631.208</ele>
        <time>2018-05-22T13:32:47Z</time>
      </trkpt>
      <trkpt lat="44.35687" lon="3.64249">
        <ele>628.023</ele>
        <time>2018-05-22T13:32:42Z</time>
      </trkpt>
      <trkpt lat="44.35705" lon="3.64254">
        <ele>626.203</ele>
        <time>2018-05-22T13:32:38Z</time>
      </trkpt>
      <trkpt lat="44.35725" lon="3.64255">
        <ele>625.259</ele>
        <time>2018-05-22T13:32:34Z</time>
      </trkpt>
      <trkpt lat="44.35744" lon="3.64262">
        <ele>624.269</ele>
        <time>2018-05-22T13:32:31Z</time>
      </trkpt>
      <trkpt lat="44.35765" lon="3.64272">
        <ele>622.323</ele>
        <time>2018-05-22T13:32:27Z</time>
      </trkpt>
      <trkpt lat="44.35784" lon="3.64283">
        <ele>621.469</ele>
        <time>2018-05-22T13:32:23Z</time>
      </trkpt>
      <trkpt lat="44.35804" lon="3.64289">
        <ele>621.316</ele>
        <time>2018-05-22T13:32:19Z</time>
      </trkpt>
      <trkpt lat="44.35823" lon="3.6428">
        <ele>621.347</ele>
        <time>2018-05-22T13:32:15Z</time>
      </trkpt>
      <trkpt lat="44.3584" lon="3.64267">
        <ele>624.191</ele>
        <time>2018-05-22T13:28:40Z</time>
      </trkpt>
      <trkpt lat="44.35851" lon="3.64289">
        <ele>626.552</ele>
        <time>2018-05-22T13:28:34Z</time>
      </trkpt>
      <trkpt lat="44.35859" lon="3.64316">
        <ele>627.329</ele>
        <time>2018-05-22T13:28:30Z</time>
      </trkpt>
      <trkpt lat="44.35868" lon="3.64344">
        <ele>629.508</ele>
        <time>2018-05-22T13:28:27Z</time>
      </trkpt>
      <trkpt lat="44.35881" lon="3.64366">
        <ele>631.125</ele>
        <time>2018-05-22T13:28:24Z</time>
      </trkpt>
      <trkpt lat="44.35894" lon="3.64392">
        <ele>631.405</ele>
        <time>2018-05-22T13:28:21Z</time>
      </trkpt>
      <trkpt lat="44.3591" lon="3.64414">
        <ele>632.979</ele>
        <time>2018-05-22T13:28:18Z</time>
      </trkpt>
      <trkpt lat="44.35923" lon="3.6444">
        <ele>632.525</ele>
        <time>2018-05-22T13:28:15Z</time>
      </trkpt>
      <trkpt lat="44.3593" lon="3.64471">
        <ele>634.569</ele>
        <time>2018-05-22T13:28:12Z</time>
      </trkpt>
      <trkpt lat="44.35932" lon="3.64501">
        <ele>635.595</ele>
        <time>2018-05-22T13:28:09Z</time>
      </trkpt>
      <trkpt lat="44.35935" lon="3.64527">
        <ele>638.382</ele>
        <time>2018-05-22T13:28:06Z</time>
      </trkpt>
      <trkpt lat="44.35944" lon="3.6455">
        <ele>639.363</ele>
        <time>2018-05-22T13:28:02Z</time>
      </trkpt>
      <trkpt lat="44.35962" lon="3.64564">
        <ele>640.377</ele>
        <time>2018-05-22T13:27:59Z</time>
      </trkpt>
      <trkpt lat="44.35983" lon="3.6458">
        <ele>641.568</ele>
        <time>2018-05-22T13:27:56Z</time>
      </trkpt>
      <trkpt lat="44.35998" lon="3.64602">
        <ele>642.365</ele>
        <time>2018-05-22T13:27:53Z</time>
      </trkpt>
      <trkpt lat="44.36006" lon="3.64632">
        <ele>643.408</ele>
        <time>2018-05-22T13:27:50Z</time>
      </trkpt>
      <trkpt lat="44.36014" lon="3.64663">
        <ele>646.521</ele>
        <time>2018-05-22T13:27:47Z</time>
      </trkpt>
      <trkpt lat="44.3603" lon="3.64689">
        <ele>648.501</ele>
        <time>2018-05-22T13:27:44Z</time>
      </trkpt>
      <trkpt lat="44.36047" lon="3.64705">
        <ele>649.339</ele>
        <time>2018-05-22T13:27:41Z</time>
      </trkpt>
      <trkpt lat="44.36061" lon="3.64725">
        <ele>650.78</ele>
        <time>2018-05-22T13:27:38Z</time>
      </trkpt>
      <trkpt lat="44.36075" lon="3.64748">
        <ele>656.344</ele>
        <time>2018-05-22T13:27:34Z</time>
      </trkpt>
      <trkpt lat="44.36086" lon="3.64776">
        <ele>656.34</ele>
        <time>2018-05-22T13:27:30Z</time>
      </trkpt>
      <trkpt lat="44.36098" lon="3.64806">
        <ele>657.517</ele>
        <time>2018-05-22T13:27:27Z</time>
      </trkpt>
      <trkpt lat="44.36107" lon="3.64834">
        <ele>660.728</ele>
        <time>2018-05-22T13:27:24Z</time>
      </trkpt>
      <trkpt lat="44.36115" lon="3.64857">
        <ele>663.192</ele>
        <time>2018-05-22T13:27:21Z</time>
      </trkpt>
      <trkpt lat="44.36134" lon="3.64868">
        <ele>663.553</ele>
        <time>2018-05-22T13:27:17Z</time>
      </trkpt>
      <trkpt lat="44.36157" lon="3.64875">
        <ele>665.12</ele>
        <time>2018-05-22T13:27:14Z</time>
      </trkpt>
      <trkpt lat="44.36164" lon="3.64904">
        <ele>666.508</ele>
        <time>2018-05-22T13:27:11Z</time>
      </trkpt>
      <trkpt lat="44.36161" lon="3.64936">
        <ele>666.326</ele>
        <time>2018-05-22T13:27:08Z</time>
      </trkpt>
      <trkpt lat="44.3616" lon="3.64969">
        <ele>667.324</ele>
        <time>2018-05-22T13:27:05Z</time>
      </trkpt>
      <trkpt lat="44.36158" lon="3.65002">
        <ele>668.788</ele>
        <time>2018-05-22T13:27:02Z</time>
      </trkpt>
      <trkpt lat="44.3616" lon="3.65035">
        <ele>670.62</ele>
        <time>2018-05-22T13:26:59Z</time>
      </trkpt>
      <trkpt lat="44.36178" lon="3.65057">
        <ele>674.194</ele>
        <time>2018-05-22T13:26:56Z</time>
      </trkpt>
      <trkpt lat="44.36203" lon="3.6507">
        <ele>675.51</ele>
        <time>2018-05-22T13:26:53Z</time>
      </trkpt>
      <trkpt lat="44.36225" lon="3.65083">
        <ele>678.137</ele>
        <time>2018-05-22T13:26:50Z</time>
      </trkpt>
      <trkpt lat="44.36245" lon="3.65105">
        <ele>678.338</ele>
        <time>2018-05-22T13:26:47Z</time>
      </trkpt>
      <trkpt lat="44.36267" lon="3.6512">
        <ele>680.392</ele>
        <time>2018-05-22T13:26:44Z</time>
      </trkpt>
      <trkpt lat="44.36291" lon="3.65118">
        <ele>681.113</ele>
        <time>2018-05-22T13:26:41Z</time>
      </trkpt>
      <trkpt lat="44.36315" lon="3.65112">
        <ele>682.58</ele>
        <time>2018-05-22T13:26:38Z</time>
      </trkpt>
      <trkpt lat="44.36337" lon="3.65106">
        <ele>685.308</ele>
        <time>2018-05-22T13:26:35Z</time>
      </trkpt>
      <trkpt lat="44.3636" lon="3.65118">
        <ele>684.326</ele>
        <time>2018-05-22T13:26:32Z</time>
      </trkpt>
      <trkpt lat="44.3638" lon="3.65133">
        <ele>684.524</ele>
        <time>2018-05-22T13:26:29Z</time>
      </trkpt>
      <trkpt lat="44.36406" lon="3.65131">
        <ele>686.388</ele>
        <time>2018-05-22T13:26:26Z</time>
      </trkpt>
      <trkpt lat="44.36428" lon="3.65115">
        <ele>688.533</ele>
        <time>2018-05-22T13:26:23Z</time>
      </trkpt>
      <trkpt lat="44.3645" lon="3.65102">
        <ele>690.777</ele>
        <time>2018-05-22T13:26:20Z</time>
      </trkpt>
      <trkpt lat="44.36474" lon="3.65104">
        <ele>692.343</ele>
        <time>2018-05-22T13:26:17Z</time>
      </trkpt>
      <trkpt lat="44.36499" lon="3.65111">
        <ele>692.58</ele>
        <time>2018-05-22T13:26:14Z</time>
      </trkpt>
      <trkpt lat="44.36513" lon="3.65139">
        <ele>695.551</ele>
        <time>2018-05-22T13:26:11Z</time>
      </trkpt>
      <trkpt lat="44.36524" lon="3.65168">
        <ele>697.335</ele>
        <time>2018-05-22T13:26:08Z</time>
      </trkpt>
      <trkpt lat="44.36546" lon="3.65163">
        <ele>699.196</ele>
        <time>2018-05-22T13:26:05Z</time>
      </trkpt>
      <trkpt lat="44.36568" lon="3.65155">
        <ele>699.383</ele>
        <time>2018-05-22T13:26:02Z</time>
      </trkpt>
      <trkpt lat="44.3659" lon="3.6516">
        <ele>700.108</ele>
        <time>2018-05-22T13:25:59Z</time>
      </trkpt>
      <trkpt lat="44.36614" lon="3.65165">
        <ele>700.413</ele>
        <time>2018-05-22T13:25:56Z</time>
      </trkpt>
      <trkpt lat="44.36636" lon="3.65155">
        <ele>703.576</ele>
        <time>2018-05-22T13:25:53Z</time>
      </trkpt>
      <trkpt lat="44.36659" lon="3.65145">
        <ele>706.616</ele>
        <time>2018-05-22T13:25:50Z</time>
      </trkpt>
      <trkpt lat="44.36684" lon="3.65145">
        <ele>711.326</ele>
        <time>2018-05-22T13:25:47Z</time>
      </trkpt>
      <trkpt lat="44.36706" lon="3.65143">
        <ele>711.31</ele>
        <time>2018-05-22T13:25:44Z</time>
      </trkpt>
      <trkpt lat="44.36725" lon="3.65142">
        <ele>712.186</ele>
        <time>2018-05-22T13:25:41Z</time>
      </trkpt>
      <trkpt lat="44.36744" lon="3.65142">
        <ele>711.323</ele>
        <time>2018-05-22T13:25:38Z</time>
      </trkpt>
      <trkpt lat="44.36766" lon="3.6514">
        <ele>711.384</ele>
        <time>2018-05-22T13:25:34Z</time>
      </trkpt>
      <trkpt lat="44.36786" lon="3.65131">
        <ele>713.778</ele>
        <time>2018-05-22T13:25:30Z</time>
      </trkpt>
      <trkpt lat="44.36806" lon="3.6512">
        <ele>718.739</ele>
        <time>2018-05-22T13:25:27Z</time>
      </trkpt>
      <trkpt lat="44.3683" lon="3.65111">
        <ele>720.346</ele>
        <time>2018-05-22T13:25:24Z</time>
      </trkpt>
      <trkpt lat="44.36855" lon="3.65104">
        <ele>720.008</ele>
        <time>2018-05-22T13:25:21Z</time>
      </trkpt>
      <trkpt lat="44.36873" lon="3.65126">
        <ele>718.31</ele>
        <time>2018-05-22T13:25:18Z</time>
      </trkpt>
      <trkpt lat="44.36882" lon="3.65159">
        <ele>720.464</ele>
        <time>2018-05-22T13:25:15Z</time>
      </trkpt>
      <trkpt lat="44.36895" lon="3.65189">
        <ele>724.343</ele>
        <time>2018-05-22T13:25:12Z</time>
      </trkpt>
      <trkpt lat="44.36913" lon="3.65205">
        <ele>725.329</ele>
        <time>2018-05-22T13:25:09Z</time>
      </trkpt>
      <trkpt lat="44.36932" lon="3.65221">
        <ele>725.463</ele>
        <time>2018-05-22T13:25:06Z</time>
      </trkpt>
      <trkpt lat="44.36946" lon="3.65243">
        <ele>729.679</ele>
        <time>2018-05-22T13:25:03Z</time>
      </trkpt>
      <trkpt lat="44.36953" lon="3.65272">
        <ele>734.326</ele>
        <time>2018-05-22T13:25:00Z</time>
      </trkpt>
      <trkpt lat="44.36966" lon="3.65297">
        <ele>734.337</ele>
        <time>2018-05-22T13:24:57Z</time>
      </trkpt>
      <trkpt lat="44.36988" lon="3.65298">
        <ele>736.311</ele>
        <time>2018-05-22T13:24:54Z</time>
      </trkpt>
      <trkpt lat="44.3701" lon="3.65291">
        <ele>736.372</ele>
        <time>2018-05-22T13:24:51Z</time>
      </trkpt>
      <trkpt lat="44.37036" lon="3.65286">
        <ele>738.579</ele>
        <time>2018-05-22T13:24:48Z</time>
      </trkpt>
      <trkpt lat="44.3706" lon="3.65276">
        <ele>741.308</ele>
        <time>2018-05-22T13:24:45Z</time>
      </trkpt>
      <trkpt lat="44.37086" lon="3.65272">
        <ele>742.514</ele>
        <time>2018-05-22T13:24:42Z</time>
      </trkpt>
      <trkpt lat="44.37104" lon="3.6527">
        <ele>744.113</ele>
        <time>2018-05-22T13:24:40Z</time>
      </trkpt>
      <trkpt lat="44.37131" lon="3.65279">
        <ele>743.572</ele>
        <time>2018-05-22T13:24:37Z</time>
      </trkpt>
      <trkpt lat="44.37149" lon="3.65283">
        <ele>745.317</ele>
        <time>2018-05-22T13:24:35Z</time>
      </trkpt>
      <trkpt lat="44.37167" lon="3.6528">
        <ele>746.331</ele>
        <time>2018-05-22T13:24:33Z</time>
      </trkpt>
      <trkpt lat="44.37185" lon="3.65278">
        <ele>747.317</ele>
        <time>2018-05-22T13:24:31Z</time>
      </trkpt>
      <trkpt lat="44.3721" lon="3.65287">
        <ele>748.794</ele>
        <time>2018-05-22T13:24:28Z</time>
      </trkpt>
      <trkpt lat="44.37235" lon="3.65297">
        <ele>751.525</ele>
        <time>2018-05-22T13:24:25Z</time>
      </trkpt>
      <trkpt lat="44.3726" lon="3.653">
        <ele>753.169</ele>
        <time>2018-05-22T13:24:22Z</time>
      </trkpt>
      <trkpt lat="44.37286" lon="3.653">
        <ele>754.14</ele>
        <time>2018-05-22T13:24:19Z</time>
      </trkpt>
      <trkpt lat="44.37311" lon="3.65295">
        <ele>754.387</ele>
        <time>2018-05-22T13:24:16Z</time>
      </trkpt>
      <trkpt lat="44.37329" lon="3.6529">
        <ele>754.308</ele>
        <time>2018-05-22T13:24:14Z</time>
      </trkpt>
      <trkpt lat="44.37354" lon="3.6529">
        <ele>754.311</ele>
        <time>2018-05-22T13:24:11Z</time>
      </trkpt>
      <trkpt lat="44.3738" lon="3.65293">
        <ele>755.556</ele>
        <time>2018-05-22T13:24:08Z</time>
      </trkpt>
      <trkpt lat="44.37402" lon="3.65294">
        <ele>756.554</ele>
        <time>2018-05-22T13:24:05Z</time>
      </trkpt>
      <trkpt lat="44.37424" lon="3.65287">
        <ele>757.554</ele>
        <time>2018-05-22T13:24:02Z</time>
      </trkpt>
      <trkpt lat="44.37443" lon="3.65275">
        <ele>760.758</ele>
        <time>2018-05-22T13:23:59Z</time>
      </trkpt>
      <trkpt lat="44.37461" lon="3.65263">
        <ele>763.384</ele>
        <time>2018-05-22T13:23:56Z</time>
      </trkpt>
      <trkpt lat="44.37481" lon="3.65264">
        <ele>762.241</ele>
        <time>2018-05-22T13:23:53Z</time>
      </trkpt>
      <trkpt lat="44.37502" lon="3.65269">
        <ele>761.682</ele>
        <time>2018-05-22T13:23:50Z</time>
      </trkpt>
      <trkpt lat="44.37525" lon="3.6528">
        <ele>761.296</ele>
        <time>2018-05-22T13:23:47Z</time>
      </trkpt>
      <trkpt lat="44.37543" lon="3.65289">
        <ele>760.117</ele>
        <time>2018-05-22T13:23:44Z</time>
      </trkpt>
      <trkpt lat="44.37564" lon="3.65304">
        <ele>760.084</ele>
        <time>2018-05-22T13:23:39Z</time>
      </trkpt>
      <trkpt lat="44.37582" lon="3.65316">
        <ele>758.208</ele>
        <time>2018-05-22T13:23:35Z</time>
      </trkpt>
      <trkpt lat="44.37601" lon="3.65329">
        <ele>756.311</ele>
        <time>2018-05-22T13:23:30Z</time>
      </trkpt>
      <trkpt lat="44.37622" lon="3.65343">
        <ele>754.383</ele>
        <time>2018-05-22T13:23:25Z</time>
      </trkpt>
      <trkpt lat="44.37636" lon="3.65358">
        <ele>756.323</ele>
        <time>2018-05-22T13:23:22Z</time>
      </trkpt>
      <trkpt lat="44.37644" lon="3.65381">
        <ele>759.348</ele>
        <time>2018-05-22T13:23:17Z</time>
      </trkpt>
      <trkpt lat="44.37646" lon="3.65411">
        <ele>761.352</ele>
        <time>2018-05-22T13:23:11Z</time>
      </trkpt>
      <trkpt lat="44.37659" lon="3.65428">
        <ele>759.348</ele>
        <time>2018-05-22T13:22:20Z</time>
      </trkpt>
      <trkpt lat="44.37655" lon="3.65453">
        <ele>759.385</ele>
        <time>2018-05-22T13:22:11Z</time>
      </trkpt>
      <trkpt lat="44.37657" lon="3.65479">
        <ele>764.386</ele>
        <time>2018-05-22T13:22:01Z</time>
      </trkpt>
      <trkpt lat="44.37654" lon="3.65504">
        <ele>766.29</ele>
        <time>2018-05-22T13:21:41Z</time>
      </trkpt>
      <trkpt lat="44.37647" lon="3.6553">
        <ele>765.381</ele>
        <time>2018-05-22T13:21:33Z</time>
      </trkpt>
      <trkpt lat="44.37633" lon="3.65549">
        <ele>765.338</ele>
        <time>2018-05-22T13:21:25Z</time>
      </trkpt>
      <trkpt lat="44.37615" lon="3.65561">
        <ele>768.308</ele>
        <time>2018-05-22T13:21:18Z</time>
      </trkpt>
      <trkpt lat="44.376" lon="3.65574">
        <ele>767.819</ele>
        <time>2018-05-22T13:21:12Z</time>
      </trkpt>
      <trkpt lat="44.37582" lon="3.65586">
        <ele>763.381</ele>
        <time>2018-05-22T13:21:06Z</time>
      </trkpt>
      <trkpt lat="44.37565" lon="3.65599">
        <ele>765.867</ele>
        <time>2018-05-22T13:21:00Z</time>
      </trkpt>
      <trkpt lat="44.37551" lon="3.65621">
        <ele>764.127</ele>
        <time>2018-05-22T13:20:54Z</time>
      </trkpt>
      <trkpt lat="44.37541" lon="3.65644">
        <ele>762.291</ele>
        <time>2018-05-22T13:20:48Z</time>
      </trkpt>
      <trkpt lat="44.37521" lon="3.65647">
        <ele>763.557</ele>
        <time>2018-05-22T13:20:41Z</time>
      </trkpt>
      <trkpt lat="44.37502" lon="3.65655">
        <ele>765.264</ele>
        <time>2018-05-22T13:20:31Z</time>
      </trkpt>
      <trkpt lat="44.37487" lon="3.65671">
        <ele>764.695</ele>
        <time>2018-05-22T13:20:24Z</time>
      </trkpt>
      <trkpt lat="44.37477" lon="3.65693">
        <ele>766.519</ele>
        <time>2018-05-22T13:20:19Z</time>
      </trkpt>
      <trkpt lat="44.37468" lon="3.6572">
        <ele>768.45</ele>
        <time>2018-05-22T13:20:13Z</time>
      </trkpt>
      <trkpt lat="44.37468" lon="3.65747">
        <ele>771.337</ele>
        <time>2018-05-22T13:19:53Z</time>
      </trkpt>
      <trkpt lat="44.37481" lon="3.65727">
        <ele>773.408</ele>
        <time>2018-05-22T13:19:47Z</time>
      </trkpt>
      <trkpt lat="44.37493" lon="3.65707">
        <ele>774.311</ele>
        <time>2018-05-22T13:19:43Z</time>
      </trkpt>
      <trkpt lat="44.37513" lon="3.65699">
        <ele>773.401</ele>
        <time>2018-05-22T13:19:36Z</time>
      </trkpt>
      <trkpt lat="44.37531" lon="3.65704">
        <ele>773.451</ele>
        <time>2018-05-22T13:19:31Z</time>
      </trkpt>
      <trkpt lat="44.37544" lon="3.65723">
        <ele>779.598</ele>
        <time>2018-05-22T13:19:23Z</time>
      </trkpt>
      <trkpt lat="44.37528" lon="3.65735">
        <ele>785.552</ele>
        <time>2018-05-22T13:19:18Z</time>
      </trkpt>
      <trkpt lat="44.37519" lon="3.65758">
        <ele>789.588</ele>
        <time>2018-05-22T13:19:11Z</time>
      </trkpt>
      <trkpt lat="44.37509" lon="3.65782">
        <ele>790.555</ele>
        <time>2018-05-22T13:19:06Z</time>
      </trkpt>
      <trkpt lat="44.37506" lon="3.65811">
        <ele>796.116</ele>
        <time>2018-05-22T13:18:55Z</time>
      </trkpt>
      <trkpt lat="44.37523" lon="3.65794">
        <ele>795.45</ele>
        <time>2018-05-22T13:18:47Z</time>
      </trkpt>
      <trkpt lat="44.37544" lon="3.65792">
        <ele>801.321</ele>
        <time>2018-05-22T13:18:23Z</time>
      </trkpt>
      <trkpt lat="44.37528" lon="3.6581">
        <ele>803.578</ele>
        <time>2018-05-22T13:18:17Z</time>
      </trkpt>
      <trkpt lat="44.37516" lon="3.65832">
        <ele>805.508</ele>
        <time>2018-05-22T13:18:12Z</time>
      </trkpt>
      <trkpt lat="44.375" lon="3.65854">
        <ele>806.311</ele>
        <time>2018-05-22T13:18:08Z</time>
      </trkpt>
      <trkpt lat="44.37483" lon="3.65872">
        <ele>807.183</ele>
        <time>2018-05-22T13:18:05Z</time>
      </trkpt>
      <trkpt lat="44.37467" lon="3.65889">
        <ele>807.562</ele>
        <time>2018-05-22T13:18:02Z</time>
      </trkpt>
      <trkpt lat="44.37451" lon="3.65904">
        <ele>809.361</ele>
        <time>2018-05-22T13:17:59Z</time>
      </trkpt>
      <trkpt lat="44.37435" lon="3.65923">
        <ele>809.565</ele>
        <time>2018-05-22T13:17:55Z</time>
      </trkpt>
      <trkpt lat="44.37425" lon="3.65946">
        <ele>811.521</ele>
        <time>2018-05-22T13:17:51Z</time>
      </trkpt>
      <trkpt lat="44.37438" lon="3.65968">
        <ele>812.398</ele>
        <time>2018-05-22T13:17:47Z</time>
      </trkpt>
      <trkpt lat="44.3746" lon="3.65975">
        <ele>812.559</ele>
        <time>2018-05-22T13:17:44Z</time>
      </trkpt>
      <trkpt lat="44.37483" lon="3.65969">
        <ele>814.313</ele>
        <time>2018-05-22T13:17:41Z</time>
      </trkpt>
      <trkpt lat="44.37505" lon="3.65958">
        <ele>817.324</ele>
        <time>2018-05-22T13:17:38Z</time>
      </trkpt>
      <trkpt lat="44.37526" lon="3.65945">
        <ele>818.361</ele>
        <time>2018-05-22T13:17:35Z</time>
      </trkpt>
      <trkpt lat="44.37546" lon="3.65934">
        <ele>821.108</ele>
        <time>2018-05-22T13:17:32Z</time>
      </trkpt>
      <trkpt lat="44.37565" lon="3.65925">
        <ele>824.322</ele>
        <time>2018-05-22T13:17:29Z</time>
      </trkpt>
      <trkpt lat="44.37584" lon="3.65918">
        <ele>825.357</ele>
        <time>2018-05-22T13:17:26Z</time>
      </trkpt>
      <trkpt lat="44.37605" lon="3.65905">
        <ele>826.394</ele>
        <time>2018-05-22T13:17:23Z</time>
      </trkpt>
      <trkpt lat="44.37623" lon="3.65892">
        <ele>827.564</ele>
        <time>2018-05-22T13:17:20Z</time>
      </trkpt>
      <trkpt lat="44.37643" lon="3.65883">
        <ele>831.378</ele>
        <time>2018-05-22T13:17:17Z</time>
      </trkpt>
      <trkpt lat="44.37662" lon="3.65886">
        <ele>832.164</ele>
        <time>2018-05-22T13:17:14Z</time>
      </trkpt>
      <trkpt lat="44.37676" lon="3.65903">
        <ele>830.581</ele>
        <time>2018-05-22T13:17:11Z</time>
      </trkpt>
      <trkpt lat="44.37688" lon="3.65934">
        <ele>832.572</ele>
        <time>2018-05-22T13:17:08Z</time>
      </trkpt>
      <trkpt lat="44.37696" lon="3.65969">
        <ele>834.336</ele>
        <time>2018-05-22T13:17:05Z</time>
      </trkpt>
      <trkpt lat="44.37696" lon="3.66004">
        <ele>836.737</ele>
        <time>2018-05-22T13:17:02Z</time>
      </trkpt>
      <trkpt lat="44.37698" lon="3.66035">
        <ele>840.744</ele>
        <time>2018-05-22T13:16:59Z</time>
      </trkpt>
      <trkpt lat="44.37702" lon="3.66065">
        <ele>844.308</ele>
        <time>2018-05-22T13:16:56Z</time>
      </trkpt>
      <trkpt lat="44.37717" lon="3.66085">
        <ele>848.32</ele>
        <time>2018-05-22T13:16:47Z</time>
      </trkpt>
      <trkpt lat="44.37719" lon="3.66052">
        <ele>849.5</ele>
        <time>2018-05-22T13:16:44Z</time>
      </trkpt>
      <trkpt lat="44.37724" lon="3.66014">
        <ele>851.329</ele>
        <time>2018-05-22T13:16:41Z</time>
      </trkpt>
      <trkpt lat="44.3773" lon="3.65981">
        <ele>851.356</ele>
        <time>2018-05-22T13:16:38Z</time>
      </trkpt>
      <trkpt lat="44.37738" lon="3.65951">
        <ele>852.46</ele>
        <time>2018-05-22T13:16:35Z</time>
      </trkpt>
      <trkpt lat="44.37745" lon="3.6592">
        <ele>850.336</ele>
        <time>2018-05-22T13:16:32Z</time>
      </trkpt>
      <trkpt lat="44.37753" lon="3.65889">
        <ele>850.333</ele>
        <time>2018-05-22T13:16:29Z</time>
      </trkpt>
      <trkpt lat="44.37762" lon="3.65864">
        <ele>850.364</ele>
        <time>2018-05-22T13:16:26Z</time>
      </trkpt>
      <trkpt lat="44.37781" lon="3.65844">
        <ele>851.398</ele>
        <time>2018-05-22T13:16:20Z</time>
      </trkpt>
      <trkpt lat="44.37774" lon="3.65868">
        <ele>856.829</ele>
        <time>2018-05-22T13:16:16Z</time>
      </trkpt>
      <trkpt lat="44.37769" lon="3.65894">
        <ele>860.516</ele>
        <time>2018-05-22T13:16:13Z</time>
      </trkpt>
      <trkpt lat="44.37768" lon="3.6592">
        <ele>862.708</ele>
        <time>2018-05-22T13:16:11Z</time>
      </trkpt>
      <trkpt lat="44.37767" lon="3.65947">
        <ele>865.509</ele>
        <time>2018-05-22T13:16:09Z</time>
      </trkpt>
      <trkpt lat="44.37766" lon="3.65973">
        <ele>867.381</ele>
        <time>2018-05-22T13:16:07Z</time>
      </trkpt>
      <trkpt lat="44.37766" lon="3.65999">
        <ele>867.541</ele>
        <time>2018-05-22T13:16:05Z</time>
      </trkpt>
      <trkpt lat="44.37772" lon="3.66033">
        <ele>871.581</ele>
        <time>2018-05-22T13:16:02Z</time>
      </trkpt>
      <trkpt lat="44.37773" lon="3.66068">
        <ele>874.975</ele>
        <time>2018-05-22T13:15:59Z</time>
      </trkpt>
      <trkpt lat="44.37771" lon="3.66102">
        <ele>879.561</ele>
        <time>2018-05-22T13:15:56Z</time>
      </trkpt>
      <trkpt lat="44.37767" lon="3.66136">
        <ele>880.598</ele>
        <time>2018-05-22T13:15:53Z</time>
      </trkpt>
      <trkpt lat="44.37763" lon="3.66168">
        <ele>882.429</ele>
        <time>2018-05-22T13:15:50Z</time>
      </trkpt>
      <trkpt lat="44.37763" lon="3.66199">
        <ele>885.513</ele>
        <time>2018-05-22T13:15:47Z</time>
      </trkpt>
      <trkpt lat="44.37768" lon="3.66226">
        <ele>888.534</ele>
        <time>2018-05-22T13:15:44Z</time>
      </trkpt>
      <trkpt lat="44.37779" lon="3.66252">
        <ele>892.341</ele>
        <time>2018-05-22T13:15:41Z</time>
      </trkpt>
      <trkpt lat="44.37799" lon="3.6627">
        <ele>894.308</ele>
        <time>2018-05-22T13:15:38Z</time>
      </trkpt>
      <trkpt lat="44.37823" lon="3.66277">
        <ele>895.12</ele>
        <time>2018-05-22T13:15:35Z</time>
      </trkpt>
      <trkpt lat="44.37846" lon="3.66275">
        <ele>894.273</ele>
        <time>2018-05-22T13:15:32Z</time>
      </trkpt>
      <trkpt lat="44.37866" lon="3.66276">
        <ele>893.192</ele>
        <time>2018-05-22T13:15:29Z</time>
      </trkpt>
      <trkpt lat="44.37883" lon="3.6629">
        <ele>892.511</ele>
        <time>2018-05-22T13:15:26Z</time>
      </trkpt>
      <trkpt lat="44.37898" lon="3.66319">
        <ele>895.135</ele>
        <time>2018-05-22T13:15:23Z</time>
      </trkpt>
      <trkpt lat="44.37917" lon="3.66344">
        <ele>895.321</ele>
        <time>2018-05-22T13:15:20Z</time>
      </trkpt>
      <trkpt lat="44.3794" lon="3.66361">
        <ele>897.388</ele>
        <time>2018-05-22T13:15:17Z</time>
      </trkpt>
      <trkpt lat="44.37963" lon="3.6637">
        <ele>898.729</ele>
        <time>2018-05-22T13:15:14Z</time>
      </trkpt>
      <trkpt lat="44.37986" lon="3.66375">
        <ele>900.163</ele>
        <time>2018-05-22T13:15:11Z</time>
      </trkpt>
      <trkpt lat="44.38007" lon="3.6638">
        <ele>900.134</ele>
        <time>2018-05-22T13:15:08Z</time>
      </trkpt>
      <trkpt lat="44.38019" lon="3.66411">
        <ele>900.331</ele>
        <time>2018-05-22T13:15:05Z</time>
      </trkpt>
      <trkpt lat="44.38032" lon="3.66428">
        <ele>900.308</ele>
        <time>2018-05-22T13:15:03Z</time>
      </trkpt>
      <trkpt lat="44.38042" lon="3.66459">
        <ele>901.32</ele>
        <time>2018-05-22T13:15:00Z</time>
      </trkpt>
      <trkpt lat="44.38046" lon="3.66494">
        <ele>902.473</ele>
        <time>2018-05-22T13:14:57Z</time>
      </trkpt>
      <trkpt lat="44.3806" lon="3.66522">
        <ele>900.592</ele>
        <time>2018-05-22T13:14:54Z</time>
      </trkpt>
      <trkpt lat="44.3808" lon="3.6654">
        <ele>902.339</ele>
        <time>2018-05-22T13:14:51Z</time>
      </trkpt>
      <trkpt lat="44.38101" lon="3.66556">
        <ele>903.153</ele>
        <time>2018-05-22T13:14:48Z</time>
      </trkpt>
      <trkpt lat="44.38127" lon="3.66563">
        <ele>903.189</ele>
        <time>2018-05-22T13:14:45Z</time>
      </trkpt>
      <trkpt lat="44.3815" lon="3.66554">
        <ele>901.346</ele>
        <time>2018-05-22T13:14:42Z</time>
      </trkpt>
      <trkpt lat="44.38173" lon="3.66544">
        <ele>902.597</ele>
        <time>2018-05-22T13:14:39Z</time>
      </trkpt>
      <trkpt lat="44.38192" lon="3.66529">
        <ele>905.341</ele>
        <time>2018-05-22T13:14:36Z</time>
      </trkpt>
      <trkpt lat="44.38211" lon="3.66538">
        <ele>908.512</ele>
        <time>2018-05-22T13:14:33Z</time>
      </trkpt>
      <trkpt lat="44.38225" lon="3.66568">
        <ele>910.589</ele>
        <time>2018-05-22T13:14:30Z</time>
      </trkpt>
      <trkpt lat="44.38238" lon="3.66588">
        <ele>911.308</ele>
        <time>2018-05-22T13:14:28Z</time>
      </trkpt>
      <trkpt lat="44.38261" lon="3.66611">
        <ele>912.321</ele>
        <time>2018-05-22T13:14:25Z</time>
      </trkpt>
      <trkpt lat="44.38277" lon="3.66623">
        <ele>913.156</ele>
        <time>2018-05-22T13:14:23Z</time>
      </trkpt>
      <trkpt lat="44.38301" lon="3.66629">
        <ele>913.574</ele>
        <time>2018-05-22T13:14:20Z</time>
      </trkpt>
      <trkpt lat="44.38322" lon="3.66615">
        <ele>915.559</ele>
        <time>2018-05-22T13:14:17Z</time>
      </trkpt>
      <trkpt lat="44.38343" lon="3.66595">
        <ele>915.783</ele>
        <time>2018-05-22T13:14:14Z</time>
      </trkpt>
      <trkpt lat="44.38357" lon="3.66569">
        <ele>916.349</ele>
        <time>2018-05-22T13:14:11Z</time>
      </trkpt>
      <trkpt lat="44.38375" lon="3.66543">
        <ele>916.256</ele>
        <time>2018-05-22T13:14:08Z</time>
      </trkpt>
      <trkpt lat="44.38397" lon="3.66524">
        <ele>915.317</ele>
        <time>2018-05-22T13:14:05Z</time>
      </trkpt>
      <trkpt lat="44.38416" lon="3.66504">
        <ele>917.581</ele>
        <time>2018-05-22T13:14:02Z</time>
      </trkpt>
      <trkpt lat="44.38436" lon="3.66488">
        <ele>919.382</ele>
        <time>2018-05-22T13:13:59Z</time>
      </trkpt>
      <trkpt lat="44.38456" lon="3.66465">
        <ele>920.549</ele>
        <time>2018-05-22T13:13:56Z</time>
      </trkpt>
      <trkpt lat="44.38476" lon="3.66449">
        <ele>920.308</ele>
        <time>2018-05-22T13:13:53Z</time>
      </trkpt>
      <trkpt lat="44.38498" lon="3.66451">
        <ele>921.219</ele>
        <time>2018-05-22T13:13:50Z</time>
      </trkpt>
      <trkpt lat="44.38517" lon="3.6647">
        <ele>919.69</ele>
        <time>2018-05-22T13:13:47Z</time>
      </trkpt>
      <trkpt lat="44.38527" lon="3.66494">
        <ele>922.576</ele>
        <time>2018-05-22T13:13:44Z</time>
      </trkpt>
      <trkpt lat="44.38534" lon="3.66519">
        <ele>924.423</ele>
        <time>2018-05-22T13:13:41Z</time>
      </trkpt>
      <trkpt lat="44.38521" lon="3.66545">
        <ele>928.587</ele>
        <time>2018-05-22T13:13:38Z</time>
      </trkpt>
      <trkpt lat="44.38508" lon="3.66564">
        <ele>929.513</ele>
        <time>2018-05-22T13:13:36Z</time>
      </trkpt>
      <trkpt lat="44.38494" lon="3.6658">
        <ele>930.59</ele>
        <time>2018-05-22T13:13:34Z</time>
      </trkpt>
      <trkpt lat="44.38479" lon="3.66607">
        <ele>933.321</ele>
        <time>2018-05-22T13:13:31Z</time>
      </trkpt>
      <trkpt lat="44.38463" lon="3.66632">
        <ele>934.445</ele>
        <time>2018-05-22T13:13:28Z</time>
      </trkpt>
      <trkpt lat="44.38456" lon="3.66662">
        <ele>938.376</ele>
        <time>2018-05-22T13:13:25Z</time>
      </trkpt>
      <trkpt lat="44.38452" lon="3.66693">
        <ele>939.373</ele>
        <time>2018-05-22T13:13:22Z</time>
      </trkpt>
      <trkpt lat="44.38444" lon="3.66718">
        <ele>939.308</ele>
        <time>2018-05-22T13:13:20Z</time>
      </trkpt>
      <trkpt lat="44.38436" lon="3.66745">
        <ele>939.313</ele>
        <time>2018-05-22T13:13:18Z</time>
      </trkpt>
      <trkpt lat="44.38426" lon="3.66774">
        <ele>939.576</ele>
        <time>2018-05-22T13:13:16Z</time>
      </trkpt>
      <trkpt lat="44.38417" lon="3.66802">
        <ele>941.216</ele>
        <time>2018-05-22T13:13:14Z</time>
      </trkpt>
      <trkpt lat="44.38404" lon="3.66825">
        <ele>940.327</ele>
        <time>2018-05-22T13:13:12Z</time>
      </trkpt>
      <trkpt lat="44.38388" lon="3.66849">
        <ele>939.541</ele>
        <time>2018-05-22T13:13:10Z</time>
      </trkpt>
      <trkpt lat="44.38374" lon="3.6687">
        <ele>941.557</ele>
        <time>2018-05-22T13:13:08Z</time>
      </trkpt>
      <trkpt lat="44.38357" lon="3.66887">
        <ele>941.524</ele>
        <time>2018-05-22T13:13:06Z</time>
      </trkpt>
      <trkpt lat="44.38338" lon="3.66899">
        <ele>942.855</ele>
        <time>2018-05-22T13:13:04Z</time>
      </trkpt>
      <trkpt lat="44.38317" lon="3.66908">
        <ele>947.519</ele>
        <time>2018-05-22T13:13:02Z</time>
      </trkpt>
      <trkpt lat="44.38299" lon="3.66919">
        <ele>949.32</ele>
        <time>2018-05-22T13:13:00Z</time>
      </trkpt>
      <trkpt lat="44.38279" lon="3.66927">
        <ele>949.767</ele>
        <time>2018-05-22T13:12:58Z</time>
      </trkpt>
      <trkpt lat="44.38259" lon="3.66927">
        <ele>950.508</ele>
        <time>2018-05-22T13:12:56Z</time>
      </trkpt>
      <trkpt lat="44.38241" lon="3.66934">
        <ele>951.917</ele>
        <time>2018-05-22T13:12:54Z</time>
      </trkpt>
      <trkpt lat="44.38224" lon="3.66947">
        <ele>954.307</ele>
        <time>2018-05-22T13:12:52Z</time>
      </trkpt>
      <trkpt lat="44.38206" lon="3.66951">
        <ele>954.555</ele>
        <time>2018-05-22T13:12:50Z</time>
      </trkpt>
      <trkpt lat="44.38187" lon="3.6695">
        <ele>956.389</ele>
        <time>2018-05-22T13:12:48Z</time>
      </trkpt>
      <trkpt lat="44.38167" lon="3.66951">
        <ele>956.553</ele>
        <time>2018-05-22T13:12:46Z</time>
      </trkpt>
      <trkpt lat="44.38146" lon="3.66952">
        <ele>957.559</ele>
        <time>2018-05-22T13:12:44Z</time>
      </trkpt>
      <trkpt lat="44.38127" lon="3.66955">
        <ele>958.596</ele>
        <time>2018-05-22T13:12:42Z</time>
      </trkpt>
      <trkpt lat="44.38109" lon="3.66961">
        <ele>960.347</ele>
        <time>2018-05-22T13:12:40Z</time>
      </trkpt>
      <trkpt lat="44.38085" lon="3.66971">
        <ele>963.331</ele>
        <time>2018-05-22T13:12:37Z</time>
      </trkpt>
      <trkpt lat="44.3806" lon="3.66979">
        <ele>965.712</ele>
        <time>2018-05-22T13:12:34Z</time>
      </trkpt>
      <trkpt lat="44.38038" lon="3.66985">
        <ele>968.349</ele>
        <time>2018-05-22T13:12:31Z</time>
      </trkpt>
      <trkpt lat="44.38015" lon="3.66991">
        <ele>968.508</ele>
        <time>2018-05-22T13:12:28Z</time>
      </trkpt>
      <trkpt lat="44.37994" lon="3.66989">
        <ele>970.519</ele>
        <time>2018-05-22T13:12:25Z</time>
      </trkpt>
      <trkpt lat="44.37973" lon="3.66982">
        <ele>972.49</ele>
        <time>2018-05-22T13:12:22Z</time>
      </trkpt>
      <trkpt lat="44.37954" lon="3.66974">
        <ele>972.576</ele>
        <time>2018-05-22T13:12:19Z</time>
      </trkpt>
      <trkpt lat="44.37932" lon="3.66972">
        <ele>975.335</ele>
        <time>2018-05-22T13:12:15Z</time>
      </trkpt>
      <trkpt lat="44.37926" lon="3.66996">
        <ele>975.519</ele>
        <time>2018-05-22T13:12:12Z</time>
      </trkpt>
      <trkpt lat="44.37925" lon="3.67027">
        <ele>978.385</ele>
        <time>2018-05-22T13:12:09Z</time>
      </trkpt>
      <trkpt lat="44.37926" lon="3.67058">
        <ele>980.132</ele>
        <time>2018-05-22T13:12:06Z</time>
      </trkpt>
      <trkpt lat="44.37925" lon="3.67089">
        <ele>983.323</ele>
        <time>2018-05-22T13:12:03Z</time>
      </trkpt>
      <trkpt lat="44.37923" lon="3.67121">
        <ele>984.517</ele>
        <time>2018-05-22T13:12:00Z</time>
      </trkpt>
      <trkpt lat="44.37924" lon="3.6715">
        <ele>986.548</ele>
        <time>2018-05-22T13:11:57Z</time>
      </trkpt>
      <trkpt lat="44.37936" lon="3.6718">
        <ele>987.375</ele>
        <time>2018-05-22T13:11:54Z</time>
      </trkpt>
      <trkpt lat="44.37946" lon="3.67203">
        <ele>987.908</ele>
        <time>2018-05-22T13:11:52Z</time>
      </trkpt>
      <trkpt lat="44.37955" lon="3.67227">
        <ele>986.515</ele>
        <time>2018-05-22T13:11:50Z</time>
      </trkpt>
      <trkpt lat="44.37975" lon="3.67254">
        <ele>988.323</ele>
        <time>2018-05-22T13:11:47Z</time>
      </trkpt>
      <trkpt lat="44.37995" lon="3.67279">
        <ele>991.333</ele>
        <time>2018-05-22T13:11:44Z</time>
      </trkpt>
      <trkpt lat="44.38015" lon="3.67301">
        <ele>993.224</ele>
        <time>2018-05-22T13:11:41Z</time>
      </trkpt>
      <trkpt lat="44.38029" lon="3.67319">
        <ele>992.188</ele>
        <time>2018-05-22T13:11:39Z</time>
      </trkpt>
      <trkpt lat="44.38051" lon="3.67331">
        <ele>992.174</ele>
        <time>2018-05-22T13:11:36Z</time>
      </trkpt>
      <trkpt lat="44.38074" lon="3.67326">
        <ele>992.781</ele>
        <time>2018-05-22T13:11:33Z</time>
      </trkpt>
      <trkpt lat="44.38099" lon="3.67321">
        <ele>993.392</ele>
        <time>2018-05-22T13:11:30Z</time>
      </trkpt>
      <trkpt lat="44.38124" lon="3.67327">
        <ele>994.326</ele>
        <time>2018-05-22T13:11:27Z</time>
      </trkpt>
      <trkpt lat="44.38148" lon="3.67338">
        <ele>994.127</ele>
        <time>2018-05-22T13:11:24Z</time>
      </trkpt>
      <trkpt lat="44.38172" lon="3.6735">
        <ele>993.374</ele>
        <time>2018-05-22T13:11:21Z</time>
      </trkpt>
      <trkpt lat="44.38193" lon="3.6736">
        <ele>995.508</ele>
        <time>2018-05-22T13:11:18Z</time>
      </trkpt>
      <trkpt lat="44.38213" lon="3.67367">
        <ele>997.214</ele>
        <time>2018-05-22T13:11:15Z</time>
      </trkpt>
      <trkpt lat="44.38235" lon="3.67369">
        <ele>996.368</ele>
        <time>2018-05-22T13:11:12Z</time>
      </trkpt>
      <trkpt lat="44.38258" lon="3.67374">
        <ele>997.327</ele>
        <time>2018-05-22T13:11:09Z</time>
      </trkpt>
      <trkpt lat="44.38279" lon="3.67377">
        <ele>997.558</ele>
        <time>2018-05-22T13:11:06Z</time>
      </trkpt>
      <trkpt lat="44.38299" lon="3.67382">
        <ele>1000.362</ele>
        <time>2018-05-22T13:11:03Z</time>
      </trkpt>
      <trkpt lat="44.38321" lon="3.67387">
        <ele>999.568</ele>
        <time>2018-05-22T13:10:59Z</time>
      </trkpt>
      <trkpt lat="44.38339" lon="3.67397">
        <ele>1000.375</ele>
        <time>2018-05-22T13:10:56Z</time>
      </trkpt>
      <trkpt lat="44.38342" lon="3.67429">
        <ele>1001.116</ele>
        <time>2018-05-22T13:10:52Z</time>
      </trkpt>
      <trkpt lat="44.38359" lon="3.67442">
        <ele>1001.26</ele>
        <time>2018-05-22T13:10:48Z</time>
      </trkpt>
      <trkpt lat="44.38375" lon="3.67464">
        <ele>999.441</ele>
        <time>2018-05-22T13:10:42Z</time>
      </trkpt>
      <trkpt lat="44.38367" lon="3.67488">
        <ele>1003.328</ele>
        <time>2018-05-22T13:10:37Z</time>
      </trkpt>
      <trkpt lat="44.38359" lon="3.67514">
        <ele>1004.308</ele>
        <time>2018-05-22T13:10:32Z</time>
      </trkpt>
      <trkpt lat="44.38351" lon="3.6754">
        <ele>1005.018</ele>
        <time>2018-05-22T13:10:28Z</time>
      </trkpt>
      <trkpt lat="44.38348" lon="3.67565">
        <ele>1003.144</ele>
        <time>2018-05-22T13:10:25Z</time>
      </trkpt>
      <trkpt lat="44.3834" lon="3.67589">
        <ele>1002.063</ele>
        <time>2018-05-22T13:10:22Z</time>
      </trkpt>
      <trkpt lat="44.38326" lon="3.67613">
        <ele>1000.38</ele>
        <time>2018-05-22T13:10:18Z</time>
      </trkpt>
      <trkpt lat="44.38312" lon="3.67641">
        <ele>1000.184</ele>
        <time>2018-05-22T13:10:14Z</time>
      </trkpt>
      <trkpt lat="44.38295" lon="3.67658">
        <ele>1000.33</ele>
        <time>2018-05-22T13:10:10Z</time>
      </trkpt>
      <trkpt lat="44.38276" lon="3.67661">
        <ele>1000.327</ele>
        <time>2018-05-22T13:10:07Z</time>
      </trkpt>
      <trkpt lat="44.38256" lon="3.67664">
        <ele>1000.398</ele>
        <time>2018-05-22T13:10:04Z</time>
      </trkpt>
      <trkpt lat="44.38235" lon="3.67666">
        <ele>999.372</ele>
        <time>2018-05-22T13:10:01Z</time>
      </trkpt>
      <trkpt lat="44.38214" lon="3.67669">
        <ele>999.393</ele>
        <time>2018-05-22T13:09:58Z</time>
      </trkpt>
      <trkpt lat="44.38191" lon="3.67676">
        <ele>1000.39</ele>
        <time>2018-05-22T13:09:54Z</time>
      </trkpt>
      <trkpt lat="44.38176" lon="3.67689">
        <ele>1000.208</ele>
        <time>2018-05-22T13:09:51Z</time>
      </trkpt>
      <trkpt lat="44.38156" lon="3.67707">
        <ele>999.317</ele>
        <time>2018-05-22T13:09:47Z</time>
      </trkpt>
      <trkpt lat="44.38138" lon="3.67723">
        <ele>998.343</ele>
        <time>2018-05-22T13:09:43Z</time>
      </trkpt>
      <trkpt lat="44.38117" lon="3.67736">
        <ele>998.582</ele>
        <time>2018-05-22T13:09:38Z</time>
      </trkpt>
      <trkpt lat="44.381" lon="3.67727">
        <ele>1001.359</ele>
        <time>2018-05-22T13:08:43Z</time>
      </trkpt>
      <trkpt lat="44.38082" lon="3.67718">
        <ele>1005.363</ele>
        <time>2018-05-22T13:08:30Z</time>
      </trkpt>
      <trkpt lat="44.38071" lon="3.67697">
        <ele>996.829</ele>
        <time>2018-05-22T13:03:55Z</time>
      </trkpt>
      <trkpt lat="44.38074" lon="3.67705">
        <ele>1002.366</ele>
        <time>2018-05-22T12:19:56Z</time>
      </trkpt>
      <trkpt lat="44.38101" lon="3.6773">
        <ele>999.337</ele>
        <time>2018-05-22T12:18:15Z</time>
      </trkpt>
      <trkpt lat="44.38117" lon="3.67745">
        <ele>998.331</ele>
        <time>2018-05-22T12:18:08Z</time>
      </trkpt>
      <trkpt lat="44.38106" lon="3.67767">
        <ele>999.532</ele>
        <time>2018-05-22T12:18:04Z</time>
      </trkpt>
      <trkpt lat="44.38095" lon="3.67794">
        <ele>1000.389</ele>
        <time>2018-05-22T12:18:01Z</time>
      </trkpt>
      <trkpt lat="44.38086" lon="3.67817">
        <ele>1001.308</ele>
        <time>2018-05-22T12:17:59Z</time>
      </trkpt>
      <trkpt lat="44.38075" lon="3.67836">
        <ele>1002.319</ele>
        <time>2018-05-22T12:17:57Z</time>
      </trkpt>
      <trkpt lat="44.38053" lon="3.67857">
        <ele>1004.59</ele>
        <time>2018-05-22T12:17:54Z</time>
      </trkpt>
      <trkpt lat="44.3803" lon="3.67877">
        <ele>1005.376</ele>
        <time>2018-05-22T12:17:51Z</time>
      </trkpt>
      <trkpt lat="44.38014" lon="3.67892">
        <ele>1006.395</ele>
        <time>2018-05-22T12:17:49Z</time>
      </trkpt>
      <trkpt lat="44.37998" lon="3.67907">
        <ele>1006.369</ele>
        <time>2018-05-22T12:17:47Z</time>
      </trkpt>
      <trkpt lat="44.37982" lon="3.67923">
        <ele>1006.595</ele>
        <time>2018-05-22T12:17:45Z</time>
      </trkpt>
      <trkpt lat="44.37965" lon="3.67939">
        <ele>1007.532</ele>
        <time>2018-05-22T12:17:43Z</time>
      </trkpt>
      <trkpt lat="44.37948" lon="3.67955">
        <ele>1008.343</ele>
        <time>2018-05-22T12:17:41Z</time>
      </trkpt>
      <trkpt lat="44.37931" lon="3.67972">
        <ele>1008.397</ele>
        <time>2018-05-22T12:17:39Z</time>
      </trkpt>
      <trkpt lat="44.37913" lon="3.67989">
        <ele>1008.548</ele>
        <time>2018-05-22T12:17:37Z</time>
      </trkpt>
      <trkpt lat="44.37897" lon="3.68007">
        <ele>1009.395</ele>
        <time>2018-05-22T12:17:35Z</time>
      </trkpt>
      <trkpt lat="44.37881" lon="3.68023">
        <ele>1009.308</ele>
        <time>2018-05-22T12:17:33Z</time>
      </trkpt>
      <trkpt lat="44.37866" lon="3.68039">
        <ele>1009.114</ele>
        <time>2018-05-22T12:17:31Z</time>
      </trkpt>
      <trkpt lat="44.37854" lon="3.68058">
        <ele>1008.086</ele>
        <time>2018-05-22T12:17:29Z</time>
      </trkpt>
      <trkpt lat="44.37842" lon="3.6808">
        <ele>1006.235</ele>
        <time>2018-05-22T12:17:27Z</time>
      </trkpt>
      <trkpt lat="44.3783" lon="3.68101">
        <ele>1005.293</ele>
        <time>2018-05-22T12:17:25Z</time>
      </trkpt>
      <trkpt lat="44.37817" lon="3.68123">
        <ele>1004.337</ele>
        <time>2018-05-22T12:17:23Z</time>
      </trkpt>
      <trkpt lat="44.37804" lon="3.68145">
        <ele>1004.343</ele>
        <time>2018-05-22T12:17:21Z</time>
      </trkpt>
      <trkpt lat="44.3779" lon="3.68168">
        <ele>1004.77</ele>
        <time>2018-05-22T12:17:19Z</time>
      </trkpt>
      <trkpt lat="44.37777" lon="3.6819">
        <ele>1006.331</ele>
        <time>2018-05-22T12:17:17Z</time>
      </trkpt>
      <trkpt lat="44.37764" lon="3.6821">
        <ele>1006.185</ele>
        <time>2018-05-22T12:17:15Z</time>
      </trkpt>
      <trkpt lat="44.37752" lon="3.68228">
        <ele>1004.986</ele>
        <time>2018-05-22T12:17:13Z</time>
      </trkpt>
      <trkpt lat="44.37733" lon="3.68251">
        <ele>1003.393</ele>
        <time>2018-05-22T12:17:10Z</time>
      </trkpt>
      <trkpt lat="44.37723" lon="3.68285">
        <ele>1003.208</ele>
        <time>2018-05-22T12:17:07Z</time>
      </trkpt>
      <trkpt lat="44.37718" lon="3.68309">
        <ele>1002.317</ele>
        <time>2018-05-22T12:17:05Z</time>
      </trkpt>
      <trkpt lat="44.37711" lon="3.68333">
        <ele>1002.198</ele>
        <time>2018-05-22T12:17:03Z</time>
      </trkpt>
      <trkpt lat="44.37704" lon="3.68366">
        <ele>1002.118</ele>
        <time>2018-05-22T12:17:00Z</time>
      </trkpt>
      <trkpt lat="44.37707" lon="3.684">
        <ele>1000.138</ele>
        <time>2018-05-22T12:16:57Z</time>
      </trkpt>
      <trkpt lat="44.37725" lon="3.68423">
        <ele>999.112</ele>
        <time>2018-05-22T12:16:54Z</time>
      </trkpt>
      <trkpt lat="44.37749" lon="3.68436">
        <ele>998.318</ele>
        <time>2018-05-22T12:16:51Z</time>
      </trkpt>
      <trkpt lat="44.37772" lon="3.68449">
        <ele>998.325</ele>
        <time>2018-05-22T12:16:48Z</time>
      </trkpt>
      <trkpt lat="44.37789" lon="3.68476">
        <ele>998.356</ele>
        <time>2018-05-22T12:16:45Z</time>
      </trkpt>
      <trkpt lat="44.378" lon="3.68505">
        <ele>998.22</ele>
        <time>2018-05-22T12:16:42Z</time>
      </trkpt>
      <trkpt lat="44.37821" lon="3.68525">
        <ele>996.311</ele>
        <time>2018-05-22T12:16:39Z</time>
      </trkpt>
      <trkpt lat="44.37846" lon="3.68526">
        <ele>996.318</ele>
        <time>2018-05-22T12:16:36Z</time>
      </trkpt>
      <trkpt lat="44.37865" lon="3.68527">
        <ele>995.908</ele>
        <time>2018-05-22T12:16:34Z</time>
      </trkpt>
      <trkpt lat="44.37883" lon="3.68531">
        <ele>994.326</ele>
        <time>2018-05-22T12:16:32Z</time>
      </trkpt>
      <trkpt lat="44.37905" lon="3.68553">
        <ele>994.242</ele>
        <time>2018-05-22T12:16:29Z</time>
      </trkpt>
      <trkpt lat="44.37916" lon="3.68586">
        <ele>992.368</ele>
        <time>2018-05-22T12:16:26Z</time>
      </trkpt>
      <trkpt lat="44.3792" lon="3.68621">
        <ele>992.141</ele>
        <time>2018-05-22T12:16:23Z</time>
      </trkpt>
      <trkpt lat="44.37928" lon="3.68652">
        <ele>991.225</ele>
        <time>2018-05-22T12:16:20Z</time>
      </trkpt>
      <trkpt lat="44.37949" lon="3.68672">
        <ele>987.581</ele>
        <time>2018-05-22T12:16:17Z</time>
      </trkpt>
      <trkpt lat="44.37958" lon="3.68706">
        <ele>988.198</ele>
        <time>2018-05-22T12:16:14Z</time>
      </trkpt>
      <trkpt lat="44.3796" lon="3.68742">
        <ele>986.599</ele>
        <time>2018-05-22T12:16:11Z</time>
      </trkpt>
      <trkpt lat="44.37973" lon="3.68771">
        <ele>987.273</ele>
        <time>2018-05-22T12:16:08Z</time>
      </trkpt>
      <trkpt lat="44.37975" lon="3.68808">
        <ele>985.184</ele>
        <time>2018-05-22T12:16:05Z</time>
      </trkpt>
      <trkpt lat="44.37972" lon="3.68845">
        <ele>983.271</ele>
        <time>2018-05-22T12:16:02Z</time>
      </trkpt>
      <trkpt lat="44.37976" lon="3.6887">
        <ele>982.308</ele>
        <time>2018-05-22T12:16:00Z</time>
      </trkpt>
      <trkpt lat="44.37987" lon="3.68903">
        <ele>981.119</ele>
        <time>2018-05-22T12:15:57Z</time>
      </trkpt>
      <trkpt lat="44.37995" lon="3.68926">
        <ele>980.081</ele>
        <time>2018-05-22T12:15:55Z</time>
      </trkpt>
      <trkpt lat="44.38003" lon="3.68961">
        <ele>977.091</ele>
        <time>2018-05-22T12:15:52Z</time>
      </trkpt>
      <trkpt lat="44.38014" lon="3.68991">
        <ele>975.29</ele>
        <time>2018-05-22T12:15:49Z</time>
      </trkpt>
      <trkpt lat="44.38033" lon="3.69007">
        <ele>972.824</ele>
        <time>2018-05-22T12:15:46Z</time>
      </trkpt>
      <trkpt lat="44.38055" lon="3.69019">
        <ele>970.37</ele>
        <time>2018-05-22T12:15:43Z</time>
      </trkpt>
      <trkpt lat="44.38073" lon="3.69036">
        <ele>970.147</ele>
        <time>2018-05-22T12:15:40Z</time>
      </trkpt>
      <trkpt lat="44.38087" lon="3.69052">
        <ele>969.348</ele>
        <time>2018-05-22T12:15:38Z</time>
      </trkpt>
      <trkpt lat="44.381" lon="3.69078">
        <ele>971.362</ele>
        <time>2018-05-22T12:15:35Z</time>
      </trkpt>
      <trkpt lat="44.38109" lon="3.69109">
        <ele>971.123</ele>
        <time>2018-05-22T12:15:32Z</time>
      </trkpt>
      <trkpt lat="44.38113" lon="3.69144">
        <ele>970.37</ele>
        <time>2018-05-22T12:15:29Z</time>
      </trkpt>
      <trkpt lat="44.38118" lon="3.69178">
        <ele>971.308</ele>
        <time>2018-05-22T12:15:26Z</time>
      </trkpt>
      <trkpt lat="44.38131" lon="3.69198">
        <ele>972.426</ele>
        <time>2018-05-22T12:15:23Z</time>
      </trkpt>
      <trkpt lat="44.38138" lon="3.69229">
        <ele>972.906</ele>
        <time>2018-05-22T12:15:19Z</time>
      </trkpt>
      <trkpt lat="44.38123" lon="3.6925">
        <ele>972.389</ele>
        <time>2018-05-22T12:15:16Z</time>
      </trkpt>
      <trkpt lat="44.38105" lon="3.69245">
        <ele>973.347</ele>
        <time>2018-05-22T12:15:14Z</time>
      </trkpt>
      <trkpt lat="44.38087" lon="3.69234">
        <ele>973.591</ele>
        <time>2018-05-22T12:15:12Z</time>
      </trkpt>
      <trkpt lat="44.38069" lon="3.69216">
        <ele>974.367</ele>
        <time>2018-05-22T12:15:10Z</time>
      </trkpt>
      <trkpt lat="44.38052" lon="3.69194">
        <ele>975.394</ele>
        <time>2018-05-22T12:15:08Z</time>
      </trkpt>
      <trkpt lat="44.38032" lon="3.69181">
        <ele>975.655</ele>
        <time>2018-05-22T12:15:06Z</time>
      </trkpt>
      <trkpt lat="44.3801" lon="3.69177">
        <ele>978.339</ele>
        <time>2018-05-22T12:15:04Z</time>
      </trkpt>
      <trkpt lat="44.37986" lon="3.6918">
        <ele>979.46</ele>
        <time>2018-05-22T12:15:02Z</time>
      </trkpt>
      <trkpt lat="44.37963" lon="3.69183">
        <ele>981.317</ele>
        <time>2018-05-22T12:15:00Z</time>
      </trkpt>
      <trkpt lat="44.37939" lon="3.69184">
        <ele>982.308</ele>
        <time>2018-05-22T12:14:58Z</time>
      </trkpt>
      <trkpt lat="44.37915" lon="3.69187">
        <ele>982.517</ele>
        <time>2018-05-22T12:14:56Z</time>
      </trkpt>
      <trkpt lat="44.37895" lon="3.69186">
        <ele>983.507</ele>
        <time>2018-05-22T12:14:54Z</time>
      </trkpt>
      <trkpt lat="44.37874" lon="3.69182">
        <ele>985.555</ele>
        <time>2018-05-22T12:14:52Z</time>
      </trkpt>
      <trkpt lat="44.37855" lon="3.69171">
        <ele>987.579</ele>
        <time>2018-05-22T12:14:50Z</time>
      </trkpt>
      <trkpt lat="44.37835" lon="3.69153">
        <ele>988.563</ele>
        <time>2018-05-22T12:14:48Z</time>
      </trkpt>
      <trkpt lat="44.37813" lon="3.69142">
        <ele>989.449</ele>
        <time>2018-05-22T12:14:46Z</time>
      </trkpt>
      <trkpt lat="44.3779" lon="3.69141">
        <ele>991.596</ele>
        <time>2018-05-22T12:14:44Z</time>
      </trkpt>
      <trkpt lat="44.37768" lon="3.69149">
        <ele>993.567</ele>
        <time>2018-05-22T12:14:42Z</time>
      </trkpt>
      <trkpt lat="44.37747" lon="3.69159">
        <ele>995.551</ele>
        <time>2018-05-22T12:14:40Z</time>
      </trkpt>
      <trkpt lat="44.37725" lon="3.69167">
        <ele>997.322</ele>
        <time>2018-05-22T12:14:38Z</time>
      </trkpt>
      <trkpt lat="44.37703" lon="3.69171">
        <ele>998.579</ele>
        <time>2018-05-22T12:14:36Z</time>
      </trkpt>
      <trkpt lat="44.37682" lon="3.69164">
        <ele>999.708</ele>
        <time>2018-05-22T12:14:34Z</time>
      </trkpt>
      <trkpt lat="44.37664" lon="3.69145">
        <ele>1001.515</ele>
        <time>2018-05-22T12:14:32Z</time>
      </trkpt>
      <trkpt lat="44.3765" lon="3.69119">
        <ele>1002.541</ele>
        <time>2018-05-22T12:14:30Z</time>
      </trkpt>
      <trkpt lat="44.3763" lon="3.691">
        <ele>1003.571</ele>
        <time>2018-05-22T12:14:28Z</time>
      </trkpt>
      <trkpt lat="44.3761" lon="3.69084">
        <ele>1004.567</ele>
        <time>2018-05-22T12:14:26Z</time>
      </trkpt>
      <trkpt lat="44.3759" lon="3.69068">
        <ele>1006.521</ele>
        <time>2018-05-22T12:14:24Z</time>
      </trkpt>
      <trkpt lat="44.3757" lon="3.69053">
        <ele>1007.787</ele>
        <time>2018-05-22T12:14:22Z</time>
      </trkpt>
      <trkpt lat="44.3755" lon="3.69038">
        <ele>1009.554</ele>
        <time>2018-05-22T12:14:20Z</time>
      </trkpt>
      <trkpt lat="44.37529" lon="3.69023">
        <ele>1011.565</ele>
        <time>2018-05-22T12:14:18Z</time>
      </trkpt>
      <trkpt lat="44.37508" lon="3.69014">
        <ele>1013.579</ele>
        <time>2018-05-22T12:14:16Z</time>
      </trkpt>
      <trkpt lat="44.37486" lon="3.69012">
        <ele>1015.44</ele>
        <time>2018-05-22T12:14:14Z</time>
      </trkpt>
      <trkpt lat="44.37465" lon="3.69022">
        <ele>1017.327</ele>
        <time>2018-05-22T12:14:12Z</time>
      </trkpt>
      <trkpt lat="44.3745" lon="3.69043">
        <ele>1018.508</ele>
        <time>2018-05-22T12:14:10Z</time>
      </trkpt>
      <trkpt lat="44.37443" lon="3.69072">
        <ele>1020.32</ele>
        <time>2018-05-22T12:14:08Z</time>
      </trkpt>
      <trkpt lat="44.37438" lon="3.69105">
        <ele>1021.7</ele>
        <time>2018-05-22T12:14:06Z</time>
      </trkpt>
      <trkpt lat="44.37433" lon="3.69138">
        <ele>1024.357</ele>
        <time>2018-05-22T12:14:04Z</time>
      </trkpt>
      <trkpt lat="44.37428" lon="3.69171">
        <ele>1024.387</ele>
        <time>2018-05-22T12:14:02Z</time>
      </trkpt>
      <trkpt lat="44.37423" lon="3.69203">
        <ele>1024.511</ele>
        <time>2018-05-22T12:14:00Z</time>
      </trkpt>
      <trkpt lat="44.37416" lon="3.69234">
        <ele>1026.317</ele>
        <time>2018-05-22T12:13:58Z</time>
      </trkpt>
      <trkpt lat="44.37408" lon="3.69264">
        <ele>1027.534</ele>
        <time>2018-05-22T12:13:56Z</time>
      </trkpt>
      <trkpt lat="44.374" lon="3.69292">
        <ele>1028.735</ele>
        <time>2018-05-22T12:13:54Z</time>
      </trkpt>
      <trkpt lat="44.37391" lon="3.69322">
        <ele>1030.349</ele>
        <time>2018-05-22T12:13:52Z</time>
      </trkpt>
      <trkpt lat="44.37383" lon="3.69352">
        <ele>1031.55</ele>
        <time>2018-05-22T12:13:50Z</time>
      </trkpt>
      <trkpt lat="44.37371" lon="3.69377">
        <ele>1033.597</ele>
        <time>2018-05-22T12:13:48Z</time>
      </trkpt>
      <trkpt lat="44.37356" lon="3.69397">
        <ele>1034.308</ele>
        <time>2018-05-22T12:13:46Z</time>
      </trkpt>
      <trkpt lat="44.37337" lon="3.6941">
        <ele>1035.323</ele>
        <time>2018-05-22T12:13:44Z</time>
      </trkpt>
      <trkpt lat="44.37311" lon="3.69417">
        <ele>1035.303</ele>
        <time>2018-05-22T12:13:41Z</time>
      </trkpt>
      <trkpt lat="44.37294" lon="3.69413">
        <ele>1036.359</ele>
        <time>2018-05-22T12:13:39Z</time>
      </trkpt>
      <trkpt lat="44.37276" lon="3.69409">
        <ele>1037.526</ele>
        <time>2018-05-22T12:13:37Z</time>
      </trkpt>
      <trkpt lat="44.37251" lon="3.69403">
        <ele>1038.37</ele>
        <time>2018-05-22T12:13:34Z</time>
      </trkpt>
      <trkpt lat="44.37229" lon="3.69397">
        <ele>1039.386</ele>
        <time>2018-05-22T12:13:31Z</time>
      </trkpt>
      <trkpt lat="44.3721" lon="3.69392">
        <ele>1040.343</ele>
        <time>2018-05-22T12:13:28Z</time>
      </trkpt>
      <trkpt lat="44.37192" lon="3.69395">
        <ele>1040.594</ele>
        <time>2018-05-22T12:13:25Z</time>
      </trkpt>
      <trkpt lat="44.37175" lon="3.69405">
        <ele>1041.328</ele>
        <time>2018-05-22T12:13:22Z</time>
      </trkpt>
      <trkpt lat="44.37167" lon="3.69435">
        <ele>1041.329</ele>
        <time>2018-05-22T12:13:18Z</time>
      </trkpt>
      <trkpt lat="44.37175" lon="3.69459">
        <ele>1041.386</ele>
        <time>2018-05-22T12:13:14Z</time>
      </trkpt>
      <trkpt lat="44.3719" lon="3.69478">
        <ele>1040.308</ele>
        <time>2018-05-22T12:13:10Z</time>
      </trkpt>
      <trkpt lat="44.37207" lon="3.69497">
        <ele>1040.314</ele>
        <time>2018-05-22T12:13:07Z</time>
      </trkpt>
      <trkpt lat="44.37227" lon="3.69521">
        <ele>1040.522</ele>
        <time>2018-05-22T12:13:04Z</time>
      </trkpt>
      <trkpt lat="44.37241" lon="3.6955">
        <ele>1042.542</ele>
        <time>2018-05-22T12:13:01Z</time>
      </trkpt>
      <trkpt lat="44.37256" lon="3.69577">
        <ele>1044.265</ele>
        <time>2018-05-22T12:12:58Z</time>
      </trkpt>
      <trkpt lat="44.37275" lon="3.69598">
        <ele>1043.579</ele>
        <time>2018-05-22T12:12:55Z</time>
      </trkpt>
      <trkpt lat="44.37295" lon="3.6962">
        <ele>1045.545</ele>
        <time>2018-05-22T12:12:52Z</time>
      </trkpt>
      <trkpt lat="44.37313" lon="3.69633">
        <ele>1046.322</ele>
        <time>2018-05-22T12:12:49Z</time>
      </trkpt>
      <trkpt lat="44.37334" lon="3.69628">
        <ele>1047.113</ele>
        <time>2018-05-22T12:12:46Z</time>
      </trkpt>
      <trkpt lat="44.37358" lon="3.69619">
        <ele>1046.327</ele>
        <time>2018-05-22T12:12:43Z</time>
      </trkpt>
      <trkpt lat="44.37381" lon="3.69625">
        <ele>1047.358</ele>
        <time>2018-05-22T12:12:40Z</time>
      </trkpt>
      <trkpt lat="44.37397" lon="3.69646">
        <ele>1047.465</ele>
        <time>2018-05-22T12:12:37Z</time>
      </trkpt>
      <trkpt lat="44.37405" lon="3.69675">
        <ele>1047.008</ele>
        <time>2018-05-22T12:12:34Z</time>
      </trkpt>
      <trkpt lat="44.37414" lon="3.69704">
        <ele>1045.315</ele>
        <time>2018-05-22T12:12:31Z</time>
      </trkpt>
      <trkpt lat="44.37413" lon="3.69735">
        <ele>1046.123</ele>
        <time>2018-05-22T12:12:27Z</time>
      </trkpt>
      <trkpt lat="44.37412" lon="3.69768">
        <ele>1046.133</ele>
        <time>2018-05-22T12:12:21Z</time>
      </trkpt>
      <trkpt lat="44.37409" lon="3.69795">
        <ele>1045.354</ele>
        <time>2018-05-22T12:11:36Z</time>
      </trkpt>
      <trkpt lat="44.37398" lon="3.69823">
        <ele>1046.358</ele>
        <time>2018-05-22T12:11:31Z</time>
      </trkpt>
      <trkpt lat="44.37389" lon="3.69847">
        <ele>1053.344</ele>
        <time>2018-05-22T12:11:10Z</time>
      </trkpt>
      <trkpt lat="44.37383" lon="3.69876">
        <ele>1054.381</ele>
        <time>2018-05-22T12:11:06Z</time>
      </trkpt>
      <trkpt lat="44.37385" lon="3.69905">
        <ele>1055.542</ele>
        <time>2018-05-22T12:11:02Z</time>
      </trkpt>
      <trkpt lat="44.37389" lon="3.69936">
        <ele>1057.486</ele>
        <time>2018-05-22T12:10:57Z</time>
      </trkpt>
      <trkpt lat="44.37391" lon="3.69961">
        <ele>1056.347</ele>
        <time>2018-05-22T12:10:53Z</time>
      </trkpt>
      <trkpt lat="44.37394" lon="3.6999">
        <ele>1055.324</ele>
        <time>2018-05-22T12:10:49Z</time>
      </trkpt>
      <trkpt lat="44.37407" lon="3.70017">
        <ele>1056.308</ele>
        <time>2018-05-22T12:10:45Z</time>
      </trkpt>
      <trkpt lat="44.37418" lon="3.70037">
        <ele>1056.32</ele>
        <time>2018-05-22T12:10:42Z</time>
      </trkpt>
      <trkpt lat="44.3743" lon="3.70064">
        <ele>1056.3</ele>
        <time>2018-05-22T12:10:38Z</time>
      </trkpt>
      <trkpt lat="44.3744" lon="3.7009">
        <ele>1055.329</ele>
        <time>2018-05-22T12:10:34Z</time>
      </trkpt>
      <trkpt lat="44.37451" lon="3.70117">
        <ele>1055.381</ele>
        <time>2018-05-22T12:10:30Z</time>
      </trkpt>
      <trkpt lat="44.37457" lon="3.70144">
        <ele>1056.365</ele>
        <time>2018-05-22T12:10:26Z</time>
      </trkpt>
      <trkpt lat="44.37462" lon="3.70174">
        <ele>1056.191</ele>
        <time>2018-05-22T12:10:22Z</time>
      </trkpt>
      <trkpt lat="44.3747" lon="3.70206">
        <ele>1055.178</ele>
        <time>2018-05-22T12:10:18Z</time>
      </trkpt>
      <trkpt lat="44.3748" lon="3.70236">
        <ele>1055.399</ele>
        <time>2018-05-22T12:10:14Z</time>
      </trkpt>
      <trkpt lat="44.37494" lon="3.70257">
        <ele>1055.183</ele>
        <time>2018-05-22T12:10:11Z</time>
      </trkpt>
      <trkpt lat="44.3751" lon="3.70277">
        <ele>1053.164</ele>
        <time>2018-05-22T12:10:08Z</time>
      </trkpt>
      <trkpt lat="44.37523" lon="3.703">
        <ele>1052.311</ele>
        <time>2018-05-22T12:10:05Z</time>
      </trkpt>
      <trkpt lat="44.37527" lon="3.70326">
        <ele>1052.108</ele>
        <time>2018-05-22T12:10:02Z</time>
      </trkpt>
      <trkpt lat="44.3753" lon="3.70353">
        <ele>1051.223</ele>
        <time>2018-05-22T12:09:59Z</time>
      </trkpt>
      <trkpt lat="44.37539" lon="3.7038">
        <ele>1050.149</ele>
        <time>2018-05-22T12:09:56Z</time>
      </trkpt>
      <trkpt lat="44.37555" lon="3.70403">
        <ele>1049.395</ele>
        <time>2018-05-22T12:09:53Z</time>
      </trkpt>
      <trkpt lat="44.3757" lon="3.70428">
        <ele>1048.287</ele>
        <time>2018-05-22T12:09:50Z</time>
      </trkpt>
      <trkpt lat="44.37584" lon="3.70456">
        <ele>1047.111</ele>
        <time>2018-05-22T12:09:47Z</time>
      </trkpt>
      <trkpt lat="44.37602" lon="3.70478">
        <ele>1046.357</ele>
        <time>2018-05-22T12:09:44Z</time>
      </trkpt>
      <trkpt lat="44.37623" lon="3.70498">
        <ele>1045.154</ele>
        <time>2018-05-22T12:09:41Z</time>
      </trkpt>
      <trkpt lat="44.37639" lon="3.70519">
        <ele>1045.325</ele>
        <time>2018-05-22T12:09:38Z</time>
      </trkpt>
      <trkpt lat="44.37653" lon="3.70541">
        <ele>1045.159</ele>
        <time>2018-05-22T12:09:35Z</time>
      </trkpt>
      <trkpt lat="44.37668" lon="3.70563">
        <ele>1044.12</ele>
        <time>2018-05-22T12:09:32Z</time>
      </trkpt>
      <trkpt lat="44.37684" lon="3.70584">
        <ele>1042.197</ele>
        <time>2018-05-22T12:09:29Z</time>
      </trkpt>
      <trkpt lat="44.37704" lon="3.70599">
        <ele>1039.508</ele>
        <time>2018-05-22T12:09:26Z</time>
      </trkpt>
      <trkpt lat="44.37727" lon="3.70611">
        <ele>1039.311</ele>
        <time>2018-05-22T12:09:23Z</time>
      </trkpt>
      <trkpt lat="44.37749" lon="3.70623">
        <ele>1039.501</ele>
        <time>2018-05-22T12:09:20Z</time>
      </trkpt>
      <trkpt lat="44.37771" lon="3.70633">
        <ele>1042.351</ele>
        <time>2018-05-22T12:09:17Z</time>
      </trkpt>
      <trkpt lat="44.37794" lon="3.70639">
        <ele>1043.24</ele>
        <time>2018-05-22T12:09:14Z</time>
      </trkpt>
      <trkpt lat="44.37818" lon="3.70638">
        <ele>1042.554</ele>
        <time>2018-05-22T12:09:11Z</time>
      </trkpt>
      <trkpt lat="44.37842" lon="3.70633">
        <ele>1044.54</ele>
        <time>2018-05-22T12:09:08Z</time>
      </trkpt>
      <trkpt lat="44.37866" lon="3.70628">
        <ele>1045.367</ele>
        <time>2018-05-22T12:09:05Z</time>
      </trkpt>
      <trkpt lat="44.37888" lon="3.7062">
        <ele>1045.148</ele>
        <time>2018-05-22T12:09:02Z</time>
      </trkpt>
      <trkpt lat="44.37908" lon="3.70619">
        <ele>1044.252</ele>
        <time>2018-05-22T12:08:59Z</time>
      </trkpt>
      <trkpt lat="44.37924" lon="3.70633">
        <ele>1042.313</ele>
        <time>2018-05-22T12:08:56Z</time>
      </trkpt>
      <trkpt lat="44.37928" lon="3.70658">
        <ele>1042.38</ele>
        <time>2018-05-22T12:08:53Z</time>
      </trkpt>
      <trkpt lat="44.37938" lon="3.70683">
        <ele>1042.108</ele>
        <time>2018-05-22T12:08:50Z</time>
      </trkpt>
      <trkpt lat="44.37952" lon="3.70712">
        <ele>1043.126</ele>
        <time>2018-05-22T12:08:47Z</time>
      </trkpt>
      <trkpt lat="44.37968" lon="3.70738">
        <ele>1041.26</ele>
        <time>2018-05-22T12:08:44Z</time>
      </trkpt>
      <trkpt lat="44.37991" lon="3.70751">
        <ele>1038.386</ele>
        <time>2018-05-22T12:08:41Z</time>
      </trkpt>
      <trkpt lat="44.38015" lon="3.70756">
        <ele>1038.559</ele>
        <time>2018-05-22T12:08:38Z</time>
      </trkpt>
      <trkpt lat="44.38035" lon="3.7077">
        <ele>1039.173</ele>
        <time>2018-05-22T12:08:35Z</time>
      </trkpt>
      <trkpt lat="44.38049" lon="3.70794">
        <ele>1038.239</ele>
        <time>2018-05-22T12:08:32Z</time>
      </trkpt>
      <trkpt lat="44.38058" lon="3.70825">
        <ele>1036.386</ele>
        <time>2018-05-22T12:08:29Z</time>
      </trkpt>
      <trkpt lat="44.3806" lon="3.70858">
        <ele>1037.327</ele>
        <time>2018-05-22T12:08:26Z</time>
      </trkpt>
      <trkpt lat="44.38051" lon="3.70887">
        <ele>1037.121</ele>
        <time>2018-05-22T12:08:23Z</time>
      </trkpt>
      <trkpt lat="44.38036" lon="3.70904">
        <ele>1037.312</ele>
        <time>2018-05-22T12:08:20Z</time>
      </trkpt>
      <trkpt lat="44.38013" lon="3.70906">
        <ele>1037.329</ele>
        <time>2018-05-22T12:08:17Z</time>
      </trkpt>
      <trkpt lat="44.3799" lon="3.70909">
        <ele>1037.508</ele>
        <time>2018-05-22T12:08:14Z</time>
      </trkpt>
      <trkpt lat="44.37966" lon="3.70917">
        <ele>1038.326</ele>
        <time>2018-05-22T12:08:11Z</time>
      </trkpt>
      <trkpt lat="44.37941" lon="3.70922">
        <ele>1038.533</ele>
        <time>2018-05-22T12:08:08Z</time>
      </trkpt>
      <trkpt lat="44.37915" lon="3.70927">
        <ele>1039.378</ele>
        <time>2018-05-22T12:08:05Z</time>
      </trkpt>
      <trkpt lat="44.3789" lon="3.70934">
        <ele>1039.396</ele>
        <time>2018-05-22T12:08:02Z</time>
      </trkpt>
      <trkpt lat="44.37866" lon="3.70943">
        <ele>1039.31</ele>
        <time>2018-05-22T12:07:59Z</time>
      </trkpt>
      <trkpt lat="44.37842" lon="3.70953">
        <ele>1040.336</ele>
        <time>2018-05-22T12:07:56Z</time>
      </trkpt>
      <trkpt lat="44.3782" lon="3.70964">
        <ele>1041.333</ele>
        <time>2018-05-22T12:07:53Z</time>
      </trkpt>
      <trkpt lat="44.37799" lon="3.70977">
        <ele>1042.374</ele>
        <time>2018-05-22T12:07:50Z</time>
      </trkpt>
      <trkpt lat="44.37778" lon="3.70989">
        <ele>1043.318</ele>
        <time>2018-05-22T12:07:47Z</time>
      </trkpt>
      <trkpt lat="44.37757" lon="3.71002">
        <ele>1043.539</ele>
        <time>2018-05-22T12:07:44Z</time>
      </trkpt>
      <trkpt lat="44.37737" lon="3.71017">
        <ele>1045.366</ele>
        <time>2018-05-22T12:07:41Z</time>
      </trkpt>
      <trkpt lat="44.37717" lon="3.71034">
        <ele>1046.308</ele>
        <time>2018-05-22T12:07:38Z</time>
      </trkpt>
      <trkpt lat="44.37697" lon="3.71049">
        <ele>1047.514</ele>
        <time>2018-05-22T12:07:35Z</time>
      </trkpt>
      <trkpt lat="44.37675" lon="3.71056">
        <ele>1048.522</ele>
        <time>2018-05-22T12:07:32Z</time>
      </trkpt>
      <trkpt lat="44.37655" lon="3.71063">
        <ele>1050.342</ele>
        <time>2018-05-22T12:07:29Z</time>
      </trkpt>
      <trkpt lat="44.37636" lon="3.71073">
        <ele>1052.333</ele>
        <time>2018-05-22T12:07:26Z</time>
      </trkpt>
      <trkpt lat="44.37616" lon="3.71083">
        <ele>1053.387</ele>
        <time>2018-05-22T12:07:23Z</time>
      </trkpt>
      <trkpt lat="44.37595" lon="3.71096">
        <ele>1054.593</ele>
        <time>2018-05-22T12:07:20Z</time>
      </trkpt>
      <trkpt lat="44.37576" lon="3.7111">
        <ele>1055.43</ele>
        <time>2018-05-22T12:07:17Z</time>
      </trkpt>
      <trkpt lat="44.37556" lon="3.71125">
        <ele>1055.311</ele>
        <time>2018-05-22T12:07:14Z</time>
      </trkpt>
      <trkpt lat="44.37537" lon="3.71126">
        <ele>1055.515</ele>
        <time>2018-05-22T12:07:11Z</time>
      </trkpt>
      <trkpt lat="44.37516" lon="3.71116">
        <ele>1058.796</ele>
        <time>2018-05-22T12:07:08Z</time>
      </trkpt>
      <trkpt lat="44.37491" lon="3.71105">
        <ele>1059.573</ele>
        <time>2018-05-22T12:07:05Z</time>
      </trkpt>
      <trkpt lat="44.37465" lon="3.71104">
        <ele>1061.108</ele>
        <time>2018-05-22T12:07:02Z</time>
      </trkpt>
      <trkpt lat="44.37447" lon="3.71107">
        <ele>1061.309</ele>
        <time>2018-05-22T12:07:00Z</time>
      </trkpt>
      <trkpt lat="44.37429" lon="3.71109">
        <ele>1062.354</ele>
        <time>2018-05-22T12:06:58Z</time>
      </trkpt>
      <trkpt lat="44.37411" lon="3.71117">
        <ele>1062.514</ele>
        <time>2018-05-22T12:06:56Z</time>
      </trkpt>
      <trkpt lat="44.37389" lon="3.71136">
        <ele>1065.385</ele>
        <time>2018-05-22T12:06:53Z</time>
      </trkpt>
      <trkpt lat="44.37375" lon="3.71153">
        <ele>1065.599</ele>
        <time>2018-05-22T12:06:51Z</time>
      </trkpt>
      <trkpt lat="44.37357" lon="3.71178">
        <ele>1067.315</ele>
        <time>2018-05-22T12:06:48Z</time>
      </trkpt>
      <trkpt lat="44.37341" lon="3.71207">
        <ele>1067.382</ele>
        <time>2018-05-22T12:06:45Z</time>
      </trkpt>
      <trkpt lat="44.37323" lon="3.71236">
        <ele>1067.593</ele>
        <time>2018-05-22T12:06:42Z</time>
      </trkpt>
      <trkpt lat="44.37306" lon="3.71264">
        <ele>1068.337</ele>
        <time>2018-05-22T12:06:39Z</time>
      </trkpt>
      <trkpt lat="44.37294" lon="3.71284">
        <ele>1068.358</ele>
        <time>2018-05-22T12:06:37Z</time>
      </trkpt>
      <trkpt lat="44.37281" lon="3.71304">
        <ele>1068.585</ele>
        <time>2018-05-22T12:06:35Z</time>
      </trkpt>
      <trkpt lat="44.37268" lon="3.71322">
        <ele>1070.308</ele>
        <time>2018-05-22T12:06:33Z</time>
      </trkpt>
      <trkpt lat="44.37254" lon="3.7134">
        <ele>1071.317</ele>
        <time>2018-05-22T12:06:31Z</time>
      </trkpt>
      <trkpt lat="44.37241" lon="3.71357">
        <ele>1072.37</ele>
        <time>2018-05-22T12:06:29Z</time>
      </trkpt>
      <trkpt lat="44.37227" lon="3.71375">
        <ele>1073.338</ele>
        <time>2018-05-22T12:06:27Z</time>
      </trkpt>
      <trkpt lat="44.37216" lon="3.71395">
        <ele>1074.399</ele>
        <time>2018-05-22T12:06:25Z</time>
      </trkpt>
      <trkpt lat="44.37207" lon="3.71418">
        <ele>1075.343</ele>
        <time>2018-05-22T12:06:23Z</time>
      </trkpt>
      <trkpt lat="44.372" lon="3.71442">
        <ele>1076.319</ele>
        <time>2018-05-22T12:06:21Z</time>
      </trkpt>
      <trkpt lat="44.37192" lon="3.71465">
        <ele>1076.336</ele>
        <time>2018-05-22T12:06:19Z</time>
      </trkpt>
      <trkpt lat="44.3718" lon="3.71499">
        <ele>1078.367</ele>
        <time>2018-05-22T12:06:16Z</time>
      </trkpt>
      <trkpt lat="44.37174" lon="3.71534">
        <ele>1079.341</ele>
        <time>2018-05-22T12:06:13Z</time>
      </trkpt>
      <trkpt lat="44.3717" lon="3.7157">
        <ele>1080.362</ele>
        <time>2018-05-22T12:06:10Z</time>
      </trkpt>
      <trkpt lat="44.3716" lon="3.71603">
        <ele>1080.539</ele>
        <time>2018-05-22T12:06:07Z</time>
      </trkpt>
      <trkpt lat="44.37147" lon="3.71635">
        <ele>1081.308</ele>
        <time>2018-05-22T12:06:04Z</time>
      </trkpt>
      <trkpt lat="44.37131" lon="3.71663">
        <ele>1081.315</ele>
        <time>2018-05-22T12:06:01Z</time>
      </trkpt>
      <trkpt lat="44.37113" lon="3.71687">
        <ele>1082.541</ele>
        <time>2018-05-22T12:05:58Z</time>
      </trkpt>
      <trkpt lat="44.37093" lon="3.7171">
        <ele>1084.371</ele>
        <time>2018-05-22T12:05:55Z</time>
      </trkpt>
      <trkpt lat="44.37073" lon="3.71731">
        <ele>1084.36</ele>
        <time>2018-05-22T12:05:52Z</time>
      </trkpt>
      <trkpt lat="44.37055" lon="3.71753">
        <ele>1085.324</ele>
        <time>2018-05-22T12:05:49Z</time>
      </trkpt>
      <trkpt lat="44.37038" lon="3.71772">
        <ele>1085.27</ele>
        <time>2018-05-22T12:05:46Z</time>
      </trkpt>
      <trkpt lat="44.37021" lon="3.71792">
        <ele>1084.127</ele>
        <time>2018-05-22T12:05:43Z</time>
      </trkpt>
      <trkpt lat="44.37005" lon="3.71814">
        <ele>1081.348</ele>
        <time>2018-05-22T12:05:40Z</time>
      </trkpt>
      <trkpt lat="44.36988" lon="3.71838">
        <ele>1080.242</ele>
        <time>2018-05-22T12:05:37Z</time>
      </trkpt>
      <trkpt lat="44.36973" lon="3.71861">
        <ele>1078.083</ele>
        <time>2018-05-22T12:05:34Z</time>
      </trkpt>
      <trkpt lat="44.36959" lon="3.71885">
        <ele>1075.28</ele>
        <time>2018-05-22T12:05:31Z</time>
      </trkpt>
      <trkpt lat="44.36948" lon="3.7191">
        <ele>1073.308</ele>
        <time>2018-05-22T12:05:28Z</time>
      </trkpt>
      <trkpt lat="44.36939" lon="3.71937">
        <ele>1072.226</ele>
        <time>2018-05-22T12:05:25Z</time>
      </trkpt>
      <trkpt lat="44.36934" lon="3.71966">
        <ele>1070.36</ele>
        <time>2018-05-22T12:05:22Z</time>
      </trkpt>
      <trkpt lat="44.36929" lon="3.71995">
        <ele>1069.386</ele>
        <time>2018-05-22T12:05:19Z</time>
      </trkpt>
      <trkpt lat="44.36916" lon="3.72021">
        <ele>1068.443</ele>
        <time>2018-05-22T12:05:16Z</time>
      </trkpt>
      <trkpt lat="44.36896" lon="3.72038">
        <ele>1068.167</ele>
        <time>2018-05-22T12:05:13Z</time>
      </trkpt>
      <trkpt lat="44.36875" lon="3.72053">
        <ele>1067.343</ele>
        <time>2018-05-22T12:05:10Z</time>
      </trkpt>
      <trkpt lat="44.36857" lon="3.72063">
        <ele>1067.16</ele>
        <time>2018-05-22T12:05:08Z</time>
      </trkpt>
      <trkpt lat="44.3684" lon="3.72075">
        <ele>1066.221</ele>
        <time>2018-05-22T12:05:06Z</time>
      </trkpt>
      <trkpt lat="44.36823" lon="3.72088">
        <ele>1065.245</ele>
        <time>2018-05-22T12:05:04Z</time>
      </trkpt>
      <trkpt lat="44.36803" lon="3.72102">
        <ele>1064.256</ele>
        <time>2018-05-22T12:05:02Z</time>
      </trkpt>
      <trkpt lat="44.36783" lon="3.72113">
        <ele>1063.273</ele>
        <time>2018-05-22T12:05:00Z</time>
      </trkpt>
      <trkpt lat="44.36762" lon="3.72125">
        <ele>1062.208</ele>
        <time>2018-05-22T12:04:58Z</time>
      </trkpt>
      <trkpt lat="44.36743" lon="3.72136">
        <ele>1061.105</ele>
        <time>2018-05-22T12:04:56Z</time>
      </trkpt>
      <trkpt lat="44.36723" lon="3.72145">
        <ele>1060.132</ele>
        <time>2018-05-22T12:04:54Z</time>
      </trkpt>
      <trkpt lat="44.36704" lon="3.72152">
        <ele>1059.112</ele>
        <time>2018-05-22T12:04:52Z</time>
      </trkpt>
      <trkpt lat="44.36685" lon="3.72159">
        <ele>1058.074</ele>
        <time>2018-05-22T12:04:50Z</time>
      </trkpt>
      <trkpt lat="44.36667" lon="3.72167">
        <ele>1056.258</ele>
        <time>2018-05-22T12:04:48Z</time>
      </trkpt>
      <trkpt lat="44.3665" lon="3.72176">
        <ele>1055.084</ele>
        <time>2018-05-22T12:04:46Z</time>
      </trkpt>
      <trkpt lat="44.36632" lon="3.72183">
        <ele>1053.241</ele>
        <time>2018-05-22T12:04:44Z</time>
      </trkpt>
      <trkpt lat="44.36612" lon="3.72193">
        <ele>1052.272</ele>
        <time>2018-05-22T12:04:42Z</time>
      </trkpt>
      <trkpt lat="44.36594" lon="3.72202">
        <ele>1051.166</ele>
        <time>2018-05-22T12:04:40Z</time>
      </trkpt>
      <trkpt lat="44.36575" lon="3.72211">
        <ele>1050.127</ele>
        <time>2018-05-22T12:04:38Z</time>
      </trkpt>
      <trkpt lat="44.3656" lon="3.72225">
        <ele>1049.194</ele>
        <time>2018-05-22T12:04:36Z</time>
      </trkpt>
      <trkpt lat="44.36542" lon="3.72253">
        <ele>1047.008</ele>
        <time>2018-05-22T12:04:33Z</time>
      </trkpt>
      <trkpt lat="44.36537" lon="3.72288">
        <ele>1044.014</ele>
        <time>2018-05-22T12:04:30Z</time>
      </trkpt>
      <trkpt lat="44.36544" lon="3.72312">
        <ele>1041.268</ele>
        <time>2018-05-22T12:04:28Z</time>
      </trkpt>
      <trkpt lat="44.36558" lon="3.72329">
        <ele>1039.027</ele>
        <time>2018-05-22T12:04:26Z</time>
      </trkpt>
      <trkpt lat="44.36582" lon="3.7234">
        <ele>1037.32</ele>
        <time>2018-05-22T12:04:23Z</time>
      </trkpt>
      <trkpt lat="44.366" lon="3.72345">
        <ele>1037.274</ele>
        <time>2018-05-22T12:04:21Z</time>
      </trkpt>
      <trkpt lat="44.36618" lon="3.72351">
        <ele>1036.22</ele>
        <time>2018-05-22T12:04:19Z</time>
      </trkpt>
      <trkpt lat="44.36637" lon="3.72358">
        <ele>1034.317</ele>
        <time>2018-05-22T12:04:17Z</time>
      </trkpt>
      <trkpt lat="44.36655" lon="3.72372">
        <ele>1034.018</ele>
        <time>2018-05-22T12:04:15Z</time>
      </trkpt>
      <trkpt lat="44.36672" lon="3.72388">
        <ele>1032.322</ele>
        <time>2018-05-22T12:04:13Z</time>
      </trkpt>
      <trkpt lat="44.36688" lon="3.72403">
        <ele>1032.243</ele>
        <time>2018-05-22T12:04:11Z</time>
      </trkpt>
      <trkpt lat="44.36702" lon="3.72419">
        <ele>1031.19</ele>
        <time>2018-05-22T12:04:09Z</time>
      </trkpt>
      <trkpt lat="44.36713" lon="3.72447">
        <ele>1029.308</ele>
        <time>2018-05-22T12:04:06Z</time>
      </trkpt>
      <trkpt lat="44.36705" lon="3.7247">
        <ele>1029.026</ele>
        <time>2018-05-22T12:04:04Z</time>
      </trkpt>
      <trkpt lat="44.3669" lon="3.72486">
        <ele>1027.26</ele>
        <time>2018-05-22T12:04:02Z</time>
      </trkpt>
      <trkpt lat="44.36675" lon="3.725">
        <ele>1026.186</ele>
        <time>2018-05-22T12:04:00Z</time>
      </trkpt>
      <trkpt lat="44.36654" lon="3.72524">
        <ele>1024.296</ele>
        <time>2018-05-22T12:03:57Z</time>
      </trkpt>
      <trkpt lat="44.36637" lon="3.72551">
        <ele>1022.04</ele>
        <time>2018-05-22T12:03:54Z</time>
      </trkpt>
      <trkpt lat="44.36625" lon="3.72571">
        <ele>1020.156</ele>
        <time>2018-05-22T12:03:52Z</time>
      </trkpt>
      <trkpt lat="44.36614" lon="3.72591">
        <ele>1019.063</ele>
        <time>2018-05-22T12:03:50Z</time>
      </trkpt>
      <trkpt lat="44.36596" lon="3.7262">
        <ele>1017.014</ele>
        <time>2018-05-22T12:03:47Z</time>
      </trkpt>
      <trkpt lat="44.36578" lon="3.72648">
        <ele>1015.048</ele>
        <time>2018-05-22T12:03:44Z</time>
      </trkpt>
      <trkpt lat="44.36565" lon="3.72665">
        <ele>1013.179</ele>
        <time>2018-05-22T12:03:42Z</time>
      </trkpt>
      <trkpt lat="44.36552" lon="3.72682">
        <ele>1012.246</ele>
        <time>2018-05-22T12:03:40Z</time>
      </trkpt>
      <trkpt lat="44.36537" lon="3.72699">
        <ele>1011.208</ele>
        <time>2018-05-22T12:03:38Z</time>
      </trkpt>
      <trkpt lat="44.36522" lon="3.72713">
        <ele>1010.214</ele>
        <time>2018-05-22T12:03:36Z</time>
      </trkpt>
      <trkpt lat="44.36499" lon="3.72729">
        <ele>1009.122</ele>
        <time>2018-05-22T12:03:33Z</time>
      </trkpt>
      <trkpt lat="44.36474" lon="3.72736">
        <ele>1008.342</ele>
        <time>2018-05-22T12:03:30Z</time>
      </trkpt>
      <trkpt lat="44.36449" lon="3.72743">
        <ele>1007.183</ele>
        <time>2018-05-22T12:03:27Z</time>
      </trkpt>
      <trkpt lat="44.36432" lon="3.72762">
        <ele>1005.237</ele>
        <time>2018-05-22T12:03:24Z</time>
      </trkpt>
      <trkpt lat="44.36426" lon="3.72792">
        <ele>1002.213</ele>
        <time>2018-05-22T12:03:21Z</time>
      </trkpt>
      <trkpt lat="44.36424" lon="3.72823">
        <ele>1000.24</ele>
        <time>2018-05-22T12:03:18Z</time>
      </trkpt>
      <trkpt lat="44.36418" lon="3.72854">
        <ele>999.051</ele>
        <time>2018-05-22T12:03:15Z</time>
      </trkpt>
      <trkpt lat="44.3641" lon="3.72884">
        <ele>997.145</ele>
        <time>2018-05-22T12:03:12Z</time>
      </trkpt>
      <trkpt lat="44.36395" lon="3.72911">
        <ele>994.276</ele>
        <time>2018-05-22T12:03:09Z</time>
      </trkpt>
      <trkpt lat="44.36379" lon="3.72934">
        <ele>992.013</ele>
        <time>2018-05-22T12:03:06Z</time>
      </trkpt>
      <trkpt lat="44.3637" lon="3.72962">
        <ele>989.008</ele>
        <time>2018-05-22T12:03:03Z</time>
      </trkpt>
      <trkpt lat="44.36371" lon="3.72992">
        <ele>985.105</ele>
        <time>2018-05-22T12:03:00Z</time>
      </trkpt>
      <trkpt lat="44.36384" lon="3.73018">
        <ele>983.032</ele>
        <time>2018-05-22T12:02:57Z</time>
      </trkpt>
      <trkpt lat="44.36398" lon="3.73043">
        <ele>980.012</ele>
        <time>2018-05-22T12:02:54Z</time>
      </trkpt>
      <trkpt lat="44.36407" lon="3.73074">
        <ele>977.078</ele>
        <time>2018-05-22T12:02:51Z</time>
      </trkpt>
      <trkpt lat="44.36408" lon="3.73107">
        <ele>973.342</ele>
        <time>2018-05-22T12:02:48Z</time>
      </trkpt>
      <trkpt lat="44.36402" lon="3.7314">
        <ele>973.078</ele>
        <time>2018-05-22T12:02:45Z</time>
      </trkpt>
      <trkpt lat="44.36394" lon="3.73172">
        <ele>971.195</ele>
        <time>2018-05-22T12:02:42Z</time>
      </trkpt>
      <trkpt lat="44.36383" lon="3.73203">
        <ele>970.116</ele>
        <time>2018-05-22T12:02:39Z</time>
      </trkpt>
      <trkpt lat="44.36369" lon="3.73231">
        <ele>967.25</ele>
        <time>2018-05-22T12:02:36Z</time>
      </trkpt>
      <trkpt lat="44.36353" lon="3.73256">
        <ele>966.181</ele>
        <time>2018-05-22T12:02:33Z</time>
      </trkpt>
      <trkpt lat="44.36338" lon="3.73282">
        <ele>964.088</ele>
        <time>2018-05-22T12:02:30Z</time>
      </trkpt>
      <trkpt lat="44.36326" lon="3.73309">
        <ele>961.808</ele>
        <time>2018-05-22T12:02:27Z</time>
      </trkpt>
      <trkpt lat="44.36319" lon="3.73335">
        <ele>958.121</ele>
        <time>2018-05-22T12:02:24Z</time>
      </trkpt>
      <trkpt lat="44.36322" lon="3.73367">
        <ele>955.029</ele>
        <time>2018-05-22T12:02:20Z</time>
      </trkpt>
      <trkpt lat="44.36343" lon="3.73377">
        <ele>950.466</ele>
        <time>2018-05-22T12:02:17Z</time>
      </trkpt>
      <trkpt lat="44.36365" lon="3.73382">
        <ele>949.164</ele>
        <time>2018-05-22T12:02:14Z</time>
      </trkpt>
      <trkpt lat="44.36386" lon="3.73384">
        <ele>945.928</ele>
        <time>2018-05-22T12:02:11Z</time>
      </trkpt>
      <trkpt lat="44.36408" lon="3.73382">
        <ele>942.054</ele>
        <time>2018-05-22T12:02:08Z</time>
      </trkpt>
      <trkpt lat="44.3643" lon="3.73371">
        <ele>936.861</ele>
        <time>2018-05-22T12:02:05Z</time>
      </trkpt>
      <trkpt lat="44.36448" lon="3.73354">
        <ele>934.042</ele>
        <time>2018-05-22T12:02:02Z</time>
      </trkpt>
      <trkpt lat="44.36466" lon="3.73341">
        <ele>932.176</ele>
        <time>2018-05-22T12:01:59Z</time>
      </trkpt>
      <trkpt lat="44.36487" lon="3.73332">
        <ele>930.077</ele>
        <time>2018-05-22T12:01:56Z</time>
      </trkpt>
      <trkpt lat="44.36506" lon="3.73336">
        <ele>927.984</ele>
        <time>2018-05-22T12:01:53Z</time>
      </trkpt>
      <trkpt lat="44.36527" lon="3.73342">
        <ele>925.408</ele>
        <time>2018-05-22T12:01:50Z</time>
      </trkpt>
      <trkpt lat="44.36545" lon="3.7335">
        <ele>925.311</ele>
        <time>2018-05-22T12:01:47Z</time>
      </trkpt>
      <trkpt lat="44.36563" lon="3.73359">
        <ele>924.083</ele>
        <time>2018-05-22T12:01:44Z</time>
      </trkpt>
      <trkpt lat="44.36584" lon="3.73366">
        <ele>922.223</ele>
        <time>2018-05-22T12:01:41Z</time>
      </trkpt>
      <trkpt lat="44.36604" lon="3.73369">
        <ele>920.365</ele>
        <time>2018-05-22T12:01:38Z</time>
      </trkpt>
      <trkpt lat="44.36625" lon="3.73361">
        <ele>919.329</ele>
        <time>2018-05-22T12:01:35Z</time>
      </trkpt>
      <trkpt lat="44.36644" lon="3.73353">
        <ele>920.365</ele>
        <time>2018-05-22T12:01:32Z</time>
      </trkpt>
      <trkpt lat="44.36664" lon="3.7334">
        <ele>919.342</ele>
        <time>2018-05-22T12:01:29Z</time>
      </trkpt>
      <trkpt lat="44.36685" lon="3.73339">
        <ele>919.213</ele>
        <time>2018-05-22T12:01:26Z</time>
      </trkpt>
      <trkpt lat="44.36706" lon="3.73337">
        <ele>917.147</ele>
        <time>2018-05-22T12:01:23Z</time>
      </trkpt>
      <trkpt lat="44.36722" lon="3.73357">
        <ele>915.188</ele>
        <time>2018-05-22T12:01:19Z</time>
      </trkpt>
      <trkpt lat="44.36731" lon="3.7338">
        <ele>913.125</ele>
        <time>2018-05-22T12:01:16Z</time>
      </trkpt>
      <trkpt lat="44.36744" lon="3.734">
        <ele>911.208</ele>
        <time>2018-05-22T12:01:13Z</time>
      </trkpt>
      <trkpt lat="44.36752" lon="3.73423">
        <ele>910.115</ele>
        <time>2018-05-22T12:01:10Z</time>
      </trkpt>
      <trkpt lat="44.36747" lon="3.73449">
        <ele>909.023</ele>
        <time>2018-05-22T12:01:07Z</time>
      </trkpt>
      <trkpt lat="44.36735" lon="3.73471">
        <ele>907.333</ele>
        <time>2018-05-22T12:01:04Z</time>
      </trkpt>
      <trkpt lat="44.36725" lon="3.73495">
        <ele>906.274</ele>
        <time>2018-05-22T12:01:01Z</time>
      </trkpt>
      <trkpt lat="44.36717" lon="3.7352">
        <ele>905.338</ele>
        <time>2018-05-22T12:00:58Z</time>
      </trkpt>
      <trkpt lat="44.36708" lon="3.73546">
        <ele>904.374</ele>
        <time>2018-05-22T12:00:55Z</time>
      </trkpt>
      <trkpt lat="44.367" lon="3.73571">
        <ele>904.311</ele>
        <time>2018-05-22T12:00:52Z</time>
      </trkpt>
      <trkpt lat="44.3669" lon="3.73594">
        <ele>903.422</ele>
        <time>2018-05-22T12:00:49Z</time>
      </trkpt>
      <trkpt lat="44.36679" lon="3.7362">
        <ele>905.116</ele>
        <time>2018-05-22T12:00:46Z</time>
      </trkpt>
      <trkpt lat="44.36672" lon="3.73647">
        <ele>902.367</ele>
        <time>2018-05-22T12:00:43Z</time>
      </trkpt>
      <trkpt lat="44.36669" lon="3.73677">
        <ele>902.314</ele>
        <time>2018-05-22T12:00:40Z</time>
      </trkpt>
      <trkpt lat="44.3667" lon="3.73703">
        <ele>899.208</ele>
        <time>2018-05-22T12:00:37Z</time>
      </trkpt>
      <trkpt lat="44.36679" lon="3.73733">
        <ele>898.814</ele>
        <time>2018-05-22T12:00:33Z</time>
      </trkpt>
      <trkpt lat="44.36689" lon="3.73757">
        <ele>895.368</ele>
        <time>2018-05-22T12:00:30Z</time>
      </trkpt>
      <trkpt lat="44.36687" lon="3.73787">
        <ele>895.527</ele>
        <time>2018-05-22T12:00:26Z</time>
      </trkpt>
      <trkpt lat="44.36671" lon="3.73806">
        <ele>897.396</ele>
        <time>2018-05-22T12:00:23Z</time>
      </trkpt>
      <trkpt lat="44.36655" lon="3.73826">
        <ele>897.57</ele>
        <time>2018-05-22T12:00:20Z</time>
      </trkpt>
      <trkpt lat="44.36643" lon="3.7385">
        <ele>897.996</ele>
        <time>2018-05-22T12:00:17Z</time>
      </trkpt>
      <trkpt lat="44.36636" lon="3.73875">
        <ele>896.683</ele>
        <time>2018-05-22T12:00:14Z</time>
      </trkpt>
      <trkpt lat="44.36632" lon="3.73901">
        <ele>896.264</ele>
        <time>2018-05-22T12:00:11Z</time>
      </trkpt>
      <trkpt lat="44.36624" lon="3.73925">
        <ele>895.368</ele>
        <time>2018-05-22T12:00:08Z</time>
      </trkpt>
      <trkpt lat="44.36612" lon="3.73948">
        <ele>894.179</ele>
        <time>2018-05-22T12:00:05Z</time>
      </trkpt>
      <trkpt lat="44.36601" lon="3.73973">
        <ele>893.166</ele>
        <time>2018-05-22T12:00:02Z</time>
      </trkpt>
      <trkpt lat="44.36588" lon="3.73998">
        <ele>891.008</ele>
        <time>2018-05-22T11:59:59Z</time>
      </trkpt>
      <trkpt lat="44.36574" lon="3.74019">
        <ele>889.316</ele>
        <time>2018-05-22T11:59:56Z</time>
      </trkpt>
      <trkpt lat="44.36559" lon="3.7404">
        <ele>889.188</ele>
        <time>2018-05-22T11:59:53Z</time>
      </trkpt>
      <trkpt lat="44.36543" lon="3.7406">
        <ele>888.146</ele>
        <time>2018-05-22T11:59:50Z</time>
      </trkpt>
      <trkpt lat="44.36526" lon="3.74081">
        <ele>886.245</ele>
        <time>2018-05-22T11:59:47Z</time>
      </trkpt>
      <trkpt lat="44.3651" lon="3.74101">
        <ele>885.079</ele>
        <time>2018-05-22T11:59:44Z</time>
      </trkpt>
      <trkpt lat="44.36493" lon="3.74123">
        <ele>882.345</ele>
        <time>2018-05-22T11:59:41Z</time>
      </trkpt>
      <trkpt lat="44.36478" lon="3.74145">
        <ele>882.032</ele>
        <time>2018-05-22T11:59:38Z</time>
      </trkpt>
      <trkpt lat="44.36463" lon="3.74167">
        <ele>879.223</ele>
        <time>2018-05-22T11:59:35Z</time>
      </trkpt>
      <trkpt lat="44.3645" lon="3.74187">
        <ele>878.297</ele>
        <time>2018-05-22T11:59:32Z</time>
      </trkpt>
      <trkpt lat="44.36436" lon="3.74203">
        <ele>877.198</ele>
        <time>2018-05-22T11:59:29Z</time>
      </trkpt>
      <trkpt lat="44.3642" lon="3.7422">
        <ele>875.045</ele>
        <time>2018-05-22T11:59:26Z</time>
      </trkpt>
      <trkpt lat="44.36402" lon="3.74237">
        <ele>872.208</ele>
        <time>2018-05-22T11:59:22Z</time>
      </trkpt>
      <trkpt lat="44.36386" lon="3.74255">
        <ele>871.221</ele>
        <time>2018-05-22T11:59:18Z</time>
      </trkpt>
      <trkpt lat="44.36374" lon="3.74279">
        <ele>867.301</ele>
        <time>2018-05-22T11:59:13Z</time>
      </trkpt>
      <trkpt lat="44.36376" lon="3.74305">
        <ele>868.539</ele>
        <time>2018-05-22T11:59:07Z</time>
      </trkpt>
      <trkpt lat="44.36377" lon="3.74333">
        <ele>869.35</ele>
        <time>2018-05-22T11:58:54Z</time>
      </trkpt>
      <trkpt lat="44.36359" lon="3.74345">
        <ele>871.374</ele>
        <time>2018-05-22T11:58:48Z</time>
      </trkpt>
      <trkpt lat="44.3634" lon="3.74357">
        <ele>870.17</ele>
        <time>2018-05-22T11:58:42Z</time>
      </trkpt>
      <trkpt lat="44.36329" lon="3.74378">
        <ele>867.327</ele>
        <time>2018-05-22T11:58:23Z</time>
      </trkpt>
      <trkpt lat="44.36322" lon="3.74404">
        <ele>869.368</ele>
        <time>2018-05-22T11:58:14Z</time>
      </trkpt>
      <trkpt lat="44.36314" lon="3.7443">
        <ele>870.952</ele>
        <time>2018-05-22T11:58:05Z</time>
      </trkpt>
      <trkpt lat="44.36305" lon="3.74455">
        <ele>860.323</ele>
        <time>2018-05-22T11:57:54Z</time>
      </trkpt>
      <trkpt lat="44.36303" lon="3.74476">
        <ele>870.38</ele>
        <time>2018-05-22T11:41:10Z</time>
      </trkpt>
      <trkpt lat="44.36303" lon="3.74503">
        <ele>874.308</ele>
        <time>2018-05-22T11:40:56Z</time>
      </trkpt>
      <trkpt lat="44.36304" lon="3.7453">
        <ele>874.317</ele>
        <time>2018-05-22T11:40:51Z</time>
      </trkpt>
      <trkpt lat="44.36306" lon="3.74556">
        <ele>874.343</ele>
        <time>2018-05-22T11:40:46Z</time>
      </trkpt>
      <trkpt lat="44.36306" lon="3.74583">
        <ele>875.282</ele>
        <time>2018-05-22T11:40:40Z</time>
      </trkpt>
      <trkpt lat="44.36307" lon="3.74611">
        <ele>874.756</ele>
        <time>2018-05-22T11:40:35Z</time>
      </trkpt>
      <trkpt lat="44.36313" lon="3.74639">
        <ele>878.56</ele>
        <time>2018-05-22T11:40:30Z</time>
      </trkpt>
      <trkpt lat="44.36324" lon="3.74667">
        <ele>880.526</ele>
        <time>2018-05-22T11:40:26Z</time>
      </trkpt>
      <trkpt lat="44.36334" lon="3.74692">
        <ele>882.363</ele>
        <time>2018-05-22T11:40:23Z</time>
      </trkpt>
      <trkpt lat="44.3634" lon="3.74724">
        <ele>882.124</ele>
        <time>2018-05-22T11:40:19Z</time>
      </trkpt>
      <trkpt lat="44.36345" lon="3.74757">
        <ele>881.338</ele>
        <time>2018-05-22T11:40:15Z</time>
      </trkpt>
      <trkpt lat="44.36341" lon="3.74782">
        <ele>881.599</ele>
        <time>2018-05-22T11:40:12Z</time>
      </trkpt>
      <trkpt lat="44.36336" lon="3.74812">
        <ele>883.516</ele>
        <time>2018-05-22T11:40:08Z</time>
      </trkpt>
      <trkpt lat="44.36334" lon="3.74842">
        <ele>885.308</ele>
        <time>2018-05-22T11:40:04Z</time>
      </trkpt>
      <trkpt lat="44.36332" lon="3.74869">
        <ele>890.221</ele>
        <time>2018-05-22T11:40:00Z</time>
      </trkpt>
      <trkpt lat="44.36325" lon="3.74901">
        <ele>893.329</ele>
        <time>2018-05-22T11:39:56Z</time>
      </trkpt>
      <trkpt lat="44.36318" lon="3.74925">
        <ele>894.347</ele>
        <time>2018-05-22T11:39:53Z</time>
      </trkpt>
      <trkpt lat="44.36313" lon="3.74952">
        <ele>895.093</ele>
        <time>2018-05-22T11:39:49Z</time>
      </trkpt>
      <trkpt lat="44.3631" lon="3.74981">
        <ele>893.217</ele>
        <time>2018-05-22T11:39:08Z</time>
      </trkpt>
      <trkpt lat="44.36301" lon="3.75005">
        <ele>896.383</ele>
        <time>2018-05-22T11:37:44Z</time>
      </trkpt>
      <trkpt lat="44.36304" lon="3.7498">
        <ele>892.37</ele>
        <time>2018-05-22T11:37:34Z</time>
      </trkpt>
      <trkpt lat="44.36306" lon="3.74955">
        <ele>892.181</ele>
        <time>2018-05-22T11:37:31Z</time>
      </trkpt>
      <trkpt lat="44.36313" lon="3.74928">
        <ele>891.295</ele>
        <time>2018-05-22T11:37:28Z</time>
      </trkpt>
      <trkpt lat="44.36323" lon="3.74902">
        <ele>890.236</ele>
        <time>2018-05-22T11:37:25Z</time>
      </trkpt>
      <trkpt lat="44.36329" lon="3.74877">
        <ele>888.363</ele>
        <time>2018-05-22T11:37:22Z</time>
      </trkpt>
      <trkpt lat="44.36332" lon="3.74845">
        <ele>888.308</ele>
        <time>2018-05-22T11:37:18Z</time>
      </trkpt>
      <trkpt lat="44.36335" lon="3.74816">
        <ele>887.319</ele>
        <time>2018-05-22T11:37:14Z</time>
      </trkpt>
      <trkpt lat="44.36338" lon="3.74785">
        <ele>885.309</ele>
        <time>2018-05-22T11:37:10Z</time>
      </trkpt>
      <trkpt lat="44.36344" lon="3.74756">
        <ele>884.519</ele>
        <time>2018-05-22T11:37:06Z</time>
      </trkpt>
      <trkpt lat="44.3634" lon="3.74729">
        <ele>884.365</ele>
        <time>2018-05-22T11:37:00Z</time>
      </trkpt>
      <trkpt lat="44.3634" lon="3.74699">
        <ele>881.529</ele>
        <time>2018-05-22T11:36:54Z</time>
      </trkpt>
      <trkpt lat="44.3634" lon="3.74673">
        <ele>882.325</ele>
        <time>2018-05-22T11:36:33Z</time>
      </trkpt>
      <trkpt lat="44.36339" lon="3.74644">
        <ele>882.512</ele>
        <time>2018-05-22T11:36:29Z</time>
      </trkpt>
      <trkpt lat="44.36342" lon="3.74615">
        <ele>884.383</ele>
        <time>2018-05-22T11:36:25Z</time>
      </trkpt>
      <trkpt lat="44.3635" lon="3.74588">
        <ele>884.337</ele>
        <time>2018-05-22T11:36:21Z</time>
      </trkpt>
      <trkpt lat="44.36361" lon="3.74564">
        <ele>884.768</ele>
        <time>2018-05-22T11:36:17Z</time>
      </trkpt>
      <trkpt lat="44.36372" lon="3.74542">
        <ele>889.795</ele>
        <time>2018-05-22T11:36:13Z</time>
      </trkpt>
      <trkpt lat="44.36389" lon="3.74527">
        <ele>889.308</ele>
        <time>2018-05-22T11:36:04Z</time>
      </trkpt>
      <trkpt lat="44.36403" lon="3.74542">
        <ele>890.107</ele>
        <time>2018-05-22T11:35:27Z</time>
      </trkpt>
      <trkpt lat="44.36401" lon="3.74568">
        <ele>891.361</ele>
        <time>2018-05-22T11:35:23Z</time>
      </trkpt>
      <trkpt lat="44.36395" lon="3.74594">
        <ele>892.331</ele>
        <time>2018-05-22T11:35:20Z</time>
      </trkpt>
      <trkpt lat="44.36389" lon="3.7462">
        <ele>893.329</ele>
        <time>2018-05-22T11:35:17Z</time>
      </trkpt>
      <trkpt lat="44.36381" lon="3.74652">
        <ele>895.333</ele>
        <time>2018-05-22T11:35:13Z</time>
      </trkpt>
      <trkpt lat="44.36373" lon="3.7468">
        <ele>895.529</ele>
        <time>2018-05-22T11:35:09Z</time>
      </trkpt>
      <trkpt lat="44.36366" lon="3.74705">
        <ele>898.776</ele>
        <time>2018-05-22T11:35:05Z</time>
      </trkpt>
      <trkpt lat="44.36376" lon="3.74728">
        <ele>903.367</ele>
        <time>2018-05-22T11:34:58Z</time>
      </trkpt>
      <trkpt lat="44.36378" lon="3.74701">
        <ele>904.131</ele>
        <time>2018-05-22T11:34:55Z</time>
      </trkpt>
      <trkpt lat="44.36385" lon="3.74676">
        <ele>905.322</ele>
        <time>2018-05-22T11:34:52Z</time>
      </trkpt>
      <trkpt lat="44.36399" lon="3.74657">
        <ele>905.349</ele>
        <time>2018-05-22T11:34:49Z</time>
      </trkpt>
      <trkpt lat="44.36422" lon="3.74649">
        <ele>906.308</ele>
        <time>2018-05-22T11:34:45Z</time>
      </trkpt>
      <trkpt lat="44.36444" lon="3.74645">
        <ele>907.313</ele>
        <time>2018-05-22T11:34:41Z</time>
      </trkpt>
      <trkpt lat="44.36465" lon="3.74644">
        <ele>909.285</ele>
        <time>2018-05-22T11:34:37Z</time>
      </trkpt>
      <trkpt lat="44.36487" lon="3.74646">
        <ele>909.573</ele>
        <time>2018-05-22T11:34:33Z</time>
      </trkpt>
      <trkpt lat="44.36509" lon="3.74651">
        <ele>911.334</ele>
        <time>2018-05-22T11:34:24Z</time>
      </trkpt>
      <trkpt lat="44.36521" lon="3.74672">
        <ele>914.548</ele>
        <time>2018-05-22T11:34:07Z</time>
      </trkpt>
      <trkpt lat="44.36503" lon="3.74665">
        <ele>917.574</ele>
        <time>2018-05-22T11:33:55Z</time>
      </trkpt>
      <trkpt lat="44.36484" lon="3.74665">
        <ele>919.361</ele>
        <time>2018-05-22T11:33:52Z</time>
      </trkpt>
      <trkpt lat="44.36465" lon="3.74674">
        <ele>919.322</ele>
        <time>2018-05-22T11:33:49Z</time>
      </trkpt>
      <trkpt lat="44.36447" lon="3.74686">
        <ele>920.346</ele>
        <time>2018-05-22T11:33:46Z</time>
      </trkpt>
      <trkpt lat="44.3643" lon="3.747">
        <ele>920.717</ele>
        <time>2018-05-22T11:33:43Z</time>
      </trkpt>
      <trkpt lat="44.36417" lon="3.74721">
        <ele>924.544</ele>
        <time>2018-05-22T11:33:40Z</time>
      </trkpt>
      <trkpt lat="44.3641" lon="3.74755">
        <ele>926.508</ele>
        <time>2018-05-22T11:33:36Z</time>
      </trkpt>
      <trkpt lat="44.36406" lon="3.74781">
        <ele>927.405</ele>
        <time>2018-05-22T11:33:33Z</time>
      </trkpt>
      <trkpt lat="44.36403" lon="3.74808">
        <ele>930.141</ele>
        <time>2018-05-22T11:33:30Z</time>
      </trkpt>
      <trkpt lat="44.36402" lon="3.74835">
        <ele>931.121</ele>
        <time>2018-05-22T11:33:27Z</time>
      </trkpt>
      <trkpt lat="44.36402" lon="3.74861">
        <ele>930.557</ele>
        <time>2018-05-22T11:33:24Z</time>
      </trkpt>
      <trkpt lat="44.36402" lon="3.74894">
        <ele>933.541</ele>
        <time>2018-05-22T11:33:20Z</time>
      </trkpt>
      <trkpt lat="44.36399" lon="3.74923">
        <ele>935.587</ele>
        <time>2018-05-22T11:33:16Z</time>
      </trkpt>
      <trkpt lat="44.36393" lon="3.74955">
        <ele>939.584</ele>
        <time>2018-05-22T11:33:11Z</time>
      </trkpt>
      <trkpt lat="44.36392" lon="3.74984">
        <ele>942.325</ele>
        <time>2018-05-22T11:33:06Z</time>
      </trkpt>
      <trkpt lat="44.36394" lon="3.75012">
        <ele>944.589</ele>
        <time>2018-05-22T11:33:02Z</time>
      </trkpt>
      <trkpt lat="44.36395" lon="3.75039">
        <ele>946.36</ele>
        <time>2018-05-22T11:32:59Z</time>
      </trkpt>
      <trkpt lat="44.36401" lon="3.75068">
        <ele>947.787</ele>
        <time>2018-05-22T11:32:56Z</time>
      </trkpt>
      <trkpt lat="44.36406" lon="3.75104">
        <ele>950.308</ele>
        <time>2018-05-22T11:32:53Z</time>
      </trkpt>
      <trkpt lat="44.36409" lon="3.7513">
        <ele>951.323</ele>
        <time>2018-05-22T11:32:51Z</time>
      </trkpt>
      <trkpt lat="44.3641" lon="3.75156">
        <ele>952.503</ele>
        <time>2018-05-22T11:32:49Z</time>
      </trkpt>
      <trkpt lat="44.36413" lon="3.75181">
        <ele>953.759</ele>
        <time>2018-05-22T11:32:47Z</time>
      </trkpt>
      <trkpt lat="44.36414" lon="3.75207">
        <ele>955.77</ele>
        <time>2018-05-22T11:32:45Z</time>
      </trkpt>
      <trkpt lat="44.36413" lon="3.75244">
        <ele>960.564</ele>
        <time>2018-05-22T11:32:42Z</time>
      </trkpt>
      <trkpt lat="44.36412" lon="3.75281">
        <ele>962.36</ele>
        <time>2018-05-22T11:32:39Z</time>
      </trkpt>
      <trkpt lat="44.36411" lon="3.75319">
        <ele>964.547</ele>
        <time>2018-05-22T11:32:36Z</time>
      </trkpt>
      <trkpt lat="44.36409" lon="3.75354">
        <ele>964.798</ele>
        <time>2018-05-22T11:32:33Z</time>
      </trkpt>
      <trkpt lat="44.364" lon="3.75386">
        <ele>966.552</ele>
        <time>2018-05-22T11:32:30Z</time>
      </trkpt>
      <trkpt lat="44.36391" lon="3.75418">
        <ele>967.523</ele>
        <time>2018-05-22T11:32:27Z</time>
      </trkpt>
      <trkpt lat="44.36384" lon="3.7545">
        <ele>968.36</ele>
        <time>2018-05-22T11:32:24Z</time>
      </trkpt>
      <trkpt lat="44.36377" lon="3.7548">
        <ele>970.508</ele>
        <time>2018-05-22T11:32:21Z</time>
      </trkpt>
      <trkpt lat="44.36379" lon="3.75509">
        <ele>970.526</ele>
        <time>2018-05-22T11:32:18Z</time>
      </trkpt>
      <trkpt lat="44.36377" lon="3.75537">
        <ele>972.324</ele>
        <time>2018-05-22T11:32:15Z</time>
      </trkpt>
      <trkpt lat="44.3637" lon="3.7556">
        <ele>972.588</ele>
        <time>2018-05-22T11:32:12Z</time>
      </trkpt>
      <trkpt lat="44.3636" lon="3.75582">
        <ele>974.664</ele>
        <time>2018-05-22T11:32:09Z</time>
      </trkpt>
      <trkpt lat="44.36348" lon="3.75601">
        <ele>976.588</ele>
        <time>2018-05-22T11:32:06Z</time>
      </trkpt>
      <trkpt lat="44.3633" lon="3.75623">
        <ele>978.514</ele>
        <time>2018-05-22T11:32:03Z</time>
      </trkpt>
      <trkpt lat="44.36307" lon="3.75634">
        <ele>980.381</ele>
        <time>2018-05-22T11:32:00Z</time>
      </trkpt>
      <trkpt lat="44.36281" lon="3.75634">
        <ele>979.572</ele>
        <time>2018-05-22T11:31:57Z</time>
      </trkpt>
      <trkpt lat="44.36256" lon="3.75636">
        <ele>980.926</ele>
        <time>2018-05-22T11:31:54Z</time>
      </trkpt>
      <trkpt lat="44.36238" lon="3.75638">
        <ele>983.387</ele>
        <time>2018-05-22T11:31:52Z</time>
      </trkpt>
      <trkpt lat="44.36216" lon="3.75647">
        <ele>984.584</ele>
        <time>2018-05-22T11:31:49Z</time>
      </trkpt>
      <trkpt lat="44.36196" lon="3.75658">
        <ele>986.608</ele>
        <time>2018-05-22T11:31:46Z</time>
      </trkpt>
      <trkpt lat="44.36179" lon="3.75677">
        <ele>987.508</ele>
        <time>2018-05-22T11:31:43Z</time>
      </trkpt>
      <trkpt lat="44.36168" lon="3.75698">
        <ele>989.562</ele>
        <time>2018-05-22T11:31:41Z</time>
      </trkpt>
      <trkpt lat="44.3616" lon="3.7572">
        <ele>990.522</ele>
        <time>2018-05-22T11:31:39Z</time>
      </trkpt>
      <trkpt lat="44.3615" lon="3.75754">
        <ele>991.798</ele>
        <time>2018-05-22T11:31:36Z</time>
      </trkpt>
      <trkpt lat="44.36146" lon="3.7579">
        <ele>993.572</ele>
        <time>2018-05-22T11:31:33Z</time>
      </trkpt>
      <trkpt lat="44.36143" lon="3.75826">
        <ele>995.378</ele>
        <time>2018-05-22T11:31:30Z</time>
      </trkpt>
      <trkpt lat="44.36142" lon="3.75851">
        <ele>995.755</ele>
        <time>2018-05-22T11:31:28Z</time>
      </trkpt>
      <trkpt lat="44.36144" lon="3.75887">
        <ele>998.446</ele>
        <time>2018-05-22T11:31:25Z</time>
      </trkpt>
      <trkpt lat="44.36147" lon="3.75923">
        <ele>1001.33</ele>
        <time>2018-05-22T11:31:22Z</time>
      </trkpt>
      <trkpt lat="44.36149" lon="3.75958">
        <ele>1002.321</ele>
        <time>2018-05-22T11:31:19Z</time>
      </trkpt>
      <trkpt lat="44.3615" lon="3.75993">
        <ele>1004.388</ele>
        <time>2018-05-22T11:31:16Z</time>
      </trkpt>
      <trkpt lat="44.3615" lon="3.76028">
        <ele>1006.408</ele>
        <time>2018-05-22T11:31:13Z</time>
      </trkpt>
      <trkpt lat="44.36146" lon="3.7606">
        <ele>1008.513</ele>
        <time>2018-05-22T11:31:10Z</time>
      </trkpt>
      <trkpt lat="44.36142" lon="3.76091">
        <ele>1010.321</ele>
        <time>2018-05-22T11:31:07Z</time>
      </trkpt>
      <trkpt lat="44.36142" lon="3.76122">
        <ele>1010.561</ele>
        <time>2018-05-22T11:31:04Z</time>
      </trkpt>
      <trkpt lat="44.36144" lon="3.76151">
        <ele>1012.344</ele>
        <time>2018-05-22T11:31:01Z</time>
      </trkpt>
      <trkpt lat="44.36146" lon="3.76178">
        <ele>1013.348</ele>
        <time>2018-05-22T11:30:58Z</time>
      </trkpt>
      <trkpt lat="44.36152" lon="3.76202">
        <ele>1015.544</ele>
        <time>2018-05-22T11:30:55Z</time>
      </trkpt>
      <trkpt lat="44.36159" lon="3.76233">
        <ele>1017.381</ele>
        <time>2018-05-22T11:30:51Z</time>
      </trkpt>
      <trkpt lat="44.36171" lon="3.76262">
        <ele>1020.392</ele>
        <time>2018-05-22T11:30:47Z</time>
      </trkpt>
      <trkpt lat="44.36187" lon="3.76282">
        <ele>1021.566</ele>
        <time>2018-05-22T11:30:44Z</time>
      </trkpt>
      <trkpt lat="44.36199" lon="3.76306">
        <ele>1024.367</ele>
        <time>2018-05-22T11:30:41Z</time>
      </trkpt>
      <trkpt lat="44.3621" lon="3.76329">
        <ele>1024.574</ele>
        <time>2018-05-22T11:30:38Z</time>
      </trkpt>
      <trkpt lat="44.36229" lon="3.76347">
        <ele>1027.308</ele>
        <time>2018-05-22T11:30:34Z</time>
      </trkpt>
      <trkpt lat="44.36249" lon="3.76342">
        <ele>1030.308</ele>
        <time>2018-05-22T11:30:30Z</time>
      </trkpt>
      <trkpt lat="44.36268" lon="3.76323">
        <ele>1032.326</ele>
        <time>2018-05-22T11:30:26Z</time>
      </trkpt>
      <trkpt lat="44.36284" lon="3.76302">
        <ele>1034.325</ele>
        <time>2018-05-22T11:30:22Z</time>
      </trkpt>
      <trkpt lat="44.36298" lon="3.76281">
        <ele>1035.358</ele>
        <time>2018-05-22T11:29:47Z</time>
      </trkpt>
      <trkpt lat="44.36313" lon="3.76262">
        <ele>1037.422</ele>
        <time>2018-05-22T11:29:42Z</time>
      </trkpt>
      <trkpt lat="44.36328" lon="3.76244">
        <ele>1040.528</ele>
        <time>2018-05-22T11:29:39Z</time>
      </trkpt>
      <trkpt lat="44.36346" lon="3.7622">
        <ele>1043.575</ele>
        <time>2018-05-22T11:29:36Z</time>
      </trkpt>
      <trkpt lat="44.36364" lon="3.76195">
        <ele>1046.576</ele>
        <time>2018-05-22T11:29:33Z</time>
      </trkpt>
      <trkpt lat="44.36381" lon="3.76171">
        <ele>1049.59</ele>
        <time>2018-05-22T11:29:30Z</time>
      </trkpt>
      <trkpt lat="44.36402" lon="3.76158">
        <ele>1051.511</ele>
        <time>2018-05-22T11:29:27Z</time>
      </trkpt>
      <trkpt lat="44.36425" lon="3.76152">
        <ele>1054.378</ele>
        <time>2018-05-22T11:29:24Z</time>
      </trkpt>
      <trkpt lat="44.36446" lon="3.76137">
        <ele>1055.808</ele>
        <time>2018-05-22T11:29:21Z</time>
      </trkpt>
      <trkpt lat="44.36467" lon="3.7612">
        <ele>1059.524</ele>
        <time>2018-05-22T11:29:18Z</time>
      </trkpt>
      <trkpt lat="44.36488" lon="3.76106">
        <ele>1062.504</ele>
        <time>2018-05-22T11:29:15Z</time>
      </trkpt>
      <trkpt lat="44.36508" lon="3.76091">
        <ele>1064.369</ele>
        <time>2018-05-22T11:29:12Z</time>
      </trkpt>
      <trkpt lat="44.36532" lon="3.76081">
        <ele>1067.44</ele>
        <time>2018-05-22T11:29:09Z</time>
      </trkpt>
      <trkpt lat="44.36557" lon="3.7607">
        <ele>1070.514</ele>
        <time>2018-05-22T11:29:06Z</time>
      </trkpt>
      <trkpt lat="44.36576" lon="3.76062">
        <ele>1072.34</ele>
        <time>2018-05-22T11:29:04Z</time>
      </trkpt>
      <trkpt lat="44.36593" lon="3.76051">
        <ele>1073.537</ele>
        <time>2018-05-22T11:29:02Z</time>
      </trkpt>
      <trkpt lat="44.36615" lon="3.76033">
        <ele>1076.638</ele>
        <time>2018-05-22T11:28:59Z</time>
      </trkpt>
      <trkpt lat="44.36631" lon="3.7602">
        <ele>1080.392</ele>
        <time>2018-05-22T11:28:57Z</time>
      </trkpt>
      <trkpt lat="44.36654" lon="3.76001">
        <ele>1083.543</ele>
        <time>2018-05-22T11:28:54Z</time>
      </trkpt>
      <trkpt lat="44.36674" lon="3.75983">
        <ele>1085.59</ele>
        <time>2018-05-22T11:28:51Z</time>
      </trkpt>
      <trkpt lat="44.36693" lon="3.75958">
        <ele>1086.508</ele>
        <time>2018-05-22T11:28:48Z</time>
      </trkpt>
      <trkpt lat="44.36712" lon="3.75935">
        <ele>1088.526</ele>
        <time>2018-05-22T11:28:45Z</time>
      </trkpt>
      <trkpt lat="44.3673" lon="3.7593">
        <ele>1090.66</ele>
        <time>2018-05-22T11:28:42Z</time>
      </trkpt>
      <trkpt lat="44.36745" lon="3.75955">
        <ele>1094.686</ele>
        <time>2018-05-22T11:28:38Z</time>
      </trkpt>
      <trkpt lat="44.36752" lon="3.75987">
        <ele>1098.523</ele>
        <time>2018-05-22T11:28:35Z</time>
      </trkpt>
      <trkpt lat="44.36752" lon="3.76022">
        <ele>1100.327</ele>
        <time>2018-05-22T11:28:32Z</time>
      </trkpt>
      <trkpt lat="44.36751" lon="3.76054">
        <ele>1101.333</ele>
        <time>2018-05-22T11:28:29Z</time>
      </trkpt>
      <trkpt lat="44.36749" lon="3.76084">
        <ele>1102.31</ele>
        <time>2018-05-22T11:28:26Z</time>
      </trkpt>
      <trkpt lat="44.36748" lon="3.76112">
        <ele>1103.551</ele>
        <time>2018-05-22T11:28:23Z</time>
      </trkpt>
      <trkpt lat="44.36746" lon="3.76139">
        <ele>1107.365</ele>
        <time>2018-05-22T11:28:20Z</time>
      </trkpt>
      <trkpt lat="44.36754" lon="3.76164">
        <ele>1107.716</ele>
        <time>2018-05-22T11:28:16Z</time>
      </trkpt>
      <trkpt lat="44.36773" lon="3.76172">
        <ele>1111.343</ele>
        <time>2018-05-22T11:28:12Z</time>
      </trkpt>
      <trkpt lat="44.36791" lon="3.76175">
        <ele>1112.308</ele>
        <time>2018-05-22T11:28:09Z</time>
      </trkpt>
      <trkpt lat="44.36815" lon="3.76178">
        <ele>1114.317</ele>
        <time>2018-05-22T11:28:06Z</time>
      </trkpt>
      <trkpt lat="44.36838" lon="3.76182">
        <ele>1115.598</ele>
        <time>2018-05-22T11:28:03Z</time>
      </trkpt>
      <trkpt lat="44.3686" lon="3.76197">
        <ele>1118.318</ele>
        <time>2018-05-22T11:28:00Z</time>
      </trkpt>
      <trkpt lat="44.36863" lon="3.76223">
        <ele>1118.531</ele>
        <time>2018-05-22T11:27:57Z</time>
      </trkpt>
      <trkpt lat="44.36855" lon="3.76248">
        <ele>1118.555</ele>
        <time>2018-05-22T11:27:54Z</time>
      </trkpt>
      <trkpt lat="44.36863" lon="3.76281">
        <ele>1121.321</ele>
        <time>2018-05-22T11:27:50Z</time>
      </trkpt>
      <trkpt lat="44.36866" lon="3.7631">
        <ele>1121.538</ele>
        <time>2018-05-22T11:27:47Z</time>
      </trkpt>
      <trkpt lat="44.36862" lon="3.76338">
        <ele>1123.349</ele>
        <time>2018-05-22T11:27:44Z</time>
      </trkpt>
      <trkpt lat="44.36858" lon="3.76365">
        <ele>1123.383</ele>
        <time>2018-05-22T11:27:41Z</time>
      </trkpt>
      <trkpt lat="44.36854" lon="3.76391">
        <ele>1126.434</ele>
        <time>2018-05-22T11:27:38Z</time>
      </trkpt>
      <trkpt lat="44.36847" lon="3.76417">
        <ele>1128.371</ele>
        <time>2018-05-22T11:27:35Z</time>
      </trkpt>
      <trkpt lat="44.36834" lon="3.76441">
        <ele>1129.508</ele>
        <time>2018-05-22T11:27:32Z</time>
      </trkpt>
      <trkpt lat="44.36818" lon="3.76462">
        <ele>1131.426</ele>
        <time>2018-05-22T11:27:29Z</time>
      </trkpt>
      <trkpt lat="44.36801" lon="3.76483">
        <ele>1135.515</ele>
        <time>2018-05-22T11:27:26Z</time>
      </trkpt>
      <trkpt lat="44.36792" lon="3.76509">
        <ele>1138.498</ele>
        <time>2018-05-22T11:27:23Z</time>
      </trkpt>
      <trkpt lat="44.36794" lon="3.76538">
        <ele>1141.774</ele>
        <time>2018-05-22T11:27:20Z</time>
      </trkpt>
      <trkpt lat="44.36808" lon="3.76564">
        <ele>1145.548</ele>
        <time>2018-05-22T11:27:17Z</time>
      </trkpt>
      <trkpt lat="44.36828" lon="3.76589">
        <ele>1148.524</ele>
        <time>2018-05-22T11:27:14Z</time>
      </trkpt>
      <trkpt lat="44.36847" lon="3.76614">
        <ele>1150.721</ele>
        <time>2018-05-22T11:27:11Z</time>
      </trkpt>
      <trkpt lat="44.36864" lon="3.76636">
        <ele>1155.152</ele>
        <time>2018-05-22T11:27:08Z</time>
      </trkpt>
      <trkpt lat="44.36867" lon="3.76672">
        <ele>1154.396</ele>
        <time>2018-05-22T11:27:05Z</time>
      </trkpt>
      <trkpt lat="44.36863" lon="3.76697">
        <ele>1154.397</ele>
        <time>2018-05-22T11:27:03Z</time>
      </trkpt>
      <trkpt lat="44.3685" lon="3.76727">
        <ele>1156.784</ele>
        <time>2018-05-22T11:27:00Z</time>
      </trkpt>
      <trkpt lat="44.36837" lon="3.76759">
        <ele>1158.308</ele>
        <time>2018-05-22T11:26:57Z</time>
      </trkpt>
      <trkpt lat="44.36834" lon="3.76795">
        <ele>1159.308</ele>
        <time>2018-05-22T11:26:54Z</time>
      </trkpt>
      <trkpt lat="44.36831" lon="3.7682">
        <ele>1160.526</ele>
        <time>2018-05-22T11:26:52Z</time>
      </trkpt>
      <trkpt lat="44.36825" lon="3.76844">
        <ele>1161.525</ele>
        <time>2018-05-22T11:26:50Z</time>
      </trkpt>
      <trkpt lat="44.36819" lon="3.76869">
        <ele>1162.325</ele>
        <time>2018-05-22T11:26:48Z</time>
      </trkpt>
      <trkpt lat="44.36814" lon="3.76894">
        <ele>1162.559</ele>
        <time>2018-05-22T11:26:46Z</time>
      </trkpt>
      <trkpt lat="44.36813" lon="3.76932">
        <ele>1164.365</ele>
        <time>2018-05-22T11:26:43Z</time>
      </trkpt>
      <trkpt lat="44.36814" lon="3.76968">
        <ele>1165.522</ele>
        <time>2018-05-22T11:26:40Z</time>
      </trkpt>
      <trkpt lat="44.36815" lon="3.77002">
        <ele>1167.793</ele>
        <time>2018-05-22T11:26:37Z</time>
      </trkpt>
      <trkpt lat="44.36821" lon="3.77034">
        <ele>1169.517</ele>
        <time>2018-05-22T11:26:34Z</time>
      </trkpt>
      <trkpt lat="44.3682" lon="3.77065">
        <ele>1171.568</ele>
        <time>2018-05-22T11:26:31Z</time>
      </trkpt>
      <trkpt lat="44.36808" lon="3.77091">
        <ele>1172.785</ele>
        <time>2018-05-22T11:26:28Z</time>
      </trkpt>
      <trkpt lat="44.36803" lon="3.77116">
        <ele>1174.708</ele>
        <time>2018-05-22T11:26:25Z</time>
      </trkpt>
      <trkpt lat="44.368" lon="3.77146">
        <ele>1180.507</ele>
        <time>2018-05-22T11:26:11Z</time>
      </trkpt>
      <trkpt lat="44.36812" lon="3.77171">
        <ele>1183.761</ele>
        <time>2018-05-22T11:26:07Z</time>
      </trkpt>
      <trkpt lat="44.3683" lon="3.77187">
        <ele>1187.431</ele>
        <time>2018-05-22T11:26:04Z</time>
      </trkpt>
      <trkpt lat="44.36847" lon="3.77198">
        <ele>1189.893</ele>
        <time>2018-05-22T11:26:02Z</time>
      </trkpt>
      <trkpt lat="44.36865" lon="3.77213">
        <ele>1193.727</ele>
        <time>2018-05-22T11:26:00Z</time>
      </trkpt>
      <trkpt lat="44.36884" lon="3.77226">
        <ele>1195.573</ele>
        <time>2018-05-22T11:25:58Z</time>
      </trkpt>
      <trkpt lat="44.36901" lon="3.7725">
        <ele>1198.65</ele>
        <time>2018-05-22T11:25:55Z</time>
      </trkpt>
      <trkpt lat="44.36921" lon="3.77268">
        <ele>1202.341</ele>
        <time>2018-05-22T11:25:53Z</time>
      </trkpt>
      <trkpt lat="44.36945" lon="3.77283">
        <ele>1202.385</ele>
        <time>2018-05-22T11:25:51Z</time>
      </trkpt>
      <trkpt lat="44.36966" lon="3.77296">
        <ele>1202.116</ele>
        <time>2018-05-22T11:25:49Z</time>
      </trkpt>
      <trkpt lat="44.36986" lon="3.77299">
        <ele>1201.173</ele>
        <time>2018-05-22T11:25:47Z</time>
      </trkpt>
      <trkpt lat="44.37007" lon="3.77299">
        <ele>1200.308</ele>
        <time>2018-05-22T11:25:45Z</time>
      </trkpt>
      <trkpt lat="44.37027" lon="3.77296">
        <ele>1201.415</ele>
        <time>2018-05-22T11:25:43Z</time>
      </trkpt>
      <trkpt lat="44.37046" lon="3.77291">
        <ele>1203.587</ele>
        <time>2018-05-22T11:25:41Z</time>
      </trkpt>
      <trkpt lat="44.37066" lon="3.77292">
        <ele>1205.517</ele>
        <time>2018-05-22T11:25:39Z</time>
      </trkpt>
      <trkpt lat="44.37086" lon="3.77296">
        <ele>1206.596</ele>
        <time>2018-05-22T11:25:37Z</time>
      </trkpt>
      <trkpt lat="44.37105" lon="3.77299">
        <ele>1207.73</ele>
        <time>2018-05-22T11:25:35Z</time>
      </trkpt>
      <trkpt lat="44.37124" lon="3.77301">
        <ele>1210.786</ele>
        <time>2018-05-22T11:25:33Z</time>
      </trkpt>
      <trkpt lat="44.37143" lon="3.77302">
        <ele>1213.373</ele>
        <time>2018-05-22T11:25:31Z</time>
      </trkpt>
      <trkpt lat="44.37162" lon="3.77305">
        <ele>1214.514</ele>
        <time>2018-05-22T11:25:29Z</time>
      </trkpt>
      <trkpt lat="44.3718" lon="3.77311">
        <ele>1216.398</ele>
        <time>2018-05-22T11:25:27Z</time>
      </trkpt>
      <trkpt lat="44.37198" lon="3.77318">
        <ele>1216.339</ele>
        <time>2018-05-22T11:25:25Z</time>
      </trkpt>
      <trkpt lat="44.37216" lon="3.77324">
        <ele>1217.396</ele>
        <time>2018-05-22T11:25:23Z</time>
      </trkpt>
      <trkpt lat="44.37234" lon="3.77331">
        <ele>1218.308</ele>
        <time>2018-05-22T11:25:21Z</time>
      </trkpt>
      <trkpt lat="44.37259" lon="3.77344">
        <ele>1220.716</ele>
        <time>2018-05-22T11:25:18Z</time>
      </trkpt>
      <trkpt lat="44.37283" lon="3.77361">
        <ele>1223.388</ele>
        <time>2018-05-22T11:25:15Z</time>
      </trkpt>
      <trkpt lat="44.37299" lon="3.77374">
        <ele>1223.646</ele>
        <time>2018-05-22T11:25:13Z</time>
      </trkpt>
      <trkpt lat="44.37322" lon="3.77393">
        <ele>1226.691</ele>
        <time>2018-05-22T11:25:10Z</time>
      </trkpt>
      <trkpt lat="44.37343" lon="3.77413">
        <ele>1229.535</ele>
        <time>2018-05-22T11:25:07Z</time>
      </trkpt>
      <trkpt lat="44.37364" lon="3.77432">
        <ele>1232.611</ele>
        <time>2018-05-22T11:25:04Z</time>
      </trkpt>
      <trkpt lat="44.37384" lon="3.77456">
        <ele>1235.228</ele>
        <time>2018-05-22T11:25:01Z</time>
      </trkpt>
      <trkpt lat="44.37389" lon="3.77484">
        <ele>1234.379</ele>
        <time>2018-05-22T11:24:58Z</time>
      </trkpt>
      <trkpt lat="44.37393" lon="3.77511">
        <ele>1235.523</ele>
        <time>2018-05-22T11:24:55Z</time>
      </trkpt>
      <trkpt lat="44.37394" lon="3.77537">
        <ele>1236.594</ele>
        <time>2018-05-22T11:24:52Z</time>
      </trkpt>
      <trkpt lat="44.3739" lon="3.77565">
        <ele>1237.511</ele>
        <time>2018-05-22T11:24:49Z</time>
      </trkpt>
      <trkpt lat="44.37385" lon="3.77595">
        <ele>1240.508</ele>
        <time>2018-05-22T11:24:46Z</time>
      </trkpt>
      <trkpt lat="44.37381" lon="3.77629">
        <ele>1243.219</ele>
        <time>2018-05-22T11:24:42Z</time>
      </trkpt>
      <trkpt lat="44.37391" lon="3.77651">
        <ele>1242.481</ele>
        <time>2018-05-22T11:24:39Z</time>
      </trkpt>
      <trkpt lat="44.37401" lon="3.77678">
        <ele>1242.591</ele>
        <time>2018-05-22T11:24:35Z</time>
      </trkpt>
      <trkpt lat="44.37412" lon="3.77703">
        <ele>1243.518</ele>
        <time>2018-05-22T11:24:31Z</time>
      </trkpt>
      <trkpt lat="44.37422" lon="3.7773">
        <ele>1245.422</ele>
        <time>2018-05-22T11:24:27Z</time>
      </trkpt>
      <trkpt lat="44.3743" lon="3.77755">
        <ele>1244.518</ele>
        <time>2018-05-22T11:24:23Z</time>
      </trkpt>
      <trkpt lat="44.37439" lon="3.77779">
        <ele>1246.395</ele>
        <time>2018-05-22T11:24:19Z</time>
      </trkpt>
      <trkpt lat="44.37445" lon="3.77805">
        <ele>1245.526</ele>
        <time>2018-05-22T11:24:15Z</time>
      </trkpt>
      <trkpt lat="44.37436" lon="3.77832">
        <ele>1246.12</ele>
        <time>2018-05-22T11:24:11Z</time>
      </trkpt>
      <trkpt lat="44.37423" lon="3.7785">
        <ele>1246.511</ele>
        <time>2018-05-22T11:24:08Z</time>
      </trkpt>
      <trkpt lat="44.37408" lon="3.77868">
        <ele>1246.388</ele>
        <time>2018-05-22T11:24:05Z</time>
      </trkpt>
      <trkpt lat="44.37394" lon="3.77889">
        <ele>1245.308</ele>
        <time>2018-05-22T11:24:02Z</time>
      </trkpt>
      <trkpt lat="44.3738" lon="3.7791">
        <ele>1245.319</ele>
        <time>2018-05-22T11:23:59Z</time>
      </trkpt>
      <trkpt lat="44.37368" lon="3.77932">
        <ele>1246.381</ele>
        <time>2018-05-22T11:23:56Z</time>
      </trkpt>
      <trkpt lat="44.37357" lon="3.77959">
        <ele>1247.567</ele>
        <time>2018-05-22T11:23:53Z</time>
      </trkpt>
      <trkpt lat="44.37344" lon="3.77987">
        <ele>1248.52</ele>
        <time>2018-05-22T11:23:50Z</time>
      </trkpt>
      <trkpt lat="44.37333" lon="3.78017">
        <ele>1250.344</ele>
        <time>2018-05-22T11:23:47Z</time>
      </trkpt>
      <trkpt lat="44.37327" lon="3.78045">
        <ele>1250.54</ele>
        <time>2018-05-22T11:23:44Z</time>
      </trkpt>
      <trkpt lat="44.37322" lon="3.78078">
        <ele>1252.357</ele>
        <time>2018-05-22T11:23:40Z</time>
      </trkpt>
      <trkpt lat="44.3732" lon="3.78104">
        <ele>1254.548</ele>
        <time>2018-05-22T11:23:32Z</time>
      </trkpt>
      <trkpt lat="44.37318" lon="3.78131">
        <ele>1256.542</ele>
        <time>2018-05-22T11:23:27Z</time>
      </trkpt>
      <trkpt lat="44.37319" lon="3.78164">
        <ele>1258.523</ele>
        <time>2018-05-22T11:23:24Z</time>
      </trkpt>
      <trkpt lat="44.37316" lon="3.78194">
        <ele>1260.14</ele>
        <time>2018-05-22T11:23:21Z</time>
      </trkpt>
      <trkpt lat="44.37306" lon="3.78224">
        <ele>1259.308</ele>
        <time>2018-05-22T11:23:17Z</time>
      </trkpt>
      <trkpt lat="44.37296" lon="3.78252">
        <ele>1259.317</ele>
        <time>2018-05-22T11:23:13Z</time>
      </trkpt>
      <trkpt lat="44.37286" lon="3.78274">
        <ele>1258.189</ele>
        <time>2018-05-22T11:23:10Z</time>
      </trkpt>
      <trkpt lat="44.37276" lon="3.78297">
        <ele>1257.285</ele>
        <time>2018-05-22T11:23:07Z</time>
      </trkpt>
      <trkpt lat="44.37267" lon="3.78327">
        <ele>1256.558</ele>
        <time>2018-05-22T11:23:03Z</time>
      </trkpt>
      <trkpt lat="44.37258" lon="3.78355">
        <ele>1257.512</ele>
        <time>2018-05-22T11:22:59Z</time>
      </trkpt>
      <trkpt lat="44.37246" lon="3.78383">
        <ele>1257.398</ele>
        <time>2018-05-22T11:22:55Z</time>
      </trkpt>
      <trkpt lat="44.37235" lon="3.78409">
        <ele>1258.325</ele>
        <time>2018-05-22T11:22:51Z</time>
      </trkpt>
      <trkpt lat="44.37232" lon="3.78439">
        <ele>1258.126</ele>
        <time>2018-05-22T11:22:46Z</time>
      </trkpt>
      <trkpt lat="44.3723" lon="3.78465">
        <ele>1258.37</ele>
        <time>2018-05-22T11:22:41Z</time>
      </trkpt>
      <trkpt lat="44.3723" lon="3.78492">
        <ele>1261.351</ele>
        <time>2018-05-22T11:22:08Z</time>
      </trkpt>
      <trkpt lat="44.37226" lon="3.78518">
        <ele>1261.338</ele>
        <time>2018-05-22T11:22:03Z</time>
      </trkpt>
      <trkpt lat="44.37222" lon="3.78545">
        <ele>1262.308</ele>
        <time>2018-05-22T11:21:35Z</time>
      </trkpt>
      <trkpt lat="44.37217" lon="3.78572">
        <ele>1262.521</ele>
        <time>2018-05-22T11:21:30Z</time>
      </trkpt>
      <trkpt lat="44.37211" lon="3.78601">
        <ele>1263.329</ele>
        <time>2018-05-22T11:21:25Z</time>
      </trkpt>
      <trkpt lat="44.37206" lon="3.78626">
        <ele>1264.566</ele>
        <time>2018-05-22T11:21:21Z</time>
      </trkpt>
      <trkpt lat="44.37202" lon="3.78657">
        <ele>1267.586</ele>
        <time>2018-05-22T11:21:17Z</time>
      </trkpt>
      <trkpt lat="44.37199" lon="3.7869">
        <ele>1269.35</ele>
        <time>2018-05-22T11:21:13Z</time>
      </trkpt>
      <trkpt lat="44.37197" lon="3.78718">
        <ele>1269.386</ele>
        <time>2018-05-22T11:21:09Z</time>
      </trkpt>
      <trkpt lat="44.37198" lon="3.78743">
        <ele>1269.333</ele>
        <time>2018-05-22T11:21:04Z</time>
      </trkpt>
      <trkpt lat="44.372" lon="3.78769">
        <ele>1264.344</ele>
        <time>2018-05-22T11:20:15Z</time>
      </trkpt>
      <trkpt lat="44.37201" lon="3.78797">
        <ele>1263.378</ele>
        <time>2018-05-22T11:20:10Z</time>
      </trkpt>
      <trkpt lat="44.37206" lon="3.78828">
        <ele>1264.299</ele>
        <time>2018-05-22T11:20:06Z</time>
      </trkpt>
      <trkpt lat="44.37216" lon="3.78857">
        <ele>1262.516</ele>
        <time>2018-05-22T11:20:02Z</time>
      </trkpt>
      <trkpt lat="44.3723" lon="3.78883">
        <ele>1263.108</ele>
        <time>2018-05-22T11:19:58Z</time>
      </trkpt>
      <trkpt lat="44.37245" lon="3.78906">
        <ele>1261.321</ele>
        <time>2018-05-22T11:19:54Z</time>
      </trkpt>
      <trkpt lat="44.3726" lon="3.78923">
        <ele>1263.429</ele>
        <time>2018-05-22T11:19:51Z</time>
      </trkpt>
      <trkpt lat="44.37277" lon="3.78941">
        <ele>1265.947</ele>
        <time>2018-05-22T11:19:48Z</time>
      </trkpt>
      <trkpt lat="44.37294" lon="3.7896">
        <ele>1264.398</ele>
        <time>2018-05-22T11:19:45Z</time>
      </trkpt>
      <trkpt lat="44.37308" lon="3.78979">
        <ele>1264.332</ele>
        <time>2018-05-22T11:19:42Z</time>
      </trkpt>
      <trkpt lat="44.37322" lon="3.79001">
        <ele>1264.358</ele>
        <time>2018-05-22T11:19:38Z</time>
      </trkpt>
      <trkpt lat="44.37324" lon="3.79031">
        <ele>1264.365</ele>
        <time>2018-05-22T11:19:33Z</time>
      </trkpt>
      <trkpt lat="44.37325" lon="3.7906">
        <ele>1265.376</ele>
        <time>2018-05-22T11:19:28Z</time>
      </trkpt>
      <trkpt lat="44.37343" lon="3.79077">
        <ele>1266.31</ele>
        <time>2018-05-22T11:19:24Z</time>
      </trkpt>
      <trkpt lat="44.3736" lon="3.79089">
        <ele>1267.351</ele>
        <time>2018-05-22T11:19:21Z</time>
      </trkpt>
      <trkpt lat="44.3738" lon="3.79104">
        <ele>1269.318</ele>
        <time>2018-05-22T11:19:18Z</time>
      </trkpt>
      <trkpt lat="44.37403" lon="3.79112">
        <ele>1270.508</ele>
        <time>2018-05-22T11:19:15Z</time>
      </trkpt>
      <trkpt lat="44.37421" lon="3.79109">
        <ele>1272.314</ele>
        <time>2018-05-22T11:19:13Z</time>
      </trkpt>
      <trkpt lat="44.37446" lon="3.79105">
        <ele>1273.568</ele>
        <time>2018-05-22T11:19:10Z</time>
      </trkpt>
      <trkpt lat="44.3747" lon="3.79108">
        <ele>1275.565</ele>
        <time>2018-05-22T11:19:07Z</time>
      </trkpt>
      <trkpt lat="44.37494" lon="3.79114">
        <ele>1277.569</ele>
        <time>2018-05-22T11:19:04Z</time>
      </trkpt>
      <trkpt lat="44.37513" lon="3.79119">
        <ele>1278.523</ele>
        <time>2018-05-22T11:19:02Z</time>
      </trkpt>
      <trkpt lat="44.37532" lon="3.79125">
        <ele>1279.539</ele>
        <time>2018-05-22T11:19:00Z</time>
      </trkpt>
      <trkpt lat="44.37551" lon="3.79131">
        <ele>1280.526</ele>
        <time>2018-05-22T11:18:58Z</time>
      </trkpt>
      <trkpt lat="44.3757" lon="3.79134">
        <ele>1282.377</ele>
        <time>2018-05-22T11:18:56Z</time>
      </trkpt>
      <trkpt lat="44.37589" lon="3.79137">
        <ele>1283.321</ele>
        <time>2018-05-22T11:18:54Z</time>
      </trkpt>
      <trkpt lat="44.37608" lon="3.79141">
        <ele>1284.572</ele>
        <time>2018-05-22T11:18:52Z</time>
      </trkpt>
      <trkpt lat="44.37626" lon="3.79145">
        <ele>1286.319</ele>
        <time>2018-05-22T11:18:50Z</time>
      </trkpt>
      <trkpt lat="44.37646" lon="3.79145">
        <ele>1286.508</ele>
        <time>2018-05-22T11:18:48Z</time>
      </trkpt>
      <trkpt lat="44.37665" lon="3.79143">
        <ele>1288.325</ele>
        <time>2018-05-22T11:18:46Z</time>
      </trkpt>
      <trkpt lat="44.37684" lon="3.79142">
        <ele>1289.305</ele>
        <time>2018-05-22T11:18:44Z</time>
      </trkpt>
      <trkpt lat="44.37702" lon="3.79146">
        <ele>1289.579</ele>
        <time>2018-05-22T11:18:42Z</time>
      </trkpt>
      <trkpt lat="44.3772" lon="3.79151">
        <ele>1291.528</ele>
        <time>2018-05-22T11:18:40Z</time>
      </trkpt>
      <trkpt lat="44.37745" lon="3.79159">
        <ele>1293.552</ele>
        <time>2018-05-22T11:18:37Z</time>
      </trkpt>
      <trkpt lat="44.37769" lon="3.79172">
        <ele>1295.318</ele>
        <time>2018-05-22T11:18:34Z</time>
      </trkpt>
      <trkpt lat="44.3779" lon="3.79193">
        <ele>1295.435</ele>
        <time>2018-05-22T11:18:31Z</time>
      </trkpt>
      <trkpt lat="44.37812" lon="3.79215">
        <ele>1295.326</ele>
        <time>2018-05-22T11:18:28Z</time>
      </trkpt>
      <trkpt lat="44.37831" lon="3.79237">
        <ele>1296.17</ele>
        <time>2018-05-22T11:18:25Z</time>
      </trkpt>
      <trkpt lat="44.37851" lon="3.79257">
        <ele>1297.141</ele>
        <time>2018-05-22T11:18:22Z</time>
      </trkpt>
      <trkpt lat="44.3787" lon="3.79277">
        <ele>1297.228</ele>
        <time>2018-05-22T11:18:19Z</time>
      </trkpt>
      <trkpt lat="44.37891" lon="3.79298">
        <ele>1296.308</ele>
        <time>2018-05-22T11:18:16Z</time>
      </trkpt>
      <trkpt lat="44.37912" lon="3.7932">
        <ele>1296.313</ele>
        <time>2018-05-22T11:18:13Z</time>
      </trkpt>
      <trkpt lat="44.37933" lon="3.79342">
        <ele>1296.321</ele>
        <time>2018-05-22T11:18:10Z</time>
      </trkpt>
      <trkpt lat="44.37949" lon="3.79358">
        <ele>1297.361</ele>
        <time>2018-05-22T11:18:08Z</time>
      </trkpt>
      <trkpt lat="44.37966" lon="3.79377">
        <ele>1297.541</ele>
        <time>2018-05-22T11:18:06Z</time>
      </trkpt>
      <trkpt lat="44.37986" lon="3.79397">
        <ele>1298.535</ele>
        <time>2018-05-22T11:18:04Z</time>
      </trkpt>
      <trkpt lat="44.38006" lon="3.79418">
        <ele>1300.521</ele>
        <time>2018-05-22T11:18:02Z</time>
      </trkpt>
      <trkpt lat="44.38028" lon="3.79439">
        <ele>1302.798</ele>
        <time>2018-05-22T11:18:00Z</time>
      </trkpt>
      <trkpt lat="44.38051" lon="3.79452">
        <ele>1305.519</ele>
        <time>2018-05-22T11:17:58Z</time>
      </trkpt>
      <trkpt lat="44.38074" lon="3.79467">
        <ele>1307.593</ele>
        <time>2018-05-22T11:17:56Z</time>
      </trkpt>
      <trkpt lat="44.38093" lon="3.79489">
        <ele>1308.584</ele>
        <time>2018-05-22T11:17:54Z</time>
      </trkpt>
      <trkpt lat="44.3811" lon="3.79515">
        <ele>1310.551</ele>
        <time>2018-05-22T11:17:52Z</time>
      </trkpt>
      <trkpt lat="44.38128" lon="3.79541">
        <ele>1312.508</ele>
        <time>2018-05-22T11:17:50Z</time>
      </trkpt>
      <trkpt lat="44.38146" lon="3.79566">
        <ele>1313.519</ele>
        <time>2018-05-22T11:17:48Z</time>
      </trkpt>
      <trkpt lat="44.38164" lon="3.7959">
        <ele>1315.581</ele>
        <time>2018-05-22T11:17:46Z</time>
      </trkpt>
      <trkpt lat="44.38182" lon="3.79614">
        <ele>1317.591</ele>
        <time>2018-05-22T11:17:44Z</time>
      </trkpt>
      <trkpt lat="44.382" lon="3.79637">
        <ele>1318.735</ele>
        <time>2018-05-22T11:17:42Z</time>
      </trkpt>
      <trkpt lat="44.38217" lon="3.79658">
        <ele>1321.329</ele>
        <time>2018-05-22T11:17:40Z</time>
      </trkpt>
      <trkpt lat="44.38234" lon="3.79679">
        <ele>1322.335</ele>
        <time>2018-05-22T11:17:38Z</time>
      </trkpt>
      <trkpt lat="44.38253" lon="3.79693">
        <ele>1323.582</ele>
        <time>2018-05-22T11:17:36Z</time>
      </trkpt>
      <trkpt lat="44.38273" lon="3.79699">
        <ele>1325.343</ele>
        <time>2018-05-22T11:17:34Z</time>
      </trkpt>
      <trkpt lat="44.38294" lon="3.79704">
        <ele>1326.587</ele>
        <time>2018-05-22T11:17:32Z</time>
      </trkpt>
      <trkpt lat="44.38314" lon="3.79708">
        <ele>1328.528</ele>
        <time>2018-05-22T11:17:30Z</time>
      </trkpt>
      <trkpt lat="44.38333" lon="3.79709">
        <ele>1330.385</ele>
        <time>2018-05-22T11:17:28Z</time>
      </trkpt>
      <trkpt lat="44.3836" lon="3.79712">
        <ele>1332.308</ele>
        <time>2018-05-22T11:17:25Z</time>
      </trkpt>
      <trkpt lat="44.38382" lon="3.79714">
        <ele>1333.318</ele>
        <time>2018-05-22T11:17:22Z</time>
      </trkpt>
      <trkpt lat="44.38407" lon="3.79719">
        <ele>1334.317</ele>
        <time>2018-05-22T11:17:18Z</time>
      </trkpt>
      <trkpt lat="44.38424" lon="3.79724">
        <ele>1335.536</ele>
        <time>2018-05-22T11:17:15Z</time>
      </trkpt>
      <trkpt lat="44.38445" lon="3.79729">
        <ele>1337.531</ele>
        <time>2018-05-22T11:17:11Z</time>
      </trkpt>
      <trkpt lat="44.38462" lon="3.79736">
        <ele>1340.315</ele>
        <time>2018-05-22T11:17:07Z</time>
      </trkpt>
      <trkpt lat="44.38482" lon="3.79742">
        <ele>1343.351</ele>
        <time>2018-05-22T11:17:04Z</time>
      </trkpt>
      <trkpt lat="44.38502" lon="3.79748">
        <ele>1345.398</ele>
        <time>2018-05-22T11:17:01Z</time>
      </trkpt>
      <trkpt lat="44.38522" lon="3.79757">
        <ele>1347.399</ele>
        <time>2018-05-22T11:16:58Z</time>
      </trkpt>
      <trkpt lat="44.38536" lon="3.79777">
        <ele>1348.393</ele>
        <time>2018-05-22T11:16:55Z</time>
      </trkpt>
      <trkpt lat="44.38546" lon="3.79804">
        <ele>1348.164</ele>
        <time>2018-05-22T11:16:52Z</time>
      </trkpt>
      <trkpt lat="44.38556" lon="3.79833">
        <ele>1347.321</ele>
        <time>2018-05-22T11:16:49Z</time>
      </trkpt>
      <trkpt lat="44.38566" lon="3.79862">
        <ele>1347.308</ele>
        <time>2018-05-22T11:16:46Z</time>
      </trkpt>
      <trkpt lat="44.38576" lon="3.79891">
        <ele>1348.327</ele>
        <time>2018-05-22T11:16:43Z</time>
      </trkpt>
      <trkpt lat="44.38585" lon="3.79917">
        <ele>1348.307</ele>
        <time>2018-05-22T11:16:40Z</time>
      </trkpt>
      <trkpt lat="44.38597" lon="3.7994">
        <ele>1348.399</ele>
        <time>2018-05-22T11:16:37Z</time>
      </trkpt>
      <trkpt lat="44.38616" lon="3.7996">
        <ele>1348.115</ele>
        <time>2018-05-22T11:16:34Z</time>
      </trkpt>
      <trkpt lat="44.38633" lon="3.79984">
        <ele>1347.339</ele>
        <time>2018-05-22T11:16:31Z</time>
      </trkpt>
      <trkpt lat="44.38644" lon="3.80014">
        <ele>1347.345</ele>
        <time>2018-05-22T11:16:28Z</time>
      </trkpt>
      <trkpt lat="44.38653" lon="3.80042">
        <ele>1348.362</ele>
        <time>2018-05-22T11:16:25Z</time>
      </trkpt>
      <trkpt lat="44.38663" lon="3.80067">
        <ele>1348.563</ele>
        <time>2018-05-22T11:16:22Z</time>
      </trkpt>
      <trkpt lat="44.3868" lon="3.80088">
        <ele>1348.317</ele>
        <time>2018-05-22T11:16:19Z</time>
      </trkpt>
      <trkpt lat="44.38704" lon="3.80101">
        <ele>1349.398</ele>
        <time>2018-05-22T11:16:16Z</time>
      </trkpt>
      <trkpt lat="44.38727" lon="3.80105">
        <ele>1349.315</ele>
        <time>2018-05-22T11:16:13Z</time>
      </trkpt>
      <trkpt lat="44.38748" lon="3.80109">
        <ele>1350.108</ele>
        <time>2018-05-22T11:16:10Z</time>
      </trkpt>
      <trkpt lat="44.38768" lon="3.80111">
        <ele>1349.31</ele>
        <time>2018-05-22T11:16:07Z</time>
      </trkpt>
      <trkpt lat="44.3879" lon="3.80115">
        <ele>1349.355</ele>
        <time>2018-05-22T11:16:04Z</time>
      </trkpt>
      <trkpt lat="44.38813" lon="3.80122">
        <ele>1349.534</ele>
        <time>2018-05-22T11:16:01Z</time>
      </trkpt>
      <trkpt lat="44.38835" lon="3.80134">
        <ele>1350.583</ele>
        <time>2018-05-22T11:15:58Z</time>
      </trkpt>
      <trkpt lat="44.38851" lon="3.80154">
        <ele>1351.367</ele>
        <time>2018-05-22T11:15:55Z</time>
      </trkpt>
      <trkpt lat="44.38858" lon="3.80182">
        <ele>1351.333</ele>
        <time>2018-05-22T11:15:52Z</time>
      </trkpt>
      <trkpt lat="44.38855" lon="3.80212">
        <ele>1352.33</ele>
        <time>2018-05-22T11:15:49Z</time>
      </trkpt>
      <trkpt lat="44.38844" lon="3.80239">
        <ele>1353.551</ele>
        <time>2018-05-22T11:15:46Z</time>
      </trkpt>
      <trkpt lat="44.38833" lon="3.80263">
        <ele>1354.545</ele>
        <time>2018-05-22T11:15:43Z</time>
      </trkpt>
      <trkpt lat="44.38815" lon="3.80277">
        <ele>1356.586</ele>
        <time>2018-05-22T11:15:40Z</time>
      </trkpt>
      <trkpt lat="44.38796" lon="3.80285">
        <ele>1358.363</ele>
        <time>2018-05-22T11:15:37Z</time>
      </trkpt>
      <trkpt lat="44.38774" lon="3.80297">
        <ele>1359.308</ele>
        <time>2018-05-22T11:15:34Z</time>
      </trkpt>
      <trkpt lat="44.38754" lon="3.80307">
        <ele>1359.215</ele>
        <time>2018-05-22T11:15:31Z</time>
      </trkpt>
      <trkpt lat="44.38735" lon="3.80317">
        <ele>1358.587</ele>
        <time>2018-05-22T11:15:28Z</time>
      </trkpt>
      <trkpt lat="44.38718" lon="3.80329">
        <ele>1361.317</ele>
        <time>2018-05-22T11:15:25Z</time>
      </trkpt>
      <trkpt lat="44.38702" lon="3.80342">
        <ele>1361.387</ele>
        <time>2018-05-22T11:15:22Z</time>
      </trkpt>
      <trkpt lat="44.38684" lon="3.80356">
        <ele>1360.561</ele>
        <time>2018-05-22T11:15:18Z</time>
      </trkpt>
      <trkpt lat="44.38665" lon="3.80373">
        <ele>1361.967</ele>
        <time>2018-05-22T11:15:13Z</time>
      </trkpt>
      <trkpt lat="44.38648" lon="3.80392">
        <ele>1360.564</ele>
        <time>2018-05-22T11:15:09Z</time>
      </trkpt>
      <trkpt lat="44.38638" lon="3.80414">
        <ele>1362.515</ele>
        <time>2018-05-22T11:15:06Z</time>
      </trkpt>
      <trkpt lat="44.38631" lon="3.80443">
        <ele>1364.599</ele>
        <time>2018-05-22T11:15:02Z</time>
      </trkpt>
      <trkpt lat="44.38632" lon="3.8047">
        <ele>1365.37</ele>
        <time>2018-05-22T11:14:58Z</time>
      </trkpt>
      <trkpt lat="44.38631" lon="3.805">
        <ele>1367.327</ele>
        <time>2018-05-22T11:14:53Z</time>
      </trkpt>
      <trkpt lat="44.38634" lon="3.80525">
        <ele>1368.308</ele>
        <time>2018-05-22T11:14:49Z</time>
      </trkpt>
      <trkpt lat="44.38642" lon="3.80555">
        <ele>1368.511</ele>
        <time>2018-05-22T11:14:44Z</time>
      </trkpt>
      <trkpt lat="44.38643" lon="3.80586">
        <ele>1371.156</ele>
        <time>2018-05-22T11:14:39Z</time>
      </trkpt>
      <trkpt lat="44.38645" lon="3.80613">
        <ele>1370.354</ele>
        <time>2018-05-22T11:14:35Z</time>
      </trkpt>
      <trkpt lat="44.3864" lon="3.80638">
        <ele>1368.313</ele>
        <time>2018-05-22T11:14:31Z</time>
      </trkpt>
      <trkpt lat="44.3863" lon="3.80666">
        <ele>1366.317</ele>
        <time>2018-05-22T11:14:26Z</time>
      </trkpt>
      <trkpt lat="44.38617" lon="3.8069">
        <ele>1366.383</ele>
        <time>2018-05-22T11:14:22Z</time>
      </trkpt>
      <trkpt lat="44.38605" lon="3.80711">
        <ele>1366.31</ele>
        <time>2018-05-22T11:14:19Z</time>
      </trkpt>
      <trkpt lat="44.38591" lon="3.8073">
        <ele>1365.321</ele>
        <time>2018-05-22T11:14:16Z</time>
      </trkpt>
      <trkpt lat="44.38575" lon="3.80753">
        <ele>1364.765</ele>
        <time>2018-05-22T11:14:12Z</time>
      </trkpt>
      <trkpt lat="44.3856" lon="3.80776">
        <ele>1366.346</ele>
        <time>2018-05-22T11:14:08Z</time>
      </trkpt>
      <trkpt lat="44.38543" lon="3.80797">
        <ele>1367.183</ele>
        <time>2018-05-22T11:14:04Z</time>
      </trkpt>
      <trkpt lat="44.38525" lon="3.80815">
        <ele>1366.308</ele>
        <time>2018-05-22T11:14:00Z</time>
      </trkpt>
      <trkpt lat="44.38509" lon="3.80834">
        <ele>1365.117</ele>
        <time>2018-05-22T11:13:56Z</time>
      </trkpt>
      <trkpt lat="44.38495" lon="3.80853">
        <ele>1366.298</ele>
        <time>2018-05-22T11:13:52Z</time>
      </trkpt>
      <trkpt lat="44.38482" lon="3.80875">
        <ele>1365.318</ele>
        <time>2018-05-22T11:13:48Z</time>
      </trkpt>
      <trkpt lat="44.38472" lon="3.80902">
        <ele>1365.569</ele>
        <time>2018-05-22T11:13:44Z</time>
      </trkpt>
      <trkpt lat="44.38466" lon="3.8093">
        <ele>1366.313</ele>
        <time>2018-05-22T11:13:40Z</time>
      </trkpt>
      <trkpt lat="44.38478" lon="3.80951">
        <ele>1366.389</ele>
        <time>2018-05-22T11:13:36Z</time>
      </trkpt>
      <trkpt lat="44.38492" lon="3.80968">
        <ele>1366.336</ele>
        <time>2018-05-22T11:13:32Z</time>
      </trkpt>
      <trkpt lat="44.38509" lon="3.80982">
        <ele>1365.377</ele>
        <time>2018-05-22T11:13:28Z</time>
      </trkpt>
      <trkpt lat="44.38531" lon="3.80988">
        <ele>1364.511</ele>
        <time>2018-05-22T11:13:24Z</time>
      </trkpt>
      <trkpt lat="44.38554" lon="3.80994">
        <ele>1365.332</ele>
        <time>2018-05-22T11:13:20Z</time>
      </trkpt>
      <trkpt lat="44.38576" lon="3.80985">
        <ele>1365.239</ele>
        <time>2018-05-22T11:13:16Z</time>
      </trkpt>
      <trkpt lat="44.38593" lon="3.80972">
        <ele>1363.208</ele>
        <time>2018-05-22T11:13:13Z</time>
      </trkpt>
      <trkpt lat="44.3861" lon="3.8096">
        <ele>1362.214</ele>
        <time>2018-05-22T11:13:10Z</time>
      </trkpt>
      <trkpt lat="44.3863" lon="3.80946">
        <ele>1362.013</ele>
        <time>2018-05-22T11:13:06Z</time>
      </trkpt>
      <trkpt lat="44.38649" lon="3.80929">
        <ele>1360.372</ele>
        <time>2018-05-22T11:13:02Z</time>
      </trkpt>
      <trkpt lat="44.3867" lon="3.80915">
        <ele>1359.34</ele>
        <time>2018-05-22T11:12:58Z</time>
      </trkpt>
      <trkpt lat="44.38691" lon="3.80904">
        <ele>1359.384</ele>
        <time>2018-05-22T11:12:54Z</time>
      </trkpt>
      <trkpt lat="44.38711" lon="3.80913">
        <ele>1360.12</ele>
        <time>2018-05-22T11:12:50Z</time>
      </trkpt>
      <trkpt lat="44.38731" lon="3.80931">
        <ele>1360.327</ele>
        <time>2018-05-22T11:12:46Z</time>
      </trkpt>
      <trkpt lat="44.38741" lon="3.80953">
        <ele>1360.088</ele>
        <time>2018-05-22T11:12:43Z</time>
      </trkpt>
      <trkpt lat="44.38744" lon="3.80981">
        <ele>1356.592</ele>
        <time>2018-05-22T11:12:39Z</time>
      </trkpt>
      <trkpt lat="44.38732" lon="3.81">
        <ele>1358.213</ele>
        <time>2018-05-22T11:12:35Z</time>
      </trkpt>
      <trkpt lat="44.38715" lon="3.8102">
        <ele>1357.33</ele>
        <time>2018-05-22T11:12:31Z</time>
      </trkpt>
      <trkpt lat="44.38705" lon="3.81044">
        <ele>1357.308</ele>
        <time>2018-05-22T11:12:28Z</time>
      </trkpt>
      <trkpt lat="44.38693" lon="3.81067">
        <ele>1358.326</ele>
        <time>2018-05-22T11:12:25Z</time>
      </trkpt>
      <trkpt lat="44.38678" lon="3.81085">
        <ele>1359.506</ele>
        <time>2018-05-22T11:12:22Z</time>
      </trkpt>
      <trkpt lat="44.38661" lon="3.81102">
        <ele>1361.389</ele>
        <time>2018-05-22T11:12:19Z</time>
      </trkpt>
      <trkpt lat="44.38644" lon="3.81122">
        <ele>1361.336</ele>
        <time>2018-05-22T11:12:16Z</time>
      </trkpt>
      <trkpt lat="44.38628" lon="3.81142">
        <ele>1362.37</ele>
        <time>2018-05-22T11:12:13Z</time>
      </trkpt>
      <trkpt lat="44.38612" lon="3.81161">
        <ele>1362.346</ele>
        <time>2018-05-22T11:12:10Z</time>
      </trkpt>
      <trkpt lat="44.38596" lon="3.8118">
        <ele>1362.573</ele>
        <time>2018-05-22T11:12:07Z</time>
      </trkpt>
      <trkpt lat="44.38587" lon="3.81206">
        <ele>1363.364</ele>
        <time>2018-05-22T11:12:04Z</time>
      </trkpt>
      <trkpt lat="44.38579" lon="3.81233">
        <ele>1363.578</ele>
        <time>2018-05-22T11:12:01Z</time>
      </trkpt>
      <trkpt lat="44.38573" lon="3.81261">
        <ele>1364.399</ele>
        <time>2018-05-22T11:11:58Z</time>
      </trkpt>
      <trkpt lat="44.38566" lon="3.81291">
        <ele>1364.996</ele>
        <time>2018-05-22T11:11:55Z</time>
      </trkpt>
      <trkpt lat="44.38551" lon="3.81316">
        <ele>1362.308</ele>
        <time>2018-05-22T11:11:52Z</time>
      </trkpt>
      <trkpt lat="44.38534" lon="3.81338">
        <ele>1362.314</ele>
        <time>2018-05-22T11:11:49Z</time>
      </trkpt>
      <trkpt lat="44.38519" lon="3.81361">
        <ele>1361.122</ele>
        <time>2018-05-22T11:11:46Z</time>
      </trkpt>
      <trkpt lat="44.38506" lon="3.81388">
        <ele>1359.142</ele>
        <time>2018-05-22T11:11:43Z</time>
      </trkpt>
      <trkpt lat="44.38501" lon="3.81419">
        <ele>1359.327</ele>
        <time>2018-05-22T11:11:40Z</time>
      </trkpt>
      <trkpt lat="44.38505" lon="3.8145">
        <ele>1360.341</ele>
        <time>2018-05-22T11:11:37Z</time>
      </trkpt>
      <trkpt lat="44.38512" lon="3.8148">
        <ele>1359.557</ele>
        <time>2018-05-22T11:11:34Z</time>
      </trkpt>
      <trkpt lat="44.38523" lon="3.81508">
        <ele>1360.354</ele>
        <time>2018-05-22T11:11:31Z</time>
      </trkpt>
      <trkpt lat="44.38534" lon="3.81535">
        <ele>1359.325</ele>
        <time>2018-05-22T11:11:28Z</time>
      </trkpt>
      <trkpt lat="44.38547" lon="3.81562">
        <ele>1361.149</ele>
        <time>2018-05-22T11:11:25Z</time>
      </trkpt>
      <trkpt lat="44.38554" lon="3.8159">
        <ele>1359.13</ele>
        <time>2018-05-22T11:11:22Z</time>
      </trkpt>
      <trkpt lat="44.3856" lon="3.81617">
        <ele>1358.357</ele>
        <time>2018-05-22T11:11:19Z</time>
      </trkpt>
      <trkpt lat="44.38569" lon="3.8164">
        <ele>1358.108</ele>
        <time>2018-05-22T11:11:16Z</time>
      </trkpt>
      <trkpt lat="44.38584" lon="3.81661">
        <ele>1357.214</ele>
        <time>2018-05-22T11:11:12Z</time>
      </trkpt>
      <trkpt lat="44.38603" lon="3.8168">
        <ele>1356.304</ele>
        <time>2018-05-22T11:11:08Z</time>
      </trkpt>
      <trkpt lat="44.38619" lon="3.81694">
        <ele>1357.353</ele>
        <time>2018-05-22T11:11:05Z</time>
      </trkpt>
      <trkpt lat="44.38636" lon="3.817">
        <ele>1358.287</ele>
        <time>2018-05-22T11:11:02Z</time>
      </trkpt>
      <trkpt lat="44.38654" lon="3.81701">
        <ele>1357.391</ele>
        <time>2018-05-22T11:10:59Z</time>
      </trkpt>
      <trkpt lat="44.38678" lon="3.81701">
        <ele>1357.167</ele>
        <time>2018-05-22T11:10:55Z</time>
      </trkpt>
      <trkpt lat="44.387" lon="3.81693">
        <ele>1356.154</ele>
        <time>2018-05-22T11:10:51Z</time>
      </trkpt>
      <trkpt lat="44.38718" lon="3.81684">
        <ele>1355.325</ele>
        <time>2018-05-22T11:10:48Z</time>
      </trkpt>
      <trkpt lat="44.38739" lon="3.81678">
        <ele>1354.379</ele>
        <time>2018-05-22T11:10:44Z</time>
      </trkpt>
      <trkpt lat="44.38756" lon="3.81667">
        <ele>1353.16</ele>
        <time>2018-05-22T11:10:40Z</time>
      </trkpt>
      <trkpt lat="44.38774" lon="3.81654">
        <ele>1353.297</ele>
        <time>2018-05-22T11:10:36Z</time>
      </trkpt>
      <trkpt lat="44.38795" lon="3.81647">
        <ele>1352.208</ele>
        <time>2018-05-22T11:10:31Z</time>
      </trkpt>
      <trkpt lat="44.38814" lon="3.81658">
        <ele>1352.308</ele>
        <time>2018-05-22T11:10:24Z</time>
      </trkpt>
      <trkpt lat="44.38826" lon="3.81676">
        <ele>1352.353</ele>
        <time>2018-05-22T11:10:17Z</time>
      </trkpt>
      <trkpt lat="44.38824" lon="3.81701">
        <ele>1353.152</ele>
        <time>2018-05-22T11:10:13Z</time>
      </trkpt>
      <trkpt lat="44.38808" lon="3.81724">
        <ele>1351.367</ele>
        <time>2018-05-22T11:10:09Z</time>
      </trkpt>
      <trkpt lat="44.3879" lon="3.81744">
        <ele>1351.311</ele>
        <time>2018-05-22T11:10:05Z</time>
      </trkpt>
      <trkpt lat="44.38773" lon="3.81761">
        <ele>1351.147</ele>
        <time>2018-05-22T11:10:01Z</time>
      </trkpt>
      <trkpt lat="44.38755" lon="3.81777">
        <ele>1349.584</ele>
        <time>2018-05-22T11:09:57Z</time>
      </trkpt>
      <trkpt lat="44.38739" lon="3.81793">
        <ele>1349.355</ele>
        <time>2018-05-22T11:09:53Z</time>
      </trkpt>
      <trkpt lat="44.38723" lon="3.81814">
        <ele>1349.249</ele>
        <time>2018-05-22T11:09:49Z</time>
      </trkpt>
      <trkpt lat="44.38714" lon="3.81841">
        <ele>1347.53</ele>
        <time>2018-05-22T11:09:45Z</time>
      </trkpt>
      <trkpt lat="44.38721" lon="3.81868">
        <ele>1348.117</ele>
        <time>2018-05-22T11:09:41Z</time>
      </trkpt>
      <trkpt lat="44.38723" lon="3.81897">
        <ele>1348.308</ele>
        <time>2018-05-22T11:09:37Z</time>
      </trkpt>
      <trkpt lat="44.38725" lon="3.81925">
        <ele>1350.023</ele>
        <time>2018-05-22T11:09:32Z</time>
      </trkpt>
      <trkpt lat="44.38724" lon="3.81951">
        <ele>1350.503</ele>
        <time>2018-05-22T11:09:26Z</time>
      </trkpt>
      <trkpt lat="44.38712" lon="3.81971">
        <ele>1352.459</ele>
        <time>2018-05-22T11:09:21Z</time>
      </trkpt>
      <trkpt lat="44.38694" lon="3.81984">
        <ele>1353.434</ele>
        <time>2018-05-22T11:09:14Z</time>
      </trkpt>
      <trkpt lat="44.38679" lon="3.81998">
        <ele>1352.568</ele>
        <time>2018-05-22T11:09:10Z</time>
      </trkpt>
      <trkpt lat="44.3866" lon="3.82015">
        <ele>1354.384</ele>
        <time>2018-05-22T11:09:06Z</time>
      </trkpt>
      <trkpt lat="44.38643" lon="3.82037">
        <ele>1355.351</ele>
        <time>2018-05-22T11:09:02Z</time>
      </trkpt>
      <trkpt lat="44.38629" lon="3.8206">
        <ele>1356.362</ele>
        <time>2018-05-22T11:08:58Z</time>
      </trkpt>
      <trkpt lat="44.38615" lon="3.82083">
        <ele>1357.376</ele>
        <time>2018-05-22T11:08:54Z</time>
      </trkpt>
      <trkpt lat="44.38596" lon="3.82097">
        <ele>1359.337</ele>
        <time>2018-05-22T11:08:50Z</time>
      </trkpt>
      <trkpt lat="44.38574" lon="3.82105">
        <ele>1358.344</ele>
        <time>2018-05-22T11:08:46Z</time>
      </trkpt>
      <trkpt lat="44.38553" lon="3.82118">
        <ele>1360.508</ele>
        <time>2018-05-22T11:08:42Z</time>
      </trkpt>
      <trkpt lat="44.38535" lon="3.8214">
        <ele>1362.505</ele>
        <time>2018-05-22T11:08:38Z</time>
      </trkpt>
      <trkpt lat="44.38521" lon="3.82158">
        <ele>1363.341</ele>
        <time>2018-05-22T11:08:35Z</time>
      </trkpt>
      <trkpt lat="44.38509" lon="3.82185">
        <ele>1366.521</ele>
        <time>2018-05-22T11:08:31Z</time>
      </trkpt>
      <trkpt lat="44.38497" lon="3.82213">
        <ele>1366.336</ele>
        <time>2018-05-22T11:08:27Z</time>
      </trkpt>
      <trkpt lat="44.38482" lon="3.82232">
        <ele>1367.18</ele>
        <time>2018-05-22T11:08:23Z</time>
      </trkpt>
      <trkpt lat="44.3847" lon="3.82257">
        <ele>1369.186</ele>
        <time>2018-05-22T11:08:19Z</time>
      </trkpt>
      <trkpt lat="44.38464" lon="3.82286">
        <ele>1368.543</ele>
        <time>2018-05-22T11:08:13Z</time>
      </trkpt>
      <trkpt lat="44.38471" lon="3.82312">
        <ele>1371.384</ele>
        <time>2018-05-22T11:08:10Z</time>
      </trkpt>
      <trkpt lat="44.38471" lon="3.82344">
        <ele>1373.578</ele>
        <time>2018-05-22T11:08:07Z</time>
      </trkpt>
      <trkpt lat="44.38468" lon="3.82373">
        <ele>1375.549</ele>
        <time>2018-05-22T11:08:04Z</time>
      </trkpt>
      <trkpt lat="44.38453" lon="3.82388">
        <ele>1376.326</ele>
        <time>2018-05-22T11:08:01Z</time>
      </trkpt>
      <trkpt lat="44.38438" lon="3.82406">
        <ele>1375.308</ele>
        <time>2018-05-22T11:07:58Z</time>
      </trkpt>
      <trkpt lat="44.38424" lon="3.82429">
        <ele>1375.322</ele>
        <time>2018-05-22T11:07:55Z</time>
      </trkpt>
      <trkpt lat="44.38408" lon="3.82453">
        <ele>1375.302</ele>
        <time>2018-05-22T11:07:52Z</time>
      </trkpt>
      <trkpt lat="44.38393" lon="3.82477">
        <ele>1376.549</ele>
        <time>2018-05-22T11:07:49Z</time>
      </trkpt>
      <trkpt lat="44.38382" lon="3.82505">
        <ele>1377.383</ele>
        <time>2018-05-22T11:07:46Z</time>
      </trkpt>
      <trkpt lat="44.38374" lon="3.82533">
        <ele>1378.427</ele>
        <time>2018-05-22T11:07:43Z</time>
      </trkpt>
      <trkpt lat="44.3837" lon="3.82561">
        <ele>1378.053</ele>
        <time>2018-05-22T11:07:40Z</time>
      </trkpt>
      <trkpt lat="44.38367" lon="3.8259">
        <ele>1375.85</ele>
        <time>2018-05-22T11:07:37Z</time>
      </trkpt>
      <trkpt lat="44.38364" lon="3.82619">
        <ele>1373.391</ele>
        <time>2018-05-22T11:07:34Z</time>
      </trkpt>
      <trkpt lat="44.3836" lon="3.82646">
        <ele>1373.135</ele>
        <time>2018-05-22T11:07:31Z</time>
      </trkpt>
      <trkpt lat="44.38358" lon="3.82672">
        <ele>1371.226</ele>
        <time>2018-05-22T11:07:28Z</time>
      </trkpt>
      <trkpt lat="44.38352" lon="3.82697">
        <ele>1369.373</ele>
        <time>2018-05-22T11:07:25Z</time>
      </trkpt>
      <trkpt lat="44.38348" lon="3.82722">
        <ele>1370.208</ele>
        <time>2018-05-22T11:07:22Z</time>
      </trkpt>
      <trkpt lat="44.38343" lon="3.82747">
        <ele>1369.109</ele>
        <time>2018-05-22T11:07:19Z</time>
      </trkpt>
      <trkpt lat="44.38346" lon="3.82773">
        <ele>1368.154</ele>
        <time>2018-05-22T11:07:16Z</time>
      </trkpt>
      <trkpt lat="44.3835" lon="3.82801">
        <ele>1367.214</ele>
        <time>2018-05-22T11:07:13Z</time>
      </trkpt>
      <trkpt lat="44.38349" lon="3.82831">
        <ele>1366.368</ele>
        <time>2018-05-22T11:07:10Z</time>
      </trkpt>
      <trkpt lat="44.38346" lon="3.8286">
        <ele>1366.542</ele>
        <time>2018-05-22T11:07:07Z</time>
      </trkpt>
      <trkpt lat="44.38338" lon="3.82887">
        <ele>1367.278</ele>
        <time>2018-05-22T11:07:04Z</time>
      </trkpt>
      <trkpt lat="44.38328" lon="3.82914">
        <ele>1366.375</ele>
        <time>2018-05-22T11:07:01Z</time>
      </trkpt>
      <trkpt lat="44.38312" lon="3.82935">
        <ele>1367.336</ele>
        <time>2018-05-22T11:06:58Z</time>
      </trkpt>
      <trkpt lat="44.38294" lon="3.82953">
        <ele>1367.18</ele>
        <time>2018-05-22T11:06:55Z</time>
      </trkpt>
      <trkpt lat="44.38278" lon="3.82971">
        <ele>1366.311</ele>
        <time>2018-05-22T11:06:52Z</time>
      </trkpt>
      <trkpt lat="44.38265" lon="3.82989">
        <ele>1366.348</ele>
        <time>2018-05-22T11:06:49Z</time>
      </trkpt>
      <trkpt lat="44.38248" lon="3.8301">
        <ele>1366.108</ele>
        <time>2018-05-22T11:06:45Z</time>
      </trkpt>
      <trkpt lat="44.38233" lon="3.83029">
        <ele>1365.311</ele>
        <time>2018-05-22T11:06:42Z</time>
      </trkpt>
      <trkpt lat="44.38218" lon="3.8305">
        <ele>1365.183</ele>
        <time>2018-05-22T11:06:39Z</time>
      </trkpt>
      <trkpt lat="44.38204" lon="3.8307">
        <ele>1364.262</ele>
        <time>2018-05-22T11:06:36Z</time>
      </trkpt>
      <trkpt lat="44.38189" lon="3.83088">
        <ele>1363.378</ele>
        <time>2018-05-22T11:06:33Z</time>
      </trkpt>
      <trkpt lat="44.38175" lon="3.83116">
        <ele>1363.152</ele>
        <time>2018-05-22T11:06:29Z</time>
      </trkpt>
      <trkpt lat="44.38168" lon="3.83139">
        <ele>1362.358</ele>
        <time>2018-05-22T11:06:26Z</time>
      </trkpt>
      <trkpt lat="44.38164" lon="3.83171">
        <ele>1362.195</ele>
        <time>2018-05-22T11:06:22Z</time>
      </trkpt>
      <trkpt lat="44.38165" lon="3.83202">
        <ele>1360.536</ele>
        <time>2018-05-22T11:06:18Z</time>
      </trkpt>
      <trkpt lat="44.38164" lon="3.83235">
        <ele>1361.31</ele>
        <time>2018-05-22T11:06:14Z</time>
      </trkpt>
      <trkpt lat="44.38162" lon="3.83268">
        <ele>1361.331</ele>
        <time>2018-05-22T11:06:10Z</time>
      </trkpt>
      <trkpt lat="44.3815" lon="3.83294">
        <ele>1362.338</ele>
        <time>2018-05-22T11:06:06Z</time>
      </trkpt>
      <trkpt lat="44.3814" lon="3.83321">
        <ele>1361.308</ele>
        <time>2018-05-22T11:06:02Z</time>
      </trkpt>
      <trkpt lat="44.38139" lon="3.83349">
        <ele>1360.326</ele>
        <time>2018-05-22T11:05:58Z</time>
      </trkpt>
      <trkpt lat="44.38143" lon="3.83378">
        <ele>1363.542</ele>
        <time>2018-05-22T11:05:53Z</time>
      </trkpt>
      <trkpt lat="44.38152" lon="3.83402">
        <ele>1365.168</ele>
        <time>2018-05-22T11:05:49Z</time>
      </trkpt>
      <trkpt lat="44.38162" lon="3.83425">
        <ele>1365.327</ele>
        <time>2018-05-22T11:05:43Z</time>
      </trkpt>
      <trkpt lat="44.38171" lon="3.83449">
        <ele>1368.321</ele>
        <time>2018-05-22T11:05:19Z</time>
      </trkpt>
      <trkpt lat="44.38179" lon="3.83467">
        <ele>1374.147</ele>
        <time>2018-05-22T11:05:09Z</time>
      </trkpt>
      <trkpt lat="44.38182" lon="3.83496">
        <ele>1387.354</ele>
        <time>2018-05-22T11:04:38Z</time>
      </trkpt>
      <trkpt lat="44.38177" lon="3.83557">
        <ele>1371.125</ele>
        <time>2018-06-01T23:39:32Z</time>
      </trkpt>
      <trkpt lat="44.38219" lon="3.83633">
        <ele>1372.099</ele>
        <time>2018-06-01T23:39:12Z</time>
      </trkpt>
      <trkpt lat="44.38253" lon="3.83784">
        <ele>1365.56</ele>
        <time>2018-06-01T23:38:52Z</time>
      </trkpt>
      <trkpt lat="44.38255" lon="3.83957">
        <ele>1363.997</ele>
        <time>2018-06-01T23:38:32Z</time>
      </trkpt>
      <trkpt lat="44.38238" lon="3.84032">
        <ele>1367.308</ele>
        <time>2018-06-01T23:38:12Z</time>
      </trkpt>
      <trkpt lat="44.38241" lon="3.84082">
        <ele>1370.011</ele>
        <time>2018-06-01T23:37:52Z</time>
      </trkpt>
      <trkpt lat="44.3828" lon="3.84133">
        <ele>1373.101</ele>
        <time>2018-06-01T23:37:32Z</time>
      </trkpt>
      <trkpt lat="44.38285" lon="3.8413">
        <ele>1374.551</ele>
        <time>2018-06-01T23:37:12Z</time>
        <extensions>
          <visugpx:TrkExtension xmlns:visugpx="https://www.visugpx.com/editgpx/">
            <visugpx:node>1</visugpx:node>
            </visugpx:TrkExtension>
        </extensions>
      </trkpt>
      <trkpt lat="44.38282" lon="3.84141">
        <ele>1369.9</ele>
      </trkpt>
      <trkpt lat="44.3828" lon="3.8416">
        <ele>1369.9</ele>
      </trkpt>
      <trkpt lat="44.38273" lon="3.84184">
        <ele>1371.9</ele>
      </trkpt>
      <trkpt lat="44.38259" lon="3.84203">
        <ele>1372.7</ele>
      </trkpt>
      <trkpt lat="44.38253" lon="3.84207">
        <ele>1372.9</ele>
      </trkpt>
      <trkpt lat="44.38243" lon="3.84207">
        <ele>1374</ele>
      </trkpt>
      <trkpt lat="44.38221" lon="3.84201">
        <ele>1374.1</ele>
      </trkpt>
      <trkpt lat="44.38209" lon="3.842">
        <ele>1374.3</ele>
      </trkpt>
      <trkpt lat="44.38189" lon="3.84209">
        <ele>1375.2</ele>
      </trkpt>
      <trkpt lat="44.38174" lon="3.8421">
        <ele>1375.5</ele>
      </trkpt>
      <trkpt lat="44.3811" lon="3.84204">
        <ele>1376.5</ele>
      </trkpt>
      <trkpt lat="44.38082" lon="3.84223">
        <ele>1376.6</ele>
      </trkpt>
      <trkpt lat="44.38059" lon="3.84252">
        <ele>1381.3</ele>
      </trkpt>
      <trkpt lat="44.38027" lon="3.8433">
        <ele>1381.4</ele>
      </trkpt>
      <trkpt lat="44.38017" lon="3.84374">
        <ele>1385.4</ele>
      </trkpt>
      <trkpt lat="44.38017" lon="3.84412">
        <ele>1384.9</ele>
      </trkpt>
      <trkpt lat="44.3802" lon="3.84466">
        <ele>1389.5</ele>
      </trkpt>
      <trkpt lat="44.38042" lon="3.84576">
        <ele>1393.7</ele>
      </trkpt>
      <trkpt lat="44.38104" lon="3.84669">
        <ele>1400.3</ele>
      </trkpt>
      <trkpt lat="44.38117" lon="3.8469">
        <ele>1401.4</ele>
        <extensions>
          <visugpx:TrkExtension xmlns:visugpx="https://www.visugpx.com/editgpx/">
            <visugpx:node>2</visugpx:node>
            </visugpx:TrkExtension>
        </extensions>
      </trkpt>
      <trkpt lat="44.38132" lon="3.84714">
        <ele>1402.3</ele>
      </trkpt>
      <trkpt lat="44.38143" lon="3.84742">
        <ele>1403.4</ele>
      </trkpt>
      <trkpt lat="44.38147" lon="3.84794">
        <ele>1406</ele>
      </trkpt>
      <trkpt lat="44.38141" lon="3.84817">
        <ele>1406.6</ele>
      </trkpt>
      <trkpt lat="44.38122" lon="3.84856">
        <ele>1408</ele>
      </trkpt>
      <trkpt lat="44.38123" lon="3.84904">
        <ele>1408.8</ele>
      </trkpt>
      <trkpt lat="44.38174" lon="3.85067">
        <ele>1417.9</ele>
      </trkpt>
      <trkpt lat="44.38182" lon="3.85076">
        <ele>1417.8</ele>
      </trkpt>
      <trkpt lat="44.38215" lon="3.85085">
        <ele>1418.4</ele>
      </trkpt>
      <trkpt lat="44.38236" lon="3.85086">
        <ele>1419.7</ele>
      </trkpt>
      <trkpt lat="44.38243" lon="3.85099">
        <ele>1419.6</ele>
      </trkpt>
      <trkpt lat="44.38266" lon="3.85123">
        <ele>1421.5</ele>
      </trkpt>
      <trkpt lat="44.38294" lon="3.85131">
        <ele>1421.8</ele>
      </trkpt>
      <trkpt lat="44.38321" lon="3.85175">
        <ele>1424.4</ele>
      </trkpt>
      <trkpt lat="44.38322" lon="3.85189">
        <ele>1425.2</ele>
      </trkpt>
      <trkpt lat="44.38342" lon="3.85207">
        <ele>1426.7</ele>
      </trkpt>
      <trkpt lat="44.38344" lon="3.8523">
        <ele>1428.3</ele>
      </trkpt>
      <trkpt lat="44.38344" lon="3.85248">
        <ele>1429.5</ele>
      </trkpt>
      <trkpt lat="44.38355" lon="3.85268">
        <ele>1433.1</ele>
      </trkpt>
      <trkpt lat="44.38362" lon="3.8531">
        <ele>1435.3</ele>
      </trkpt>
      <trkpt lat="44.38345" lon="3.8532">
        <ele>1436.6</ele>
      </trkpt>
      <trkpt lat="44.38317" lon="3.85352">
        <ele>1439.3</ele>
      </trkpt>
      <trkpt lat="44.38298" lon="3.85386">
        <ele>1439.2</ele>
      </trkpt>
      <trkpt lat="44.38295" lon="3.854">
        <ele>1439.1</ele>
      </trkpt>
      <trkpt lat="44.38302" lon="3.85462">
        <ele>1436.7</ele>
      </trkpt>
      <trkpt lat="44.38328" lon="3.85559">
        <ele>1433.1</ele>
      </trkpt>
      <trkpt lat="44.38344" lon="3.85595">
        <ele>1435.1</ele>
      </trkpt>
      <trkpt lat="44.38366" lon="3.85698">
        <ele>1434.1</ele>
      </trkpt>
      <trkpt lat="44.38365" lon="3.8575">
        <ele>1433.4</ele>
      </trkpt>
      <trkpt lat="44.38359" lon="3.86071">
        <ele>1433.1</ele>
      </trkpt>
      <trkpt lat="44.38353" lon="3.86129">
        <ele>1434.6</ele>
      </trkpt>
      <trkpt lat="44.38342" lon="3.86226">
        <ele>1436.2</ele>
      </trkpt>
      <trkpt lat="44.38353" lon="3.8627">
        <ele>1436.5</ele>
      </trkpt>
      <trkpt lat="44.38378" lon="3.86327">
        <ele>1437.2</ele>
      </trkpt>
      <trkpt lat="44.38391" lon="3.8638">
        <ele>1435.4</ele>
      </trkpt>
      <trkpt lat="44.38423" lon="3.86445">
        <ele>1438.3</ele>
      </trkpt>
      <trkpt lat="44.38429" lon="3.86487">
        <ele>1436.5</ele>
      </trkpt>
      <trkpt lat="44.38417" lon="3.86548">
        <ele>1435.4</ele>
      </trkpt>
      <trkpt lat="44.38421" lon="3.86563">
        <ele>1434.6</ele>
      </trkpt>
      <trkpt lat="44.38465" lon="3.86653">
        <ele>1434.2</ele>
      </trkpt>
      <trkpt lat="44.38543" lon="3.86741">
        <ele>1434.1</ele>
      </trkpt>
      <trkpt lat="44.3858" lon="3.86793">
        <ele>1432.3</ele>
      </trkpt>
      <trkpt lat="44.38584" lon="3.86809">
        <ele>1437.7</ele>
      </trkpt>
      <trkpt lat="44.38583" lon="3.86827">
        <ele>1433.3</ele>
      </trkpt>
      <trkpt lat="44.38569" lon="3.8686">
        <ele>1432.6</ele>
      </trkpt>
      <trkpt lat="44.38568" lon="3.86903">
        <ele>1434.1</ele>
      </trkpt>
      <trkpt lat="44.38575" lon="3.86944">
        <ele>1434.9</ele>
      </trkpt>
      <trkpt lat="44.38578" lon="3.87008">
        <ele>1435.3</ele>
      </trkpt>
      <trkpt lat="44.38586" lon="3.87038">
        <ele>1437.5</ele>
      </trkpt>
      <trkpt lat="44.38589" lon="3.87057">
        <ele>1436.6</ele>
      </trkpt>
      <trkpt lat="44.38592" lon="3.87102">
        <ele>1434.1</ele>
      </trkpt>
      <trkpt lat="44.38596" lon="3.87118">
        <ele>1434.2</ele>
      </trkpt>
      <trkpt lat="44.38602" lon="3.87127">
        <ele>1434.2</ele>
      </trkpt>
      <trkpt lat="44.38623" lon="3.87146">
        <ele>1434.7</ele>
      </trkpt>
      <trkpt lat="44.38643" lon="3.87168">
        <ele>1433.6</ele>
      </trkpt>
      <trkpt lat="44.38646" lon="3.8718">
        <ele>1433.5</ele>
      </trkpt>
      <trkpt lat="44.38647" lon="3.87184">
        <ele>1433.3</ele>
      </trkpt>
      <trkpt lat="44.3864" lon="3.87294">
        <ele>1429.4</ele>
      </trkpt>
      <trkpt lat="44.38631" lon="3.87345">
        <ele>1429.7</ele>
      </trkpt>
      <trkpt lat="44.38624" lon="3.87359">
        <ele>1429.4</ele>
      </trkpt>
      <trkpt lat="44.38615" lon="3.87388">
        <ele>1429.4</ele>
      </trkpt>
      <trkpt lat="44.38608" lon="3.87439">
        <ele>1431.6</ele>
      </trkpt>
      <trkpt lat="44.38601" lon="3.87466">
        <ele>1432.1</ele>
      </trkpt>
      <trkpt lat="44.386" lon="3.87479">
        <ele>1432.2</ele>
      </trkpt>
      <trkpt lat="44.38596" lon="3.87518">
        <ele>1431.8</ele>
      </trkpt>
      <trkpt lat="44.38608" lon="3.8756">
        <ele>1431.2</ele>
      </trkpt>
      <trkpt lat="44.38618" lon="3.87584">
        <ele>1428.2</ele>
      </trkpt>
      <trkpt lat="44.38626" lon="3.87593">
        <ele>1428.5</ele>
      </trkpt>
      <trkpt lat="44.38637" lon="3.87596">
        <ele>1429.2</ele>
        <extensions>
          <visugpx:TrkExtension xmlns:visugpx="https://www.visugpx.com/editgpx/">
            <visugpx:node>3</visugpx:node>
            </visugpx:TrkExtension>
        </extensions>
      </trkpt>
      <trkpt lat="44.3864" lon="3.87597">
        <ele>1429.4</ele>
      </trkpt>
      <trkpt lat="44.38661" lon="3.87589">
        <ele>1432.2</ele>
      </trkpt>
      <trkpt lat="44.38678" lon="3.87586">
        <ele>1435.9</ele>
      </trkpt>
      <trkpt lat="44.38692" lon="3.87593">
        <ele>1437.8</ele>
      </trkpt>
      <trkpt lat="44.38736" lon="3.87634">
        <ele>1440.5</ele>
      </trkpt>
      <trkpt lat="44.38749" lon="3.87651">
        <ele>1440.9</ele>
      </trkpt>
      <trkpt lat="44.38761" lon="3.87686">
        <ele>1445.6</ele>
      </trkpt>
      <trkpt lat="44.38789" lon="3.87748">
        <ele>1447.4</ele>
      </trkpt>
      <trkpt lat="44.38798" lon="3.87764">
        <ele>1446.7</ele>
      </trkpt>
      <trkpt lat="44.3886" lon="3.87827">
        <ele>1458.3</ele>
      </trkpt>
      <trkpt lat="44.38866" lon="3.87847">
        <ele>1457</ele>
      </trkpt>
      <trkpt lat="44.38869" lon="3.87913">
        <ele>1456.7</ele>
      </trkpt>
      <trkpt lat="44.38874" lon="3.87926">
        <ele>1454.6</ele>
      </trkpt>
      <trkpt lat="44.38901" lon="3.87958">
        <ele>1454.8</ele>
      </trkpt>
      <trkpt lat="44.38929" lon="3.88013">
        <ele>1453.1</ele>
      </trkpt>
      <trkpt lat="44.38969" lon="3.88066">
        <ele>1451.8</ele>
      </trkpt>
      <trkpt lat="44.39044" lon="3.88124">
        <ele>1450.9</ele>
      </trkpt>
      <trkpt lat="44.39081" lon="3.88173">
        <ele>1449.3</ele>
      </trkpt>
      <trkpt lat="44.39099" lon="3.88216">
        <ele>1458.1</ele>
      </trkpt>
      <trkpt lat="44.39104" lon="3.88274">
        <ele>1455.4</ele>
      </trkpt>
      <trkpt lat="44.39083" lon="3.88373">
        <ele>1442.3</ele>
      </trkpt>
      <trkpt lat="44.39054" lon="3.88478">
        <ele>1447.8</ele>
      </trkpt>
      <trkpt lat="44.39049" lon="3.88543">
        <ele>1448.3</ele>
      </trkpt>
      <trkpt lat="44.39068" lon="3.88604">
        <ele>1449.3</ele>
      </trkpt>
      <trkpt lat="44.39103" lon="3.88687">
        <ele>1456</ele>
      </trkpt>
      <trkpt lat="44.39116" lon="3.88724">
        <ele>1456</ele>
      </trkpt>
      <trkpt lat="44.39123" lon="3.88755">
        <ele>1449.5</ele>
      </trkpt>
      <trkpt lat="44.39138" lon="3.88777">
        <ele>1450.1</ele>
      </trkpt>
      <trkpt lat="44.39164" lon="3.88788">
        <ele>1450.5</ele>
      </trkpt>
      <trkpt lat="44.39224" lon="3.888">
        <ele>1456.7</ele>
      </trkpt>
      <trkpt lat="44.39243" lon="3.88808">
        <ele>1456</ele>
      </trkpt>
      <trkpt lat="44.39268" lon="3.88829">
        <ele>1459.1</ele>
      </trkpt>
      <trkpt lat="44.3929" lon="3.88859">
        <ele>1455.2</ele>
      </trkpt>
      <trkpt lat="44.39295" lon="3.88889">
        <ele>1454.4</ele>
      </trkpt>
      <trkpt lat="44.39292" lon="3.88926">
        <ele>1451.4</ele>
      </trkpt>
      <trkpt lat="44.39266" lon="3.89025">
        <ele>1450.8</ele>
      </trkpt>
      <trkpt lat="44.39253" lon="3.89088">
        <ele>1451.2</ele>
      </trkpt>
      <trkpt lat="44.39229" lon="3.89204">
        <ele>1448.1</ele>
      </trkpt>
      <trkpt lat="44.39216" lon="3.89251">
        <ele>1445.7</ele>
      </trkpt>
      <trkpt lat="44.39129" lon="3.89324">
        <ele>1447.5</ele>
      </trkpt>
      <trkpt lat="44.39099" lon="3.89353">
        <ele>1448.9</ele>
      </trkpt>
      <trkpt lat="44.3907" lon="3.89388">
        <ele>1451.9</ele>
      </trkpt>
      <trkpt lat="44.39042" lon="3.89427">
        <ele>1452.8</ele>
      </trkpt>
      <trkpt lat="44.38943" lon="3.89578">
        <ele>1460.4</ele>
      </trkpt>
      <trkpt lat="44.38885" lon="3.89685">
        <ele>1461.9</ele>
      </trkpt>
      <trkpt lat="44.38865" lon="3.89721">
        <ele>1462.5</ele>
      </trkpt>
      <trkpt lat="44.38802" lon="3.8984">
        <ele>1467.9</ele>
      </trkpt>
      <trkpt lat="44.38723" lon="3.89945">
        <ele>1469.8</ele>
      </trkpt>
      <trkpt lat="44.38647" lon="3.90037">
        <ele>1470.9</ele>
      </trkpt>
      <trkpt lat="44.38625" lon="3.90061">
        <ele>1470.9</ele>
      </trkpt>
      <trkpt lat="44.38606" lon="3.90093">
        <ele>1474.4</ele>
      </trkpt>
      <trkpt lat="44.38589" lon="3.90129">
        <ele>1475.9</ele>
      </trkpt>
      <trkpt lat="44.38583" lon="3.90158">
        <ele>1472.1</ele>
      </trkpt>
      <trkpt lat="44.38582" lon="3.90202">
        <ele>1472</ele>
      </trkpt>
      <trkpt lat="44.38582" lon="3.9033">
        <ele>1475.6</ele>
      </trkpt>
      <trkpt lat="44.38587" lon="3.9046">
        <ele>1471</ele>
      </trkpt>
      <trkpt lat="44.3861" lon="3.90617">
        <ele>1461.9</ele>
      </trkpt>
      <trkpt lat="44.38607" lon="3.90648">
        <ele>1462.2</ele>
      </trkpt>
      <trkpt lat="44.38604" lon="3.90665">
        <ele>1463.8</ele>
        <extensions>
          <visugpx:TrkExtension xmlns:visugpx="https://www.visugpx.com/editgpx/">
            <visugpx:node>4</visugpx:node>
            </visugpx:TrkExtension>
        </extensions>
      </trkpt>
      <trkpt lat="44.386" lon="3.90692">
        <ele>1457.6</ele>
      </trkpt>
      <trkpt lat="44.38588" lon="3.90731">
        <ele>1457.8</ele>
      </trkpt>
      <trkpt lat="44.38567" lon="3.90777">
        <ele>1463.6</ele>
      </trkpt>
      <trkpt lat="44.38538" lon="3.90816">
        <ele>1462.4</ele>
      </trkpt>
      <trkpt lat="44.38318" lon="3.90961">
        <ele>1456.6</ele>
      </trkpt>
      <trkpt lat="44.38283" lon="3.91019">
        <ele>1436.2</ele>
      </trkpt>
      <trkpt lat="44.38248" lon="3.91066">
        <ele>1437.8</ele>
      </trkpt>
      <trkpt lat="44.38089" lon="3.91148">
        <ele>1426.6</ele>
      </trkpt>
      <trkpt lat="44.37963" lon="3.91187">
        <ele>1414.4</ele>
      </trkpt>
      <trkpt lat="44.37907" lon="3.91222">
        <ele>1413.5</ele>
      </trkpt>
      <trkpt lat="44.37874" lon="3.91255">
        <ele>1398.8</ele>
      </trkpt>
      <trkpt lat="44.37854" lon="3.91292">
        <ele>1395.4</ele>
      </trkpt>
      <trkpt lat="44.37831" lon="3.91305">
        <ele>1392.8</ele>
      </trkpt>
      <trkpt lat="44.37788" lon="3.91303">
        <ele>1390</ele>
      </trkpt>
      <trkpt lat="44.3777" lon="3.91288">
        <ele>1390.4</ele>
      </trkpt>
      <trkpt lat="44.37699" lon="3.91178">
        <ele>1394.6</ele>
      </trkpt>
      <trkpt lat="44.3768" lon="3.91168">
        <ele>1393.9</ele>
      </trkpt>
      <trkpt lat="44.37633" lon="3.91171">
        <ele>1386.7</ele>
      </trkpt>
      <trkpt lat="44.3758" lon="3.91187">
        <ele>1385.4</ele>
      </trkpt>
      <trkpt lat="44.37516" lon="3.9124">
        <ele>1377</ele>
      </trkpt>
      <trkpt lat="44.3746" lon="3.9126">
        <ele>1365</ele>
      </trkpt>
      <trkpt lat="44.37387" lon="3.91256">
        <ele>1364.1</ele>
      </trkpt>
      <trkpt lat="44.37334" lon="3.91245">
        <ele>1370</ele>
      </trkpt>
      <trkpt lat="44.37302" lon="3.91247">
        <ele>1376.5</ele>
      </trkpt>
      <trkpt lat="44.37292" lon="3.91254">
        <ele>1367.9</ele>
      </trkpt>
      <trkpt lat="44.37283" lon="3.9127">
        <ele>1367.7</ele>
      </trkpt>
      <trkpt lat="44.37281" lon="3.91298">
        <ele>1365.2</ele>
      </trkpt>
      <trkpt lat="44.37274" lon="3.91329">
        <ele>1363.3</ele>
      </trkpt>
      <trkpt lat="44.37249" lon="3.91366">
        <ele>1359.5</ele>
      </trkpt>
      <trkpt lat="44.3722" lon="3.91398">
        <ele>1357.7</ele>
      </trkpt>
      <trkpt lat="44.37196" lon="3.91406">
        <ele>1357.9</ele>
      </trkpt>
      <trkpt lat="44.37118" lon="3.91432">
        <ele>1350.5</ele>
      </trkpt>
      <trkpt lat="44.36921" lon="3.91531">
        <ele>1340.4</ele>
      </trkpt>
      <trkpt lat="44.36883" lon="3.91554">
        <ele>1336</ele>
      </trkpt>
      <trkpt lat="44.36801" lon="3.91562">
        <ele>1332.1</ele>
      </trkpt>
      <trkpt lat="44.3672" lon="3.91581">
        <ele>1323</ele>
      </trkpt>
      <trkpt lat="44.36688" lon="3.91578">
        <ele>1318.1</ele>
      </trkpt>
      <trkpt lat="44.36668" lon="3.91559">
        <ele>1320.3</ele>
      </trkpt>
      <trkpt lat="44.36646" lon="3.91528">
        <ele>1319.6</ele>
      </trkpt>
      <trkpt lat="44.36621" lon="3.91511">
        <ele>1318.4</ele>
      </trkpt>
      <trkpt lat="44.3659" lon="3.91514">
        <ele>1316.9</ele>
      </trkpt>
      <trkpt lat="44.36524" lon="3.91533">
        <ele>1307.2</ele>
      </trkpt>
      <trkpt lat="44.36492" lon="3.91561">
        <ele>1308.4</ele>
      </trkpt>
      <trkpt lat="44.36432" lon="3.91641">
        <ele>1286.1</ele>
      </trkpt>
      <trkpt lat="44.36407" lon="3.9166">
        <ele>1291.3</ele>
      </trkpt>
      <trkpt lat="44.36251" lon="3.91701">
        <ele>1274.3</ele>
      </trkpt>
      <trkpt lat="44.36192" lon="3.91739">
        <ele>1275.7</ele>
      </trkpt>
      <trkpt lat="44.36165" lon="3.91765">
        <ele>1264.3</ele>
      </trkpt>
      <trkpt lat="44.36158" lon="3.91773">
        <ele>1263</ele>
      </trkpt>
      <trkpt lat="44.36151" lon="3.91782">
        <ele>1261.5</ele>
      </trkpt>
      <trkpt lat="44.36129" lon="3.91793">
        <ele>1261.1</ele>
      </trkpt>
      <trkpt lat="44.36057" lon="3.91813">
        <ele>1265.5</ele>
      </trkpt>
      <trkpt lat="44.36007" lon="3.91837">
        <ele>1249.2</ele>
      </trkpt>
      <trkpt lat="44.35974" lon="3.9185">
        <ele>1236.8</ele>
      </trkpt>
      <trkpt lat="44.3596" lon="3.91853">
        <ele>1234</ele>
      </trkpt>
      <trkpt lat="44.35939" lon="3.91851">
        <ele>1233.5</ele>
      </trkpt>
      <trkpt lat="44.35904" lon="3.91825">
        <ele>1242.5</ele>
      </trkpt>
      <trkpt lat="44.35899" lon="3.91828">
        <ele>1242</ele>
      </trkpt>
      <trkpt lat="44.35901" lon="3.91835">
        <ele>1228.1</ele>
      </trkpt>
      <trkpt lat="44.35922" lon="3.9185">
        <ele>1234.9</ele>
      </trkpt>
      <trkpt lat="44.35942" lon="3.91869">
        <ele>1229.3</ele>
      </trkpt>
      <trkpt lat="44.35965" lon="3.91883">
        <ele>1227.6</ele>
      </trkpt>
      <trkpt lat="44.36174" lon="3.91874">
        <ele>1214.3</ele>
      </trkpt>
      <trkpt lat="44.36203" lon="3.9186">
        <ele>1214.7</ele>
      </trkpt>
      <trkpt lat="44.3625" lon="3.91833">
        <ele>1222.3</ele>
      </trkpt>
      <trkpt lat="44.363" lon="3.91828">
        <ele>1224.2</ele>
      </trkpt>
      <trkpt lat="44.36399" lon="3.91859">
        <ele>1189.5</ele>
      </trkpt>
      <trkpt lat="44.36437" lon="3.91858">
        <ele>1183.1</ele>
      </trkpt>
      <trkpt lat="44.36538" lon="3.91781">
        <ele>1200.5</ele>
      </trkpt>
      <trkpt lat="44.36572" lon="3.91782">
        <ele>1199.7</ele>
      </trkpt>
      <trkpt lat="44.3661" lon="3.91818">
        <ele>1198.5</ele>
      </trkpt>
      <trkpt lat="44.36655" lon="3.91902">
        <ele>1170.8</ele>
      </trkpt>
      <trkpt lat="44.36707" lon="3.91931">
        <ele>1154.9</ele>
      </trkpt>
      <trkpt lat="44.36833" lon="3.91915">
        <ele>1173.5</ele>
      </trkpt>
      <trkpt lat="44.36861" lon="3.91926">
        <ele>1167.5</ele>
      </trkpt>
      <trkpt lat="44.36895" lon="3.9198">
        <ele>1159.7</ele>
      </trkpt>
      <trkpt lat="44.36924" lon="3.92004">
        <ele>1155.1</ele>
      </trkpt>
      <trkpt lat="44.3696" lon="3.92065">
        <ele>1157</ele>
      </trkpt>
      <trkpt lat="44.36973" lon="3.92091">
        <ele>1148.7</ele>
      </trkpt>
      <trkpt lat="44.36988" lon="3.92101">
        <ele>1151.6</ele>
      </trkpt>
      <trkpt lat="44.36997" lon="3.92117">
        <ele>1149.6</ele>
      </trkpt>
      <trkpt lat="44.36997" lon="3.92141">
        <ele>1148.6</ele>
      </trkpt>
      <trkpt lat="44.36991" lon="3.92164">
        <ele>1151</ele>
      </trkpt>
      <trkpt lat="44.3697" lon="3.92217">
        <ele>1142.5</ele>
      </trkpt>
      <trkpt lat="44.36959" lon="3.92255">
        <ele>1142.4</ele>
      </trkpt>
      <trkpt lat="44.36957" lon="3.92281">
        <ele>1142.1</ele>
      </trkpt>
      <trkpt lat="44.36944" lon="3.92325">
        <ele>1139.8</ele>
      </trkpt>
      <trkpt lat="44.36945" lon="3.92377">
        <ele>1137</ele>
      </trkpt>
      <trkpt lat="44.36942" lon="3.92379">
        <ele>1136.7</ele>
      </trkpt>
      <trkpt lat="44.3694" lon="3.92381">
        <ele>1136.5</ele>
      </trkpt>
      <trkpt lat="44.36937" lon="3.92379">
        <ele>1136.3</ele>
      </trkpt>
      <trkpt lat="44.36935" lon="3.92373">
        <ele>1136.4</ele>
      </trkpt>
      <trkpt lat="44.36935" lon="3.92349">
        <ele>1136.4</ele>
        <extensions>
          <visugpx:TrkExtension xmlns:visugpx="https://www.visugpx.com/editgpx/">
            <visugpx:node>5</visugpx:node>
            </visugpx:TrkExtension>
        </extensions>
      </trkpt>
      <trkpt lat="44.36935" lon="3.9232">
        <ele>1138.2</ele>
      </trkpt>
      <trkpt lat="44.36955" lon="3.92212">
        <ele>1139.1</ele>
      </trkpt>
      <trkpt lat="44.36964" lon="3.92181">
        <ele>1140.8</ele>
      </trkpt>
      <trkpt lat="44.36968" lon="3.92148">
        <ele>1143.9</ele>
      </trkpt>
      <trkpt lat="44.36963" lon="3.92132">
        <ele>1143.3</ele>
      </trkpt>
      <trkpt lat="44.3694" lon="3.92121">
        <ele>1139.6</ele>
      </trkpt>
      <trkpt lat="44.36927" lon="3.92095">
        <ele>1136.9</ele>
      </trkpt>
      <trkpt lat="44.36914" lon="3.92074">
        <ele>1132.4</ele>
      </trkpt>
      <trkpt lat="44.36892" lon="3.92052">
        <ele>1133.2</ele>
      </trkpt>
      <trkpt lat="44.36823" lon="3.92002">
        <ele>1130.4</ele>
      </trkpt>
      <trkpt lat="44.3679" lon="3.92001">
        <ele>1124.4</ele>
      </trkpt>
      <trkpt lat="44.36731" lon="3.92052">
        <ele>1111.5</ele>
      </trkpt>
      <trkpt lat="44.367" lon="3.92069">
        <ele>1108.2</ele>
      </trkpt>
      <trkpt lat="44.36657" lon="3.92046">
        <ele>1105.3</ele>
      </trkpt>
      <trkpt lat="44.36604" lon="3.92022">
        <ele>1106.1</ele>
      </trkpt>
      <trkpt lat="44.36577" lon="3.91992">
        <ele>1118.7</ele>
      </trkpt>
      <trkpt lat="44.36554" lon="3.91985">
        <ele>1125.9</ele>
      </trkpt>
      <trkpt lat="44.36496" lon="3.92081">
        <ele>1086.9</ele>
      </trkpt>
      <trkpt lat="44.36457" lon="3.9211">
        <ele>1074.8</ele>
      </trkpt>
      <trkpt lat="44.36423" lon="3.92115">
        <ele>1076.6</ele>
      </trkpt>
      <trkpt lat="44.36363" lon="3.92093">
        <ele>1083.3</ele>
      </trkpt>
      <trkpt lat="44.36335" lon="3.92099">
        <ele>1085.4</ele>
      </trkpt>
      <trkpt lat="44.36262" lon="3.92176">
        <ele>1070.7</ele>
      </trkpt>
      <trkpt lat="44.36227" lon="3.9219">
        <ele>1070.2</ele>
      </trkpt>
      <trkpt lat="44.36205" lon="3.92188">
        <ele>1070.6</ele>
      </trkpt>
      <trkpt lat="44.36199" lon="3.92197">
        <ele>1069.1</ele>
      </trkpt>
      <trkpt lat="44.36203" lon="3.92207">
        <ele>1066.7</ele>
      </trkpt>
      <trkpt lat="44.3627" lon="3.92208">
        <ele>1059.8</ele>
      </trkpt>
      <trkpt lat="44.36321" lon="3.92185">
        <ele>1061.6</ele>
      </trkpt>
      <trkpt lat="44.36345" lon="3.92161">
        <ele>1071.1</ele>
      </trkpt>
      <trkpt lat="44.36392" lon="3.92161">
        <ele>1070.4</ele>
      </trkpt>
      <trkpt lat="44.36456" lon="3.92212">
        <ele>1039.7</ele>
      </trkpt>
      <trkpt lat="44.36492" lon="3.92199">
        <ele>1041.4</ele>
      </trkpt>
      <trkpt lat="44.36535" lon="3.9216">
        <ele>1058.2</ele>
      </trkpt>
      <trkpt lat="44.36557" lon="3.92152">
        <ele>1057.1</ele>
      </trkpt>
      <trkpt lat="44.36651" lon="3.92231">
        <ele>1033.8</ele>
      </trkpt>
      <trkpt lat="44.36676" lon="3.92238">
        <ele>1038.4</ele>
      </trkpt>
      <trkpt lat="44.36683" lon="3.92246">
        <ele>1038.9</ele>
      </trkpt>
      <trkpt lat="44.36673" lon="3.92256">
        <ele>1026.6</ele>
      </trkpt>
      <trkpt lat="44.36651" lon="3.9225">
        <ele>1030.9</ele>
      </trkpt>
      <trkpt lat="44.36574" lon="3.92209">
        <ele>1031.2</ele>
      </trkpt>
      <trkpt lat="44.36558" lon="3.92203">
        <ele>1033</ele>
      </trkpt>
      <trkpt lat="44.36542" lon="3.92216">
        <ele>1031.4</ele>
      </trkpt>
      <trkpt lat="44.36496" lon="3.92276">
        <ele>1012.2</ele>
      </trkpt>
      <trkpt lat="44.36471" lon="3.92293">
        <ele>1007.6</ele>
      </trkpt>
      <trkpt lat="44.36424" lon="3.92284">
        <ele>1011.4</ele>
      </trkpt>
      <trkpt lat="44.36404" lon="3.92266">
        <ele>1021.5</ele>
      </trkpt>
      <trkpt lat="44.3639" lon="3.92266">
        <ele>1020.8</ele>
      </trkpt>
      <trkpt lat="44.36353" lon="3.92321">
        <ele>1013.6</ele>
      </trkpt>
      <trkpt lat="44.3634" lon="3.92369">
        <ele>990.2</ele>
      </trkpt>
      <trkpt lat="44.36313" lon="3.924">
        <ele>992.2</ele>
      </trkpt>
      <trkpt lat="44.36273" lon="3.92419">
        <ele>976.5</ele>
      </trkpt>
      <trkpt lat="44.36197" lon="3.92407">
        <ele>992.1</ele>
      </trkpt>
      <trkpt lat="44.36179" lon="3.92401">
        <ele>989.3</ele>
      </trkpt>
      <trkpt lat="44.36166" lon="3.92385">
        <ele>994.6</ele>
      </trkpt>
      <trkpt lat="44.36156" lon="3.92379">
        <ele>997.1</ele>
      </trkpt>
      <trkpt lat="44.36123" lon="3.92387">
        <ele>998</ele>
      </trkpt>
      <trkpt lat="44.36114" lon="3.924">
        <ele>996.2</ele>
      </trkpt>
      <trkpt lat="44.36121" lon="3.92408">
        <ele>994.8</ele>
      </trkpt>
      <trkpt lat="44.36148" lon="3.92396">
        <ele>992.8</ele>
      </trkpt>
      <trkpt lat="44.36164" lon="3.92401">
        <ele>988</ele>
      </trkpt>
      <trkpt lat="44.36189" lon="3.92426">
        <ele>970.5</ele>
      </trkpt>
      <trkpt lat="44.36207" lon="3.92436">
        <ele>969.2</ele>
      </trkpt>
      <trkpt lat="44.36252" lon="3.92474">
        <ele>962.7</ele>
      </trkpt>
      <trkpt lat="44.36279" lon="3.92476">
        <ele>963.3</ele>
      </trkpt>
      <trkpt lat="44.36297" lon="3.9247">
        <ele>964.2</ele>
      </trkpt>
      <trkpt lat="44.36302" lon="3.92476">
        <ele>962.7</ele>
      </trkpt>
      <trkpt lat="44.36296" lon="3.92487">
        <ele>961.3</ele>
      </trkpt>
      <trkpt lat="44.36224" lon="3.92494">
        <ele>958.5</ele>
      </trkpt>
      <trkpt lat="44.36194" lon="3.92486">
        <ele>957.5</ele>
      </trkpt>
      <trkpt lat="44.36167" lon="3.92461">
        <ele>961.9</ele>
      </trkpt>
      <trkpt lat="44.36148" lon="3.92464">
        <ele>963.6</ele>
      </trkpt>
      <trkpt lat="44.36133" lon="3.92484">
        <ele>961.3</ele>
      </trkpt>
      <trkpt lat="44.36103" lon="3.92531">
        <ele>939.2</ele>
      </trkpt>
      <trkpt lat="44.36054" lon="3.92568">
        <ele>940.9</ele>
      </trkpt>
      <trkpt lat="44.36043" lon="3.92575">
        <ele>941</ele>
      </trkpt>
      <trkpt lat="44.36029" lon="3.92577">
        <ele>940.9</ele>
      </trkpt>
      <trkpt lat="44.36008" lon="3.92579">
        <ele>937.1</ele>
      </trkpt>
      <trkpt lat="44.35969" lon="3.92579">
        <ele>936.8</ele>
      </trkpt>
      <trkpt lat="44.35937" lon="3.92573">
        <ele>931.5</ele>
      </trkpt>
      <trkpt lat="44.35928" lon="3.92567">
        <ele>930.6</ele>
      </trkpt>
      <trkpt lat="44.35907" lon="3.92545">
        <ele>931.7</ele>
      </trkpt>
      <trkpt lat="44.35898" lon="3.92539">
        <ele>933.2</ele>
      </trkpt>
      <trkpt lat="44.35879" lon="3.92533">
        <ele>934</ele>
      </trkpt>
      <trkpt lat="44.35862" lon="3.92518">
        <ele>936.7</ele>
      </trkpt>
      <trkpt lat="44.35855" lon="3.92516">
        <ele>937.6</ele>
      </trkpt>
      <trkpt lat="44.35849" lon="3.92517">
        <ele>938</ele>
      </trkpt>
      <trkpt lat="44.35843" lon="3.92522">
        <ele>937.3</ele>
      </trkpt>
      <trkpt lat="44.35829" lon="3.92552">
        <ele>932.9</ele>
      </trkpt>
      <trkpt lat="44.35796" lon="3.92593">
        <ele>912.5</ele>
      </trkpt>
      <trkpt lat="44.35788" lon="3.926">
        <ele>912.6</ele>
      </trkpt>
      <trkpt lat="44.35753" lon="3.9262">
        <ele>912.3</ele>
        <extensions>
          <visugpx:TrkExtension xmlns:visugpx="https://www.visugpx.com/editgpx/">
            <visugpx:node>6</visugpx:node>
            </visugpx:TrkExtension>
        </extensions>
      </trkpt>
      <trkpt lat="44.35729" lon="3.92634">
        <ele>916.7</ele>
      </trkpt>
      <trkpt lat="44.35714" lon="3.92644">
        <ele>916</ele>
      </trkpt>
      <trkpt lat="44.35671" lon="3.9269">
        <ele>898.5</ele>
      </trkpt>
      <trkpt lat="44.35662" lon="3.92698">
        <ele>898</ele>
      </trkpt>
      <trkpt lat="44.35626" lon="3.92713">
        <ele>894.8</ele>
      </trkpt>
      <trkpt lat="44.35617" lon="3.92714">
        <ele>894.6</ele>
      </trkpt>
      <trkpt lat="44.35586" lon="3.92709">
        <ele>895</ele>
      </trkpt>
      <trkpt lat="44.35526" lon="3.92704">
        <ele>888.7</ele>
      </trkpt>
      <trkpt lat="44.35466" lon="3.92701">
        <ele>879</ele>
      </trkpt>
      <trkpt lat="44.35421" lon="3.92676">
        <ele>881</ele>
      </trkpt>
      <trkpt lat="44.35411" lon="3.92675">
        <ele>877</ele>
      </trkpt>
      <trkpt lat="44.35382" lon="3.92676">
        <ele>870</ele>
      </trkpt>
      <trkpt lat="44.35371" lon="3.92673">
        <ele>869</ele>
      </trkpt>
      <trkpt lat="44.35358" lon="3.92665">
        <ele>883.9</ele>
      </trkpt>
      <trkpt lat="44.35339" lon="3.92645">
        <ele>884.2</ele>
      </trkpt>
      <trkpt lat="44.35333" lon="3.92642">
        <ele>885.7</ele>
      </trkpt>
      <trkpt lat="44.35314" lon="3.92643">
        <ele>887.8</ele>
      </trkpt>
      <trkpt lat="44.35307" lon="3.92646">
        <ele>888.5</ele>
      </trkpt>
      <trkpt lat="44.35302" lon="3.92653">
        <ele>888.4</ele>
      </trkpt>
      <trkpt lat="44.35299" lon="3.92661">
        <ele>888.2</ele>
      </trkpt>
      <trkpt lat="44.35296" lon="3.92694">
        <ele>870.4</ele>
      </trkpt>
      <trkpt lat="44.35293" lon="3.92705">
        <ele>869.1</ele>
      </trkpt>
      <trkpt lat="44.35282" lon="3.92723">
        <ele>867.6</ele>
      </trkpt>
      <trkpt lat="44.35258" lon="3.92751">
        <ele>858.7</ele>
      </trkpt>
      <trkpt lat="44.35245" lon="3.92764">
        <ele>861.7</ele>
      </trkpt>
      <trkpt lat="44.35226" lon="3.92775">
        <ele>859.9</ele>
      </trkpt>
      <trkpt lat="44.35204" lon="3.92793">
        <ele>858.7</ele>
      </trkpt>
      <trkpt lat="44.35191" lon="3.92798">
        <ele>859</ele>
      </trkpt>
      <trkpt lat="44.35164" lon="3.92802">
        <ele>868.5</ele>
      </trkpt>
      <trkpt lat="44.35157" lon="3.92806">
        <ele>867.9</ele>
      </trkpt>
      <trkpt lat="44.35152" lon="3.92815">
        <ele>866</ele>
      </trkpt>
      <trkpt lat="44.3514" lon="3.9285">
        <ele>853</ele>
      </trkpt>
      <trkpt lat="44.35119" lon="3.92898">
        <ele>850.3</ele>
      </trkpt>
      <trkpt lat="44.35107" lon="3.92932">
        <ele>838.8</ele>
      </trkpt>
      <trkpt lat="44.35101" lon="3.92944">
        <ele>837.7</ele>
      </trkpt>
      <trkpt lat="44.35093" lon="3.92954">
        <ele>836.7</ele>
      </trkpt>
      <trkpt lat="44.35083" lon="3.92961">
        <ele>842.7</ele>
      </trkpt>
      <trkpt lat="44.35054" lon="3.92972">
        <ele>841.2</ele>
      </trkpt>
      <trkpt lat="44.3503" lon="3.92978">
        <ele>840</ele>
      </trkpt>
      <trkpt lat="44.35014" lon="3.92979">
        <ele>838.7</ele>
      </trkpt>
      <trkpt lat="44.35009" lon="3.92978">
        <ele>838.6</ele>
      </trkpt>
      <trkpt lat="44.35004" lon="3.92983">
        <ele>837.1</ele>
      </trkpt>
      <trkpt lat="44.34997" lon="3.92984">
        <ele>834</ele>
      </trkpt>
      <trkpt lat="44.34988" lon="3.9298">
        <ele>834.7</ele>
      </trkpt>
      <trkpt lat="44.34966" lon="3.9298">
        <ele>834.4</ele>
      </trkpt>
      <trkpt lat="44.34939" lon="3.92974">
        <ele>832.9</ele>
      </trkpt>
      <trkpt lat="44.34902" lon="3.92969">
        <ele>821.4</ele>
      </trkpt>
      <trkpt lat="44.34905" lon="3.92979">
        <ele>820.7</ele>
      </trkpt>
      <trkpt lat="44.34921" lon="3.93001">
        <ele>820.5</ele>
      </trkpt>
      <trkpt lat="44.34928" lon="3.9302">
        <ele>818.7</ele>
      </trkpt>
      <trkpt lat="44.34946" lon="3.93046">
        <ele>816.6</ele>
      </trkpt>
      <trkpt lat="44.34953" lon="3.9306">
        <ele>815.6</ele>
      </trkpt>
      <trkpt lat="44.34958" lon="3.93074">
        <ele>815</ele>
      </trkpt>
      <trkpt lat="44.34965" lon="3.93088">
        <ele>805.6</ele>
      </trkpt>
      <trkpt lat="44.34988" lon="3.93121">
        <ele>804.4</ele>
      </trkpt>
      <trkpt lat="44.34996" lon="3.93137">
        <ele>802.8</ele>
      </trkpt>
      <trkpt lat="44.35012" lon="3.93162">
        <ele>805</ele>
      </trkpt>
      <trkpt lat="44.35022" lon="3.93182">
        <ele>801.5</ele>
      </trkpt>
      <trkpt lat="44.35023" lon="3.93195">
        <ele>801.2</ele>
      </trkpt>
      <trkpt lat="44.35012" lon="3.93261">
        <ele>790.3</ele>
      </trkpt>
      <trkpt lat="44.35012" lon="3.93274">
        <ele>789.1</ele>
      </trkpt>
      <trkpt lat="44.35017" lon="3.93289">
        <ele>787.4</ele>
      </trkpt>
      <trkpt lat="44.35043" lon="3.93326">
        <ele>785.7</ele>
      </trkpt>
      <trkpt lat="44.35053" lon="3.93333">
        <ele>786.2</ele>
      </trkpt>
      <trkpt lat="44.35059" lon="3.93337">
        <ele>775</ele>
      </trkpt>
      <trkpt lat="44.35065" lon="3.93342">
        <ele>775.9</ele>
      </trkpt>
      <trkpt lat="44.35071" lon="3.93345">
        <ele>776.9</ele>
      </trkpt>
      <trkpt lat="44.35088" lon="3.93351">
        <ele>778.9</ele>
      </trkpt>
      <trkpt lat="44.35107" lon="3.93355">
        <ele>776.3</ele>
      </trkpt>
      <trkpt lat="44.35124" lon="3.93356">
        <ele>775.3</ele>
      </trkpt>
      <trkpt lat="44.35151" lon="3.93368">
        <ele>773.9</ele>
      </trkpt>
      <trkpt lat="44.35159" lon="3.93376">
        <ele>772.7</ele>
      </trkpt>
      <trkpt lat="44.3516" lon="3.93382">
        <ele>771.7</ele>
      </trkpt>
      <trkpt lat="44.35155" lon="3.93392">
        <ele>770.2</ele>
      </trkpt>
      <trkpt lat="44.35132" lon="3.93409">
        <ele>769.4</ele>
      </trkpt>
      <trkpt lat="44.35084" lon="3.9342">
        <ele>760</ele>
      </trkpt>
      <trkpt lat="44.3507" lon="3.93429">
        <ele>752.1</ele>
      </trkpt>
      <trkpt lat="44.3504" lon="3.93436">
        <ele>746.4</ele>
      </trkpt>
      <trkpt lat="44.35005" lon="3.93433">
        <ele>746</ele>
      </trkpt>
      <trkpt lat="44.34984" lon="3.93423">
        <ele>739.2</ele>
      </trkpt>
      <trkpt lat="44.34967" lon="3.93417">
        <ele>735</ele>
      </trkpt>
      <trkpt lat="44.34973" lon="3.93424">
        <ele>735.8</ele>
      </trkpt>
      <trkpt lat="44.34986" lon="3.93444">
        <ele>734.7</ele>
      </trkpt>
      <trkpt lat="44.34996" lon="3.9347">
        <ele>730.1</ele>
      </trkpt>
      <trkpt lat="44.34996" lon="3.93474">
        <ele>729.5</ele>
      </trkpt>
      <trkpt lat="44.34993" lon="3.93477">
        <ele>729</ele>
      </trkpt>
      <trkpt lat="44.34983" lon="3.93477">
        <ele>728.7</ele>
      </trkpt>
      <trkpt lat="44.34962" lon="3.93471">
        <ele>728</ele>
      </trkpt>
      <trkpt lat="44.34948" lon="3.93468">
        <ele>726.9</ele>
      </trkpt>
      <trkpt lat="44.34931" lon="3.93447">
        <ele>728.5</ele>
      </trkpt>
      <trkpt lat="44.34915" lon="3.93424">
        <ele>726.6</ele>
        <extensions>
          <visugpx:TrkExtension xmlns:visugpx="https://www.visugpx.com/editgpx/">
            <visugpx:node>7</visugpx:node>
            </visugpx:TrkExtension>
        </extensions>
      </trkpt>
      <trkpt lat="44.34931" lon="3.93447">
        <ele>728.5</ele>
      </trkpt>
      <trkpt lat="44.34948" lon="3.93468">
        <ele>726.9</ele>
      </trkpt>
      <trkpt lat="44.34947" lon="3.93472">
        <ele>726.2</ele>
      </trkpt>
      <trkpt lat="44.34932" lon="3.93473">
        <ele>724.2</ele>
      </trkpt>
      <trkpt lat="44.34926" lon="3.9347">
        <ele>724.2</ele>
      </trkpt>
      <trkpt lat="44.34935" lon="3.93528">
        <ele>708.9</ele>
      </trkpt>
      <trkpt lat="44.34926" lon="3.93532">
        <ele>708.1</ele>
      </trkpt>
      <trkpt lat="44.34916" lon="3.93532">
        <ele>700.1</ele>
      </trkpt>
      <trkpt lat="44.34906" lon="3.93531">
        <ele>699.7</ele>
      </trkpt>
      <trkpt lat="44.34897" lon="3.93524">
        <ele>699.9</ele>
      </trkpt>
      <trkpt lat="44.34895" lon="3.93524">
        <ele>699.7</ele>
      </trkpt>
      <trkpt lat="44.34895" lon="3.9357">
        <ele>695.2</ele>
      </trkpt>
      <trkpt lat="44.34897" lon="3.93586">
        <ele>689.5</ele>
      </trkpt>
      <trkpt lat="44.34903" lon="3.93608">
        <ele>688.2</ele>
      </trkpt>
      <trkpt lat="44.34903" lon="3.93621">
        <ele>686.9</ele>
      </trkpt>
      <trkpt lat="44.34901" lon="3.93639">
        <ele>685.8</ele>
      </trkpt>
      <trkpt lat="44.34886" lon="3.93653">
        <ele>684.7</ele>
      </trkpt>
      <trkpt lat="44.34871" lon="3.93688">
        <ele>678.6</ele>
      </trkpt>
      <trkpt lat="44.34856" lon="3.93707">
        <ele>677.8</ele>
      </trkpt>
      <trkpt lat="44.34826" lon="3.93729">
        <ele>672.1</ele>
      </trkpt>
      <trkpt lat="44.34815" lon="3.93752">
        <ele>672.1</ele>
      </trkpt>
      <trkpt lat="44.3481" lon="3.93788">
        <ele>669.7</ele>
      </trkpt>
      <trkpt lat="44.34811" lon="3.93801">
        <ele>669.7</ele>
      </trkpt>
      <trkpt lat="44.34814" lon="3.93814">
        <ele>670</ele>
      </trkpt>
      <trkpt lat="44.34822" lon="3.93828">
        <ele>671.2</ele>
      </trkpt>
      <trkpt lat="44.34839" lon="3.93844">
        <ele>668</ele>
      </trkpt>
      <trkpt lat="44.34855" lon="3.93848">
        <ele>664.6</ele>
      </trkpt>
      <trkpt lat="44.34881" lon="3.9386">
        <ele>661.2</ele>
      </trkpt>
      <trkpt lat="44.34891" lon="3.93859">
        <ele>660.9</ele>
      </trkpt>
      <trkpt lat="44.34905" lon="3.93855">
        <ele>661.1</ele>
      </trkpt>
      <trkpt lat="44.3491" lon="3.93855">
        <ele>661.1</ele>
      </trkpt>
      <trkpt lat="44.34916" lon="3.93862">
        <ele>660.2</ele>
      </trkpt>
      <trkpt lat="44.34916" lon="3.93874">
        <ele>658.6</ele>
      </trkpt>
      <trkpt lat="44.34905" lon="3.93922">
        <ele>646.5</ele>
      </trkpt>
      <trkpt lat="44.34916" lon="3.93923">
        <ele>647</ele>
      </trkpt>
      <trkpt lat="44.34948" lon="3.93908">
        <ele>647.5</ele>
      </trkpt>
      <trkpt lat="44.34953" lon="3.93907">
        <ele>647.1</ele>
      </trkpt>
      <trkpt lat="44.34959" lon="3.93909">
        <ele>646.3</ele>
      </trkpt>
      <trkpt lat="44.34962" lon="3.93918">
        <ele>637.6</ele>
      </trkpt>
      <trkpt lat="44.3497" lon="3.93944">
        <ele>636.2</ele>
      </trkpt>
      <trkpt lat="44.34969" lon="3.93975">
        <ele>634.6</ele>
      </trkpt>
      <trkpt lat="44.34976" lon="3.94006">
        <ele>628.5</ele>
      </trkpt>
      <trkpt lat="44.34976" lon="3.94025">
        <ele>628.2</ele>
      </trkpt>
      <trkpt lat="44.34966" lon="3.94108">
        <ele>620.9</ele>
      </trkpt>
      <trkpt lat="44.34966" lon="3.94119">
        <ele>620.3</ele>
      </trkpt>
      <trkpt lat="44.34964" lon="3.94129">
        <ele>619.7</ele>
      </trkpt>
      <trkpt lat="44.34949" lon="3.94134">
        <ele>618.9</ele>
      </trkpt>
      <trkpt lat="44.34946" lon="3.94138">
        <ele>618.5</ele>
      </trkpt>
      <trkpt lat="44.34964" lon="3.94186">
        <ele>612.1</ele>
      </trkpt>
      <trkpt lat="44.34967" lon="3.94197">
        <ele>611.7</ele>
      </trkpt>
      <trkpt lat="44.34962" lon="3.94205">
        <ele>611.1</ele>
      </trkpt>
      <trkpt lat="44.34945" lon="3.94213">
        <ele>610</ele>
      </trkpt>
      <trkpt lat="44.34932" lon="3.94216">
        <ele>609.2</ele>
      </trkpt>
      <trkpt lat="44.34921" lon="3.94215">
        <ele>609</ele>
      </trkpt>
      <trkpt lat="44.34906" lon="3.94222">
        <ele>602</ele>
      </trkpt>
      <trkpt lat="44.34892" lon="3.94226">
        <ele>601</ele>
      </trkpt>
      <trkpt lat="44.34875" lon="3.94222">
        <ele>599.7</ele>
      </trkpt>
      <trkpt lat="44.34863" lon="3.94222">
        <ele>598.5</ele>
      </trkpt>
      <trkpt lat="44.34852" lon="3.94226">
        <ele>596.9</ele>
      </trkpt>
      <trkpt lat="44.34846" lon="3.94231">
        <ele>595.5</ele>
      </trkpt>
      <trkpt lat="44.34843" lon="3.94242">
        <ele>593</ele>
      </trkpt>
      <trkpt lat="44.34839" lon="3.94272">
        <ele>588.9</ele>
      </trkpt>
      <trkpt lat="44.34844" lon="3.94281">
        <ele>588.8</ele>
      </trkpt>
      <trkpt lat="44.34851" lon="3.94288">
        <ele>588.8</ele>
      </trkpt>
      <trkpt lat="44.34855" lon="3.94298">
        <ele>588.4</ele>
      </trkpt>
      <trkpt lat="44.34856" lon="3.94305">
        <ele>587.8</ele>
      </trkpt>
      <trkpt lat="44.34855" lon="3.94316">
        <ele>586.4</ele>
      </trkpt>
      <trkpt lat="44.34846" lon="3.94336">
        <ele>579.3</ele>
      </trkpt>
      <trkpt lat="44.34835" lon="3.9437">
        <ele>579.4</ele>
      </trkpt>
      <trkpt lat="44.34821" lon="3.94399">
        <ele>571.1</ele>
      </trkpt>
      <trkpt lat="44.34811" lon="3.94436">
        <ele>568.1</ele>
      </trkpt>
      <trkpt lat="44.34788" lon="3.94458">
        <ele>566.3</ele>
      </trkpt>
      <trkpt lat="44.34775" lon="3.94472">
        <ele>565.4</ele>
      </trkpt>
      <trkpt lat="44.34777" lon="3.9448">
        <ele>565.2</ele>
      </trkpt>
      <trkpt lat="44.34776" lon="3.94511">
        <ele>563.7</ele>
      </trkpt>
      <trkpt lat="44.34782" lon="3.94563">
        <ele>564.3</ele>
      </trkpt>
      <trkpt lat="44.34794" lon="3.94608">
        <ele>560.1</ele>
      </trkpt>
      <trkpt lat="44.348" lon="3.94626">
        <ele>559</ele>
      </trkpt>
      <trkpt lat="44.34819" lon="3.94652">
        <ele>555.4</ele>
      </trkpt>
      <trkpt lat="44.34837" lon="3.94681">
        <ele>544.8</ele>
      </trkpt>
      <trkpt lat="44.34848" lon="3.94688">
        <ele>542.5</ele>
      </trkpt>
      <trkpt lat="44.34861" lon="3.94694">
        <ele>540.9</ele>
      </trkpt>
      <trkpt lat="44.34906" lon="3.94706">
        <ele>539.1</ele>
      </trkpt>
      <trkpt lat="44.34948" lon="3.94704">
        <ele>536.5</ele>
      </trkpt>
      <trkpt lat="44.34998" lon="3.94696">
        <ele>536.9</ele>
      </trkpt>
      <trkpt lat="44.35008" lon="3.94698">
        <ele>531.4</ele>
      </trkpt>
      <trkpt lat="44.35012" lon="3.94702">
        <ele>530.2</ele>
      </trkpt>
      <trkpt lat="44.35015" lon="3.94707">
        <ele>529.1</ele>
      </trkpt>
      <trkpt lat="44.35015" lon="3.94723">
        <ele>526.1</ele>
      </trkpt>
      <trkpt lat="44.35017" lon="3.94741">
        <ele>523.5</ele>
      </trkpt>
      <trkpt lat="44.35023" lon="3.94775">
        <ele>513.7</ele>
      </trkpt>
      <trkpt lat="44.35025" lon="3.9479">
        <ele>512.4</ele>
      </trkpt>
      <trkpt lat="44.3506" lon="3.94779">
        <ele>513</ele>
      </trkpt>
      <trkpt lat="44.35078" lon="3.94767">
        <ele>514.1</ele>
        <extensions>
          <visugpx:TrkExtension xmlns:visugpx="https://www.visugpx.com/editgpx/">
            <visugpx:node>8</visugpx:node>
            </visugpx:TrkExtension>
        </extensions>
      </trkpt>
      <trkpt lat="44.3506" lon="3.94779">
        <ele>513</ele>
      </trkpt>
      <trkpt lat="44.35025" lon="3.9479">
        <ele>512.4</ele>
      </trkpt>
      <trkpt lat="44.35025" lon="3.94805">
        <ele>511.2</ele>
      </trkpt>
      <trkpt lat="44.3502" lon="3.94832">
        <ele>509.2</ele>
      </trkpt>
      <trkpt lat="44.35019" lon="3.94852">
        <ele>504.2</ele>
      </trkpt>
      <trkpt lat="44.35021" lon="3.94923">
        <ele>498.1</ele>
      </trkpt>
      <trkpt lat="44.35024" lon="3.94923">
        <ele>498.1</ele>
      </trkpt>
      <trkpt lat="44.35025" lon="3.94937">
        <ele>497.8</ele>
      </trkpt>
      <trkpt lat="44.35045" lon="3.94931">
        <ele>497.9</ele>
      </trkpt>
      <trkpt lat="44.35045" lon="3.94938">
        <ele>497.8</ele>
      </trkpt>
      <trkpt lat="44.35048" lon="3.94945">
        <ele>497.6</ele>
      </trkpt>
      <trkpt lat="44.35051" lon="3.94961">
        <ele>497.2</ele>
      </trkpt>
      <trkpt lat="44.35073" lon="3.94961">
        <ele>497.2</ele>
      </trkpt>
      <trkpt lat="44.35078" lon="3.94961">
        <ele>497.2</ele>
      </trkpt>
      <trkpt lat="44.35089" lon="3.94956">
        <ele>497.8</ele>
      </trkpt>
      <trkpt lat="44.35092" lon="3.94976">
        <ele>497</ele>
      </trkpt>
      <trkpt lat="44.35096" lon="3.94974">
        <ele>497.1</ele>
      </trkpt>
      <trkpt lat="44.35105" lon="3.94965">
        <ele>497.5</ele>
      </trkpt>
      <trkpt lat="44.35111" lon="3.94965">
        <ele>497.6</ele>
      </trkpt>
      <trkpt lat="44.35124" lon="3.94966">
        <ele>497.7</ele>
      </trkpt>
      <trkpt lat="44.35127" lon="3.94965">
        <ele>497.7</ele>
      </trkpt>
      <trkpt lat="44.35146" lon="3.94984">
        <ele>498</ele>
      </trkpt>
      <trkpt lat="44.35153" lon="3.95004">
        <ele>499.3</ele>
      </trkpt>
      <trkpt lat="44.3516" lon="3.9504">
        <ele>500.9</ele>
      </trkpt>
      <trkpt lat="44.3516" lon="3.95051">
        <ele>501.9</ele>
      </trkpt>
      <trkpt lat="44.35159" lon="3.95053">
        <ele>502.1</ele>
      </trkpt>
      <trkpt lat="44.35156" lon="3.95058">
        <ele>502.5</ele>
      </trkpt>
      <trkpt lat="44.35149" lon="3.95065">
        <ele>502.7</ele>
      </trkpt>
      <trkpt lat="44.35143" lon="3.95076">
        <ele>502.7</ele>
      </trkpt>
      <trkpt lat="44.35142" lon="3.95097">
        <ele>506.9</ele>
      </trkpt>
      <trkpt lat="44.35143" lon="3.95118">
        <ele>507.7</ele>
      </trkpt>
      <trkpt lat="44.35151" lon="3.95157">
        <ele>512.9</ele>
      </trkpt>
      <trkpt lat="44.35149" lon="3.95169">
        <ele>517.4</ele>
      </trkpt>
      <trkpt lat="44.35139" lon="3.95195">
        <ele>516.5</ele>
      </trkpt>
      <trkpt lat="44.35136" lon="3.95258">
        <ele>525.9</ele>
      </trkpt>
      <trkpt lat="44.35131" lon="3.95285">
        <ele>526.6</ele>
      </trkpt>
      <trkpt lat="44.35112" lon="3.95362">
        <ele>535.4</ele>
      </trkpt>
      <trkpt lat="44.35111" lon="3.9537">
        <ele>535.9</ele>
      </trkpt>
      <trkpt lat="44.3512" lon="3.95365">
        <ele>536</ele>
      </trkpt>
      <trkpt lat="44.35168" lon="3.9536">
        <ele>538.6</ele>
      </trkpt>
      <trkpt lat="44.35183" lon="3.95355">
        <ele>538.6</ele>
      </trkpt>
      <trkpt lat="44.35192" lon="3.9535">
        <ele>538.8</ele>
      </trkpt>
      <trkpt lat="44.35201" lon="3.95343">
        <ele>539.1</ele>
      </trkpt>
      <trkpt lat="44.35206" lon="3.95334">
        <ele>539.4</ele>
      </trkpt>
      <trkpt lat="44.35223" lon="3.95316">
        <ele>539.7</ele>
      </trkpt>
      <trkpt lat="44.35233" lon="3.95305">
        <ele>539.7</ele>
      </trkpt>
      <trkpt lat="44.35237" lon="3.95319">
        <ele>541.2</ele>
      </trkpt>
      <trkpt lat="44.35243" lon="3.95331">
        <ele>543.2</ele>
      </trkpt>
      <trkpt lat="44.3525" lon="3.95339">
        <ele>543.5</ele>
      </trkpt>
      <trkpt lat="44.35257" lon="3.95344">
        <ele>542</ele>
      </trkpt>
      <trkpt lat="44.35276" lon="3.9535">
        <ele>540.1</ele>
      </trkpt>
      <trkpt lat="44.35289" lon="3.95351">
        <ele>540</ele>
      </trkpt>
      <trkpt lat="44.35311" lon="3.95346">
        <ele>542.2</ele>
      </trkpt>
      <trkpt lat="44.35318" lon="3.95344">
        <ele>543.7</ele>
      </trkpt>
      <trkpt lat="44.35339" lon="3.95345">
        <ele>545</ele>
      </trkpt>
      <trkpt lat="44.35351" lon="3.95349">
        <ele>542.1</ele>
      </trkpt>
      <trkpt lat="44.35365" lon="3.95358">
        <ele>539.3</ele>
      </trkpt>
      <trkpt lat="44.3543" lon="3.95352">
        <ele>544.8</ele>
      </trkpt>
      <trkpt lat="44.35459" lon="3.95356">
        <ele>546.3</ele>
      </trkpt>
      <trkpt lat="44.35472" lon="3.95364">
        <ele>546.9</ele>
      </trkpt>
      <trkpt lat="44.35483" lon="3.95377">
        <ele>546</ele>
      </trkpt>
      <trkpt lat="44.35497" lon="3.95387">
        <ele>545.3</ele>
      </trkpt>
      <trkpt lat="44.35508" lon="3.95401">
        <ele>555.9</ele>
      </trkpt>
      <trkpt lat="44.35512" lon="3.95411">
        <ele>553.8</ele>
      </trkpt>
      <trkpt lat="44.35514" lon="3.95421">
        <ele>550.3</ele>
      </trkpt>
      <trkpt lat="44.3551" lon="3.95482">
        <ele>551.2</ele>
      </trkpt>
      <trkpt lat="44.35518" lon="3.95516">
        <ele>548.8</ele>
      </trkpt>
      <trkpt lat="44.35528" lon="3.95532">
        <ele>550.5</ele>
      </trkpt>
      <trkpt lat="44.35541" lon="3.95544">
        <ele>551.6</ele>
      </trkpt>
      <trkpt lat="44.3555" lon="3.95551">
        <ele>552.2</ele>
      </trkpt>
      <trkpt lat="44.35605" lon="3.95587">
        <ele>550.9</ele>
      </trkpt>
      <trkpt lat="44.35624" lon="3.95599">
        <ele>550.4</ele>
      </trkpt>
      <trkpt lat="44.35638" lon="3.95618">
        <ele>549.5</ele>
      </trkpt>
      <trkpt lat="44.35648" lon="3.95647">
        <ele>547</ele>
      </trkpt>
      <trkpt lat="44.35645" lon="3.95674">
        <ele>538.2</ele>
      </trkpt>
      <trkpt lat="44.35654" lon="3.9571">
        <ele>535.8</ele>
      </trkpt>
      <trkpt lat="44.35653" lon="3.95723">
        <ele>535.3</ele>
      </trkpt>
      <trkpt lat="44.35645" lon="3.95765">
        <ele>532.3</ele>
      </trkpt>
      <trkpt lat="44.35647" lon="3.95801">
        <ele>531.7</ele>
      </trkpt>
      <trkpt lat="44.35645" lon="3.95822">
        <ele>532.3</ele>
      </trkpt>
      <trkpt lat="44.35647" lon="3.95852">
        <ele>536.2</ele>
      </trkpt>
      <trkpt lat="44.35654" lon="3.95852">
        <ele>536.4</ele>
      </trkpt>
      <trkpt lat="44.35671" lon="3.95859">
        <ele>532</ele>
      </trkpt>
      <trkpt lat="44.35689" lon="3.95871">
        <ele>530.2</ele>
      </trkpt>
      <trkpt lat="44.35705" lon="3.95885">
        <ele>528.6</ele>
      </trkpt>
      <trkpt lat="44.35721" lon="3.95912">
        <ele>526.2</ele>
      </trkpt>
      <trkpt lat="44.35735" lon="3.95946">
        <ele>533.6</ele>
      </trkpt>
      <trkpt lat="44.35749" lon="3.95959">
        <ele>534.5</ele>
      </trkpt>
      <trkpt lat="44.35811" lon="3.96006">
        <ele>515</ele>
      </trkpt>
      <trkpt lat="44.35825" lon="3.96027">
        <ele>514.9</ele>
      </trkpt>
      <trkpt lat="44.35833" lon="3.96061">
        <ele>514.7</ele>
      </trkpt>
      <trkpt lat="44.35844" lon="3.96101">
        <ele>495.9</ele>
      </trkpt>
      <trkpt lat="44.35865" lon="3.96118">
        <ele>489</ele>
      </trkpt>
      <trkpt lat="44.35873" lon="3.96129">
        <ele>486.9</ele>
      </trkpt>
      <trkpt lat="44.3588" lon="3.96147">
        <ele>484.6</ele>
      </trkpt>
      <trkpt lat="44.35886" lon="3.96172">
        <ele>479.3</ele>
      </trkpt>
      <trkpt lat="44.35892" lon="3.96153">
        <ele>480.4</ele>
      </trkpt>
      <trkpt lat="44.35902" lon="3.96112">
        <ele>480.6</ele>
      </trkpt>
      <trkpt lat="44.35903" lon="3.96064">
        <ele>480</ele>
      </trkpt>
      <trkpt lat="44.35907" lon="3.96037">
        <ele>481.3</ele>
      </trkpt>
      <trkpt lat="44.35917" lon="3.96009">
        <ele>469.4</ele>
      </trkpt>
      <trkpt lat="44.3592" lon="3.95987">
        <ele>470.1</ele>
      </trkpt>
      <trkpt lat="44.35916" lon="3.95964">
        <ele>480.9</ele>
      </trkpt>
      <trkpt lat="44.3591" lon="3.95941">
        <ele>481.8</ele>
      </trkpt>
      <trkpt lat="44.35922" lon="3.95931">
        <ele>474.2</ele>
      </trkpt>
      <trkpt lat="44.35948" lon="3.95917">
        <ele>471.8</ele>
      </trkpt>
      <trkpt lat="44.35959" lon="3.95905">
        <ele>476.2</ele>
      </trkpt>
      <trkpt lat="44.35966" lon="3.95891">
        <ele>476.3</ele>
      </trkpt>
      <trkpt lat="44.35973" lon="3.95871">
        <ele>477.2</ele>
      </trkpt>
      <trkpt lat="44.35974" lon="3.95853">
        <ele>478</ele>
      </trkpt>
      <trkpt lat="44.3599" lon="3.95816">
        <ele>483.3</ele>
      </trkpt>
      <trkpt lat="44.35997" lon="3.95793">
        <ele>486.3</ele>
      </trkpt>
      <trkpt lat="44.36014" lon="3.95776">
        <ele>482.3</ele>
      </trkpt>
      <trkpt lat="44.36016" lon="3.95778">
        <ele>482.2</ele>
      </trkpt>
      <trkpt lat="44.36017" lon="3.95778">
        <ele>482.2</ele>
      </trkpt>
      <trkpt lat="44.3602" lon="3.95781">
        <ele>482</ele>
      </trkpt>
      <trkpt lat="44.36028" lon="3.95796">
        <ele>481.4</ele>
      </trkpt>
      <trkpt lat="44.36027" lon="3.95802">
        <ele>481</ele>
      </trkpt>
      <trkpt lat="44.36036" lon="3.95817">
        <ele>480.6</ele>
      </trkpt>
      <trkpt lat="44.36065" lon="3.95844">
        <ele>477.4</ele>
      </trkpt>
      <trkpt lat="44.36078" lon="3.95851">
        <ele>477.7</ele>
      </trkpt>
      <trkpt lat="44.36088" lon="3.95851">
        <ele>485.8</ele>
      </trkpt>
      <trkpt lat="44.36096" lon="3.95858">
        <ele>487.2</ele>
      </trkpt>
      <trkpt lat="44.36102" lon="3.95866">
        <ele>488.1</ele>
      </trkpt>
      <trkpt lat="44.36111" lon="3.95891">
        <ele>487.9</ele>
      </trkpt>
      <trkpt lat="44.36084" lon="3.95891">
        <ele>484.6</ele>
      </trkpt>
      <trkpt lat="44.36065" lon="3.95894">
        <ele>475</ele>
      </trkpt>
      <trkpt lat="44.36059" lon="3.95902">
        <ele>474.6</ele>
      </trkpt>
      <trkpt lat="44.36056" lon="3.95909">
        <ele>474.3</ele>
      </trkpt>
      <trkpt lat="44.36052" lon="3.95915">
        <ele>474</ele>
      </trkpt>
      <trkpt lat="44.36047" lon="3.95931">
        <ele>474.5</ele>
      </trkpt>
      <trkpt lat="44.3604" lon="3.95957">
        <ele>475</ele>
      </trkpt>
      <trkpt lat="44.36041" lon="3.95971">
        <ele>475.8</ele>
      </trkpt>
      <trkpt lat="44.36032" lon="3.95993">
        <ele>474.5</ele>
      </trkpt>
      <trkpt lat="44.36027" lon="3.96013">
        <ele>478.5</ele>
      </trkpt>
      <trkpt lat="44.36028" lon="3.96027">
        <ele>479.9</ele>
      </trkpt>
      <trkpt lat="44.36027" lon="3.96048">
        <ele>480.9</ele>
      </trkpt>
      <trkpt lat="44.36028" lon="3.96071">
        <ele>480.8</ele>
      </trkpt>
      <trkpt lat="44.36047" lon="3.96128">
        <ele>490.3</ele>
      </trkpt>
      <trkpt lat="44.36034" lon="3.96146">
        <ele>487.2</ele>
      </trkpt>
      <trkpt lat="44.36016" lon="3.96183">
        <ele>485.9</ele>
      </trkpt>
      <trkpt lat="44.36016" lon="3.96205">
        <ele>489.9</ele>
      </trkpt>
      <trkpt lat="44.36012" lon="3.9624">
        <ele>487.1</ele>
      </trkpt>
      <trkpt lat="44.36009" lon="3.96257">
        <ele>488.7</ele>
      </trkpt>
      <trkpt lat="44.36013" lon="3.96296">
        <ele>499</ele>
      </trkpt>
      <trkpt lat="44.3602" lon="3.96318">
        <ele>499.7</ele>
      </trkpt>
      <trkpt lat="44.36023" lon="3.96329">
        <ele>500.1</ele>
      </trkpt>
      <trkpt lat="44.36013" lon="3.96359">
        <ele>504.2</ele>
      </trkpt>
      <trkpt lat="44.36017" lon="3.96374">
        <ele>506.7</ele>
      </trkpt>
      <trkpt lat="44.36028" lon="3.9638">
        <ele>508.9</ele>
      </trkpt>
      <trkpt lat="44.36035" lon="3.96399">
        <ele>510.6</ele>
      </trkpt>
      <trkpt lat="44.36044" lon="3.96443">
        <ele>517.5</ele>
      </trkpt>
      <trkpt lat="44.36047" lon="3.9651">
        <ele>524.5</ele>
      </trkpt>
      <trkpt lat="44.36042" lon="3.96537">
        <ele>523.9</ele>
      </trkpt>
      <trkpt lat="44.36038" lon="3.96567">
        <ele>524.1</ele>
      </trkpt>
      <trkpt lat="44.36018" lon="3.96621">
        <ele>531.4</ele>
      </trkpt>
      <trkpt lat="44.36007" lon="3.96643">
        <ele>532.1</ele>
      </trkpt>
      <trkpt lat="44.36" lon="3.96667">
        <ele>528.9</ele>
      </trkpt>
      <trkpt lat="44.35992" lon="3.96686">
        <ele>525</ele>
      </trkpt>
      <trkpt lat="44.35986" lon="3.96826">
        <ele>536.4</ele>
      </trkpt>
      <trkpt lat="44.35994" lon="3.96974">
        <ele>538</ele>
      </trkpt>
      <trkpt lat="44.35974" lon="3.97098">
        <ele>540.2</ele>
      </trkpt>
      <trkpt lat="44.35982" lon="3.97165">
        <ele>543.2</ele>
      </trkpt>
      <trkpt lat="44.35989" lon="3.97173">
        <ele>543.1</ele>
      </trkpt>
      <trkpt lat="44.3599" lon="3.97197">
        <ele>536.9</ele>
      </trkpt>
      <trkpt lat="44.35995" lon="3.97223">
        <ele>535.5</ele>
      </trkpt>
      <trkpt lat="44.36008" lon="3.97237">
        <ele>548.4</ele>
      </trkpt>
      <trkpt lat="44.36033" lon="3.97251">
        <ele>546.4</ele>
      </trkpt>
      <trkpt lat="44.36048" lon="3.97269">
        <ele>548</ele>
      </trkpt>
      <trkpt lat="44.36065" lon="3.97302">
        <ele>547.2</ele>
      </trkpt>
      <trkpt lat="44.36078" lon="3.97317">
        <ele>547.7</ele>
      </trkpt>
      <trkpt lat="44.361" lon="3.97327">
        <ele>547.6</ele>
      </trkpt>
      <trkpt lat="44.36096" lon="3.97341">
        <ele>547.9</ele>
      </trkpt>
      <trkpt lat="44.36105" lon="3.97338">
        <ele>547.2</ele>
      </trkpt>
      <trkpt lat="44.3612" lon="3.97322">
        <ele>545.8</ele>
      </trkpt>
      <trkpt lat="44.36135" lon="3.97298">
        <ele>545.2</ele>
      </trkpt>
      <trkpt lat="44.36142" lon="3.9728">
        <ele>545.2</ele>
      </trkpt>
      <trkpt lat="44.36159" lon="3.97234">
        <ele>546.7</ele>
      </trkpt>
      <trkpt lat="44.36179" lon="3.97195">
        <ele>534.1</ele>
      </trkpt>
      <trkpt lat="44.36203" lon="3.97154">
        <ele>535.5</ele>
      </trkpt>
      <trkpt lat="44.36209" lon="3.97135">
        <ele>534.9</ele>
      </trkpt>
      <trkpt lat="44.36218" lon="3.97116">
        <ele>534.3</ele>
      </trkpt>
      <trkpt lat="44.3623" lon="3.97099">
        <ele>532</ele>
      </trkpt>
      <trkpt lat="44.36256" lon="3.9707">
        <ele>521.7</ele>
      </trkpt>
      <trkpt lat="44.36263" lon="3.97058">
        <ele>520.4</ele>
      </trkpt>
      <trkpt lat="44.36272" lon="3.97035">
        <ele>520.5</ele>
      </trkpt>
      <trkpt lat="44.36281" lon="3.97008">
        <ele>521.4</ele>
      </trkpt>
      <trkpt lat="44.36282" lon="3.96997">
        <ele>528.8</ele>
      </trkpt>
      <trkpt lat="44.36284" lon="3.96993">
        <ele>528.4</ele>
      </trkpt>
      <trkpt lat="44.36288" lon="3.96993">
        <ele>527.4</ele>
      </trkpt>
      <trkpt lat="44.3629" lon="3.97003">
        <ele>519</ele>
      </trkpt>
      <trkpt lat="44.36282" lon="3.97034">
        <ele>518.9</ele>
      </trkpt>
      <trkpt lat="44.3628" lon="3.97053">
        <ele>518.1</ele>
      </trkpt>
      <trkpt lat="44.36274" lon="3.97075">
        <ele>518.9</ele>
      </trkpt>
      <trkpt lat="44.36255" lon="3.97126">
        <ele>513.1</ele>
      </trkpt>
      <trkpt lat="44.36252" lon="3.97147">
        <ele>513.6</ele>
      </trkpt>
      <trkpt lat="44.36241" lon="3.97174">
        <ele>522</ele>
      </trkpt>
      <trkpt lat="44.3624" lon="3.97181">
        <ele>523.2</ele>
      </trkpt>
      <trkpt lat="44.36239" lon="3.97214">
        <ele>524</ele>
      </trkpt>
      <trkpt lat="44.36233" lon="3.97234">
        <ele>522.3</ele>
      </trkpt>
      <trkpt lat="44.36225" lon="3.97251">
        <ele>521.9</ele>
      </trkpt>
      <trkpt lat="44.36213" lon="3.97266">
        <ele>525.2</ele>
      </trkpt>
      <trkpt lat="44.36208" lon="3.97277">
        <ele>526.3</ele>
      </trkpt>
      <trkpt lat="44.36206" lon="3.97287">
        <ele>526.6</ele>
      </trkpt>
      <trkpt lat="44.36208" lon="3.97296">
        <ele>526.3</ele>
      </trkpt>
      <trkpt lat="44.36209" lon="3.97301">
        <ele>526.2</ele>
      </trkpt>
      <trkpt lat="44.36215" lon="3.97304">
        <ele>525.4</ele>
      </trkpt>
      <trkpt lat="44.36239" lon="3.97312">
        <ele>522.1</ele>
      </trkpt>
      <trkpt lat="44.36255" lon="3.97312">
        <ele>510.1</ele>
      </trkpt>
      <trkpt lat="44.36278" lon="3.97317">
        <ele>507.6</ele>
      </trkpt>
      <trkpt lat="44.36345" lon="3.97341">
        <ele>499.5</ele>
      </trkpt>
      <trkpt lat="44.36362" lon="3.97353">
        <ele>497.8</ele>
      </trkpt>
      <trkpt lat="44.36397" lon="3.97387">
        <ele>495.2</ele>
      </trkpt>
      <trkpt lat="44.36402" lon="3.97398">
        <ele>494.6</ele>
      </trkpt>
      <trkpt lat="44.36407" lon="3.97419">
        <ele>495.8</ele>
      </trkpt>
      <trkpt lat="44.36413" lon="3.97448">
        <ele>501.2</ele>
      </trkpt>
      <trkpt lat="44.36417" lon="3.97487">
        <ele>488.7</ele>
      </trkpt>
      <trkpt lat="44.36422" lon="3.97509">
        <ele>490.1</ele>
      </trkpt>
      <trkpt lat="44.36429" lon="3.97537">
        <ele>484</ele>
      </trkpt>
      <trkpt lat="44.36437" lon="3.97576">
        <ele>485.5</ele>
      </trkpt>
      <trkpt lat="44.36437" lon="3.97605">
        <ele>481.8</ele>
      </trkpt>
      <trkpt lat="44.36433" lon="3.97632">
        <ele>480.5</ele>
      </trkpt>
      <trkpt lat="44.36417" lon="3.97702">
        <ele>477.8</ele>
      </trkpt>
      <trkpt lat="44.36417" lon="3.97712">
        <ele>477</ele>
      </trkpt>
      <trkpt lat="44.3642" lon="3.97721">
        <ele>476.9</ele>
      </trkpt>
      <trkpt lat="44.36433" lon="3.97738">
        <ele>476.7</ele>
      </trkpt>
      <trkpt lat="44.36444" lon="3.97756">
        <ele>474.7</ele>
      </trkpt>
      <trkpt lat="44.3645" lon="3.97772">
        <ele>473</ele>
      </trkpt>
      <trkpt lat="44.36455" lon="3.97797">
        <ele>472.9</ele>
      </trkpt>
      <trkpt lat="44.36458" lon="3.97805">
        <ele>472.7</ele>
      </trkpt>
      <trkpt lat="44.36462" lon="3.97807">
        <ele>472</ele>
      </trkpt>
      <trkpt lat="44.36464" lon="3.97816">
        <ele>471.9</ele>
      </trkpt>
      <trkpt lat="44.36466" lon="3.97824">
        <ele>471.6</ele>
      </trkpt>
      <trkpt lat="44.36472" lon="3.9783">
        <ele>470.3</ele>
      </trkpt>
      <trkpt lat="44.36491" lon="3.97841">
        <ele>468.3</ele>
      </trkpt>
      <trkpt lat="44.36518" lon="3.97865">
        <ele>455.1</ele>
      </trkpt>
      <trkpt lat="44.36521" lon="3.97871">
        <ele>454.8</ele>
      </trkpt>
      <trkpt lat="44.36518" lon="3.97889">
        <ele>456.8</ele>
      </trkpt>
      <trkpt lat="44.36507" lon="3.97908">
        <ele>463.5</ele>
      </trkpt>
      <trkpt lat="44.36482" lon="3.97933">
        <ele>468.9</ele>
      </trkpt>
      <trkpt lat="44.36454" lon="3.97955">
        <ele>469</ele>
      </trkpt>
      <trkpt lat="44.36442" lon="3.97985">
        <ele>467.7</ele>
      </trkpt>
      <trkpt lat="44.36442" lon="3.9801">
        <ele>458.8</ele>
      </trkpt>
      <trkpt lat="44.36444" lon="3.98021">
        <ele>457.4</ele>
      </trkpt>
      <trkpt lat="44.36467" lon="3.98081">
        <ele>449.5</ele>
      </trkpt>
      <trkpt lat="44.36466" lon="3.9809">
        <ele>445.1</ele>
      </trkpt>
      <trkpt lat="44.36452" lon="3.98138">
        <ele>447</ele>
      </trkpt>
      <trkpt lat="44.36451" lon="3.98145">
        <ele>447.1</ele>
      </trkpt>
      <trkpt lat="44.36454" lon="3.98156">
        <ele>446.5</ele>
      </trkpt>
      <trkpt lat="44.36458" lon="3.98166">
        <ele>445.7</ele>
      </trkpt>
      <trkpt lat="44.36479" lon="3.98175">
        <ele>441.8</ele>
      </trkpt>
      <trkpt lat="44.36495" lon="3.98177">
        <ele>438.2</ele>
      </trkpt>
      <trkpt lat="44.36521" lon="3.98173">
        <ele>430.3</ele>
      </trkpt>
      <trkpt lat="44.36539" lon="3.98174">
        <ele>427.9</ele>
      </trkpt>
      <trkpt lat="44.36549" lon="3.98177">
        <ele>426.3</ele>
      </trkpt>
      <trkpt lat="44.36554" lon="3.98185">
        <ele>426.1</ele>
      </trkpt>
      <trkpt lat="44.36557" lon="3.98198">
        <ele>427</ele>
      </trkpt>
      <trkpt lat="44.36557" lon="3.98208">
        <ele>428</ele>
      </trkpt>
      <trkpt lat="44.36565" lon="3.98239">
        <ele>429.1</ele>
      </trkpt>
      <trkpt lat="44.36575" lon="3.9826">
        <ele>433.6</ele>
      </trkpt>
      <trkpt lat="44.36593" lon="3.98279">
        <ele>425.9</ele>
      </trkpt>
      <trkpt lat="44.36605" lon="3.98283">
        <ele>425.2</ele>
      </trkpt>
      <trkpt lat="44.3662" lon="3.98296">
        <ele>424.3</ele>
      </trkpt>
      <trkpt lat="44.36629" lon="3.98305">
        <ele>423.7</ele>
      </trkpt>
      <trkpt lat="44.36624" lon="3.98315">
        <ele>424.8</ele>
      </trkpt>
      <trkpt lat="44.36616" lon="3.98322">
        <ele>426.5</ele>
      </trkpt>
      <trkpt lat="44.36624" lon="3.98324">
        <ele>425.2</ele>
      </trkpt>
      <trkpt lat="44.36625" lon="3.98333">
        <ele>425.2</ele>
      </trkpt>
      <trkpt lat="44.36589" lon="3.98396">
        <ele>422.1</ele>
      </trkpt>
      <trkpt lat="44.36584" lon="3.98402">
        <ele>422.2</ele>
      </trkpt>
      <trkpt lat="44.36589" lon="3.98406">
        <ele>422.1</ele>
      </trkpt>
      <trkpt lat="44.36616" lon="3.98407">
        <ele>419.2</ele>
      </trkpt>
      <trkpt lat="44.36625" lon="3.98404">
        <ele>417.9</ele>
      </trkpt>
      <trkpt lat="44.36661" lon="3.98378">
        <ele>416.2</ele>
      </trkpt>
      <trkpt lat="44.36672" lon="3.98372">
        <ele>400.6</ele>
      </trkpt>
      <trkpt lat="44.36689" lon="3.98361">
        <ele>400.1</ele>
      </trkpt>
      <trkpt lat="44.36702" lon="3.98348">
        <ele>398.5</ele>
      </trkpt>
      <trkpt lat="44.36709" lon="3.98335">
        <ele>397.3</ele>
      </trkpt>
      <trkpt lat="44.36712" lon="3.98313">
        <ele>399.1</ele>
      </trkpt>
      <trkpt lat="44.36715" lon="3.98306">
        <ele>398.4</ele>
      </trkpt>
      <trkpt lat="44.36713" lon="3.98299">
        <ele>398.6</ele>
      </trkpt>
      <trkpt lat="44.36709" lon="3.98295">
        <ele>399.2</ele>
      </trkpt>
      <trkpt lat="44.36707" lon="3.98285">
        <ele>399.3</ele>
      </trkpt>
      <trkpt lat="44.36707" lon="3.98274">
        <ele>399</ele>
      </trkpt>
      <trkpt lat="44.3671" lon="3.98265">
        <ele>398.1</ele>
      </trkpt>
      <trkpt lat="44.3671" lon="3.98255">
        <ele>397.9</ele>
      </trkpt>
      <trkpt lat="44.36708" lon="3.98244">
        <ele>393.5</ele>
      </trkpt>
      <trkpt lat="44.36704" lon="3.98238">
        <ele>394.2</ele>
      </trkpt>
      <trkpt lat="44.36703" lon="3.98221">
        <ele>393.3</ele>
      </trkpt>
      <trkpt lat="44.36699" lon="3.98211">
        <ele>393.2</ele>
      </trkpt>
      <trkpt lat="44.36699" lon="3.98202">
        <ele>392.7</ele>
      </trkpt>
      <trkpt lat="44.36701" lon="3.98201">
        <ele>392.3</ele>
      </trkpt>
      <trkpt lat="44.36708" lon="3.98211">
        <ele>391.9</ele>
      </trkpt>
      <trkpt lat="44.36723" lon="3.9822">
        <ele>390.2</ele>
      </trkpt>
      <trkpt lat="44.3673" lon="3.98226">
        <ele>389.2</ele>
      </trkpt>
      <trkpt lat="44.3674" lon="3.98254">
        <ele>388.7</ele>
      </trkpt>
      <trkpt lat="44.36752" lon="3.98273">
        <ele>379</ele>
      </trkpt>
      <trkpt lat="44.36773" lon="3.98296">
        <ele>377.1</ele>
      </trkpt>
      <trkpt lat="44.36789" lon="3.98309">
        <ele>375.2</ele>
      </trkpt>
      <trkpt lat="44.36796" lon="3.98311">
        <ele>374.1</ele>
      </trkpt>
      <trkpt lat="44.36802" lon="3.98305">
        <ele>373.4</ele>
      </trkpt>
      <trkpt lat="44.36809" lon="3.98306">
        <ele>372.4</ele>
      </trkpt>
      <trkpt lat="44.36823" lon="3.98317">
        <ele>369.1</ele>
      </trkpt>
      <trkpt lat="44.3684" lon="3.98306">
        <ele>363.1</ele>
      </trkpt>
      <trkpt lat="44.36846" lon="3.98308">
        <ele>363</ele>
      </trkpt>
      <trkpt lat="44.3685" lon="3.98317">
        <ele>362.7</ele>
      </trkpt>
      <trkpt lat="44.3685" lon="3.98371">
        <ele>359</ele>
      </trkpt>
      <trkpt lat="44.36842" lon="3.98386">
        <ele>358.7</ele>
      </trkpt>
      <trkpt lat="44.36827" lon="3.98406">
        <ele>362.4</ele>
      </trkpt>
      <trkpt lat="44.36818" lon="3.9843">
        <ele>360.9</ele>
      </trkpt>
      <trkpt lat="44.3681" lon="3.98465">
        <ele>361.6</ele>
      </trkpt>
      <trkpt lat="44.36799" lon="3.98489">
        <ele>361.5</ele>
      </trkpt>
      <trkpt lat="44.36796" lon="3.98507">
        <ele>359.5</ele>
      </trkpt>
      <trkpt lat="44.36789" lon="3.98556">
        <ele>359.4</ele>
      </trkpt>
      <trkpt lat="44.36786" lon="3.98573">
        <ele>359.3</ele>
      </trkpt>
      <trkpt lat="44.36784" lon="3.98593">
        <ele>358.7</ele>
      </trkpt>
      <trkpt lat="44.36784" lon="3.98606">
        <ele>358.7</ele>
      </trkpt>
      <trkpt lat="44.36804" lon="3.98656">
        <ele>358.8</ele>
      </trkpt>
      <trkpt lat="44.36803" lon="3.98681">
        <ele>358.5</ele>
      </trkpt>
      <trkpt lat="44.36801" lon="3.98694">
        <ele>358.4</ele>
      </trkpt>
      <trkpt lat="44.36789" lon="3.9872">
        <ele>358.2</ele>
      </trkpt>
      <trkpt lat="44.36773" lon="3.98738">
        <ele>357.6</ele>
      </trkpt>
      <trkpt lat="44.36779" lon="3.98752">
        <ele>360.1</ele>
      </trkpt>
      <trkpt lat="44.36783" lon="3.98781">
        <ele>361.5</ele>
      </trkpt>
      <trkpt lat="44.36778" lon="3.98792">
        <ele>361.7</ele>
      </trkpt>
      <trkpt lat="44.36766" lon="3.98813">
        <ele>361.4</ele>
      </trkpt>
      <trkpt lat="44.36744" lon="3.9882">
        <ele>358.1</ele>
      </trkpt>
      <trkpt lat="44.3673" lon="3.98838">
        <ele>359.6</ele>
      </trkpt>
      <trkpt lat="44.36712" lon="3.98854">
        <ele>359.7</ele>
      </trkpt>
      <trkpt lat="44.36684" lon="3.9886">
        <ele>358.8</ele>
      </trkpt>
      <trkpt lat="44.36676" lon="3.98866">
        <ele>358.8</ele>
      </trkpt>
      <trkpt lat="44.36671" lon="3.98877">
        <ele>358.9</ele>
      </trkpt>
      <trkpt lat="44.36656" lon="3.98893">
        <ele>356.3</ele>
      </trkpt>
      <trkpt lat="44.36645" lon="3.98915">
        <ele>356.3</ele>
      </trkpt>
      <trkpt lat="44.36638" lon="3.98935">
        <ele>356.2</ele>
      </trkpt>
      <trkpt lat="44.36637" lon="3.98957">
        <ele>356.3</ele>
      </trkpt>
      <trkpt lat="44.36639" lon="3.98977">
        <ele>356.6</ele>
      </trkpt>
      <trkpt lat="44.36643" lon="3.9899">
        <ele>357</ele>
      </trkpt>
      <trkpt lat="44.36647" lon="3.99001">
        <ele>357.2</ele>
      </trkpt>
      <trkpt lat="44.36661" lon="3.99007">
        <ele>358</ele>
      </trkpt>
      <trkpt lat="44.36677" lon="3.99012">
        <ele>361.8</ele>
      </trkpt>
      <trkpt lat="44.36685" lon="3.9902">
        <ele>363</ele>
      </trkpt>
      <trkpt lat="44.36692" lon="3.99036">
        <ele>363.8</ele>
      </trkpt>
      <trkpt lat="44.36692" lon="3.99053">
        <ele>363.5</ele>
      </trkpt>
      <trkpt lat="44.36688" lon="3.99072">
        <ele>362</ele>
      </trkpt>
      <trkpt lat="44.36687" lon="3.99094">
        <ele>362.5</ele>
      </trkpt>
      <trkpt lat="44.36677" lon="3.99172">
        <ele>364.4</ele>
      </trkpt>
      <trkpt lat="44.36671" lon="3.99202">
        <ele>369.3</ele>
      </trkpt>
      <trkpt lat="44.36659" lon="3.99236">
        <ele>364</ele>
      </trkpt>
      <trkpt lat="44.36635" lon="3.99272">
        <ele>368.1</ele>
      </trkpt>
      <trkpt lat="44.36612" lon="3.99303">
        <ele>368.6</ele>
      </trkpt>
      <trkpt lat="44.36573" lon="3.99349">
        <ele>369.8</ele>
      </trkpt>
      <trkpt lat="44.36567" lon="3.99358">
        <ele>370.5</ele>
      </trkpt>
      <trkpt lat="44.36553" lon="3.99368">
        <ele>370.9</ele>
      </trkpt>
      <trkpt lat="44.36542" lon="3.99382">
        <ele>371</ele>
      </trkpt>
      <trkpt lat="44.36538" lon="3.99395">
        <ele>371</ele>
      </trkpt>
      <trkpt lat="44.36538" lon="3.99412">
        <ele>371.2</ele>
      </trkpt>
      <trkpt lat="44.36541" lon="3.99424">
        <ele>373.2</ele>
      </trkpt>
      <trkpt lat="44.36587" lon="3.99615">
        <ele>381.1</ele>
      </trkpt>
      <trkpt lat="44.36595" lon="3.99637">
        <ele>379.9</ele>
      </trkpt>
      <trkpt lat="44.36607" lon="3.99651">
        <ele>379.5</ele>
      </trkpt>
      <trkpt lat="44.36623" lon="3.99659">
        <ele>380</ele>
      </trkpt>
      <trkpt lat="44.36638" lon="3.99658">
        <ele>380.4</ele>
      </trkpt>
      <trkpt lat="44.36756" lon="3.99522">
        <ele>394.3</ele>
      </trkpt>
      <trkpt lat="44.36784" lon="3.99502">
        <ele>393.3</ele>
      </trkpt>
      <trkpt lat="44.3684" lon="3.99475">
        <ele>399.9</ele>
      </trkpt>
      <trkpt lat="44.36856" lon="3.99458">
        <ele>403</ele>
      </trkpt>
      <trkpt lat="44.36879" lon="3.99437">
        <ele>405</ele>
      </trkpt>
      <trkpt lat="44.36909" lon="3.99436">
        <ele>405.9</ele>
      </trkpt>
      <trkpt lat="44.36937" lon="3.99427">
        <ele>405.7</ele>
      </trkpt>
      <trkpt lat="44.3695" lon="3.99427">
        <ele>404.9</ele>
      </trkpt>
      <trkpt lat="44.36973" lon="3.99438">
        <ele>404.5</ele>
      </trkpt>
      <trkpt lat="44.36991" lon="3.99442">
        <ele>404.9</ele>
      </trkpt>
      <trkpt lat="44.37058" lon="3.99441">
        <ele>410.8</ele>
      </trkpt>
      <trkpt lat="44.3709" lon="3.99444">
        <ele>415.9</ele>
      </trkpt>
      <trkpt lat="44.37104" lon="3.99439">
        <ele>416.3</ele>
      </trkpt>
      <trkpt lat="44.3713" lon="3.99421">
        <ele>418.1</ele>
      </trkpt>
      <trkpt lat="44.37155" lon="3.99415">
        <ele>429.7</ele>
      </trkpt>
      <trkpt lat="44.3718" lon="3.99416">
        <ele>432.6</ele>
      </trkpt>
      <trkpt lat="44.37204" lon="3.99405">
        <ele>437.7</ele>
      </trkpt>
      <trkpt lat="44.37221" lon="3.99392">
        <ele>439.7</ele>
      </trkpt>
      <trkpt lat="44.37234" lon="3.9939">
        <ele>440.1</ele>
      </trkpt>
      <trkpt lat="44.37242" lon="3.99395">
        <ele>439.3</ele>
      </trkpt>
      <trkpt lat="44.37246" lon="3.99415">
        <ele>436</ele>
      </trkpt>
      <trkpt lat="44.37259" lon="3.99436">
        <ele>432.6</ele>
      </trkpt>
      <trkpt lat="44.37276" lon="3.9944">
        <ele>432.8</ele>
      </trkpt>
      <trkpt lat="44.37286" lon="3.9945">
        <ele>432.4</ele>
      </trkpt>
      <trkpt lat="44.37352" lon="3.99458">
        <ele>445.9</ele>
      </trkpt>
      <trkpt lat="44.37435" lon="3.99472">
        <ele>453.5</ele>
      </trkpt>
      <trkpt lat="44.37465" lon="3.99465">
        <ele>454.3</ele>
      </trkpt>
      <trkpt lat="44.37484" lon="3.99444">
        <ele>457</ele>
      </trkpt>
      <trkpt lat="44.37488" lon="3.9943">
        <ele>459.3</ele>
      </trkpt>
      <trkpt lat="44.37484" lon="3.99416">
        <ele>467</ele>
      </trkpt>
      <trkpt lat="44.37424" lon="3.99387">
        <ele>468.7</ele>
      </trkpt>
      <trkpt lat="44.37422" lon="3.99379">
        <ele>469.8</ele>
      </trkpt>
      <trkpt lat="44.37428" lon="3.99374">
        <ele>470.5</ele>
      </trkpt>
      <trkpt lat="44.37454" lon="3.99372">
        <ele>471.2</ele>
      </trkpt>
      <trkpt lat="44.37498" lon="3.99375">
        <ele>471.7</ele>
      </trkpt>
      <trkpt lat="44.3753" lon="3.99365">
        <ele>477.8</ele>
      </trkpt>
      <trkpt lat="44.3755" lon="3.99352">
        <ele>480.1</ele>
      </trkpt>
      <trkpt lat="44.37575" lon="3.99366">
        <ele>480.1</ele>
      </trkpt>
      <trkpt lat="44.37613" lon="3.99413">
        <ele>483.9</ele>
      </trkpt>
      <trkpt lat="44.3764" lon="3.9943">
        <ele>476.4</ele>
      </trkpt>
      <trkpt lat="44.37686" lon="3.99428">
        <ele>486.4</ele>
      </trkpt>
      <trkpt lat="44.37695" lon="3.99431">
        <ele>486.3</ele>
      </trkpt>
      <trkpt lat="44.37706" lon="3.9944">
        <ele>486</ele>
      </trkpt>
      <trkpt lat="44.37711" lon="3.99441">
        <ele>486.3</ele>
      </trkpt>
      <trkpt lat="44.37713" lon="3.99439">
        <ele>486.7</ele>
      </trkpt>
      <trkpt lat="44.37712" lon="3.99434">
        <ele>487.1</ele>
      </trkpt>
      <trkpt lat="44.37698" lon="3.99414">
        <ele>498</ele>
      </trkpt>
      <trkpt lat="44.37688" lon="3.99385">
        <ele>499.5</ele>
      </trkpt>
      <trkpt lat="44.37685" lon="3.99364">
        <ele>501.5</ele>
      </trkpt>
      <trkpt lat="44.37668" lon="3.99333">
        <ele>503.7</ele>
      </trkpt>
      <trkpt lat="44.37623" lon="3.99277">
        <ele>506.3</ele>
      </trkpt>
      <trkpt lat="44.3756" lon="3.99224">
        <ele>513.7</ele>
      </trkpt>
      <trkpt lat="44.37493" lon="3.99181">
        <ele>512.6</ele>
      </trkpt>
      <trkpt lat="44.37445" lon="3.99138">
        <ele>519</ele>
      </trkpt>
      <trkpt lat="44.37424" lon="3.99115">
        <ele>521</ele>
      </trkpt>
      <trkpt lat="44.37397" lon="3.99097">
        <ele>519.1</ele>
      </trkpt>
      <trkpt lat="44.37424" lon="3.991">
        <ele>522.8</ele>
      </trkpt>
      <trkpt lat="44.37492" lon="3.99121">
        <ele>523.4</ele>
      </trkpt>
      <trkpt lat="44.37511" lon="3.99118">
        <ele>530</ele>
      </trkpt>
      <trkpt lat="44.37543" lon="3.99134">
        <ele>529.7</ele>
      </trkpt>
      <trkpt lat="44.37608" lon="3.9911">
        <ele>540.3</ele>
      </trkpt>
      <trkpt lat="44.3769" lon="3.99141">
        <ele>543.7</ele>
      </trkpt>
      <trkpt lat="44.3775" lon="3.9913">
        <ele>546.9</ele>
      </trkpt>
      <trkpt lat="44.37785" lon="3.99139">
        <ele>552.9</ele>
      </trkpt>
      <trkpt lat="44.37817" lon="3.99151">
        <ele>554.6</ele>
      </trkpt>
      <trkpt lat="44.37866" lon="3.9921">
        <ele>554.2</ele>
      </trkpt>
      <trkpt lat="44.37885" lon="3.9922">
        <ele>554.7</ele>
      </trkpt>
      <trkpt lat="44.37913" lon="3.99218">
        <ele>556</ele>
      </trkpt>
      <trkpt lat="44.38056" lon="3.99229">
        <ele>569.2</ele>
      </trkpt>
      <trkpt lat="44.38068" lon="3.99227">
        <ele>569.7</ele>
      </trkpt>
      <trkpt lat="44.38079" lon="3.99215">
        <ele>570.2</ele>
      </trkpt>
      <trkpt lat="44.3809" lon="3.99194">
        <ele>573.7</ele>
      </trkpt>
      <trkpt lat="44.38115" lon="3.99157">
        <ele>564.9</ele>
      </trkpt>
      <trkpt lat="44.3813" lon="3.99154">
        <ele>563.4</ele>
      </trkpt>
      <trkpt lat="44.38137" lon="3.99157">
        <ele>563.4</ele>
      </trkpt>
      <trkpt lat="44.38149" lon="3.99166">
        <ele>563.9</ele>
      </trkpt>
      <trkpt lat="44.38173" lon="3.99197">
        <ele>579.1</ele>
      </trkpt>
      <trkpt lat="44.38181" lon="3.992">
        <ele>580.4</ele>
      </trkpt>
      <trkpt lat="44.38189" lon="3.99198">
        <ele>580.8</ele>
      </trkpt>
      <trkpt lat="44.3822" lon="3.99177">
        <ele>582.2</ele>
      </trkpt>
      <trkpt lat="44.38262" lon="3.99141">
        <ele>579.9</ele>
      </trkpt>
      <trkpt lat="44.38318" lon="3.99101">
        <ele>579.7</ele>
      </trkpt>
      <trkpt lat="44.38349" lon="3.9909">
        <ele>586.9</ele>
      </trkpt>
      <trkpt lat="44.38417" lon="3.99072">
        <ele>586.3</ele>
      </trkpt>
      <trkpt lat="44.38473" lon="3.99062">
        <ele>583.6</ele>
      </trkpt>
      <trkpt lat="44.38486" lon="3.99063">
        <ele>584.8</ele>
      </trkpt>
      <trkpt lat="44.38496" lon="3.9907">
        <ele>587.2</ele>
      </trkpt>
      <trkpt lat="44.38507" lon="3.99083">
        <ele>587.8</ele>
      </trkpt>
      <trkpt lat="44.38516" lon="3.99104">
        <ele>594.2</ele>
      </trkpt>
      <trkpt lat="44.38529" lon="3.99123">
        <ele>595.8</ele>
      </trkpt>
      <trkpt lat="44.38548" lon="3.99136">
        <ele>595.8</ele>
      </trkpt>
      <trkpt lat="44.38607" lon="3.99168">
        <ele>602.9</ele>
      </trkpt>
      <trkpt lat="44.38617" lon="3.99173">
        <ele>603.7</ele>
      </trkpt>
      <trkpt lat="44.38644" lon="3.9918">
        <ele>602.8</ele>
      </trkpt>
      <trkpt lat="44.38654" lon="3.99186">
        <ele>602.6</ele>
      </trkpt>
      <trkpt lat="44.38663" lon="3.99194">
        <ele>603.8</ele>
      </trkpt>
      <trkpt lat="44.3869" lon="3.99233">
        <ele>602.2</ele>
      </trkpt>
      <trkpt lat="44.38704" lon="3.99249">
        <ele>601</ele>
      </trkpt>
      <trkpt lat="44.38723" lon="3.99262">
        <ele>613.6</ele>
      </trkpt>
      <trkpt lat="44.38788" lon="3.9929">
        <ele>608.4</ele>
      </trkpt>
      <trkpt lat="44.38882" lon="3.99345">
        <ele>622.5</ele>
      </trkpt>
      <trkpt lat="44.38941" lon="3.99359">
        <ele>622.7</ele>
      </trkpt>
      <trkpt lat="44.38944" lon="3.99359">
        <ele>622.9</ele>
        <extensions>
          <visugpx:TrkExtension xmlns:visugpx="https://www.visugpx.com/editgpx/">
            <visugpx:node>9</visugpx:node>
            </visugpx:TrkExtension>
        </extensions>
      </trkpt>
      <trkpt lat="44.38954" lon="3.99359">
        <ele>623.4</ele>
      </trkpt>
      <trkpt lat="44.38988" lon="3.99351">
        <ele>621.7</ele>
      </trkpt>
      <trkpt lat="44.38994" lon="3.99352">
        <ele>621.5</ele>
      </trkpt>
      <trkpt lat="44.39005" lon="3.9936">
        <ele>626.1</ele>
      </trkpt>
      <trkpt lat="44.39009" lon="3.99368">
        <ele>628</ele>
      </trkpt>
      <trkpt lat="44.39017" lon="3.99371">
        <ele>628.9</ele>
      </trkpt>
      <trkpt lat="44.39028" lon="3.9937">
        <ele>629.2</ele>
      </trkpt>
      <trkpt lat="44.3907" lon="3.99353">
        <ele>628.6</ele>
      </trkpt>
      <trkpt lat="44.39104" lon="3.99328">
        <ele>626.9</ele>
      </trkpt>
      <trkpt lat="44.39142" lon="3.99309">
        <ele>631</ele>
      </trkpt>
      <trkpt lat="44.39152" lon="3.993">
        <ele>631.2</ele>
      </trkpt>
      <trkpt lat="44.39158" lon="3.99281">
        <ele>630.2</ele>
      </trkpt>
      <trkpt lat="44.39159" lon="3.99256">
        <ele>631.1</ele>
      </trkpt>
      <trkpt lat="44.39144" lon="3.99174">
        <ele>624.2</ele>
      </trkpt>
      <trkpt lat="44.39146" lon="3.99153">
        <ele>622</ele>
      </trkpt>
      <trkpt lat="44.39151" lon="3.9914">
        <ele>621.3</ele>
      </trkpt>
      <trkpt lat="44.39158" lon="3.99133">
        <ele>621.2</ele>
      </trkpt>
      <trkpt lat="44.39165" lon="3.99131">
        <ele>621.4</ele>
      </trkpt>
      <trkpt lat="44.39178" lon="3.9913">
        <ele>627.9</ele>
      </trkpt>
      <trkpt lat="44.39207" lon="3.99141">
        <ele>628.9</ele>
      </trkpt>
      <trkpt lat="44.39303" lon="3.99201">
        <ele>643.3</ele>
      </trkpt>
      <trkpt lat="44.39411" lon="3.99238">
        <ele>652.7</ele>
      </trkpt>
      <trkpt lat="44.39456" lon="3.99248">
        <ele>653.2</ele>
      </trkpt>
      <trkpt lat="44.39482" lon="3.99239">
        <ele>655</ele>
      </trkpt>
      <trkpt lat="44.39469" lon="3.99255">
        <ele>666.7</ele>
      </trkpt>
      <trkpt lat="44.39456" lon="3.99261">
        <ele>667.1</ele>
      </trkpt>
      <trkpt lat="44.39396" lon="3.99259">
        <ele>664.8</ele>
      </trkpt>
      <trkpt lat="44.39365" lon="3.99268">
        <ele>666.6</ele>
      </trkpt>
      <trkpt lat="44.39328" lon="3.99269">
        <ele>661.3</ele>
      </trkpt>
      <trkpt lat="44.3929" lon="3.99263">
        <ele>660.5</ele>
      </trkpt>
      <trkpt lat="44.39276" lon="3.99266">
        <ele>659.5</ele>
      </trkpt>
      <trkpt lat="44.39266" lon="3.99271">
        <ele>659</ele>
      </trkpt>
      <trkpt lat="44.39256" lon="3.99278">
        <ele>659.4</ele>
      </trkpt>
      <trkpt lat="44.39249" lon="3.99295">
        <ele>651.7</ele>
      </trkpt>
      <trkpt lat="44.39244" lon="3.99331">
        <ele>660.2</ele>
      </trkpt>
      <trkpt lat="44.39236" lon="3.99363">
        <ele>662.4</ele>
      </trkpt>
      <trkpt lat="44.39235" lon="3.99373">
        <ele>663.1</ele>
      </trkpt>
      <trkpt lat="44.39239" lon="3.99389">
        <ele>665.8</ele>
      </trkpt>
      <trkpt lat="44.39244" lon="3.99411">
        <ele>673</ele>
      </trkpt>
      <trkpt lat="44.39246" lon="3.99433">
        <ele>678.4</ele>
      </trkpt>
      <trkpt lat="44.3925" lon="3.99433">
        <ele>678.6</ele>
      </trkpt>
      <trkpt lat="44.39256" lon="3.99422">
        <ele>683.9</ele>
      </trkpt>
      <trkpt lat="44.39258" lon="3.99414">
        <ele>679.2</ele>
      </trkpt>
      <trkpt lat="44.3926" lon="3.99393">
        <ele>679.5</ele>
      </trkpt>
      <trkpt lat="44.39269" lon="3.99366">
        <ele>677.7</ele>
      </trkpt>
      <trkpt lat="44.39276" lon="3.99356">
        <ele>677.3</ele>
      </trkpt>
      <trkpt lat="44.39286" lon="3.99349">
        <ele>678.2</ele>
      </trkpt>
      <trkpt lat="44.3929" lon="3.99349">
        <ele>678.8</ele>
      </trkpt>
      <trkpt lat="44.39299" lon="3.99349">
        <ele>680.1</ele>
      </trkpt>
      <trkpt lat="44.39309" lon="3.99361">
        <ele>682.1</ele>
      </trkpt>
      <trkpt lat="44.39336" lon="3.99359">
        <ele>690.2</ele>
      </trkpt>
      <trkpt lat="44.39356" lon="3.99366">
        <ele>692.4</ele>
      </trkpt>
      <trkpt lat="44.39367" lon="3.99367">
        <ele>693</ele>
      </trkpt>
      <trkpt lat="44.39387" lon="3.99379">
        <ele>695.2</ele>
      </trkpt>
      <trkpt lat="44.39401" lon="3.99384">
        <ele>696.7</ele>
      </trkpt>
      <trkpt lat="44.39409" lon="3.99389">
        <ele>698.2</ele>
      </trkpt>
      <trkpt lat="44.39416" lon="3.99397">
        <ele>700.6</ele>
      </trkpt>
      <trkpt lat="44.39424" lon="3.99411">
        <ele>704</ele>
      </trkpt>
      <trkpt lat="44.39428" lon="3.99427">
        <ele>712</ele>
      </trkpt>
      <trkpt lat="44.39432" lon="3.99433">
        <ele>713</ele>
      </trkpt>
      <trkpt lat="44.39436" lon="3.99436">
        <ele>713.5</ele>
      </trkpt>
      <trkpt lat="44.39452" lon="3.99442">
        <ele>714</ele>
      </trkpt>
      <trkpt lat="44.39455" lon="3.99445">
        <ele>714.2</ele>
      </trkpt>
      <trkpt lat="44.39462" lon="3.99458">
        <ele>715.5</ele>
      </trkpt>
      <trkpt lat="44.39477" lon="3.99476">
        <ele>717.5</ele>
      </trkpt>
      <trkpt lat="44.39486" lon="3.99497">
        <ele>720.2</ele>
      </trkpt>
      <trkpt lat="44.39488" lon="3.99516">
        <ele>729.2</ele>
      </trkpt>
      <trkpt lat="44.39488" lon="3.99533">
        <ele>731.8</ele>
      </trkpt>
      <trkpt lat="44.39486" lon="3.99545">
        <ele>733.4</ele>
      </trkpt>
      <trkpt lat="44.39488" lon="3.99554">
        <ele>734.3</ele>
      </trkpt>
      <trkpt lat="44.39493" lon="3.99565">
        <ele>735.2</ele>
      </trkpt>
      <trkpt lat="44.395" lon="3.99597">
        <ele>740.1</ele>
      </trkpt>
      <trkpt lat="44.39504" lon="3.99601">
        <ele>740.9</ele>
      </trkpt>
      <trkpt lat="44.39525" lon="3.99609">
        <ele>742.3</ele>
      </trkpt>
      <trkpt lat="44.39537" lon="3.99617">
        <ele>742.9</ele>
      </trkpt>
      <trkpt lat="44.39563" lon="3.99615">
        <ele>741.4</ele>
      </trkpt>
      <trkpt lat="44.39573" lon="3.99617">
        <ele>741.2</ele>
      </trkpt>
      <trkpt lat="44.39582" lon="3.99625">
        <ele>742</ele>
      </trkpt>
      <trkpt lat="44.3959" lon="3.99646">
        <ele>736.1</ele>
      </trkpt>
      <trkpt lat="44.39592" lon="3.9968">
        <ele>742.7</ele>
      </trkpt>
      <trkpt lat="44.39588" lon="3.99709">
        <ele>743.6</ele>
      </trkpt>
      <trkpt lat="44.39595" lon="3.99738">
        <ele>749</ele>
      </trkpt>
      <trkpt lat="44.39599" lon="3.99747">
        <ele>749.2</ele>
      </trkpt>
      <trkpt lat="44.39606" lon="3.99756">
        <ele>753.2</ele>
      </trkpt>
      <trkpt lat="44.39617" lon="3.99781">
        <ele>751.7</ele>
      </trkpt>
      <trkpt lat="44.39625" lon="3.99789">
        <ele>750.8</ele>
      </trkpt>
      <trkpt lat="44.3963" lon="3.99799">
        <ele>750.6</ele>
      </trkpt>
      <trkpt lat="44.39643" lon="3.99815">
        <ele>748.6</ele>
      </trkpt>
      <trkpt lat="44.39649" lon="3.99834">
        <ele>752.5</ele>
      </trkpt>
      <trkpt lat="44.3965" lon="3.99851">
        <ele>755</ele>
      </trkpt>
      <trkpt lat="44.39643" lon="3.99893">
        <ele>760.9</ele>
      </trkpt>
      <trkpt lat="44.39645" lon="3.99902">
        <ele>760.4</ele>
      </trkpt>
      <trkpt lat="44.39651" lon="3.99913">
        <ele>758.5</ele>
      </trkpt>
      <trkpt lat="44.39654" lon="3.99925">
        <ele>764.7</ele>
      </trkpt>
      <trkpt lat="44.39664" lon="3.99952">
        <ele>771.3</ele>
      </trkpt>
      <trkpt lat="44.39672" lon="3.99966">
        <ele>756.3</ele>
      </trkpt>
      <trkpt lat="44.39679" lon="3.99989">
        <ele>761.8</ele>
      </trkpt>
      <trkpt lat="44.39688" lon="4.00004">
        <ele>772.8</ele>
      </trkpt>
      <trkpt lat="44.397" lon="4.00018">
        <ele>772.9</ele>
      </trkpt>
      <trkpt lat="44.3971" lon="4.00033">
        <ele>773.7</ele>
      </trkpt>
      <trkpt lat="44.39717" lon="4.00036">
        <ele>773.2</ele>
      </trkpt>
      <trkpt lat="44.3974" lon="4.00063">
        <ele>775.3</ele>
      </trkpt>
      <trkpt lat="44.39756" lon="4.00072">
        <ele>768.4</ele>
      </trkpt>
      <trkpt lat="44.39766" lon="4.00084">
        <ele>777.3</ele>
      </trkpt>
      <trkpt lat="44.39781" lon="4.00092">
        <ele>776.6</ele>
      </trkpt>
      <trkpt lat="44.39792" lon="4.00102">
        <ele>776</ele>
      </trkpt>
      <trkpt lat="44.39797" lon="4.00109">
        <ele>776.1</ele>
      </trkpt>
      <trkpt lat="44.39805" lon="4.00115">
        <ele>775.9</ele>
      </trkpt>
      <trkpt lat="44.39821" lon="4.00144">
        <ele>778.7</ele>
      </trkpt>
      <trkpt lat="44.39839" lon="4.00159">
        <ele>773.7</ele>
      </trkpt>
      <trkpt lat="44.39847" lon="4.00164">
        <ele>771.7</ele>
      </trkpt>
      <trkpt lat="44.39856" lon="4.00166">
        <ele>768.6</ele>
      </trkpt>
      <trkpt lat="44.39868" lon="4.00176">
        <ele>780.7</ele>
      </trkpt>
      <trkpt lat="44.39875" lon="4.00184">
        <ele>780.7</ele>
      </trkpt>
      <trkpt lat="44.39881" lon="4.00195">
        <ele>781.4</ele>
      </trkpt>
      <trkpt lat="44.39888" lon="4.00199">
        <ele>781.3</ele>
      </trkpt>
      <trkpt lat="44.39897" lon="4.00201">
        <ele>780.7</ele>
      </trkpt>
      <trkpt lat="44.39907" lon="4.00208">
        <ele>781.6</ele>
      </trkpt>
      <trkpt lat="44.39918" lon="4.00211">
        <ele>774.4</ele>
      </trkpt>
      <trkpt lat="44.3993" lon="4.0022">
        <ele>776.2</ele>
      </trkpt>
      <trkpt lat="44.39937" lon="4.00222">
        <ele>776</ele>
      </trkpt>
      <trkpt lat="44.3995" lon="4.00234">
        <ele>776.7</ele>
      </trkpt>
      <trkpt lat="44.39964" lon="4.00235">
        <ele>775.7</ele>
      </trkpt>
      <trkpt lat="44.39971" lon="4.0024">
        <ele>776.1</ele>
      </trkpt>
      <trkpt lat="44.39984" lon="4.00239">
        <ele>776.7</ele>
      </trkpt>
      <trkpt lat="44.4" lon="4.00251">
        <ele>782.7</ele>
      </trkpt>
      <trkpt lat="44.40017" lon="4.00257">
        <ele>787.3</ele>
      </trkpt>
      <trkpt lat="44.40036" lon="4.0026">
        <ele>788.6</ele>
      </trkpt>
      <trkpt lat="44.40059" lon="4.00271">
        <ele>788.3</ele>
      </trkpt>
      <trkpt lat="44.40069" lon="4.00272">
        <ele>787.4</ele>
      </trkpt>
      <trkpt lat="44.40076" lon="4.00279">
        <ele>788.6</ele>
      </trkpt>
      <trkpt lat="44.4009" lon="4.00287">
        <ele>780.8</ele>
      </trkpt>
      <trkpt lat="44.40141" lon="4.00411">
        <ele>795.3</ele>
      </trkpt>
      <trkpt lat="44.40157" lon="4.00439">
        <ele>805.4</ele>
      </trkpt>
      <trkpt lat="44.40168" lon="4.00449">
        <ele>791.8</ele>
      </trkpt>
      <trkpt lat="44.40185" lon="4.00467">
        <ele>793.5</ele>
      </trkpt>
      <trkpt lat="44.40199" lon="4.00493">
        <ele>794.9</ele>
      </trkpt>
      <trkpt lat="44.40202" lon="4.00505">
        <ele>809.9</ele>
      </trkpt>
      <trkpt lat="44.40209" lon="4.00521">
        <ele>810</ele>
      </trkpt>
      <trkpt lat="44.40217" lon="4.00534">
        <ele>810.5</ele>
      </trkpt>
      <trkpt lat="44.40223" lon="4.00537">
        <ele>810.1</ele>
      </trkpt>
      <trkpt lat="44.40226" lon="4.00541">
        <ele>810.4</ele>
      </trkpt>
      <trkpt lat="44.40234" lon="4.00544">
        <ele>810.1</ele>
      </trkpt>
      <trkpt lat="44.40239" lon="4.0055">
        <ele>810.9</ele>
      </trkpt>
      <trkpt lat="44.40257" lon="4.0055">
        <ele>798.5</ele>
      </trkpt>
      <trkpt lat="44.40263" lon="4.00554">
        <ele>799.1</ele>
      </trkpt>
      <trkpt lat="44.40281" lon="4.0056">
        <ele>798.1</ele>
      </trkpt>
      <trkpt lat="44.40293" lon="4.00574">
        <ele>798.5</ele>
      </trkpt>
      <trkpt lat="44.40308" lon="4.00579">
        <ele>798.1</ele>
      </trkpt>
      <trkpt lat="44.40317" lon="4.00579">
        <ele>798.5</ele>
      </trkpt>
      <trkpt lat="44.40328" lon="4.00582">
        <ele>800.4</ele>
      </trkpt>
      <trkpt lat="44.40337" lon="4.00587">
        <ele>800.5</ele>
      </trkpt>
      <trkpt lat="44.40354" lon="4.0061">
        <ele>796.6</ele>
      </trkpt>
      <trkpt lat="44.40356" lon="4.00617">
        <ele>796.7</ele>
      </trkpt>
      <trkpt lat="44.40361" lon="4.00646">
        <ele>799.6</ele>
      </trkpt>
      <trkpt lat="44.40362" lon="4.00688">
        <ele>807.8</ele>
      </trkpt>
      <trkpt lat="44.40364" lon="4.00696">
        <ele>807.3</ele>
      </trkpt>
      <trkpt lat="44.40362" lon="4.00705">
        <ele>807.9</ele>
      </trkpt>
      <trkpt lat="44.40367" lon="4.00756">
        <ele>814.8</ele>
      </trkpt>
      <trkpt lat="44.40367" lon="4.00778">
        <ele>815.2</ele>
      </trkpt>
      <trkpt lat="44.40377" lon="4.008">
        <ele>814.4</ele>
      </trkpt>
      <trkpt lat="44.40385" lon="4.00818">
        <ele>813.3</ele>
      </trkpt>
      <trkpt lat="44.40387" lon="4.0083">
        <ele>812.9</ele>
      </trkpt>
      <trkpt lat="44.40395" lon="4.00847">
        <ele>819.9</ele>
      </trkpt>
      <trkpt lat="44.4043" lon="4.00878">
        <ele>805.3</ele>
      </trkpt>
      <trkpt lat="44.40497" lon="4.00926">
        <ele>810.3</ele>
      </trkpt>
      <trkpt lat="44.40536" lon="4.00935">
        <ele>807.1</ele>
      </trkpt>
      <trkpt lat="44.40548" lon="4.00932">
        <ele>806</ele>
      </trkpt>
      <trkpt lat="44.40569" lon="4.00937">
        <ele>804.2</ele>
      </trkpt>
      <trkpt lat="44.40593" lon="4.00939">
        <ele>796.3</ele>
      </trkpt>
      <trkpt lat="44.40628" lon="4.00953">
        <ele>795</ele>
      </trkpt>
      <trkpt lat="44.40634" lon="4.00979">
        <ele>795</ele>
      </trkpt>
      <trkpt lat="44.40644" lon="4.01001">
        <ele>796.2</ele>
      </trkpt>
      <trkpt lat="44.4065" lon="4.01018">
        <ele>796.2</ele>
      </trkpt>
      <trkpt lat="44.40652" lon="4.01037">
        <ele>798</ele>
      </trkpt>
      <trkpt lat="44.4065" lon="4.01045">
        <ele>798.5</ele>
      </trkpt>
      <trkpt lat="44.40653" lon="4.01059">
        <ele>797.5</ele>
      </trkpt>
      <trkpt lat="44.40659" lon="4.01071">
        <ele>794.5</ele>
      </trkpt>
      <trkpt lat="44.40672" lon="4.01083">
        <ele>784.4</ele>
      </trkpt>
      <trkpt lat="44.40702" lon="4.01144">
        <ele>778.6</ele>
      </trkpt>
      <trkpt lat="44.40716" lon="4.01154">
        <ele>775.2</ele>
      </trkpt>
      <trkpt lat="44.40721" lon="4.01163">
        <ele>773.8</ele>
      </trkpt>
      <trkpt lat="44.40728" lon="4.0117">
        <ele>778.2</ele>
      </trkpt>
      <trkpt lat="44.40735" lon="4.0118">
        <ele>777</ele>
      </trkpt>
      <trkpt lat="44.40746" lon="4.01218">
        <ele>783.2</ele>
      </trkpt>
      <trkpt lat="44.40773" lon="4.01264">
        <ele>779.9</ele>
      </trkpt>
      <trkpt lat="44.40785" lon="4.01276">
        <ele>779.8</ele>
      </trkpt>
      <trkpt lat="44.40818" lon="4.01299">
        <ele>779.4</ele>
      </trkpt>
      <trkpt lat="44.40855" lon="4.01388">
        <ele>780.1</ele>
      </trkpt>
      <trkpt lat="44.40866" lon="4.01434">
        <ele>792.7</ele>
      </trkpt>
      <trkpt lat="44.40885" lon="4.01466">
        <ele>792.5</ele>
      </trkpt>
      <trkpt lat="44.40932" lon="4.0151">
        <ele>795.6</ele>
      </trkpt>
      <trkpt lat="44.41002" lon="4.01536">
        <ele>798.9</ele>
      </trkpt>
      <trkpt lat="44.41047" lon="4.01539">
        <ele>801.8</ele>
      </trkpt>
      <trkpt lat="44.41066" lon="4.01529">
        <ele>800.2</ele>
      </trkpt>
      <trkpt lat="44.41122" lon="4.01492">
        <ele>785.5</ele>
      </trkpt>
      <trkpt lat="44.41136" lon="4.01493">
        <ele>786.5</ele>
      </trkpt>
      <trkpt lat="44.41167" lon="4.01534">
        <ele>805</ele>
      </trkpt>
      <trkpt lat="44.41201" lon="4.01554">
        <ele>807.5</ele>
      </trkpt>
      <trkpt lat="44.41265" lon="4.01571">
        <ele>802.7</ele>
      </trkpt>
      <trkpt lat="44.41284" lon="4.01581">
        <ele>799.2</ele>
      </trkpt>
      <trkpt lat="44.41345" lon="4.0164">
        <ele>805.5</ele>
      </trkpt>
      <trkpt lat="44.41353" lon="4.01656">
        <ele>807.7</ele>
      </trkpt>
      <trkpt lat="44.41359" lon="4.01675">
        <ele>815.1</ele>
      </trkpt>
      <trkpt lat="44.41367" lon="4.01769">
        <ele>827.1</ele>
      </trkpt>
      <trkpt lat="44.41373" lon="4.01802">
        <ele>828.1</ele>
      </trkpt>
      <trkpt lat="44.41382" lon="4.01826">
        <ele>827.2</ele>
      </trkpt>
      <trkpt lat="44.41395" lon="4.01841">
        <ele>833.3</ele>
      </trkpt>
      <trkpt lat="44.41414" lon="4.01856">
        <ele>832.7</ele>
      </trkpt>
      <trkpt lat="44.41434" lon="4.01875">
        <ele>820.1</ele>
      </trkpt>
      <trkpt lat="44.41455" lon="4.01914">
        <ele>821.2</ele>
      </trkpt>
      <trkpt lat="44.41511" lon="4.02158">
        <ele>836.2</ele>
      </trkpt>
      <trkpt lat="44.41526" lon="4.02185">
        <ele>840.1</ele>
      </trkpt>
      <trkpt lat="44.41545" lon="4.02224">
        <ele>840.7</ele>
      </trkpt>
      <trkpt lat="44.41551" lon="4.02233">
        <ele>840.9</ele>
      </trkpt>
      <trkpt lat="44.41555" lon="4.02236">
        <ele>840.9</ele>
      </trkpt>
      <trkpt lat="44.41559" lon="4.02238">
        <ele>841</ele>
      </trkpt>
      <trkpt lat="44.41557" lon="4.02244">
        <ele>841.1</ele>
      </trkpt>
      <trkpt lat="44.4153" lon="4.02274">
        <ele>842.4</ele>
      </trkpt>
      <trkpt lat="44.41524" lon="4.02289">
        <ele>842.3</ele>
      </trkpt>
      <trkpt lat="44.41507" lon="4.02347">
        <ele>840.2</ele>
      </trkpt>
      <trkpt lat="44.41497" lon="4.02427">
        <ele>837.5</ele>
      </trkpt>
      <trkpt lat="44.41479" lon="4.02479">
        <ele>834.9</ele>
      </trkpt>
      <trkpt lat="44.41425" lon="4.02549">
        <ele>824.3</ele>
      </trkpt>
      <trkpt lat="44.41376" lon="4.02586">
        <ele>810.8</ele>
      </trkpt>
      <trkpt lat="44.41357" lon="4.02588">
        <ele>811.5</ele>
      </trkpt>
      <trkpt lat="44.4134" lon="4.02594">
        <ele>813.2</ele>
      </trkpt>
      <trkpt lat="44.4135" lon="4.02599">
        <ele>810.8</ele>
      </trkpt>
      <trkpt lat="44.41428" lon="4.02587">
        <ele>814.1</ele>
      </trkpt>
      <trkpt lat="44.41536" lon="4.02533">
        <ele>816.8</ele>
      </trkpt>
      <trkpt lat="44.41554" lon="4.02513">
        <ele>818.1</ele>
      </trkpt>
      <trkpt lat="44.41561" lon="4.0252">
        <ele>817.8</ele>
      </trkpt>
      <trkpt lat="44.41588" lon="4.02599">
        <ele>814.9</ele>
      </trkpt>
      <trkpt lat="44.41587" lon="4.02608">
        <ele>815.4</ele>
      </trkpt>
      <trkpt lat="44.41583" lon="4.02617">
        <ele>808.8</ele>
      </trkpt>
      <trkpt lat="44.41575" lon="4.02616">
        <ele>808.6</ele>
      </trkpt>
      <trkpt lat="44.41523" lon="4.02619">
        <ele>806.3</ele>
      </trkpt>
      <trkpt lat="44.41469" lon="4.02668">
        <ele>799.8</ele>
      </trkpt>
      <trkpt lat="44.41457" lon="4.0267">
        <ele>799.1</ele>
      </trkpt>
      <trkpt lat="44.41445" lon="4.02676">
        <ele>798.3</ele>
      </trkpt>
      <trkpt lat="44.41411" lon="4.02701">
        <ele>790.1</ele>
      </trkpt>
      <trkpt lat="44.41359" lon="4.02753">
        <ele>781.6</ele>
      </trkpt>
      <trkpt lat="44.41344" lon="4.02778">
        <ele>780.9</ele>
      </trkpt>
      <trkpt lat="44.41325" lon="4.0285">
        <ele>769.4</ele>
      </trkpt>
      <trkpt lat="44.41324" lon="4.02889">
        <ele>768.7</ele>
      </trkpt>
      <trkpt lat="44.41306" lon="4.02952">
        <ele>764.1</ele>
      </trkpt>
      <trkpt lat="44.41266" lon="4.03123">
        <ele>753.2</ele>
      </trkpt>
      <trkpt lat="44.41279" lon="4.03201">
        <ele>748.9</ele>
      </trkpt>
      <trkpt lat="44.41282" lon="4.03251">
        <ele>741</ele>
      </trkpt>
      <trkpt lat="44.41291" lon="4.03279">
        <ele>742.5</ele>
      </trkpt>
      <trkpt lat="44.41304" lon="4.03312">
        <ele>742.9</ele>
      </trkpt>
      <trkpt lat="44.41327" lon="4.03333">
        <ele>746.7</ele>
      </trkpt>
      <trkpt lat="44.41328" lon="4.03347">
        <ele>745.9</ele>
      </trkpt>
      <trkpt lat="44.4132" lon="4.03356">
        <ele>745</ele>
      </trkpt>
      <trkpt lat="44.41292" lon="4.03357">
        <ele>742</ele>
      </trkpt>
      <trkpt lat="44.4126" lon="4.03362">
        <ele>738.5</ele>
      </trkpt>
      <trkpt lat="44.41227" lon="4.03371">
        <ele>731.1</ele>
      </trkpt>
      <trkpt lat="44.41202" lon="4.03388">
        <ele>730.1</ele>
      </trkpt>
      <trkpt lat="44.41184" lon="4.03404">
        <ele>727.5</ele>
      </trkpt>
      <trkpt lat="44.41131" lon="4.03473">
        <ele>722.8</ele>
      </trkpt>
      <trkpt lat="44.41125" lon="4.03486">
        <ele>722.4</ele>
      </trkpt>
      <trkpt lat="44.41125" lon="4.03512">
        <ele>722.4</ele>
      </trkpt>
      <trkpt lat="44.41141" lon="4.03593">
        <ele>723.6</ele>
      </trkpt>
      <trkpt lat="44.41148" lon="4.03634">
        <ele>722.6</ele>
      </trkpt>
      <trkpt lat="44.4115" lon="4.03681">
        <ele>720.6</ele>
      </trkpt>
      <trkpt lat="44.41145" lon="4.0371">
        <ele>718.9</ele>
      </trkpt>
      <trkpt lat="44.41112" lon="4.03772">
        <ele>715</ele>
      </trkpt>
      <trkpt lat="44.41104" lon="4.0379">
        <ele>714.4</ele>
      </trkpt>
      <trkpt lat="44.41097" lon="4.03873">
        <ele>711.6</ele>
      </trkpt>
      <trkpt lat="44.41086" lon="4.03901">
        <ele>706.5</ele>
      </trkpt>
      <trkpt lat="44.41072" lon="4.03924">
        <ele>696.7</ele>
      </trkpt>
      <trkpt lat="44.41073" lon="4.03941">
        <ele>695.6</ele>
      </trkpt>
      <trkpt lat="44.41094" lon="4.03984">
        <ele>706.4</ele>
      </trkpt>
      <trkpt lat="44.41096" lon="4.03994">
        <ele>705.3</ele>
      </trkpt>
      <trkpt lat="44.41091" lon="4.04003">
        <ele>705</ele>
      </trkpt>
      <trkpt lat="44.41064" lon="4.04003">
        <ele>698.1</ele>
      </trkpt>
      <trkpt lat="44.41034" lon="4.04021">
        <ele>694.9</ele>
      </trkpt>
      <trkpt lat="44.41016" lon="4.04036">
        <ele>693.6</ele>
      </trkpt>
      <trkpt lat="44.41008" lon="4.04051">
        <ele>693.1</ele>
      </trkpt>
      <trkpt lat="44.40991" lon="4.04158">
        <ele>691</ele>
      </trkpt>
      <trkpt lat="44.40985" lon="4.04182">
        <ele>689.9</ele>
      </trkpt>
      <trkpt lat="44.40974" lon="4.04206">
        <ele>688.5</ele>
      </trkpt>
      <trkpt lat="44.40967" lon="4.04231">
        <ele>688.6</ele>
      </trkpt>
      <trkpt lat="44.40961" lon="4.04258">
        <ele>692.2</ele>
      </trkpt>
      <trkpt lat="44.40949" lon="4.04281">
        <ele>690.8</ele>
      </trkpt>
      <trkpt lat="44.40942" lon="4.04304">
        <ele>691.1</ele>
      </trkpt>
      <trkpt lat="44.40942" lon="4.04347">
        <ele>700.4</ele>
      </trkpt>
      <trkpt lat="44.4094" lon="4.04353">
        <ele>700.8</ele>
      </trkpt>
      <trkpt lat="44.40931" lon="4.0436">
        <ele>700.3</ele>
      </trkpt>
      <trkpt lat="44.4091" lon="4.04358">
        <ele>685.3</ele>
      </trkpt>
      <trkpt lat="44.4089" lon="4.04362">
        <ele>684.8</ele>
      </trkpt>
      <trkpt lat="44.40869" lon="4.04375">
        <ele>684.7</ele>
      </trkpt>
      <trkpt lat="44.40837" lon="4.04389">
        <ele>685.6</ele>
      </trkpt>
      <trkpt lat="44.40824" lon="4.04404">
        <ele>683.1</ele>
      </trkpt>
      <trkpt lat="44.40816" lon="4.0441">
        <ele>682.4</ele>
      </trkpt>
      <trkpt lat="44.40804" lon="4.04411">
        <ele>679.8</ele>
      </trkpt>
      <trkpt lat="44.40785" lon="4.04403">
        <ele>677.2</ele>
      </trkpt>
      <trkpt lat="44.4075" lon="4.04405">
        <ele>678.6</ele>
      </trkpt>
      <trkpt lat="44.4069" lon="4.04398">
        <ele>675</ele>
      </trkpt>
      <trkpt lat="44.40611" lon="4.04386">
        <ele>670.8</ele>
      </trkpt>
      <trkpt lat="44.4059" lon="4.0439">
        <ele>672.1</ele>
      </trkpt>
      <trkpt lat="44.4057" lon="4.04402">
        <ele>669.3</ele>
      </trkpt>
      <trkpt lat="44.40535" lon="4.04413">
        <ele>663.7</ele>
      </trkpt>
      <trkpt lat="44.40475" lon="4.04453">
        <ele>668</ele>
      </trkpt>
      <trkpt lat="44.40446" lon="4.0448">
        <ele>667.9</ele>
      </trkpt>
      <trkpt lat="44.40423" lon="4.04496">
        <ele>667.7</ele>
      </trkpt>
      <trkpt lat="44.40384" lon="4.04537">
        <ele>668.7</ele>
      </trkpt>
      <trkpt lat="44.40313" lon="4.04607">
        <ele>668.5</ele>
      </trkpt>
      <trkpt lat="44.40256" lon="4.04681">
        <ele>680</ele>
      </trkpt>
      <trkpt lat="44.40241" lon="4.04706">
        <ele>670.2</ele>
      </trkpt>
      <trkpt lat="44.40229" lon="4.04734">
        <ele>674.9</ele>
      </trkpt>
      <trkpt lat="44.40211" lon="4.04763">
        <ele>686</ele>
      </trkpt>
      <trkpt lat="44.40187" lon="4.04785">
        <ele>683.8</ele>
      </trkpt>
      <trkpt lat="44.40169" lon="4.04813">
        <ele>685.5</ele>
      </trkpt>
      <trkpt lat="44.40123" lon="4.04846">
        <ele>676.5</ele>
      </trkpt>
      <trkpt lat="44.40106" lon="4.0487">
        <ele>676.7</ele>
      </trkpt>
      <trkpt lat="44.40093" lon="4.04914">
        <ele>680</ele>
      </trkpt>
      <trkpt lat="44.40079" lon="4.04928">
        <ele>680.6</ele>
      </trkpt>
      <trkpt lat="44.40054" lon="4.04933">
        <ele>680</ele>
      </trkpt>
      <trkpt lat="44.40027" lon="4.04928">
        <ele>673.9</ele>
      </trkpt>
      <trkpt lat="44.39956" lon="4.0497">
        <ele>662.1</ele>
      </trkpt>
      <trkpt lat="44.39887" lon="4.04991">
        <ele>643.8</ele>
      </trkpt>
      <trkpt lat="44.39872" lon="4.05003">
        <ele>653.3</ele>
      </trkpt>
      <trkpt lat="44.39858" lon="4.05018">
        <ele>650.3</ele>
      </trkpt>
      <trkpt lat="44.39844" lon="4.05031">
        <ele>649.7</ele>
      </trkpt>
      <trkpt lat="44.39837" lon="4.05044">
        <ele>650.8</ele>
      </trkpt>
      <trkpt lat="44.39831" lon="4.05071">
        <ele>633.7</ele>
      </trkpt>
      <trkpt lat="44.39831" lon="4.05127">
        <ele>630.4</ele>
      </trkpt>
      <trkpt lat="44.39827" lon="4.05153">
        <ele>636.2</ele>
      </trkpt>
      <trkpt lat="44.39816" lon="4.05178">
        <ele>634.7</ele>
      </trkpt>
      <trkpt lat="44.39811" lon="4.05198">
        <ele>630.6</ele>
      </trkpt>
      <trkpt lat="44.39819" lon="4.05249">
        <ele>639</ele>
      </trkpt>
      <trkpt lat="44.39811" lon="4.0528">
        <ele>636.5</ele>
      </trkpt>
      <trkpt lat="44.39795" lon="4.05309">
        <ele>633.9</ele>
      </trkpt>
      <trkpt lat="44.39769" lon="4.05338">
        <ele>633.2</ele>
      </trkpt>
      <trkpt lat="44.39758" lon="4.0536">
        <ele>636.5</ele>
      </trkpt>
      <trkpt lat="44.39743" lon="4.05405">
        <ele>626.5</ele>
      </trkpt>
      <trkpt lat="44.39732" lon="4.0542">
        <ele>635.7</ele>
      </trkpt>
      <trkpt lat="44.39714" lon="4.05437">
        <ele>633.7</ele>
      </trkpt>
      <trkpt lat="44.39676" lon="4.05448">
        <ele>628.1</ele>
      </trkpt>
      <trkpt lat="44.39659" lon="4.05453">
        <ele>609.7</ele>
      </trkpt>
      <trkpt lat="44.39635" lon="4.0546">
        <ele>607.5</ele>
      </trkpt>
      <trkpt lat="44.39616" lon="4.05476">
        <ele>606</ele>
      </trkpt>
      <trkpt lat="44.396" lon="4.05494">
        <ele>604.4</ele>
      </trkpt>
      <trkpt lat="44.39583" lon="4.05521">
        <ele>592.9</ele>
      </trkpt>
      <trkpt lat="44.39577" lon="4.05541">
        <ele>590.2</ele>
      </trkpt>
      <trkpt lat="44.39582" lon="4.05558">
        <ele>592.1</ele>
      </trkpt>
      <trkpt lat="44.39601" lon="4.05605">
        <ele>611.1</ele>
      </trkpt>
      <trkpt lat="44.39608" lon="4.05632">
        <ele>610.3</ele>
      </trkpt>
      <trkpt lat="44.39625" lon="4.05671">
        <ele>602.2</ele>
      </trkpt>
      <trkpt lat="44.39638" lon="4.057">
        <ele>604.1</ele>
      </trkpt>
      <trkpt lat="44.39639" lon="4.0572">
        <ele>602.6</ele>
      </trkpt>
      <trkpt lat="44.39636" lon="4.0576">
        <ele>594.4</ele>
      </trkpt>
      <trkpt lat="44.39643" lon="4.058">
        <ele>593.2</ele>
      </trkpt>
      <trkpt lat="44.3964" lon="4.05852">
        <ele>588.2</ele>
      </trkpt>
      <trkpt lat="44.39641" lon="4.05895">
        <ele>586.3</ele>
      </trkpt>
      <trkpt lat="44.39642" lon="4.05901">
        <ele>586.8</ele>
      </trkpt>
      <trkpt lat="44.39649" lon="4.05948">
        <ele>580.5</ele>
      </trkpt>
      <trkpt lat="44.39656" lon="4.05987">
        <ele>581</ele>
      </trkpt>
      <trkpt lat="44.39663" lon="4.06007">
        <ele>579.5</ele>
      </trkpt>
      <trkpt lat="44.39674" lon="4.06017">
        <ele>581.2</ele>
      </trkpt>
      <trkpt lat="44.39681" lon="4.06019">
        <ele>580.3</ele>
      </trkpt>
      <trkpt lat="44.3968" lon="4.06035">
        <ele>577.3</ele>
      </trkpt>
      <trkpt lat="44.39678" lon="4.06052">
        <ele>574</ele>
      </trkpt>
      <trkpt lat="44.39671" lon="4.06077">
        <ele>567.8</ele>
      </trkpt>
      <trkpt lat="44.3967" lon="4.06089">
        <ele>561.5</ele>
      </trkpt>
      <trkpt lat="44.39664" lon="4.06106">
        <ele>551</ele>
      </trkpt>
      <trkpt lat="44.39653" lon="4.06127">
        <ele>544.7</ele>
      </trkpt>
      <trkpt lat="44.39649" lon="4.06138">
        <ele>543</ele>
      </trkpt>
      <trkpt lat="44.39643" lon="4.06142">
        <ele>541.9</ele>
      </trkpt>
      <trkpt lat="44.39643" lon="4.06152">
        <ele>541.4</ele>
      </trkpt>
      <trkpt lat="44.39637" lon="4.06171">
        <ele>527.5</ele>
      </trkpt>
      <trkpt lat="44.39628" lon="4.06186">
        <ele>523.6</ele>
      </trkpt>
      <trkpt lat="44.39615" lon="4.06206">
        <ele>519.4</ele>
      </trkpt>
      <trkpt lat="44.39616" lon="4.06213">
        <ele>518.7</ele>
      </trkpt>
      <trkpt lat="44.39598" lon="4.06229">
        <ele>514.1</ele>
      </trkpt>
      <trkpt lat="44.39574" lon="4.06259">
        <ele>494.9</ele>
      </trkpt>
      <trkpt lat="44.39566" lon="4.06269">
        <ele>489.6</ele>
      </trkpt>
      <trkpt lat="44.39557" lon="4.06282">
        <ele>485.5</ele>
      </trkpt>
      <trkpt lat="44.39548" lon="4.06289">
        <ele>483.5</ele>
      </trkpt>
      <trkpt lat="44.39525" lon="4.06329">
        <ele>478.2</ele>
      </trkpt>
      <trkpt lat="44.39514" lon="4.06352">
        <ele>474.2</ele>
      </trkpt>
      <trkpt lat="44.39509" lon="4.06371">
        <ele>474.2</ele>
      </trkpt>
      <trkpt lat="44.39502" lon="4.0638">
        <ele>473.9</ele>
      </trkpt>
      <trkpt lat="44.39465" lon="4.06416">
        <ele>468.7</ele>
      </trkpt>
      <trkpt lat="44.39445" lon="4.06421">
        <ele>468.1</ele>
      </trkpt>
      <trkpt lat="44.39461" lon="4.06429">
        <ele>469.8</ele>
      </trkpt>
      <trkpt lat="44.39466" lon="4.06437">
        <ele>470.5</ele>
      </trkpt>
      <trkpt lat="44.39469" lon="4.06446">
        <ele>471.1</ele>
      </trkpt>
      <trkpt lat="44.3947" lon="4.06449">
        <ele>471.4</ele>
      </trkpt>
      <trkpt lat="44.39464" lon="4.06465">
        <ele>472.1</ele>
      </trkpt>
      <trkpt lat="44.39439" lon="4.06489">
        <ele>471</ele>
      </trkpt>
      <trkpt lat="44.39399" lon="4.06509">
        <ele>475.6</ele>
      </trkpt>
      <trkpt lat="44.39399" lon="4.06516">
        <ele>476.8</ele>
      </trkpt>
      <trkpt lat="44.39407" lon="4.06516">
        <ele>475.9</ele>
      </trkpt>
      <trkpt lat="44.39423" lon="4.06508">
        <ele>475.7</ele>
      </trkpt>
      <trkpt lat="44.39445" lon="4.06502">
        <ele>481.8</ele>
      </trkpt>
      <trkpt lat="44.39449" lon="4.06506">
        <ele>483</ele>
      </trkpt>
      <trkpt lat="44.39448" lon="4.06511">
        <ele>483.3</ele>
      </trkpt>
      <trkpt lat="44.39417" lon="4.06521">
        <ele>480.4</ele>
      </trkpt>
      <trkpt lat="44.39407" lon="4.0653">
        <ele>479.4</ele>
      </trkpt>
      <trkpt lat="44.39396" lon="4.06547">
        <ele>483.2</ele>
      </trkpt>
      <trkpt lat="44.39377" lon="4.06552">
        <ele>483.8</ele>
      </trkpt>
      <trkpt lat="44.39359" lon="4.06552">
        <ele>484.1</ele>
      </trkpt>
      <trkpt lat="44.39344" lon="4.06548">
        <ele>483.6</ele>
      </trkpt>
      <trkpt lat="44.39332" lon="4.06537">
        <ele>482.8</ele>
      </trkpt>
      <trkpt lat="44.39301" lon="4.06483">
        <ele>466.2</ele>
      </trkpt>
      <trkpt lat="44.39295" lon="4.06478">
        <ele>466.4</ele>
      </trkpt>
      <trkpt lat="44.39283" lon="4.06476">
        <ele>467.3</ele>
      </trkpt>
      <trkpt lat="44.39278" lon="4.06478">
        <ele>468</ele>
      </trkpt>
      <trkpt lat="44.39277" lon="4.06484">
        <ele>468.9</ele>
      </trkpt>
      <trkpt lat="44.39277" lon="4.06496">
        <ele>470</ele>
      </trkpt>
      <trkpt lat="44.39279" lon="4.06502">
        <ele>481.9</ele>
      </trkpt>
      <trkpt lat="44.3928" lon="4.06504">
        <ele>481.9</ele>
      </trkpt>
      <trkpt lat="44.39282" lon="4.06532">
        <ele>484.8</ele>
      </trkpt>
      <trkpt lat="44.39286" lon="4.06558">
        <ele>488.5</ele>
      </trkpt>
      <trkpt lat="44.39291" lon="4.06577">
        <ele>490.4</ele>
      </trkpt>
      <trkpt lat="44.39295" lon="4.066">
        <ele>507</ele>
      </trkpt>
      <trkpt lat="44.39286" lon="4.06662">
        <ele>513.3</ele>
      </trkpt>
      <trkpt lat="44.39286" lon="4.06672">
        <ele>526.2</ele>
      </trkpt>
      <trkpt lat="44.39289" lon="4.06682">
        <ele>527.4</ele>
      </trkpt>
      <trkpt lat="44.39289" lon="4.06691">
        <ele>528.3</ele>
      </trkpt>
      <trkpt lat="44.39286" lon="4.06708">
        <ele>529.7</ele>
      </trkpt>
      <trkpt lat="44.3928" lon="4.06737">
        <ele>531.1</ele>
      </trkpt>
      <trkpt lat="44.39264" lon="4.06762">
        <ele>539.3</ele>
      </trkpt>
      <trkpt lat="44.39248" lon="4.06783">
        <ele>529.1</ele>
      </trkpt>
      <trkpt lat="44.39239" lon="4.06789">
        <ele>529.6</ele>
      </trkpt>
      <trkpt lat="44.39226" lon="4.0679">
        <ele>528.6</ele>
      </trkpt>
      <trkpt lat="44.39187" lon="4.068">
        <ele>525.3</ele>
      </trkpt>
      <trkpt lat="44.39183" lon="4.06802">
        <ele>525.2</ele>
      </trkpt>
      <trkpt lat="44.39184" lon="4.06812">
        <ele>526</ele>
      </trkpt>
      <trkpt lat="44.39196" lon="4.06851">
        <ele>536.7</ele>
      </trkpt>
      <trkpt lat="44.39218" lon="4.06973">
        <ele>552.2</ele>
      </trkpt>
      <trkpt lat="44.39217" lon="4.06984">
        <ele>552.9</ele>
      </trkpt>
      <trkpt lat="44.39219" lon="4.07">
        <ele>562.2</ele>
      </trkpt>
      <trkpt lat="44.39206" lon="4.07057">
        <ele>562.3</ele>
      </trkpt>
      <trkpt lat="44.39198" lon="4.07102">
        <ele>570</ele>
      </trkpt>
      <trkpt lat="44.39207" lon="4.07141">
        <ele>574.7</ele>
      </trkpt>
      <trkpt lat="44.39222" lon="4.07156">
        <ele>581</ele>
      </trkpt>
      <trkpt lat="44.39236" lon="4.07225">
        <ele>585.3</ele>
      </trkpt>
      <trkpt lat="44.3926" lon="4.07294">
        <ele>600.5</ele>
      </trkpt>
      <trkpt lat="44.39272" lon="4.07295">
        <ele>601.2</ele>
      </trkpt>
      <trkpt lat="44.39282" lon="4.07294">
        <ele>602.1</ele>
      </trkpt>
      <trkpt lat="44.39298" lon="4.07295">
        <ele>603.4</ele>
      </trkpt>
      <trkpt lat="44.39311" lon="4.07291">
        <ele>605.1</ele>
      </trkpt>
      <trkpt lat="44.39333" lon="4.07288">
        <ele>607.1</ele>
      </trkpt>
      <trkpt lat="44.39354" lon="4.07291">
        <ele>615.5</ele>
      </trkpt>
      <trkpt lat="44.39386" lon="4.07286">
        <ele>618.7</ele>
      </trkpt>
      <trkpt lat="44.39404" lon="4.07289">
        <ele>619.3</ele>
      </trkpt>
      <trkpt lat="44.39428" lon="4.07298">
        <ele>627.1</ele>
      </trkpt>
      <trkpt lat="44.39454" lon="4.07316">
        <ele>627.1</ele>
      </trkpt>
      <trkpt lat="44.39488" lon="4.07352">
        <ele>613</ele>
      </trkpt>
      <trkpt lat="44.39514" lon="4.07377">
        <ele>619</ele>
      </trkpt>
      <trkpt lat="44.39533" lon="4.07381">
        <ele>619.9</ele>
      </trkpt>
      <trkpt lat="44.39566" lon="4.07379">
        <ele>623</ele>
      </trkpt>
      <trkpt lat="44.3959" lon="4.07389">
        <ele>632.9</ele>
      </trkpt>
      <trkpt lat="44.39613" lon="4.07404">
        <ele>634.1</ele>
      </trkpt>
      <trkpt lat="44.3966" lon="4.07446">
        <ele>631</ele>
      </trkpt>
      <trkpt lat="44.39663" lon="4.0745">
        <ele>630.8</ele>
      </trkpt>
      <trkpt lat="44.39664" lon="4.07455">
        <ele>630.5</ele>
      </trkpt>
      <trkpt lat="44.39663" lon="4.07463">
        <ele>630.2</ele>
      </trkpt>
      <trkpt lat="44.39656" lon="4.0747">
        <ele>629.7</ele>
      </trkpt>
      <trkpt lat="44.39625" lon="4.07486">
        <ele>624.4</ele>
      </trkpt>
      <trkpt lat="44.39617" lon="4.07496">
        <ele>622.1</ele>
      </trkpt>
      <trkpt lat="44.39603" lon="4.07551">
        <ele>625.4</ele>
      </trkpt>
      <trkpt lat="44.39597" lon="4.07567">
        <ele>624.3</ele>
      </trkpt>
      <trkpt lat="44.39588" lon="4.07586">
        <ele>623.7</ele>
      </trkpt>
      <trkpt lat="44.39554" lon="4.07632">
        <ele>614</ele>
      </trkpt>
      <trkpt lat="44.3955" lon="4.07638">
        <ele>614</ele>
        <extensions>
          <visugpx:TrkExtension xmlns:visugpx="https://www.visugpx.com/editgpx/">
            <visugpx:node>10</visugpx:node>
            </visugpx:TrkExtension>
        </extensions>
      </trkpt>
      <trkpt lat="44.39554" lon="4.07632">
        <ele>614</ele>
      </trkpt>
      <trkpt lat="44.39588" lon="4.07586">
        <ele>623.7</ele>
      </trkpt>
      <trkpt lat="44.39597" lon="4.07567">
        <ele>624.3</ele>
      </trkpt>
      <trkpt lat="44.39603" lon="4.07551">
        <ele>625.4</ele>
      </trkpt>
      <trkpt lat="44.39617" lon="4.07496">
        <ele>622.1</ele>
      </trkpt>
      <trkpt lat="44.39625" lon="4.07486">
        <ele>624.4</ele>
      </trkpt>
      <trkpt lat="44.39656" lon="4.0747">
        <ele>629.7</ele>
      </trkpt>
      <trkpt lat="44.39663" lon="4.07463">
        <ele>630.2</ele>
      </trkpt>
      <trkpt lat="44.39664" lon="4.07455">
        <ele>630.5</ele>
      </trkpt>
      <trkpt lat="44.39663" lon="4.0745">
        <ele>630.8</ele>
      </trkpt>
      <trkpt lat="44.39668" lon="4.07452">
        <ele>647.2</ele>
      </trkpt>
      <trkpt lat="44.39675" lon="4.07456">
        <ele>647.7</ele>
      </trkpt>
      <trkpt lat="44.3967" lon="4.07473">
        <ele>646</ele>
      </trkpt>
      <trkpt lat="44.39637" lon="4.07517">
        <ele>629.5</ele>
      </trkpt>
      <trkpt lat="44.39626" lon="4.07546">
        <ele>629</ele>
      </trkpt>
      <trkpt lat="44.39625" lon="4.07577">
        <ele>630.6</ele>
      </trkpt>
      <trkpt lat="44.39617" lon="4.0761">
        <ele>640.1</ele>
      </trkpt>
      <trkpt lat="44.39606" lon="4.07636">
        <ele>640.8</ele>
      </trkpt>
      <trkpt lat="44.39588" lon="4.07656">
        <ele>637.4</ele>
      </trkpt>
      <trkpt lat="44.39578" lon="4.07686">
        <ele>631.7</ele>
      </trkpt>
      <trkpt lat="44.3958" lon="4.07749">
        <ele>644.7</ele>
      </trkpt>
      <trkpt lat="44.39567" lon="4.07774">
        <ele>651.3</ele>
      </trkpt>
      <trkpt lat="44.39543" lon="4.07775">
        <ele>650.1</ele>
      </trkpt>
      <trkpt lat="44.39523" lon="4.07786">
        <ele>650.2</ele>
      </trkpt>
      <trkpt lat="44.395" lon="4.07785">
        <ele>648.5</ele>
      </trkpt>
      <trkpt lat="44.39493" lon="4.07786">
        <ele>642.6</ele>
      </trkpt>
      <trkpt lat="44.39478" lon="4.0779">
        <ele>643.3</ele>
      </trkpt>
      <trkpt lat="44.39435" lon="4.07812">
        <ele>645.4</ele>
      </trkpt>
      <trkpt lat="44.39424" lon="4.07841">
        <ele>655.7</ele>
      </trkpt>
      <trkpt lat="44.39428" lon="4.07873">
        <ele>661.7</ele>
      </trkpt>
      <trkpt lat="44.3944" lon="4.07901">
        <ele>663.9</ele>
      </trkpt>
      <trkpt lat="44.39445" lon="4.07961">
        <ele>678.3</ele>
      </trkpt>
      <trkpt lat="44.39444" lon="4.07996">
        <ele>678.3</ele>
      </trkpt>
      <trkpt lat="44.39438" lon="4.0803">
        <ele>692.4</ele>
      </trkpt>
      <trkpt lat="44.39438" lon="4.08067">
        <ele>696</ele>
      </trkpt>
      <trkpt lat="44.39394" lon="4.08142">
        <ele>684.6</ele>
      </trkpt>
      <trkpt lat="44.39391" lon="4.08172">
        <ele>704.6</ele>
      </trkpt>
      <trkpt lat="44.39375" lon="4.08198">
        <ele>703.4</ele>
      </trkpt>
      <trkpt lat="44.39353" lon="4.08204">
        <ele>699.7</ele>
      </trkpt>
      <trkpt lat="44.39333" lon="4.08222">
        <ele>684.9</ele>
      </trkpt>
      <trkpt lat="44.39332" lon="4.08239">
        <ele>693.4</ele>
      </trkpt>
      <trkpt lat="44.3932" lon="4.0825">
        <ele>692.2</ele>
      </trkpt>
      <trkpt lat="44.39323" lon="4.08266">
        <ele>698.7</ele>
      </trkpt>
      <trkpt lat="44.39315" lon="4.08282">
        <ele>697.3</ele>
      </trkpt>
      <trkpt lat="44.39335" lon="4.08302">
        <ele>720.9</ele>
      </trkpt>
      <trkpt lat="44.39378" lon="4.08324">
        <ele>729.5</ele>
      </trkpt>
      <trkpt lat="44.39391" lon="4.08346">
        <ele>737.7</ele>
      </trkpt>
      <trkpt lat="44.39394" lon="4.08378">
        <ele>737.4</ele>
      </trkpt>
      <trkpt lat="44.39392" lon="4.0841">
        <ele>739.9</ele>
      </trkpt>
      <trkpt lat="44.39376" lon="4.0844">
        <ele>739.6</ele>
      </trkpt>
      <trkpt lat="44.39364" lon="4.08459">
        <ele>738.1</ele>
      </trkpt>
      <trkpt lat="44.39364" lon="4.08493">
        <ele>739.5</ele>
      </trkpt>
      <trkpt lat="44.39372" lon="4.08558">
        <ele>755.2</ele>
      </trkpt>
      <trkpt lat="44.39372" lon="4.08621">
        <ele>765.6</ele>
      </trkpt>
      <trkpt lat="44.39367" lon="4.08653">
        <ele>766.2</ele>
      </trkpt>
      <trkpt lat="44.39365" lon="4.08686">
        <ele>767.8</ele>
      </trkpt>
      <trkpt lat="44.39381" lon="4.087">
        <ele>769.8</ele>
      </trkpt>
      <trkpt lat="44.39399" lon="4.08721">
        <ele>769.5</ele>
      </trkpt>
      <trkpt lat="44.3943" lon="4.08728">
        <ele>775</ele>
      </trkpt>
      <trkpt lat="44.39481" lon="4.08752">
        <ele>758</ele>
      </trkpt>
      <trkpt lat="44.3951" lon="4.08771">
        <ele>760</ele>
      </trkpt>
      <trkpt lat="44.39531" lon="4.088">
        <ele>754.7</ele>
      </trkpt>
      <trkpt lat="44.39546" lon="4.08864">
        <ele>729.7</ele>
      </trkpt>
      <trkpt lat="44.39576" lon="4.08914">
        <ele>726.2</ele>
      </trkpt>
      <trkpt lat="44.39578" lon="4.09008">
        <ele>704.8</ele>
      </trkpt>
      <trkpt lat="44.39594" lon="4.09065">
        <ele>703.8</ele>
      </trkpt>
      <trkpt lat="44.39618" lon="4.09129">
        <ele>688.4</ele>
      </trkpt>
      <trkpt lat="44.39626" lon="4.0918">
        <ele>672.2</ele>
      </trkpt>
      <trkpt lat="44.39628" lon="4.09261">
        <ele>656.6</ele>
      </trkpt>
      <trkpt lat="44.39624" lon="4.09326">
        <ele>652.2</ele>
      </trkpt>
      <trkpt lat="44.39635" lon="4.09362">
        <ele>643.8</ele>
      </trkpt>
      <trkpt lat="44.3965" lon="4.09448">
        <ele>629.5</ele>
      </trkpt>
      <trkpt lat="44.39665" lon="4.09511">
        <ele>616.9</ele>
      </trkpt>
      <trkpt lat="44.39689" lon="4.09508">
        <ele>606</ele>
      </trkpt>
      <trkpt lat="44.39739" lon="4.09469">
        <ele>605.8</ele>
      </trkpt>
      <trkpt lat="44.39747" lon="4.09445">
        <ele>607.5</ele>
      </trkpt>
      <trkpt lat="44.39772" lon="4.09427">
        <ele>588.2</ele>
      </trkpt>
      <trkpt lat="44.39785" lon="4.09444">
        <ele>582.3</ele>
      </trkpt>
      <trkpt lat="44.39813" lon="4.09447">
        <ele>576.4</ele>
      </trkpt>
      <trkpt lat="44.39874" lon="4.09467">
        <ele>549.1</ele>
      </trkpt>
      <trkpt lat="44.39916" lon="4.09489">
        <ele>536.2</ele>
      </trkpt>
      <trkpt lat="44.39948" lon="4.0953">
        <ele>513.9</ele>
      </trkpt>
      <trkpt lat="44.39982" lon="4.0956">
        <ele>507.6</ele>
      </trkpt>
      <trkpt lat="44.40017" lon="4.09587">
        <ele>492.8</ele>
      </trkpt>
      <trkpt lat="44.40033" lon="4.09603">
        <ele>488.9</ele>
      </trkpt>
      <trkpt lat="44.40024" lon="4.09621">
        <ele>488.5</ele>
      </trkpt>
      <trkpt lat="44.40027" lon="4.09632">
        <ele>487.6</ele>
      </trkpt>
      <trkpt lat="44.40027" lon="4.09644">
        <ele>487.1</ele>
      </trkpt>
      <trkpt lat="44.40018" lon="4.09655">
        <ele>487.1</ele>
      </trkpt>
      <trkpt lat="44.40036" lon="4.09704">
        <ele>478.4</ele>
      </trkpt>
      <trkpt lat="44.40038" lon="4.09712">
        <ele>477.8</ele>
      </trkpt>
      <trkpt lat="44.40035" lon="4.09726">
        <ele>477</ele>
      </trkpt>
      <trkpt lat="44.40034" lon="4.09741">
        <ele>476.2</ele>
      </trkpt>
      <trkpt lat="44.40034" lon="4.09782">
        <ele>469.4</ele>
      </trkpt>
      <trkpt lat="44.40033" lon="4.09789">
        <ele>469.1</ele>
      </trkpt>
      <trkpt lat="44.40018" lon="4.09887">
        <ele>460.6</ele>
      </trkpt>
      <trkpt lat="44.39988" lon="4.09928">
        <ele>455.5</ele>
      </trkpt>
      <trkpt lat="44.39968" lon="4.09979">
        <ele>451.3</ele>
      </trkpt>
      <trkpt lat="44.39945" lon="4.10018">
        <ele>444.4</ele>
      </trkpt>
      <trkpt lat="44.39936" lon="4.10101">
        <ele>437.1</ele>
      </trkpt>
      <trkpt lat="44.39891" lon="4.10157">
        <ele>431.2</ele>
      </trkpt>
      <trkpt lat="44.39908" lon="4.10306">
        <ele>414.7</ele>
      </trkpt>
      <trkpt lat="44.39884" lon="4.10435">
        <ele>399</ele>
      </trkpt>
      <trkpt lat="44.39885" lon="4.10531">
        <ele>382.3</ele>
      </trkpt>
      <trkpt lat="44.39937" lon="4.10706">
        <ele>374.3</ele>
      </trkpt>
      <trkpt lat="44.39933" lon="4.1089">
        <ele>359.3</ele>
      </trkpt>
      <trkpt lat="44.39895" lon="4.11007">
        <ele>338.1</ele>
      </trkpt>
      <trkpt lat="44.39876" lon="4.1113">
        <ele>316</ele>
      </trkpt>
      <trkpt lat="44.39888" lon="4.11171">
        <ele>304.2</ele>
      </trkpt>
      <trkpt lat="44.39907" lon="4.11173">
        <ele>313.8</ele>
      </trkpt>
      <trkpt lat="44.39922" lon="4.11218">
        <ele>311.7</ele>
      </trkpt>
      <trkpt lat="44.39939" lon="4.11229">
        <ele>310.8</ele>
      </trkpt>
      <trkpt lat="44.39946" lon="4.11238">
        <ele>310.4</ele>
      </trkpt>
      <trkpt lat="44.39953" lon="4.11311">
        <ele>291.8</ele>
      </trkpt>
      <trkpt lat="44.39957" lon="4.11335">
        <ele>282</ele>
      </trkpt>
      <trkpt lat="44.39959" lon="4.11354">
        <ele>281.4</ele>
      </trkpt>
      <trkpt lat="44.39975" lon="4.11373">
        <ele>280.4</ele>
      </trkpt>
      <trkpt lat="44.39977" lon="4.1138">
        <ele>279.8</ele>
      </trkpt>
      <trkpt lat="44.39984" lon="4.11399">
        <ele>277.7</ele>
      </trkpt>
      <trkpt lat="44.39984" lon="4.11401">
        <ele>277.5</ele>
      </trkpt>
      <trkpt lat="44.39992" lon="4.11399">
        <ele>277.2</ele>
      </trkpt>
      <trkpt lat="44.3999" lon="4.1141">
        <ele>275.9</ele>
      </trkpt>
      <trkpt lat="44.39988" lon="4.1143">
        <ele>269.4</ele>
      </trkpt>
      <trkpt lat="44.39986" lon="4.11453">
        <ele>266.1</ele>
      </trkpt>
      <trkpt lat="44.39982" lon="4.11464">
        <ele>264.5</ele>
      </trkpt>
      <trkpt lat="44.39959" lon="4.11496">
        <ele>262.5</ele>
      </trkpt>
      <trkpt lat="44.39923" lon="4.11509">
        <ele>254.4</ele>
      </trkpt>
      <trkpt lat="44.39915" lon="4.11518">
        <ele>249.1</ele>
      </trkpt>
      <trkpt lat="44.39907" lon="4.11518">
        <ele>248.1</ele>
      </trkpt>
      <trkpt lat="44.399" lon="4.11515">
        <ele>247.4</ele>
      </trkpt>
      <trkpt lat="44.39864" lon="4.11514">
        <ele>241.3</ele>
      </trkpt>
      <trkpt lat="44.39864" lon="4.11525">
        <ele>240.5</ele>
      </trkpt>
      <trkpt lat="44.39907" lon="4.11583">
        <ele>237.1</ele>
      </trkpt>
      <trkpt lat="44.39928" lon="4.11633">
        <ele>226.9</ele>
      </trkpt>
      <trkpt lat="44.39945" lon="4.11677">
        <ele>217</ele>
      </trkpt>
      <trkpt lat="44.39969" lon="4.11719">
        <ele>214.8</ele>
      </trkpt>
      <trkpt lat="44.39971" lon="4.11723">
        <ele>214.6</ele>
      </trkpt>
      <trkpt lat="44.39975" lon="4.11726">
        <ele>214.3</ele>
      </trkpt>
      <trkpt lat="44.39993" lon="4.11738">
        <ele>212.4</ele>
      </trkpt>
      <trkpt lat="44.39995" lon="4.11743">
        <ele>211.7</ele>
      </trkpt>
      <trkpt lat="44.39998" lon="4.11755">
        <ele>210</ele>
      </trkpt>
      <trkpt lat="44.40002" lon="4.11766">
        <ele>211.6</ele>
      </trkpt>
      <trkpt lat="44.40021" lon="4.11821">
        <ele>211.2</ele>
      </trkpt>
      <trkpt lat="44.40051" lon="4.11911">
        <ele>210.3</ele>
      </trkpt>
      <trkpt lat="44.40053" lon="4.11954">
        <ele>206.1</ele>
      </trkpt>
      <trkpt lat="44.40053" lon="4.11965">
        <ele>205.7</ele>
      </trkpt>
      <trkpt lat="44.40049" lon="4.11967">
        <ele>205.5</ele>
      </trkpt>
      <trkpt lat="44.40044" lon="4.11972">
        <ele>205.2</ele>
      </trkpt>
      <trkpt lat="44.40037" lon="4.11984">
        <ele>204.6</ele>
      </trkpt>
      <trkpt lat="44.40028" lon="4.12007">
        <ele>201.8</ele>
      </trkpt>
      <trkpt lat="44.40021" lon="4.12019">
        <ele>201.6</ele>
      </trkpt>
      <trkpt lat="44.40016" lon="4.12026">
        <ele>201.5</ele>
      </trkpt>
      <trkpt lat="44.40009" lon="4.12047">
        <ele>201.3</ele>
      </trkpt>
      <trkpt lat="44.40011" lon="4.12087">
        <ele>199.9</ele>
      </trkpt>
      <trkpt lat="44.40013" lon="4.12104">
        <ele>199.8</ele>
      </trkpt>
      <trkpt lat="44.40024" lon="4.12137">
        <ele>199.6</ele>
      </trkpt>
      <trkpt lat="44.4003" lon="4.12146">
        <ele>199.5</ele>
      </trkpt>
      <trkpt lat="44.40041" lon="4.12159">
        <ele>199.5</ele>
      </trkpt>
      <trkpt lat="44.40066" lon="4.12184">
        <ele>198.4</ele>
      </trkpt>
      <trkpt lat="44.40077" lon="4.12199">
        <ele>198.1</ele>
      </trkpt>
      <trkpt lat="44.40101" lon="4.12256">
        <ele>195.8</ele>
      </trkpt>
      <trkpt lat="44.40106" lon="4.12284">
        <ele>196.1</ele>
      </trkpt>
      <trkpt lat="44.40113" lon="4.12298">
        <ele>196.1</ele>
      </trkpt>
      <trkpt lat="44.40138" lon="4.12339">
        <ele>197.2</ele>
      </trkpt>
      <trkpt lat="44.40154" lon="4.12351">
        <ele>196.5</ele>
      </trkpt>
      <trkpt lat="44.40155" lon="4.12354">
        <ele>196.7</ele>
      </trkpt>
      <trkpt lat="44.40155" lon="4.12362">
        <ele>197.5</ele>
      </trkpt>
      <trkpt lat="44.40158" lon="4.12374">
        <ele>198.3</ele>
      </trkpt>
      <trkpt lat="44.40162" lon="4.1238">
        <ele>198.5</ele>
      </trkpt>
      <trkpt lat="44.40206" lon="4.1243">
        <ele>198.8</ele>
      </trkpt>
      <trkpt lat="44.40238" lon="4.12472">
        <ele>199.6</ele>
      </trkpt>
      <trkpt lat="44.4025" lon="4.12497">
        <ele>198.1</ele>
      </trkpt>
      <trkpt lat="44.40263" lon="4.12509">
        <ele>197.9</ele>
      </trkpt>
      <trkpt lat="44.40276" lon="4.12533">
        <ele>197.5</ele>
      </trkpt>
      <trkpt lat="44.40332" lon="4.12617">
        <ele>198.7</ele>
      </trkpt>
      <trkpt lat="44.4034" lon="4.12631">
        <ele>189.5</ele>
      </trkpt>
      <trkpt lat="44.40356" lon="4.12659">
        <ele>190</ele>
      </trkpt>
      <trkpt lat="44.40363" lon="4.12673">
        <ele>190.8</ele>
      </trkpt>
      <trkpt lat="44.40371" lon="4.12687">
        <ele>190.2</ele>
      </trkpt>
      <trkpt lat="44.40378" lon="4.12697">
        <ele>189.9</ele>
      </trkpt>
      <trkpt lat="44.40381" lon="4.12702">
        <ele>189.8</ele>
      </trkpt>
      <trkpt lat="44.40387" lon="4.12711">
        <ele>189.6</ele>
      </trkpt>
      <trkpt lat="44.40392" lon="4.12716">
        <ele>189.4</ele>
      </trkpt>
      <trkpt lat="44.40412" lon="4.12736">
        <ele>188.3</ele>
      </trkpt>
      <trkpt lat="44.40435" lon="4.12773">
        <ele>185.2</ele>
      </trkpt>
      <trkpt lat="44.4047" lon="4.12849">
        <ele>182.4</ele>
      </trkpt>
      <trkpt lat="44.40477" lon="4.12858">
        <ele>182.1</ele>
      </trkpt>
      <trkpt lat="44.40494" lon="4.12885">
        <ele>181.4</ele>
      </trkpt>
      <trkpt lat="44.40503" lon="4.12896">
        <ele>180.2</ele>
      </trkpt>
      <trkpt lat="44.4053" lon="4.12924">
        <ele>180.9</ele>
      </trkpt>
      <trkpt lat="44.40524" lon="4.12952">
        <ele>181.1</ele>
      </trkpt>
      <trkpt lat="44.40524" lon="4.12953">
        <ele>181.1</ele>
        <extensions>
          <visugpx:TrkExtension xmlns:visugpx="https://www.visugpx.com/editgpx/">
            <visugpx:node>11</visugpx:node>
            </visugpx:TrkExtension>
        </extensions>
      </trkpt>
      <trkpt lat="44.40521" lon="4.12967">
        <ele>181.2</ele>
      </trkpt>
      <trkpt lat="44.40521" lon="4.12974">
        <ele>181.3</ele>
      </trkpt>
      <trkpt lat="44.40522" lon="4.12976">
        <ele>181.3</ele>
      </trkpt>
      <trkpt lat="44.40521" lon="4.1298">
        <ele>181.3</ele>
      </trkpt>
      <trkpt lat="44.4052" lon="4.12996">
        <ele>181.3</ele>
      </trkpt>
      <trkpt lat="44.40519" lon="4.13007">
        <ele>181.1</ele>
      </trkpt>
      <trkpt lat="44.40515" lon="4.13029">
        <ele>181</ele>
      </trkpt>
      <trkpt lat="44.40512" lon="4.13044">
        <ele>180.8</ele>
      </trkpt>
      <trkpt lat="44.4051" lon="4.13053">
        <ele>180.7</ele>
      </trkpt>
      <trkpt lat="44.40508" lon="4.13064">
        <ele>180.5</ele>
      </trkpt>
      <trkpt lat="44.40504" lon="4.13083">
        <ele>180.1</ele>
      </trkpt>
      <trkpt lat="44.40501" lon="4.13097">
        <ele>179.5</ele>
      </trkpt>
      <trkpt lat="44.40496" lon="4.13118">
        <ele>182.2</ele>
      </trkpt>
      <trkpt lat="44.40493" lon="4.1312">
        <ele>182.3</ele>
      </trkpt>
      <trkpt lat="44.40486" lon="4.1313">
        <ele>182.4</ele>
      </trkpt>
      <trkpt lat="44.40477" lon="4.13153">
        <ele>182.2</ele>
      </trkpt>
      <trkpt lat="44.40468" lon="4.13198">
        <ele>182.3</ele>
      </trkpt>
      <trkpt lat="44.40465" lon="4.13211">
        <ele>182.4</ele>
      </trkpt>
      <trkpt lat="44.40455" lon="4.13235">
        <ele>182.9</ele>
      </trkpt>
      <trkpt lat="44.40442" lon="4.13254">
        <ele>183</ele>
      </trkpt>
      <trkpt lat="44.40413" lon="4.13281">
        <ele>186</ele>
      </trkpt>
      <trkpt lat="44.40393" lon="4.13285">
        <ele>186.1</ele>
      </trkpt>
      <trkpt lat="44.40379" lon="4.13288">
        <ele>186.2</ele>
      </trkpt>
      <trkpt lat="44.40354" lon="4.13322">
        <ele>186.1</ele>
      </trkpt>
      <trkpt lat="44.40344" lon="4.13342">
        <ele>185.1</ele>
      </trkpt>
      <trkpt lat="44.40339" lon="4.13368">
        <ele>184.3</ele>
      </trkpt>
      <trkpt lat="44.40337" lon="4.13395">
        <ele>184</ele>
      </trkpt>
      <trkpt lat="44.40344" lon="4.1342">
        <ele>182.8</ele>
      </trkpt>
      <trkpt lat="44.40335" lon="4.1347">
        <ele>180.7</ele>
      </trkpt>
      <trkpt lat="44.40334" lon="4.13498">
        <ele>180</ele>
      </trkpt>
      <trkpt lat="44.40332" lon="4.13514">
        <ele>181</ele>
      </trkpt>
      <trkpt lat="44.40332" lon="4.1352">
        <ele>181.3</ele>
      </trkpt>
      <trkpt lat="44.40333" lon="4.13531">
        <ele>181.6</ele>
      </trkpt>
      <trkpt lat="44.40336" lon="4.13572">
        <ele>179.2</ele>
      </trkpt>
      <trkpt lat="44.40339" lon="4.13595">
        <ele>179.2</ele>
      </trkpt>
      <trkpt lat="44.40341" lon="4.13604">
        <ele>178.9</ele>
      </trkpt>
      <trkpt lat="44.40346" lon="4.13634">
        <ele>178.9</ele>
      </trkpt>
      <trkpt lat="44.40352" lon="4.13654">
        <ele>179.4</ele>
      </trkpt>
      <trkpt lat="44.40358" lon="4.13671">
        <ele>181.5</ele>
      </trkpt>
      <trkpt lat="44.40361" lon="4.13679">
        <ele>181.5</ele>
      </trkpt>
      <trkpt lat="44.40371" lon="4.13695">
        <ele>181.4</ele>
      </trkpt>
      <trkpt lat="44.40372" lon="4.13697">
        <ele>181.5</ele>
      </trkpt>
      <trkpt lat="44.40378" lon="4.13727">
        <ele>182.2</ele>
      </trkpt>
      <trkpt lat="44.40407" lon="4.13795">
        <ele>188.9</ele>
      </trkpt>
      <trkpt lat="44.40413" lon="4.13817">
        <ele>188.9</ele>
      </trkpt>
      <trkpt lat="44.40419" lon="4.13856">
        <ele>183.7</ele>
      </trkpt>
      <trkpt lat="44.4042" lon="4.13889">
        <ele>182.9</ele>
      </trkpt>
      <trkpt lat="44.40369" lon="4.13899">
        <ele>198.6</ele>
      </trkpt>
      <trkpt lat="44.40361" lon="4.13918">
        <ele>199</ele>
      </trkpt>
      <trkpt lat="44.40331" lon="4.13974">
        <ele>215.3</ele>
      </trkpt>
      <trkpt lat="44.40316" lon="4.13997">
        <ele>213.6</ele>
      </trkpt>
      <trkpt lat="44.40299" lon="4.14008">
        <ele>213.2</ele>
      </trkpt>
      <trkpt lat="44.40272" lon="4.14058">
        <ele>215.9</ele>
      </trkpt>
      <trkpt lat="44.40251" lon="4.1412">
        <ele>207.9</ele>
      </trkpt>
      <trkpt lat="44.40224" lon="4.14157">
        <ele>227.8</ele>
      </trkpt>
      <trkpt lat="44.40198" lon="4.14177">
        <ele>226.7</ele>
      </trkpt>
      <trkpt lat="44.40175" lon="4.14206">
        <ele>226.8</ele>
      </trkpt>
      <trkpt lat="44.40157" lon="4.14219">
        <ele>248</ele>
      </trkpt>
      <trkpt lat="44.40128" lon="4.14253">
        <ele>240.9</ele>
      </trkpt>
      <trkpt lat="44.40111" lon="4.14269">
        <ele>245.4</ele>
      </trkpt>
      <trkpt lat="44.4011" lon="4.14284">
        <ele>243.5</ele>
      </trkpt>
      <trkpt lat="44.40096" lon="4.14339">
        <ele>242</ele>
      </trkpt>
      <trkpt lat="44.40078" lon="4.14433">
        <ele>252.4</ele>
      </trkpt>
      <trkpt lat="44.40086" lon="4.14454">
        <ele>231</ele>
      </trkpt>
      <trkpt lat="44.4009" lon="4.1447">
        <ele>230.3</ele>
      </trkpt>
      <trkpt lat="44.40088" lon="4.14485">
        <ele>232.6</ele>
      </trkpt>
      <trkpt lat="44.4009" lon="4.14498">
        <ele>235.3</ele>
      </trkpt>
      <trkpt lat="44.40086" lon="4.14518">
        <ele>230.5</ele>
      </trkpt>
      <trkpt lat="44.40082" lon="4.14554">
        <ele>250.5</ele>
      </trkpt>
      <trkpt lat="44.40076" lon="4.14573">
        <ele>246.7</ele>
      </trkpt>
      <trkpt lat="44.40068" lon="4.14589">
        <ele>248.7</ele>
      </trkpt>
      <trkpt lat="44.40065" lon="4.14605">
        <ele>252.3</ele>
      </trkpt>
      <trkpt lat="44.40061" lon="4.14617">
        <ele>254.3</ele>
      </trkpt>
      <trkpt lat="44.40073" lon="4.14675">
        <ele>250.4</ele>
      </trkpt>
      <trkpt lat="44.40081" lon="4.14697">
        <ele>254</ele>
      </trkpt>
      <trkpt lat="44.40097" lon="4.14722">
        <ele>241.8</ele>
      </trkpt>
      <trkpt lat="44.40111" lon="4.14746">
        <ele>242.2</ele>
      </trkpt>
      <trkpt lat="44.40112" lon="4.1475">
        <ele>242.1</ele>
      </trkpt>
      <trkpt lat="44.40113" lon="4.14758">
        <ele>249.7</ele>
      </trkpt>
      <trkpt lat="44.40116" lon="4.14765">
        <ele>249.3</ele>
      </trkpt>
      <trkpt lat="44.40133" lon="4.14786">
        <ele>248.5</ele>
      </trkpt>
      <trkpt lat="44.40141" lon="4.14807">
        <ele>249.7</ele>
      </trkpt>
      <trkpt lat="44.40152" lon="4.14826">
        <ele>251.1</ele>
      </trkpt>
      <trkpt lat="44.40162" lon="4.14854">
        <ele>254.9</ele>
      </trkpt>
      <trkpt lat="44.4017" lon="4.14884">
        <ele>257.4</ele>
      </trkpt>
      <trkpt lat="44.4015" lon="4.14914">
        <ele>257.5</ele>
      </trkpt>
      <trkpt lat="44.40143" lon="4.14917">
        <ele>258.4</ele>
      </trkpt>
      <trkpt lat="44.40145" lon="4.14926">
        <ele>258.5</ele>
      </trkpt>
      <trkpt lat="44.40136" lon="4.14954">
        <ele>258.4</ele>
      </trkpt>
      <trkpt lat="44.40136" lon="4.1496">
        <ele>258.5</ele>
      </trkpt>
      <trkpt lat="44.40134" lon="4.14981">
        <ele>258.7</ele>
      </trkpt>
      <trkpt lat="44.40119" lon="4.15046">
        <ele>258.5</ele>
      </trkpt>
      <trkpt lat="44.4009" lon="4.15261">
        <ele>254.8</ele>
      </trkpt>
      <trkpt lat="44.40085" lon="4.15297">
        <ele>255.8</ele>
      </trkpt>
      <trkpt lat="44.40077" lon="4.155">
        <ele>250.5</ele>
      </trkpt>
      <trkpt lat="44.40073" lon="4.15519">
        <ele>249.7</ele>
      </trkpt>
      <trkpt lat="44.40063" lon="4.15579">
        <ele>249.7</ele>
      </trkpt>
      <trkpt lat="44.40063" lon="4.15628">
        <ele>249.6</ele>
      </trkpt>
      <trkpt lat="44.40064" lon="4.15634">
        <ele>249.7</ele>
      </trkpt>
      <trkpt lat="44.40098" lon="4.15807">
        <ele>253.5</ele>
      </trkpt>
      <trkpt lat="44.4011" lon="4.15835">
        <ele>252.5</ele>
      </trkpt>
      <trkpt lat="44.40122" lon="4.15879">
        <ele>253.1</ele>
      </trkpt>
      <trkpt lat="44.40124" lon="4.15886">
        <ele>253.1</ele>
      </trkpt>
      <trkpt lat="44.4015" lon="4.16">
        <ele>251.6</ele>
      </trkpt>
      <trkpt lat="44.40168" lon="4.16064">
        <ele>251.6</ele>
      </trkpt>
      <trkpt lat="44.40165" lon="4.16096">
        <ele>249.2</ele>
      </trkpt>
      <trkpt lat="44.40161" lon="4.16108">
        <ele>248.8</ele>
      </trkpt>
      <trkpt lat="44.40143" lon="4.16156">
        <ele>248.3</ele>
      </trkpt>
      <trkpt lat="44.40139" lon="4.16167">
        <ele>247.3</ele>
      </trkpt>
      <trkpt lat="44.40119" lon="4.1627">
        <ele>245.2</ele>
      </trkpt>
      <trkpt lat="44.40117" lon="4.16286">
        <ele>245.1</ele>
      </trkpt>
      <trkpt lat="44.40124" lon="4.16334">
        <ele>244</ele>
      </trkpt>
      <trkpt lat="44.40129" lon="4.16372">
        <ele>243.7</ele>
      </trkpt>
      <trkpt lat="44.40129" lon="4.16392">
        <ele>243.6</ele>
      </trkpt>
      <trkpt lat="44.40117" lon="4.16398">
        <ele>243.7</ele>
      </trkpt>
      <trkpt lat="44.40116" lon="4.16404">
        <ele>243.6</ele>
      </trkpt>
      <trkpt lat="44.40125" lon="4.16414">
        <ele>243.5</ele>
      </trkpt>
      <trkpt lat="44.4013" lon="4.16424">
        <ele>242.9</ele>
      </trkpt>
      <trkpt lat="44.40128" lon="4.16437">
        <ele>243</ele>
      </trkpt>
      <trkpt lat="44.40124" lon="4.16458">
        <ele>243</ele>
      </trkpt>
      <trkpt lat="44.40121" lon="4.16515">
        <ele>244</ele>
      </trkpt>
      <trkpt lat="44.40121" lon="4.16526">
        <ele>244.1</ele>
      </trkpt>
      <trkpt lat="44.40123" lon="4.16535">
        <ele>244.2</ele>
      </trkpt>
      <trkpt lat="44.40126" lon="4.16543">
        <ele>244.3</ele>
      </trkpt>
      <trkpt lat="44.4014" lon="4.16571">
        <ele>244.3</ele>
      </trkpt>
      <trkpt lat="44.40151" lon="4.16591">
        <ele>245.1</ele>
      </trkpt>
      <trkpt lat="44.40162" lon="4.16616">
        <ele>245.5</ele>
      </trkpt>
      <trkpt lat="44.40177" lon="4.16667">
        <ele>240.4</ele>
      </trkpt>
      <trkpt lat="44.40178" lon="4.16701">
        <ele>236.1</ele>
      </trkpt>
      <trkpt lat="44.40184" lon="4.16744">
        <ele>237.9</ele>
      </trkpt>
      <trkpt lat="44.4019" lon="4.1676">
        <ele>237.6</ele>
      </trkpt>
      <trkpt lat="44.40196" lon="4.1683">
        <ele>237.7</ele>
      </trkpt>
      <trkpt lat="44.40203" lon="4.16855">
        <ele>237.6</ele>
      </trkpt>
      <trkpt lat="44.40199" lon="4.16898">
        <ele>237.6</ele>
      </trkpt>
      <trkpt lat="44.40185" lon="4.16995">
        <ele>229.7</ele>
      </trkpt>
      <trkpt lat="44.40182" lon="4.17007">
        <ele>223.2</ele>
      </trkpt>
      <trkpt lat="44.40182" lon="4.17018">
        <ele>221.1</ele>
      </trkpt>
      <trkpt lat="44.40174" lon="4.17037">
        <ele>218.8</ele>
      </trkpt>
      <trkpt lat="44.4017" lon="4.17055">
        <ele>217.9</ele>
      </trkpt>
      <trkpt lat="44.40167" lon="4.1706">
        <ele>218.1</ele>
      </trkpt>
      <trkpt lat="44.40145" lon="4.17084">
        <ele>221.4</ele>
      </trkpt>
      <trkpt lat="44.40132" lon="4.17109">
        <ele>220.9</ele>
      </trkpt>
      <trkpt lat="44.40119" lon="4.1712">
        <ele>221.2</ele>
      </trkpt>
      <trkpt lat="44.40112" lon="4.1713">
        <ele>221.2</ele>
      </trkpt>
      <trkpt lat="44.4011" lon="4.17142">
        <ele>221.1</ele>
      </trkpt>
      <trkpt lat="44.4011" lon="4.17146">
        <ele>221</ele>
      </trkpt>
      <trkpt lat="44.40082" lon="4.17154">
        <ele>226.3</ele>
      </trkpt>
      <trkpt lat="44.4004" lon="4.17151">
        <ele>228.1</ele>
      </trkpt>
      <trkpt lat="44.39997" lon="4.1714">
        <ele>232.1</ele>
      </trkpt>
      <trkpt lat="44.39971" lon="4.17143">
        <ele>233</ele>
      </trkpt>
      <trkpt lat="44.39958" lon="4.17182">
        <ele>236.4</ele>
      </trkpt>
      <trkpt lat="44.3994" lon="4.17197">
        <ele>237.3</ele>
      </trkpt>
      <trkpt lat="44.39909" lon="4.17236">
        <ele>239.3</ele>
      </trkpt>
      <trkpt lat="44.39897" lon="4.17249">
        <ele>239.4</ele>
      </trkpt>
      <trkpt lat="44.39889" lon="4.17272">
        <ele>239.2</ele>
      </trkpt>
      <trkpt lat="44.3989" lon="4.17298">
        <ele>239.1</ele>
      </trkpt>
      <trkpt lat="44.39888" lon="4.17322">
        <ele>239</ele>
      </trkpt>
      <trkpt lat="44.39875" lon="4.17376">
        <ele>237.5</ele>
      </trkpt>
      <trkpt lat="44.39864" lon="4.17402">
        <ele>237.4</ele>
      </trkpt>
      <trkpt lat="44.39829" lon="4.17535">
        <ele>229.6</ele>
      </trkpt>
      <trkpt lat="44.39799" lon="4.17621">
        <ele>227.2</ele>
      </trkpt>
      <trkpt lat="44.39786" lon="4.17667">
        <ele>226.2</ele>
      </trkpt>
      <trkpt lat="44.39756" lon="4.1775">
        <ele>223.5</ele>
      </trkpt>
      <trkpt lat="44.39743" lon="4.17748">
        <ele>223</ele>
      </trkpt>
      <trkpt lat="44.39719" lon="4.1781">
        <ele>221.1</ele>
      </trkpt>
      <trkpt lat="44.39687" lon="4.17853">
        <ele>218</ele>
      </trkpt>
      <trkpt lat="44.39679" lon="4.17873">
        <ele>217</ele>
      </trkpt>
      <trkpt lat="44.39673" lon="4.17877">
        <ele>216.7</ele>
      </trkpt>
      <trkpt lat="44.3966" lon="4.17898">
        <ele>212.6</ele>
      </trkpt>
      <trkpt lat="44.39661" lon="4.17918">
        <ele>210.8</ele>
      </trkpt>
      <trkpt lat="44.39671" lon="4.17934">
        <ele>213.5</ele>
      </trkpt>
      <trkpt lat="44.39665" lon="4.17939">
        <ele>210.5</ele>
      </trkpt>
      <trkpt lat="44.3965" lon="4.1794">
        <ele>210.3</ele>
      </trkpt>
      <trkpt lat="44.39626" lon="4.17932">
        <ele>210</ele>
      </trkpt>
      <trkpt lat="44.39628" lon="4.17966">
        <ele>209.8</ele>
      </trkpt>
      <trkpt lat="44.39617" lon="4.18025">
        <ele>210.5</ele>
      </trkpt>
      <trkpt lat="44.39607" lon="4.18047">
        <ele>210.7</ele>
      </trkpt>
      <trkpt lat="44.39593" lon="4.18056">
        <ele>210.5</ele>
      </trkpt>
      <trkpt lat="44.39569" lon="4.18066">
        <ele>208.7</ele>
      </trkpt>
      <trkpt lat="44.39545" lon="4.18093">
        <ele>209.4</ele>
      </trkpt>
      <trkpt lat="44.39538" lon="4.18105">
        <ele>209.3</ele>
      </trkpt>
      <trkpt lat="44.39528" lon="4.18146">
        <ele>208.8</ele>
      </trkpt>
      <trkpt lat="44.3949" lon="4.18221">
        <ele>206.4</ele>
        <extensions>
          <visugpx:TrkExtension xmlns:visugpx="https://www.visugpx.com/editgpx/">
            <visugpx:node>12</visugpx:node>
            </visugpx:TrkExtension>
        </extensions>
      </trkpt>
      <trkpt lat="44.39477" lon="4.18246">
        <ele>206.1</ele>
      </trkpt>
      <trkpt lat="44.39447" lon="4.18341">
        <ele>203.2</ele>
      </trkpt>
      <trkpt lat="44.39438" lon="4.18351">
        <ele>202.9</ele>
      </trkpt>
      <trkpt lat="44.3943" lon="4.18363">
        <ele>202.5</ele>
      </trkpt>
      <trkpt lat="44.39426" lon="4.18393">
        <ele>200.9</ele>
      </trkpt>
      <trkpt lat="44.39418" lon="4.18507">
        <ele>195.5</ele>
      </trkpt>
      <trkpt lat="44.39406" lon="4.18552">
        <ele>195.8</ele>
      </trkpt>
      <trkpt lat="44.39406" lon="4.18571">
        <ele>195.6</ele>
      </trkpt>
      <trkpt lat="44.39412" lon="4.18615">
        <ele>195.2</ele>
      </trkpt>
      <trkpt lat="44.39403" lon="4.18662">
        <ele>195.1</ele>
      </trkpt>
      <trkpt lat="44.39401" lon="4.18679">
        <ele>195</ele>
      </trkpt>
      <trkpt lat="44.39406" lon="4.18706">
        <ele>195.1</ele>
      </trkpt>
      <trkpt lat="44.39407" lon="4.18722">
        <ele>195.4</ele>
      </trkpt>
      <trkpt lat="44.39403" lon="4.18745">
        <ele>195.9</ele>
      </trkpt>
      <trkpt lat="44.39382" lon="4.18799">
        <ele>195.7</ele>
      </trkpt>
      <trkpt lat="44.39376" lon="4.18842">
        <ele>195.8</ele>
      </trkpt>
      <trkpt lat="44.39363" lon="4.18973">
        <ele>193.1</ele>
      </trkpt>
      <trkpt lat="44.39365" lon="4.19031">
        <ele>193.1</ele>
      </trkpt>
      <trkpt lat="44.39357" lon="4.19104">
        <ele>191.9</ele>
      </trkpt>
      <trkpt lat="44.3935" lon="4.19128">
        <ele>191.9</ele>
      </trkpt>
      <trkpt lat="44.39339" lon="4.19146">
        <ele>191.4</ele>
      </trkpt>
      <trkpt lat="44.39322" lon="4.1915">
        <ele>189.9</ele>
      </trkpt>
      <trkpt lat="44.39299" lon="4.19147">
        <ele>190.1</ele>
      </trkpt>
      <trkpt lat="44.39256" lon="4.1913">
        <ele>190.2</ele>
      </trkpt>
      <trkpt lat="44.39265" lon="4.19128">
        <ele>190.1</ele>
      </trkpt>
      <trkpt lat="44.39319" lon="4.19132">
        <ele>189.7</ele>
      </trkpt>
      <trkpt lat="44.39328" lon="4.19121">
        <ele>189.4</ele>
        <extensions>
          <visugpx:TrkExtension xmlns:visugpx="https://www.visugpx.com/editgpx/">
            <visugpx:node>13</visugpx:node>
            </visugpx:TrkExtension>
        </extensions>
      </trkpt>
      <trkpt lat="44.39328" lon="4.19121">
        <ele>189.4</ele>
      </trkpt>
      <trkpt lat="44.39319" lon="4.19132">
        <ele>189.7</ele>
      </trkpt>
      <trkpt lat="44.39265" lon="4.19128">
        <ele>190.1</ele>
      </trkpt>
      <trkpt lat="44.39256" lon="4.1913">
        <ele>190.2</ele>
      </trkpt>
      <trkpt lat="44.3924" lon="4.1912">
        <ele>190.4</ele>
      </trkpt>
      <trkpt lat="44.39197" lon="4.19062">
        <ele>186.5</ele>
      </trkpt>
      <trkpt lat="44.39186" lon="4.19052">
        <ele>186.2</ele>
      </trkpt>
      <trkpt lat="44.39176" lon="4.19051">
        <ele>186.2</ele>
      </trkpt>
      <trkpt lat="44.3916" lon="4.19059">
        <ele>184.9</ele>
      </trkpt>
      <trkpt lat="44.39151" lon="4.19073">
        <ele>185.4</ele>
      </trkpt>
      <trkpt lat="44.39143" lon="4.19092">
        <ele>186.6</ele>
      </trkpt>
      <trkpt lat="44.39135" lon="4.19119">
        <ele>186.5</ele>
      </trkpt>
      <trkpt lat="44.39129" lon="4.19145">
        <ele>186.7</ele>
      </trkpt>
      <trkpt lat="44.39126" lon="4.1919">
        <ele>186.4</ele>
      </trkpt>
      <trkpt lat="44.39134" lon="4.19251">
        <ele>184.7</ele>
      </trkpt>
      <trkpt lat="44.3914" lon="4.19275">
        <ele>184.6</ele>
        <extensions>
          <visugpx:TrkExtension xmlns:visugpx="https://www.visugpx.com/editgpx/">
            <visugpx:node>14</visugpx:node>
            </visugpx:TrkExtension>
        </extensions>
      </trkpt>
      <trkpt lat="44.39155" lon="4.1934">
        <ele>183.5</ele>
      </trkpt>
      <trkpt lat="44.39165" lon="4.19434">
        <ele>178.1</ele>
      </trkpt>
      <trkpt lat="44.39171" lon="4.19504">
        <ele>176.6</ele>
      </trkpt>
      <trkpt lat="44.39167" lon="4.19538">
        <ele>175.2</ele>
      </trkpt>
      <trkpt lat="44.39158" lon="4.19569">
        <ele>175.2</ele>
      </trkpt>
      <trkpt lat="44.39148" lon="4.19594">
        <ele>176.8</ele>
      </trkpt>
      <trkpt lat="44.39146" lon="4.19601">
        <ele>177.2</ele>
      </trkpt>
      <trkpt lat="44.39148" lon="4.19617">
        <ele>177.9</ele>
      </trkpt>
      <trkpt lat="44.39151" lon="4.19622">
        <ele>178</ele>
      </trkpt>
      <trkpt lat="44.3916" lon="4.19629">
        <ele>178.1</ele>
      </trkpt>
      <trkpt lat="44.39165" lon="4.1963">
        <ele>178.1</ele>
      </trkpt>
      <trkpt lat="44.39168" lon="4.1963">
        <ele>175.3</ele>
      </trkpt>
      <trkpt lat="44.392" lon="4.19631">
        <ele>174.7</ele>
      </trkpt>
      <trkpt lat="44.39218" lon="4.19636">
        <ele>174.4</ele>
      </trkpt>
      <trkpt lat="44.39276" lon="4.19664">
        <ele>170.8</ele>
      </trkpt>
      <trkpt lat="44.39341" lon="4.19698">
        <ele>164.4</ele>
      </trkpt>
      <trkpt lat="44.39349" lon="4.19704">
        <ele>164.3</ele>
      </trkpt>
      <trkpt lat="44.39366" lon="4.19728">
        <ele>164.2</ele>
      </trkpt>
      <trkpt lat="44.3939" lon="4.19784">
        <ele>165.3</ele>
      </trkpt>
      <trkpt lat="44.39392" lon="4.19794">
        <ele>165.5</ele>
      </trkpt>
      <trkpt lat="44.39394" lon="4.19812">
        <ele>165.4</ele>
      </trkpt>
      <trkpt lat="44.39389" lon="4.19844">
        <ele>169.1</ele>
      </trkpt>
      <trkpt lat="44.39388" lon="4.19852">
        <ele>169.8</ele>
        <extensions>
          <visugpx:TrkExtension xmlns:visugpx="https://www.visugpx.com/editgpx/">
            <visugpx:node>15</visugpx:node>
            </visugpx:TrkExtension>
        </extensions>
      </trkpt>
      <trkpt lat="44.39387" lon="4.19867">
        <ele>170.8</ele>
      </trkpt>
      <trkpt lat="44.39388" lon="4.19874">
        <ele>171</ele>
      </trkpt>
      <trkpt lat="44.39392" lon="4.19881">
        <ele>171</ele>
      </trkpt>
      <trkpt lat="44.39396" lon="4.19884">
        <ele>170.8</ele>
      </trkpt>
      <trkpt lat="44.394" lon="4.19885">
        <ele>170.6</ele>
      </trkpt>
      <trkpt lat="44.39406" lon="4.19884">
        <ele>170.2</ele>
      </trkpt>
      <trkpt lat="44.39412" lon="4.19882">
        <ele>169.9</ele>
      </trkpt>
      <trkpt lat="44.39415" lon="4.1988">
        <ele>169.7</ele>
      </trkpt>
      <trkpt lat="44.39424" lon="4.19877">
        <ele>158.4</ele>
      </trkpt>
      <trkpt lat="44.39429" lon="4.19878">
        <ele>158.2</ele>
      </trkpt>
      <trkpt lat="44.39437" lon="4.19879">
        <ele>157.5</ele>
      </trkpt>
      <trkpt lat="44.39445" lon="4.19885">
        <ele>157.1</ele>
      </trkpt>
      <trkpt lat="44.39463" lon="4.19911">
        <ele>155.4</ele>
      </trkpt>
      <trkpt lat="44.39508" lon="4.20009">
        <ele>156</ele>
      </trkpt>
      <trkpt lat="44.39519" lon="4.20048">
        <ele>154.8</ele>
      </trkpt>
      <trkpt lat="44.39529" lon="4.20093">
        <ele>160.8</ele>
      </trkpt>
      <trkpt lat="44.39537" lon="4.20117">
        <ele>159.7</ele>
      </trkpt>
      <trkpt lat="44.39567" lon="4.20194">
        <ele>161.9</ele>
      </trkpt>
      <trkpt lat="44.39586" lon="4.2023">
        <ele>147.9</ele>
      </trkpt>
      <trkpt lat="44.39599" lon="4.20269">
        <ele>149.2</ele>
      </trkpt>
      <trkpt lat="44.39604" lon="4.20297">
        <ele>148.5</ele>
      </trkpt>
      <trkpt lat="44.39604" lon="4.2035">
        <ele>152.5</ele>
      </trkpt>
      <trkpt lat="44.39612" lon="4.20434">
        <ele>150.7</ele>
      </trkpt>
      <trkpt lat="44.3962" lon="4.20465">
        <ele>148.7</ele>
      </trkpt>
      <trkpt lat="44.39633" lon="4.20492">
        <ele>146.5</ele>
      </trkpt>
      <trkpt lat="44.3964" lon="4.20498">
        <ele>145.1</ele>
      </trkpt>
      <trkpt lat="44.39647" lon="4.20505">
        <ele>143.4</ele>
      </trkpt>
      <trkpt lat="44.3965" lon="4.20512">
        <ele>143.3</ele>
      </trkpt>
      <trkpt lat="44.39653" lon="4.20523">
        <ele>143.8</ele>
      </trkpt>
      <trkpt lat="44.39653" lon="4.20531">
        <ele>144.2</ele>
      </trkpt>
      <trkpt lat="44.39652" lon="4.20542">
        <ele>144.5</ele>
      </trkpt>
      <trkpt lat="44.3965" lon="4.20549">
        <ele>144.6</ele>
      </trkpt>
      <trkpt lat="44.39644" lon="4.20559">
        <ele>144.8</ele>
      </trkpt>
      <trkpt lat="44.39623" lon="4.20587">
        <ele>144.3</ele>
      </trkpt>
      <trkpt lat="44.39616" lon="4.20603">
        <ele>144.6</ele>
      </trkpt>
      <trkpt lat="44.39611" lon="4.20616">
        <ele>144.4</ele>
      </trkpt>
      <trkpt lat="44.39608" lon="4.20626">
        <ele>144</ele>
      </trkpt>
      <trkpt lat="44.396" lon="4.20652">
        <ele>143.5</ele>
      </trkpt>
      <trkpt lat="44.39595" lon="4.2068">
        <ele>141.9</ele>
      </trkpt>
      <trkpt lat="44.39597" lon="4.20755">
        <ele>141</ele>
      </trkpt>
      <trkpt lat="44.39597" lon="4.20762">
        <ele>140.8</ele>
      </trkpt>
      <trkpt lat="44.39595" lon="4.2077">
        <ele>140.7</ele>
      </trkpt>
      <trkpt lat="44.39593" lon="4.20774">
        <ele>140.6</ele>
      </trkpt>
      <trkpt lat="44.39542" lon="4.20812">
        <ele>141.8</ele>
      </trkpt>
      <trkpt lat="44.39529" lon="4.20825">
        <ele>141.1</ele>
      </trkpt>
      <trkpt lat="44.39455" lon="4.20916">
        <ele>136.1</ele>
      </trkpt>
      <trkpt lat="44.39446" lon="4.20934">
        <ele>131.1</ele>
      </trkpt>
      <trkpt lat="44.3944" lon="4.20952">
        <ele>130.1</ele>
      </trkpt>
      <trkpt lat="44.39422" lon="4.2102">
        <ele>123.3</ele>
      </trkpt>
      <trkpt lat="44.39351" lon="4.21261">
        <ele>117.9</ele>
      </trkpt>
      <trkpt lat="44.39343" lon="4.21292">
        <ele>117.5</ele>
      </trkpt>
      <trkpt lat="44.39342" lon="4.21307">
        <ele>117.2</ele>
      </trkpt>
      <trkpt lat="44.39337" lon="4.214">
        <ele>116.5</ele>
      </trkpt>
      <trkpt lat="44.39323" lon="4.21494">
        <ele>116.7</ele>
      </trkpt>
      <trkpt lat="44.39314" lon="4.21579">
        <ele>116</ele>
      </trkpt>
      <trkpt lat="44.39313" lon="4.21587">
        <ele>116.1</ele>
        <extensions>
          <visugpx:TrkExtension xmlns:visugpx="https://www.visugpx.com/editgpx/">
            <visugpx:node>16</visugpx:node>
            </visugpx:TrkExtension>
        </extensions>
      </trkpt>
      <trkpt lat="44.39305" lon="4.2163">
        <ele>116.3</ele>
      </trkpt>
      <trkpt lat="44.39298" lon="4.21724">
        <ele>117.3</ele>
      </trkpt>
      <trkpt lat="44.39297" lon="4.21737">
        <ele>117.3</ele>
      </trkpt>
      <trkpt lat="44.39296" lon="4.21749">
        <ele>117.3</ele>
      </trkpt>
      <trkpt lat="44.39291" lon="4.21773">
        <ele>117.5</ele>
      </trkpt>
      <trkpt lat="44.39283" lon="4.21799">
        <ele>117.5</ele>
      </trkpt>
      <trkpt lat="44.39274" lon="4.21823">
        <ele>117.4</ele>
      </trkpt>
      <trkpt lat="44.39273" lon="4.21829">
        <ele>117.4</ele>
      </trkpt>
      <trkpt lat="44.39259" lon="4.21873">
        <ele>117.2</ele>
      </trkpt>
      <trkpt lat="44.3924" lon="4.21931">
        <ele>116.3</ele>
      </trkpt>
      <trkpt lat="44.3923" lon="4.21958">
        <ele>116.6</ele>
      </trkpt>
      <trkpt lat="44.3922" lon="4.21974">
        <ele>116.8</ele>
      </trkpt>
      <trkpt lat="44.39213" lon="4.2198">
        <ele>116.8</ele>
      </trkpt>
      <trkpt lat="44.39199" lon="4.21981">
        <ele>116.7</ele>
      </trkpt>
      <trkpt lat="44.39183" lon="4.21979">
        <ele>116.6</ele>
      </trkpt>
      <trkpt lat="44.39169" lon="4.21979">
        <ele>116.6</ele>
      </trkpt>
      <trkpt lat="44.39162" lon="4.21982">
        <ele>116.6</ele>
      </trkpt>
      <trkpt lat="44.39153" lon="4.21987">
        <ele>116.6</ele>
      </trkpt>
      <trkpt lat="44.39142" lon="4.21997">
        <ele>116.6</ele>
      </trkpt>
      <trkpt lat="44.39111" lon="4.22032">
        <ele>117.1</ele>
      </trkpt>
      <trkpt lat="44.39091" lon="4.22059">
        <ele>117.3</ele>
      </trkpt>
      <trkpt lat="44.39085" lon="4.2207">
        <ele>117.6</ele>
      </trkpt>
      <trkpt lat="44.3906" lon="4.22123">
        <ele>116.9</ele>
      </trkpt>
      <trkpt lat="44.39052" lon="4.22136">
        <ele>116.8</ele>
      </trkpt>
      <trkpt lat="44.39045" lon="4.22143">
        <ele>116.7</ele>
      </trkpt>
      <trkpt lat="44.38971" lon="4.22205">
        <ele>115.6</ele>
      </trkpt>
      <trkpt lat="44.38962" lon="4.22214">
        <ele>115.5</ele>
      </trkpt>
      <trkpt lat="44.38906" lon="4.22324">
        <ele>116.7</ele>
      </trkpt>
      <trkpt lat="44.38874" lon="4.22382">
        <ele>116.8</ele>
      </trkpt>
      <trkpt lat="44.38804" lon="4.22487">
        <ele>116</ele>
      </trkpt>
      <trkpt lat="44.38791" lon="4.22508">
        <ele>115.8</ele>
      </trkpt>
      <trkpt lat="44.38774" lon="4.22539">
        <ele>115.7</ele>
      </trkpt>
      <trkpt lat="44.38758" lon="4.2257">
        <ele>115.4</ele>
      </trkpt>
      <trkpt lat="44.38748" lon="4.2259">
        <ele>115.1</ele>
      </trkpt>
      <trkpt lat="44.38743" lon="4.22605">
        <ele>115.1</ele>
      </trkpt>
      <trkpt lat="44.38743" lon="4.2261">
        <ele>115.1</ele>
      </trkpt>
      <trkpt lat="44.38742" lon="4.22617">
        <ele>115.2</ele>
      </trkpt>
      <trkpt lat="44.38746" lon="4.22639">
        <ele>115.2</ele>
      </trkpt>
      <trkpt lat="44.38754" lon="4.22659">
        <ele>115</ele>
      </trkpt>
      <trkpt lat="44.3882" lon="4.22765">
        <ele>114.3</ele>
      </trkpt>
      <trkpt lat="44.38849" lon="4.22806">
        <ele>115.5</ele>
      </trkpt>
      <trkpt lat="44.38935" lon="4.22921">
        <ele>116.6</ele>
      </trkpt>
      <trkpt lat="44.38943" lon="4.22936">
        <ele>116.4</ele>
      </trkpt>
      <trkpt lat="44.38946" lon="4.22942">
        <ele>116.3</ele>
      </trkpt>
      <trkpt lat="44.38955" lon="4.22964">
        <ele>116.3</ele>
      </trkpt>
      <trkpt lat="44.38961" lon="4.22977">
        <ele>116.3</ele>
      </trkpt>
      <trkpt lat="44.38967" lon="4.23001">
        <ele>116.7</ele>
      </trkpt>
      <trkpt lat="44.3897" lon="4.23038">
        <ele>117</ele>
      </trkpt>
      <trkpt lat="44.3897" lon="4.23134">
        <ele>116.8</ele>
      </trkpt>
      <trkpt lat="44.38972" lon="4.23263">
        <ele>116.4</ele>
      </trkpt>
      <trkpt lat="44.38972" lon="4.23275">
        <ele>116.4</ele>
      </trkpt>
      <trkpt lat="44.3897" lon="4.23299">
        <ele>116.4</ele>
      </trkpt>
      <trkpt lat="44.38969" lon="4.23311">
        <ele>116.4</ele>
      </trkpt>
      <trkpt lat="44.38964" lon="4.23363">
        <ele>116.3</ele>
      </trkpt>
      <trkpt lat="44.38963" lon="4.23375">
        <ele>116.3</ele>
      </trkpt>
      <trkpt lat="44.38999" lon="4.23383">
        <ele>116.5</ele>
      </trkpt>
      <trkpt lat="44.39109" lon="4.23398">
        <ele>113.9</ele>
      </trkpt>
      <trkpt lat="44.39213" lon="4.23415">
        <ele>112.1</ele>
      </trkpt>
      <trkpt lat="44.39224" lon="4.23416">
        <ele>112.4</ele>
      </trkpt>
      <trkpt lat="44.39248" lon="4.23417">
        <ele>112.9</ele>
      </trkpt>
      <trkpt lat="44.39252" lon="4.23415">
        <ele>113.6</ele>
      </trkpt>
      <trkpt lat="44.39255" lon="4.23414">
        <ele>114.1</ele>
      </trkpt>
      <trkpt lat="44.39265" lon="4.23408">
        <ele>115.8</ele>
      </trkpt>
      <trkpt lat="44.39283" lon="4.2339">
        <ele>117.7</ele>
      </trkpt>
      <trkpt lat="44.39316" lon="4.23353">
        <ele>120.4</ele>
      </trkpt>
      <trkpt lat="44.39318" lon="4.23356">
        <ele>120.4</ele>
        <extensions>
          <visugpx:TrkExtension xmlns:visugpx="https://www.visugpx.com/editgpx/">
            <visugpx:node>17</visugpx:node>
            </visugpx:TrkExtension>
        </extensions>
      </trkpt>
      <trkpt lat="44.39324" lon="4.23366">
        <ele>120</ele>
      </trkpt>
      <trkpt lat="44.39333" lon="4.23371">
        <ele>120</ele>
      </trkpt>
      <trkpt lat="44.39339" lon="4.23373">
        <ele>122.1</ele>
      </trkpt>
      <trkpt lat="44.39364" lon="4.23375">
        <ele>122</ele>
      </trkpt>
      <trkpt lat="44.39374" lon="4.23382">
        <ele>121.9</ele>
      </trkpt>
      <trkpt lat="44.39381" lon="4.23394">
        <ele>121.7</ele>
      </trkpt>
      <trkpt lat="44.39393" lon="4.23478">
        <ele>119.4</ele>
      </trkpt>
      <trkpt lat="44.39402" lon="4.23517">
        <ele>118.8</ele>
      </trkpt>
      <trkpt lat="44.39405" lon="4.23537">
        <ele>118.8</ele>
      </trkpt>
      <trkpt lat="44.39406" lon="4.23563">
        <ele>118.9</ele>
      </trkpt>
      <trkpt lat="44.39407" lon="4.2364">
        <ele>119.2</ele>
      </trkpt>
      <trkpt lat="44.3941" lon="4.23797">
        <ele>118.4</ele>
      </trkpt>
      <trkpt lat="44.39413" lon="4.23917">
        <ele>117.7</ele>
      </trkpt>
      <trkpt lat="44.39414" lon="4.23937">
        <ele>116.7</ele>
      </trkpt>
      <trkpt lat="44.39419" lon="4.23964">
        <ele>116</ele>
      </trkpt>
      <trkpt lat="44.39441" lon="4.24052">
        <ele>115.4</ele>
      </trkpt>
      <trkpt lat="44.39447" lon="4.24076">
        <ele>115.5</ele>
      </trkpt>
      <trkpt lat="44.39485" lon="4.24223">
        <ele>113.9</ele>
      </trkpt>
      <trkpt lat="44.39491" lon="4.24271">
        <ele>112.8</ele>
      </trkpt>
      <trkpt lat="44.39501" lon="4.24465">
        <ele>113.3</ele>
      </trkpt>
      <trkpt lat="44.39503" lon="4.24508">
        <ele>113.9</ele>
      </trkpt>
      <trkpt lat="44.39707" lon="4.24841">
        <ele>112.3</ele>
      </trkpt>
      <trkpt lat="44.39859" lon="4.25064">
        <ele>117.1</ele>
      </trkpt>
      <trkpt lat="44.39884" lon="4.25098">
        <ele>115.2</ele>
      </trkpt>
      <trkpt lat="44.3991" lon="4.25121">
        <ele>115.2</ele>
      </trkpt>
      <trkpt lat="44.39938" lon="4.25135">
        <ele>115.2</ele>
      </trkpt>
      <trkpt lat="44.39977" lon="4.25147">
        <ele>114.8</ele>
      </trkpt>
      <trkpt lat="44.40011" lon="4.2516">
        <ele>115.4</ele>
      </trkpt>
      <trkpt lat="44.40073" lon="4.25184">
        <ele>118.6</ele>
      </trkpt>
      <trkpt lat="44.40096" lon="4.25211">
        <ele>120.3</ele>
      </trkpt>
      <trkpt lat="44.40099" lon="4.25214">
        <ele>120.3</ele>
      </trkpt>
      <trkpt lat="44.40109" lon="4.25225">
        <ele>120.2</ele>
      </trkpt>
      <trkpt lat="44.4013" lon="4.25235">
        <ele>120.7</ele>
      </trkpt>
      <trkpt lat="44.40163" lon="4.25238">
        <ele>121.5</ele>
      </trkpt>
      <trkpt lat="44.40253" lon="4.25234">
        <ele>127</ele>
      </trkpt>
      <trkpt lat="44.40263" lon="4.25239">
        <ele>127</ele>
      </trkpt>
      <trkpt lat="44.40265" lon="4.25241">
        <ele>127</ele>
      </trkpt>
      <trkpt lat="44.4028" lon="4.25257">
        <ele>127.9</ele>
      </trkpt>
      <trkpt lat="44.40285" lon="4.25264">
        <ele>128</ele>
      </trkpt>
      <trkpt lat="44.40308" lon="4.25292">
        <ele>128.4</ele>
      </trkpt>
      <trkpt lat="44.4031" lon="4.25295">
        <ele>128.5</ele>
      </trkpt>
      <trkpt lat="44.40325" lon="4.2532">
        <ele>129.2</ele>
      </trkpt>
      <trkpt lat="44.40343" lon="4.25352">
        <ele>129.6</ele>
      </trkpt>
      <trkpt lat="44.40346" lon="4.25356">
        <ele>129.6</ele>
      </trkpt>
      <trkpt lat="44.40463" lon="4.25538">
        <ele>127.6</ele>
      </trkpt>
      <trkpt lat="44.40476" lon="4.25559">
        <ele>127.2</ele>
      </trkpt>
      <trkpt lat="44.40559" lon="4.25692">
        <ele>127</ele>
      </trkpt>
      <trkpt lat="44.40631" lon="4.25805">
        <ele>125.5</ele>
      </trkpt>
      <trkpt lat="44.40673" lon="4.25871">
        <ele>122</ele>
      </trkpt>
      <trkpt lat="44.40692" lon="4.25901">
        <ele>121.1</ele>
      </trkpt>
      <trkpt lat="44.4077" lon="4.26024">
        <ele>118.9</ele>
      </trkpt>
      <trkpt lat="44.408" lon="4.26072">
        <ele>120.2</ele>
      </trkpt>
      <trkpt lat="44.40804" lon="4.26078">
        <ele>120.5</ele>
      </trkpt>
      <trkpt lat="44.40831" lon="4.2611">
        <ele>119</ele>
      </trkpt>
      <trkpt lat="44.40834" lon="4.26113">
        <ele>123.3</ele>
      </trkpt>
      <trkpt lat="44.40867" lon="4.26147">
        <ele>123.2</ele>
      </trkpt>
      <trkpt lat="44.40895" lon="4.26177">
        <ele>120.5</ele>
      </trkpt>
      <trkpt lat="44.41002" lon="4.26277">
        <ele>119.9</ele>
      </trkpt>
      <trkpt lat="44.41009" lon="4.26284">
        <ele>120.3</ele>
      </trkpt>
      <trkpt lat="44.41011" lon="4.26289">
        <ele>120.4</ele>
      </trkpt>
      <trkpt lat="44.41015" lon="4.26301">
        <ele>120.8</ele>
      </trkpt>
      <trkpt lat="44.41014" lon="4.26308">
        <ele>120.9</ele>
      </trkpt>
      <trkpt lat="44.41022" lon="4.26309">
        <ele>121.1</ele>
        <extensions>
          <visugpx:TrkExtension xmlns:visugpx="https://www.visugpx.com/editgpx/">
            <visugpx:node>18</visugpx:node>
            </visugpx:TrkExtension>
        </extensions>
      </trkpt>
      <trkpt lat="44.41014" lon="4.26308">
        <ele>120.9</ele>
      </trkpt>
      <trkpt lat="44.41014" lon="4.26312">
        <ele>121</ele>
      </trkpt>
      <trkpt lat="44.40997" lon="4.26343">
        <ele>120.1</ele>
      </trkpt>
      <trkpt lat="44.40995" lon="4.26371">
        <ele>119.5</ele>
      </trkpt>
      <trkpt lat="44.40996" lon="4.26387">
        <ele>120.1</ele>
      </trkpt>
      <trkpt lat="44.41001" lon="4.26409">
        <ele>125.1</ele>
      </trkpt>
      <trkpt lat="44.41063" lon="4.26549">
        <ele>130.1</ele>
      </trkpt>
      <trkpt lat="44.41074" lon="4.26593">
        <ele>130.1</ele>
      </trkpt>
      <trkpt lat="44.41088" lon="4.26657">
        <ele>133.8</ele>
      </trkpt>
      <trkpt lat="44.4109" lon="4.26694">
        <ele>131.6</ele>
      </trkpt>
      <trkpt lat="44.41092" lon="4.26707">
        <ele>131.1</ele>
      </trkpt>
      <trkpt lat="44.41098" lon="4.26716">
        <ele>130.7</ele>
      </trkpt>
      <trkpt lat="44.41123" lon="4.26743">
        <ele>133.2</ele>
      </trkpt>
      <trkpt lat="44.41128" lon="4.26756">
        <ele>125.9</ele>
      </trkpt>
      <trkpt lat="44.41132" lon="4.26779">
        <ele>125</ele>
      </trkpt>
      <trkpt lat="44.41134" lon="4.2682">
        <ele>122</ele>
      </trkpt>
      <trkpt lat="44.41137" lon="4.26829">
        <ele>122.1</ele>
      </trkpt>
      <trkpt lat="44.41147" lon="4.26849">
        <ele>116.3</ele>
      </trkpt>
      <trkpt lat="44.41153" lon="4.26867">
        <ele>114.6</ele>
      </trkpt>
      <trkpt lat="44.41157" lon="4.2689">
        <ele>112.3</ele>
      </trkpt>
      <trkpt lat="44.41162" lon="4.26899">
        <ele>111.6</ele>
      </trkpt>
      <trkpt lat="44.4117" lon="4.26906">
        <ele>113.6</ele>
      </trkpt>
      <trkpt lat="44.41178" lon="4.26908">
        <ele>114.3</ele>
      </trkpt>
      <trkpt lat="44.41192" lon="4.26907">
        <ele>116.3</ele>
      </trkpt>
      <trkpt lat="44.41221" lon="4.26886">
        <ele>119.3</ele>
      </trkpt>
      <trkpt lat="44.41299" lon="4.26852">
        <ele>121.4</ele>
      </trkpt>
      <trkpt lat="44.41323" lon="4.26825">
        <ele>128.6</ele>
      </trkpt>
      <trkpt lat="44.4133" lon="4.26825">
        <ele>126.9</ele>
      </trkpt>
      <trkpt lat="44.41335" lon="4.26828">
        <ele>123.9</ele>
      </trkpt>
      <trkpt lat="44.41341" lon="4.26836">
        <ele>120.2</ele>
      </trkpt>
      <trkpt lat="44.41349" lon="4.26863">
        <ele>117.3</ele>
      </trkpt>
      <trkpt lat="44.41353" lon="4.26872">
        <ele>116.6</ele>
      </trkpt>
      <trkpt lat="44.41359" lon="4.26877">
        <ele>116.3</ele>
      </trkpt>
      <trkpt lat="44.41363" lon="4.2688">
        <ele>116.1</ele>
      </trkpt>
      <trkpt lat="44.41373" lon="4.26882">
        <ele>115.9</ele>
      </trkpt>
      <trkpt lat="44.41404" lon="4.26877">
        <ele>115.4</ele>
      </trkpt>
      <trkpt lat="44.41418" lon="4.26878">
        <ele>114.1</ele>
      </trkpt>
      <trkpt lat="44.41429" lon="4.26882">
        <ele>114.1</ele>
      </trkpt>
      <trkpt lat="44.41444" lon="4.26896">
        <ele>113.8</ele>
      </trkpt>
      <trkpt lat="44.41458" lon="4.26912">
        <ele>113.3</ele>
      </trkpt>
      <trkpt lat="44.41499" lon="4.26972">
        <ele>112</ele>
      </trkpt>
      <trkpt lat="44.41524" lon="4.27005">
        <ele>112</ele>
      </trkpt>
      <trkpt lat="44.41575" lon="4.27047">
        <ele>112.5</ele>
      </trkpt>
      <trkpt lat="44.4159" lon="4.27065">
        <ele>113.7</ele>
      </trkpt>
      <trkpt lat="44.41604" lon="4.27089">
        <ele>114.8</ele>
      </trkpt>
      <trkpt lat="44.41615" lon="4.27116">
        <ele>115.8</ele>
      </trkpt>
      <trkpt lat="44.41621" lon="4.27136">
        <ele>116.2</ele>
      </trkpt>
      <trkpt lat="44.41626" lon="4.27175">
        <ele>117.6</ele>
      </trkpt>
      <trkpt lat="44.41624" lon="4.27197">
        <ele>117.7</ele>
      </trkpt>
      <trkpt lat="44.41613" lon="4.27236">
        <ele>118.2</ele>
      </trkpt>
      <trkpt lat="44.416" lon="4.27292">
        <ele>119</ele>
      </trkpt>
      <trkpt lat="44.41594" lon="4.27343">
        <ele>120.2</ele>
      </trkpt>
      <trkpt lat="44.41595" lon="4.27371">
        <ele>119.8</ele>
      </trkpt>
      <trkpt lat="44.41598" lon="4.2739">
        <ele>119.9</ele>
      </trkpt>
      <trkpt lat="44.41604" lon="4.27409">
        <ele>120.1</ele>
      </trkpt>
      <trkpt lat="44.41614" lon="4.27429">
        <ele>119.4</ele>
      </trkpt>
      <trkpt lat="44.4162" lon="4.27443">
        <ele>119</ele>
      </trkpt>
      <trkpt lat="44.41626" lon="4.27476">
        <ele>118.7</ele>
      </trkpt>
      <trkpt lat="44.41634" lon="4.27565">
        <ele>119.9</ele>
      </trkpt>
      <trkpt lat="44.41632" lon="4.27588">
        <ele>121</ele>
      </trkpt>
      <trkpt lat="44.41628" lon="4.27602">
        <ele>120.9</ele>
      </trkpt>
      <trkpt lat="44.41621" lon="4.27617">
        <ele>120.9</ele>
      </trkpt>
      <trkpt lat="44.41583" lon="4.27671">
        <ele>118.6</ele>
      </trkpt>
      <trkpt lat="44.41575" lon="4.27688">
        <ele>117.7</ele>
      </trkpt>
      <trkpt lat="44.4157" lon="4.27703">
        <ele>117.4</ele>
      </trkpt>
      <trkpt lat="44.41568" lon="4.27719">
        <ele>117.5</ele>
      </trkpt>
      <trkpt lat="44.41566" lon="4.27776">
        <ele>117.1</ele>
      </trkpt>
      <trkpt lat="44.41562" lon="4.27798">
        <ele>116.7</ele>
      </trkpt>
      <trkpt lat="44.41552" lon="4.27843">
        <ele>115.6</ele>
      </trkpt>
      <trkpt lat="44.41549" lon="4.27873">
        <ele>114.9</ele>
      </trkpt>
      <trkpt lat="44.41551" lon="4.27889">
        <ele>114.8</ele>
      </trkpt>
      <trkpt lat="44.41562" lon="4.27926">
        <ele>114.7</ele>
      </trkpt>
      <trkpt lat="44.41611" lon="4.28063">
        <ele>116.2</ele>
      </trkpt>
      <trkpt lat="44.41618" lon="4.28082">
        <ele>116.2</ele>
      </trkpt>
      <trkpt lat="44.41638" lon="4.28119">
        <ele>114.6</ele>
      </trkpt>
      <trkpt lat="44.41648" lon="4.28148">
        <ele>114.6</ele>
      </trkpt>
      <trkpt lat="44.41651" lon="4.28165">
        <ele>114.9</ele>
      </trkpt>
      <trkpt lat="44.4165" lon="4.28183">
        <ele>114.3</ele>
      </trkpt>
      <trkpt lat="44.41639" lon="4.28284">
        <ele>114.9</ele>
      </trkpt>
      <trkpt lat="44.41636" lon="4.28334">
        <ele>115</ele>
      </trkpt>
      <trkpt lat="44.41636" lon="4.28343">
        <ele>114.9</ele>
      </trkpt>
      <trkpt lat="44.41632" lon="4.28379">
        <ele>114.1</ele>
      </trkpt>
      <trkpt lat="44.41632" lon="4.28403">
        <ele>114</ele>
      </trkpt>
      <trkpt lat="44.41637" lon="4.28429">
        <ele>113.4</ele>
      </trkpt>
      <trkpt lat="44.41644" lon="4.28457">
        <ele>113.2</ele>
      </trkpt>
      <trkpt lat="44.41655" lon="4.28482">
        <ele>113.3</ele>
      </trkpt>
      <trkpt lat="44.41665" lon="4.28501">
        <ele>113.7</ele>
      </trkpt>
      <trkpt lat="44.41694" lon="4.2855">
        <ele>113.8</ele>
      </trkpt>
      <trkpt lat="44.41707" lon="4.28573">
        <ele>113.8</ele>
      </trkpt>
      <trkpt lat="44.41722" lon="4.28606">
        <ele>112</ele>
      </trkpt>
      <trkpt lat="44.41743" lon="4.28667">
        <ele>111.4</ele>
      </trkpt>
      <trkpt lat="44.41752" lon="4.28685">
        <ele>112</ele>
      </trkpt>
      <trkpt lat="44.41762" lon="4.28702">
        <ele>111.9</ele>
      </trkpt>
      <trkpt lat="44.41794" lon="4.28733">
        <ele>111.7</ele>
      </trkpt>
      <trkpt lat="44.41809" lon="4.28754">
        <ele>110.2</ele>
      </trkpt>
      <trkpt lat="44.41836" lon="4.28803">
        <ele>110.7</ele>
      </trkpt>
      <trkpt lat="44.41854" lon="4.28829">
        <ele>110.4</ele>
      </trkpt>
      <trkpt lat="44.41874" lon="4.28853">
        <ele>108.9</ele>
      </trkpt>
      <trkpt lat="44.41884" lon="4.28861">
        <ele>108.8</ele>
      </trkpt>
      <trkpt lat="44.41914" lon="4.28883">
        <ele>108.4</ele>
      </trkpt>
      <trkpt lat="44.41937" lon="4.289">
        <ele>109.1</ele>
      </trkpt>
      <trkpt lat="44.41953" lon="4.28912">
        <ele>109.5</ele>
      </trkpt>
      <trkpt lat="44.41967" lon="4.28932">
        <ele>109.6</ele>
      </trkpt>
      <trkpt lat="44.41992" lon="4.28983">
        <ele>110.8</ele>
      </trkpt>
      <trkpt lat="44.42008" lon="4.29024">
        <ele>111.6</ele>
      </trkpt>
      <trkpt lat="44.4202" lon="4.29062">
        <ele>111.4</ele>
      </trkpt>
      <trkpt lat="44.42048" lon="4.29145">
        <ele>111.3</ele>
      </trkpt>
      <trkpt lat="44.42061" lon="4.29175">
        <ele>111.4</ele>
      </trkpt>
      <trkpt lat="44.42098" lon="4.29252">
        <ele>111.5</ele>
      </trkpt>
      <trkpt lat="44.4218" lon="4.2939">
        <ele>109.2</ele>
      </trkpt>
      <trkpt lat="44.42195" lon="4.29409">
        <ele>109.1</ele>
      </trkpt>
      <trkpt lat="44.42215" lon="4.29428">
        <ele>107.4</ele>
      </trkpt>
      <trkpt lat="44.4223" lon="4.29448">
        <ele>107.2</ele>
      </trkpt>
      <trkpt lat="44.42262" lon="4.29498">
        <ele>107.2</ele>
      </trkpt>
      <trkpt lat="44.42293" lon="4.29539">
        <ele>106.8</ele>
      </trkpt>
      <trkpt lat="44.42334" lon="4.29594">
        <ele>106.8</ele>
      </trkpt>
      <trkpt lat="44.42349" lon="4.29609">
        <ele>106.7</ele>
      </trkpt>
      <trkpt lat="44.42373" lon="4.29623">
        <ele>106.7</ele>
      </trkpt>
      <trkpt lat="44.42403" lon="4.29643">
        <ele>107.2</ele>
      </trkpt>
      <trkpt lat="44.4242" lon="4.29659">
        <ele>108.5</ele>
      </trkpt>
      <trkpt lat="44.42431" lon="4.29675">
        <ele>108.6</ele>
      </trkpt>
      <trkpt lat="44.42456" lon="4.29713">
        <ele>109.2</ele>
      </trkpt>
      <trkpt lat="44.42465" lon="4.29733">
        <ele>109.5</ele>
      </trkpt>
      <trkpt lat="44.42473" lon="4.29756">
        <ele>109.1</ele>
      </trkpt>
      <trkpt lat="44.42485" lon="4.2979">
        <ele>108.7</ele>
      </trkpt>
      <trkpt lat="44.42493" lon="4.29814">
        <ele>108.9</ele>
      </trkpt>
      <trkpt lat="44.42496" lon="4.29824">
        <ele>109.3</ele>
      </trkpt>
      <trkpt lat="44.42503" lon="4.29844">
        <ele>110.6</ele>
      </trkpt>
      <trkpt lat="44.42511" lon="4.29868">
        <ele>111.2</ele>
      </trkpt>
      <trkpt lat="44.4252" lon="4.29889">
        <ele>111.3</ele>
      </trkpt>
      <trkpt lat="44.42529" lon="4.29903">
        <ele>111.3</ele>
      </trkpt>
      <trkpt lat="44.42538" lon="4.29918">
        <ele>110.6</ele>
      </trkpt>
      <trkpt lat="44.42546" lon="4.29934">
        <ele>110.7</ele>
      </trkpt>
      <trkpt lat="44.42548" lon="4.29938">
        <ele>110.7</ele>
      </trkpt>
      <trkpt lat="44.42555" lon="4.29951">
        <ele>110.6</ele>
      </trkpt>
      <trkpt lat="44.42559" lon="4.29958">
        <ele>110.6</ele>
      </trkpt>
      <trkpt lat="44.42576" lon="4.29989">
        <ele>110.7</ele>
      </trkpt>
      <trkpt lat="44.42592" lon="4.30017">
        <ele>110.7</ele>
      </trkpt>
      <trkpt lat="44.42633" lon="4.30088">
        <ele>110</ele>
      </trkpt>
      <trkpt lat="44.42636" lon="4.30094">
        <ele>110</ele>
        <extensions>
          <visugpx:TrkExtension xmlns:visugpx="https://www.visugpx.com/editgpx/">
            <visugpx:node>19</visugpx:node>
            </visugpx:TrkExtension>
        </extensions>
      </trkpt>
      <trkpt lat="44.42683" lon="4.30178">
        <ele>109.9</ele>
      </trkpt>
      <trkpt lat="44.42732" lon="4.30264">
        <ele>107.9</ele>
      </trkpt>
      <trkpt lat="44.42738" lon="4.30274">
        <ele>107.9</ele>
      </trkpt>
      <trkpt lat="44.42763" lon="4.3032">
        <ele>108.4</ele>
      </trkpt>
      <trkpt lat="44.42829" lon="4.30443">
        <ele>108.3</ele>
      </trkpt>
      <trkpt lat="44.42847" lon="4.30461">
        <ele>108.6</ele>
      </trkpt>
      <trkpt lat="44.42858" lon="4.30477">
        <ele>108.4</ele>
      </trkpt>
      <trkpt lat="44.42864" lon="4.30492">
        <ele>108.2</ele>
      </trkpt>
      <trkpt lat="44.42876" lon="4.30526">
        <ele>106.5</ele>
      </trkpt>
      <trkpt lat="44.43084" lon="4.30901">
        <ele>108.8</ele>
      </trkpt>
      <trkpt lat="44.43226" lon="4.3116">
        <ele>112.3</ele>
      </trkpt>
      <trkpt lat="44.43244" lon="4.31193">
        <ele>113.5</ele>
      </trkpt>
      <trkpt lat="44.4327" lon="4.31241">
        <ele>115.5</ele>
      </trkpt>
      <trkpt lat="44.43313" lon="4.31319">
        <ele>116.3</ele>
      </trkpt>
      <trkpt lat="44.43316" lon="4.31324">
        <ele>116.4</ele>
      </trkpt>
      <trkpt lat="44.43342" lon="4.31371">
        <ele>117.4</ele>
      </trkpt>
      <trkpt lat="44.43361" lon="4.31404">
        <ele>117.1</ele>
      </trkpt>
      <trkpt lat="44.43381" lon="4.31443">
        <ele>115.2</ele>
      </trkpt>
      <trkpt lat="44.43389" lon="4.31471">
        <ele>115.1</ele>
      </trkpt>
      <trkpt lat="44.43395" lon="4.31506">
        <ele>114</ele>
      </trkpt>
      <trkpt lat="44.4341" lon="4.31604">
        <ele>111.5</ele>
      </trkpt>
      <trkpt lat="44.43418" lon="4.31639">
        <ele>112.7</ele>
      </trkpt>
      <trkpt lat="44.4343" lon="4.31668">
        <ele>109.5</ele>
      </trkpt>
      <trkpt lat="44.43526" lon="4.3182">
        <ele>113.5</ele>
      </trkpt>
      <trkpt lat="44.43554" lon="4.31857">
        <ele>112.5</ele>
      </trkpt>
      <trkpt lat="44.43556" lon="4.3186">
        <ele>112.5</ele>
      </trkpt>
      <trkpt lat="44.43578" lon="4.31886">
        <ele>111.9</ele>
      </trkpt>
      <trkpt lat="44.4358" lon="4.31888">
        <ele>111.9</ele>
      </trkpt>
      <trkpt lat="44.43601" lon="4.31913">
        <ele>114.2</ele>
      </trkpt>
      <trkpt lat="44.43613" lon="4.31924">
        <ele>111.3</ele>
      </trkpt>
      <trkpt lat="44.43627" lon="4.31933">
        <ele>111.6</ele>
      </trkpt>
      <trkpt lat="44.43643" lon="4.31946">
        <ele>111.7</ele>
      </trkpt>
      <trkpt lat="44.43751" lon="4.32056">
        <ele>114.2</ele>
      </trkpt>
      <trkpt lat="44.43828" lon="4.32132">
        <ele>108.9</ele>
      </trkpt>
      <trkpt lat="44.43975" lon="4.32284">
        <ele>111.4</ele>
      </trkpt>
      <trkpt lat="44.44163" lon="4.32472">
        <ele>113.8</ele>
      </trkpt>
      <trkpt lat="44.44208" lon="4.325">
        <ele>112.6</ele>
      </trkpt>
      <trkpt lat="44.44263" lon="4.32536">
        <ele>115.5</ele>
      </trkpt>
      <trkpt lat="44.44447" lon="4.32661">
        <ele>118.6</ele>
      </trkpt>
      <trkpt lat="44.4449" lon="4.32691">
        <ele>115.8</ele>
      </trkpt>
      <trkpt lat="44.44542" lon="4.32734">
        <ele>119.9</ele>
      </trkpt>
      <trkpt lat="44.4456" lon="4.32756">
        <ele>116.9</ele>
      </trkpt>
      <trkpt lat="44.44592" lon="4.32799">
        <ele>119.4</ele>
      </trkpt>
      <trkpt lat="44.44627" lon="4.3284">
        <ele>113.4</ele>
      </trkpt>
      <trkpt lat="44.44637" lon="4.32851">
        <ele>113.7</ele>
      </trkpt>
      <trkpt lat="44.44643" lon="4.32856">
        <ele>113.8</ele>
      </trkpt>
      <trkpt lat="44.4465" lon="4.32862">
        <ele>113.7</ele>
      </trkpt>
      <trkpt lat="44.44669" lon="4.3287">
        <ele>116.7</ele>
      </trkpt>
      <trkpt lat="44.44746" lon="4.32886">
        <ele>116.6</ele>
      </trkpt>
      <trkpt lat="44.44775" lon="4.32888">
        <ele>117.2</ele>
      </trkpt>
      <trkpt lat="44.44801" lon="4.32887">
        <ele>117</ele>
      </trkpt>
      <trkpt lat="44.44805" lon="4.32886">
        <ele>117</ele>
      </trkpt>
      <trkpt lat="44.4483" lon="4.32881">
        <ele>117.1</ele>
      </trkpt>
      <trkpt lat="44.4484" lon="4.32875">
        <ele>117.5</ele>
      </trkpt>
      <trkpt lat="44.44862" lon="4.32845">
        <ele>120.2</ele>
      </trkpt>
      <trkpt lat="44.44871" lon="4.32842">
        <ele>120</ele>
      </trkpt>
      <trkpt lat="44.44878" lon="4.32843">
        <ele>119.8</ele>
      </trkpt>
      <trkpt lat="44.44884" lon="4.3285">
        <ele>119.4</ele>
      </trkpt>
      <trkpt lat="44.44931" lon="4.32912">
        <ele>113.9</ele>
      </trkpt>
      <trkpt lat="44.44954" lon="4.32938">
        <ele>113.8</ele>
      </trkpt>
      <trkpt lat="44.44963" lon="4.32952">
        <ele>114.1</ele>
      </trkpt>
      <trkpt lat="44.44974" lon="4.32976">
        <ele>114.8</ele>
      </trkpt>
      <trkpt lat="44.4499" lon="4.33022">
        <ele>115.2</ele>
      </trkpt>
      <trkpt lat="44.45012" lon="4.33065">
        <ele>117</ele>
      </trkpt>
      <trkpt lat="44.4507" lon="4.33147">
        <ele>119.4</ele>
      </trkpt>
      <trkpt lat="44.45123" lon="4.33219">
        <ele>122.4</ele>
      </trkpt>
      <trkpt lat="44.45128" lon="4.33225">
        <ele>122.5</ele>
      </trkpt>
      <trkpt lat="44.4514" lon="4.3324">
        <ele>122.8</ele>
      </trkpt>
      <trkpt lat="44.4515" lon="4.33252">
        <ele>122.3</ele>
      </trkpt>
      <trkpt lat="44.45217" lon="4.33328">
        <ele>125.4</ele>
      </trkpt>
      <trkpt lat="44.45234" lon="4.33339">
        <ele>122.8</ele>
      </trkpt>
      <trkpt lat="44.45327" lon="4.33373">
        <ele>122.3</ele>
      </trkpt>
      <trkpt lat="44.45344" lon="4.33378">
        <ele>123</ele>
      </trkpt>
      <trkpt lat="44.45361" lon="4.3338">
        <ele>123</ele>
      </trkpt>
      <trkpt lat="44.45391" lon="4.33381">
        <ele>123</ele>
      </trkpt>
      <trkpt lat="44.45421" lon="4.33381">
        <ele>122.3</ele>
      </trkpt>
      <trkpt lat="44.45437" lon="4.33378">
        <ele>122.6</ele>
      </trkpt>
      <trkpt lat="44.45499" lon="4.33364">
        <ele>123.1</ele>
      </trkpt>
      <trkpt lat="44.45511" lon="4.33361">
        <ele>121</ele>
      </trkpt>
      <trkpt lat="44.45532" lon="4.33351">
        <ele>120.7</ele>
      </trkpt>
      <trkpt lat="44.45545" lon="4.33341">
        <ele>120.6</ele>
      </trkpt>
      <trkpt lat="44.4556" lon="4.33329">
        <ele>125.9</ele>
      </trkpt>
      <trkpt lat="44.45567" lon="4.33327">
        <ele>125.3</ele>
      </trkpt>
      <trkpt lat="44.45685" lon="4.33328">
        <ele>126.1</ele>
      </trkpt>
      <trkpt lat="44.45684" lon="4.33362">
        <ele>119.5</ele>
      </trkpt>
      <trkpt lat="44.45683" lon="4.33471">
        <ele>118.9</ele>
      </trkpt>
      <trkpt lat="44.45681" lon="4.33479">
        <ele>119.4</ele>
      </trkpt>
      <trkpt lat="44.45677" lon="4.33488">
        <ele>120.1</ele>
      </trkpt>
      <trkpt lat="44.45607" lon="4.33544">
        <ele>121</ele>
      </trkpt>
      <trkpt lat="44.456" lon="4.33551">
        <ele>121.1</ele>
      </trkpt>
      <trkpt lat="44.45583" lon="4.33564">
        <ele>119.5</ele>
      </trkpt>
      <trkpt lat="44.45564" lon="4.33583">
        <ele>119.6</ele>
      </trkpt>
      <trkpt lat="44.45557" lon="4.33604">
        <ele>119.9</ele>
      </trkpt>
      <trkpt lat="44.45551" lon="4.33631">
        <ele>119.7</ele>
      </trkpt>
      <trkpt lat="44.45553" lon="4.33659">
        <ele>119.9</ele>
      </trkpt>
      <trkpt lat="44.45558" lon="4.33696">
        <ele>119</ele>
      </trkpt>
      <trkpt lat="44.45559" lon="4.33719">
        <ele>118.7</ele>
      </trkpt>
      <trkpt lat="44.45557" lon="4.33732">
        <ele>118.6</ele>
      </trkpt>
      <trkpt lat="44.45554" lon="4.3375">
        <ele>118.1</ele>
      </trkpt>
      <trkpt lat="44.45549" lon="4.33762">
        <ele>117.8</ele>
      </trkpt>
      <trkpt lat="44.45484" lon="4.33923">
        <ele>119.7</ele>
      </trkpt>
      <trkpt lat="44.45464" lon="4.33971">
        <ele>120.8</ele>
        <extensions>
          <visugpx:TrkExtension xmlns:visugpx="https://www.visugpx.com/editgpx/">
            <visugpx:node>20</visugpx:node>
            </visugpx:TrkExtension>
        </extensions>
      </trkpt>
      <trkpt lat="44.45453" lon="4.33999">
        <ele>121</ele>
      </trkpt>
      <trkpt lat="44.45417" lon="4.34081">
        <ele>122</ele>
      </trkpt>
      <trkpt lat="44.45402" lon="4.34113">
        <ele>121.8</ele>
      </trkpt>
      <trkpt lat="44.45391" lon="4.3413">
        <ele>121.7</ele>
      </trkpt>
      <trkpt lat="44.45358" lon="4.34155">
        <ele>121.8</ele>
      </trkpt>
      <trkpt lat="44.45321" lon="4.3418">
        <ele>121</ele>
      </trkpt>
      <trkpt lat="44.45311" lon="4.34187">
        <ele>120.7</ele>
      </trkpt>
      <trkpt lat="44.45292" lon="4.34202">
        <ele>120.2</ele>
      </trkpt>
      <trkpt lat="44.45275" lon="4.34214">
        <ele>120</ele>
      </trkpt>
      <trkpt lat="44.45214" lon="4.34257">
        <ele>118.1</ele>
      </trkpt>
      <trkpt lat="44.45182" lon="4.34284">
        <ele>117.3</ele>
      </trkpt>
      <trkpt lat="44.45161" lon="4.3431">
        <ele>115.7</ele>
      </trkpt>
      <trkpt lat="44.45134" lon="4.34344">
        <ele>116.8</ele>
      </trkpt>
      <trkpt lat="44.45121" lon="4.34361">
        <ele>116.8</ele>
      </trkpt>
      <trkpt lat="44.45074" lon="4.34423">
        <ele>117.4</ele>
      </trkpt>
      <trkpt lat="44.45054" lon="4.34449">
        <ele>118</ele>
      </trkpt>
      <trkpt lat="44.45023" lon="4.34476">
        <ele>118.7</ele>
      </trkpt>
      <trkpt lat="44.44992" lon="4.34497">
        <ele>119.7</ele>
      </trkpt>
      <trkpt lat="44.44898" lon="4.3455">
        <ele>116.7</ele>
      </trkpt>
      <trkpt lat="44.44867" lon="4.34567">
        <ele>116.4</ele>
      </trkpt>
      <trkpt lat="44.44846" lon="4.3458">
        <ele>116.2</ele>
      </trkpt>
      <trkpt lat="44.44836" lon="4.34585">
        <ele>116.2</ele>
      </trkpt>
      <trkpt lat="44.44829" lon="4.34588">
        <ele>116</ele>
      </trkpt>
      <trkpt lat="44.44808" lon="4.34602">
        <ele>116</ele>
      </trkpt>
      <trkpt lat="44.44779" lon="4.34624">
        <ele>115.9</ele>
      </trkpt>
      <trkpt lat="44.4477" lon="4.34631">
        <ele>115.9</ele>
      </trkpt>
      <trkpt lat="44.44756" lon="4.34645">
        <ele>116</ele>
      </trkpt>
      <trkpt lat="44.44642" lon="4.34738">
        <ele>120.2</ele>
      </trkpt>
      <trkpt lat="44.44632" lon="4.34744">
        <ele>120.4</ele>
      </trkpt>
      <trkpt lat="44.44618" lon="4.34749">
        <ele>120.7</ele>
      </trkpt>
      <trkpt lat="44.44606" lon="4.34751">
        <ele>121.8</ele>
      </trkpt>
      <trkpt lat="44.4459" lon="4.34749">
        <ele>121.6</ele>
      </trkpt>
      <trkpt lat="44.44575" lon="4.34745">
        <ele>122.2</ele>
      </trkpt>
      <trkpt lat="44.44569" lon="4.34741">
        <ele>122.3</ele>
      </trkpt>
      <trkpt lat="44.44558" lon="4.34732">
        <ele>122.4</ele>
      </trkpt>
      <trkpt lat="44.44546" lon="4.34721">
        <ele>122.5</ele>
      </trkpt>
      <trkpt lat="44.44284" lon="4.34468">
        <ele>121.7</ele>
      </trkpt>
      <trkpt lat="44.44269" lon="4.34456">
        <ele>121.3</ele>
      </trkpt>
      <trkpt lat="44.44258" lon="4.34451">
        <ele>121</ele>
      </trkpt>
      <trkpt lat="44.44249" lon="4.34449">
        <ele>119.2</ele>
      </trkpt>
      <trkpt lat="44.44238" lon="4.3445">
        <ele>119.2</ele>
      </trkpt>
      <trkpt lat="44.44227" lon="4.34452">
        <ele>119.1</ele>
      </trkpt>
      <trkpt lat="44.44221" lon="4.34435">
        <ele>119</ele>
      </trkpt>
      <trkpt lat="44.44209" lon="4.34428">
        <ele>118.8</ele>
      </trkpt>
      <trkpt lat="44.44172" lon="4.34419">
        <ele>118.2</ele>
      </trkpt>
      <trkpt lat="44.44117" lon="4.3441">
        <ele>117.3</ele>
      </trkpt>
      <trkpt lat="44.44097" lon="4.34403">
        <ele>117.2</ele>
      </trkpt>
      <trkpt lat="44.44083" lon="4.34396">
        <ele>117.3</ele>
      </trkpt>
      <trkpt lat="44.4407" lon="4.34382">
        <ele>117.4</ele>
      </trkpt>
      <trkpt lat="44.44051" lon="4.34367">
        <ele>117.4</ele>
      </trkpt>
      <trkpt lat="44.44043" lon="4.34363">
        <ele>117.4</ele>
      </trkpt>
      <trkpt lat="44.44033" lon="4.34362">
        <ele>117.5</ele>
      </trkpt>
      <trkpt lat="44.44023" lon="4.34363">
        <ele>117.5</ele>
      </trkpt>
      <trkpt lat="44.44002" lon="4.34369">
        <ele>117.6</ele>
      </trkpt>
      <trkpt lat="44.43967" lon="4.34365">
        <ele>117.7</ele>
      </trkpt>
      <trkpt lat="44.43959" lon="4.34367">
        <ele>117.7</ele>
      </trkpt>
      <trkpt lat="44.43941" lon="4.34358">
        <ele>117.6</ele>
      </trkpt>
      <trkpt lat="44.43896" lon="4.3434">
        <ele>118</ele>
      </trkpt>
      <trkpt lat="44.43889" lon="4.34335">
        <ele>118.2</ele>
      </trkpt>
      <trkpt lat="44.43869" lon="4.34319">
        <ele>117.8</ele>
      </trkpt>
      <trkpt lat="44.43862" lon="4.34315">
        <ele>117.9</ele>
      </trkpt>
      <trkpt lat="44.43835" lon="4.34292">
        <ele>118.1</ele>
      </trkpt>
      <trkpt lat="44.43762" lon="4.34228">
        <ele>119.7</ele>
      </trkpt>
      <trkpt lat="44.43737" lon="4.34209">
        <ele>123.1</ele>
      </trkpt>
      <trkpt lat="44.43712" lon="4.34188">
        <ele>123.7</ele>
      </trkpt>
      <trkpt lat="44.43644" lon="4.34129">
        <ele>122</ele>
      </trkpt>
      <trkpt lat="44.43624" lon="4.34118">
        <ele>121.4</ele>
      </trkpt>
      <trkpt lat="44.43609" lon="4.34116">
        <ele>121.2</ele>
      </trkpt>
      <trkpt lat="44.43603" lon="4.34129">
        <ele>121.9</ele>
      </trkpt>
      <trkpt lat="44.43593" lon="4.34143">
        <ele>123</ele>
      </trkpt>
      <trkpt lat="44.43579" lon="4.34156">
        <ele>123.2</ele>
      </trkpt>
      <trkpt lat="44.43576" lon="4.34163">
        <ele>123.8</ele>
      </trkpt>
      <trkpt lat="44.43575" lon="4.34168">
        <ele>126</ele>
      </trkpt>
      <trkpt lat="44.43559" lon="4.34171">
        <ele>125.7</ele>
      </trkpt>
      <trkpt lat="44.43514" lon="4.34197">
        <ele>123.7</ele>
      </trkpt>
      <trkpt lat="44.43502" lon="4.34201">
        <ele>123.5</ele>
        <extensions>
          <visugpx:TrkExtension xmlns:visugpx="https://www.visugpx.com/editgpx/">
            <visugpx:node>22</visugpx:node>
            </visugpx:TrkExtension>
        </extensions>
      </trkpt>
      <trkpt lat="44.435" lon="4.34202">
        <ele>123.6</ele>
      </trkpt>
      <trkpt lat="44.43492" lon="4.34196">
        <ele>116.5</ele>
      </trkpt>
      <trkpt lat="44.43494" lon="4.34191">
        <ele>116.5</ele>
      </trkpt>
      <trkpt lat="44.43495" lon="4.34186">
        <ele>116.5</ele>
      </trkpt>
      <trkpt lat="44.43495" lon="4.34181">
        <ele>116.5</ele>
      </trkpt>
      <trkpt lat="44.43495" lon="4.34177">
        <ele>116.5</ele>
      </trkpt>
      <trkpt lat="44.43493" lon="4.34173">
        <ele>116.5</ele>
      </trkpt>
      <trkpt lat="44.43491" lon="4.34169">
        <ele>116.5</ele>
      </trkpt>
      <trkpt lat="44.43489" lon="4.34167">
        <ele>116.4</ele>
      </trkpt>
      <trkpt lat="44.4348" lon="4.34164">
        <ele>114.6</ele>
      </trkpt>
      <trkpt lat="44.43477" lon="4.34165">
        <ele>114.4</ele>
      </trkpt>
      <trkpt lat="44.43474" lon="4.34167">
        <ele>115.6</ele>
      </trkpt>
      <trkpt lat="44.43471" lon="4.3417">
        <ele>115.4</ele>
      </trkpt>
      <trkpt lat="44.43469" lon="4.34175">
        <ele>115.3</ele>
      </trkpt>
      <trkpt lat="44.43467" lon="4.34181">
        <ele>115.3</ele>
      </trkpt>
      <trkpt lat="44.43468" lon="4.34188">
        <ele>115.4</ele>
      </trkpt>
      <trkpt lat="44.43469" lon="4.34193">
        <ele>115.5</ele>
      </trkpt>
      <trkpt lat="44.43471" lon="4.34197">
        <ele>115.7</ele>
      </trkpt>
      <trkpt lat="44.43471" lon="4.34226">
        <ele>116.7</ele>
      </trkpt>
      <trkpt lat="44.43463" lon="4.34281">
        <ele>119.2</ele>
      </trkpt>
      <trkpt lat="44.4345" lon="4.34365">
        <ele>120.9</ele>
      </trkpt>
      <trkpt lat="44.43451" lon="4.34391">
        <ele>121.1</ele>
      </trkpt>
      <trkpt lat="44.43488" lon="4.34618">
        <ele>119.2</ele>
      </trkpt>
      <trkpt lat="44.43493" lon="4.34697">
        <ele>116.4</ele>
      </trkpt>
      <trkpt lat="44.43494" lon="4.34779">
        <ele>116.1</ele>
      </trkpt>
      <trkpt lat="44.43493" lon="4.3481">
        <ele>116.5</ele>
      </trkpt>
      <trkpt lat="44.43488" lon="4.34855">
        <ele>117.7</ele>
      </trkpt>
      <trkpt lat="44.43482" lon="4.34884">
        <ele>117.4</ele>
      </trkpt>
      <trkpt lat="44.43471" lon="4.34915">
        <ele>117.5</ele>
      </trkpt>
      <trkpt lat="44.43389" lon="4.35121">
        <ele>113.3</ele>
      </trkpt>
      <trkpt lat="44.43328" lon="4.35284">
        <ele>107.1</ele>
      </trkpt>
      <trkpt lat="44.43284" lon="4.35404">
        <ele>111.4</ele>
      </trkpt>
      <trkpt lat="44.43244" lon="4.35491">
        <ele>108.7</ele>
      </trkpt>
      <trkpt lat="44.4318" lon="4.35596">
        <ele>109.8</ele>
      </trkpt>
      <trkpt lat="44.43128" lon="4.35671">
        <ele>111.7</ele>
      </trkpt>
      <trkpt lat="44.43106" lon="4.35693">
        <ele>111.3</ele>
      </trkpt>
      <trkpt lat="44.43078" lon="4.35717">
        <ele>106.8</ele>
      </trkpt>
      <trkpt lat="44.43033" lon="4.35748">
        <ele>105.2</ele>
      </trkpt>
      <trkpt lat="44.42973" lon="4.35786">
        <ele>105.1</ele>
      </trkpt>
      <trkpt lat="44.42947" lon="4.35795">
        <ele>104.9</ele>
      </trkpt>
      <trkpt lat="44.4294" lon="4.35795">
        <ele>104.7</ele>
      </trkpt>
      <trkpt lat="44.42923" lon="4.35797">
        <ele>104.5</ele>
      </trkpt>
      <trkpt lat="44.42903" lon="4.358">
        <ele>108.1</ele>
      </trkpt>
      <trkpt lat="44.42888" lon="4.35801">
        <ele>109.3</ele>
      </trkpt>
      <trkpt lat="44.42869" lon="4.35797">
        <ele>110.7</ele>
      </trkpt>
      <trkpt lat="44.42774" lon="4.35767">
        <ele>125.5</ele>
      </trkpt>
      <trkpt lat="44.42749" lon="4.35756">
        <ele>127.1</ele>
      </trkpt>
      <trkpt lat="44.42693" lon="4.35706">
        <ele>124.8</ele>
      </trkpt>
      <trkpt lat="44.42637" lon="4.35625">
        <ele>119.7</ele>
      </trkpt>
      <trkpt lat="44.42617" lon="4.35607">
        <ele>118.6</ele>
      </trkpt>
      <trkpt lat="44.42581" lon="4.35587">
        <ele>117.3</ele>
      </trkpt>
      <trkpt lat="44.42523" lon="4.35546">
        <ele>113.8</ele>
      </trkpt>
      <trkpt lat="44.42453" lon="4.35487">
        <ele>106.9</ele>
      </trkpt>
      <trkpt lat="44.4235" lon="4.35421">
        <ele>116.1</ele>
      </trkpt>
      <trkpt lat="44.422" lon="4.35319">
        <ele>109.5</ele>
      </trkpt>
      <trkpt lat="44.4215" lon="4.35289">
        <ele>113.2</ele>
      </trkpt>
      <trkpt lat="44.42019" lon="4.35222">
        <ele>113.1</ele>
      </trkpt>
      <trkpt lat="44.41968" lon="4.35198">
        <ele>116.6</ele>
      </trkpt>
      <trkpt lat="44.41951" lon="4.35194">
        <ele>116.9</ele>
      </trkpt>
      <trkpt lat="44.41934" lon="4.35196">
        <ele>117.3</ele>
      </trkpt>
      <trkpt lat="44.41918" lon="4.35207">
        <ele>118</ele>
      </trkpt>
      <trkpt lat="44.41905" lon="4.35225">
        <ele>117.6</ele>
      </trkpt>
      <trkpt lat="44.41897" lon="4.35249">
        <ele>118.3</ele>
      </trkpt>
      <trkpt lat="44.41891" lon="4.35282">
        <ele>118.5</ele>
      </trkpt>
      <trkpt lat="44.41885" lon="4.35336">
        <ele>119.5</ele>
      </trkpt>
      <trkpt lat="44.41875" lon="4.35432">
        <ele>121.2</ele>
      </trkpt>
      <trkpt lat="44.41874" lon="4.35438">
        <ele>121.3</ele>
      </trkpt>
      <trkpt lat="44.4186" lon="4.35587">
        <ele>122</ele>
      </trkpt>
      <trkpt lat="44.4184" lon="4.35791">
        <ele>123.3</ele>
      </trkpt>
      <trkpt lat="44.41823" lon="4.3596">
        <ele>119.8</ele>
      </trkpt>
      <trkpt lat="44.4182" lon="4.35991">
        <ele>119.7</ele>
      </trkpt>
      <trkpt lat="44.41818" lon="4.36009">
        <ele>119</ele>
      </trkpt>
      <trkpt lat="44.41817" lon="4.36021">
        <ele>118.7</ele>
      </trkpt>
      <trkpt lat="44.41815" lon="4.36033">
        <ele>118.4</ele>
      </trkpt>
      <trkpt lat="44.41811" lon="4.36058">
        <ele>118</ele>
      </trkpt>
      <trkpt lat="44.41809" lon="4.36066">
        <ele>117.9</ele>
      </trkpt>
      <trkpt lat="44.41802" lon="4.36098">
        <ele>117</ele>
      </trkpt>
      <trkpt lat="44.41785" lon="4.36147">
        <ele>116.5</ele>
      </trkpt>
      <trkpt lat="44.41776" lon="4.36172">
        <ele>115.8</ele>
      </trkpt>
      <trkpt lat="44.41704" lon="4.36351">
        <ele>114.1</ele>
      </trkpt>
      <trkpt lat="44.41701" lon="4.36359">
        <ele>114.1</ele>
      </trkpt>
      <trkpt lat="44.41696" lon="4.36357">
        <ele>114.1</ele>
      </trkpt>
      <trkpt lat="44.4169" lon="4.36359">
        <ele>114.2</ele>
      </trkpt>
      <trkpt lat="44.41686" lon="4.36365">
        <ele>114.2</ele>
      </trkpt>
      <trkpt lat="44.41685" lon="4.36373">
        <ele>114.1</ele>
      </trkpt>
      <trkpt lat="44.41687" lon="4.36381">
        <ele>114.1</ele>
      </trkpt>
      <trkpt lat="44.41684" lon="4.36392">
        <ele>114.1</ele>
      </trkpt>
      <trkpt lat="44.41536" lon="4.36772">
        <ele>107.2</ele>
      </trkpt>
      <trkpt lat="44.4146" lon="4.36969">
        <ele>105.2</ele>
      </trkpt>
      <trkpt lat="44.41425" lon="4.37054">
        <ele>104.6</ele>
      </trkpt>
      <trkpt lat="44.41402" lon="4.37119">
        <ele>102.6</ele>
      </trkpt>
      <trkpt lat="44.41394" lon="4.37135">
        <ele>102.3</ele>
      </trkpt>
      <trkpt lat="44.41392" lon="4.3714">
        <ele>102.2</ele>
      </trkpt>
      <trkpt lat="44.4139" lon="4.37141">
        <ele>102.2</ele>
      </trkpt>
      <trkpt lat="44.41388" lon="4.37144">
        <ele>102.2</ele>
      </trkpt>
      <trkpt lat="44.41387" lon="4.37147">
        <ele>102.2</ele>
      </trkpt>
      <trkpt lat="44.41387" lon="4.37151">
        <ele>102.1</ele>
      </trkpt>
      <trkpt lat="44.41386" lon="4.37158">
        <ele>102.1</ele>
      </trkpt>
      <trkpt lat="44.41383" lon="4.3717">
        <ele>101.4</ele>
      </trkpt>
      <trkpt lat="44.41185" lon="4.37681">
        <ele>97.3</ele>
      </trkpt>
      <trkpt lat="44.41176" lon="4.37702">
        <ele>97.2</ele>
      </trkpt>
      <trkpt lat="44.4117" lon="4.37711">
        <ele>97.1</ele>
      </trkpt>
      <trkpt lat="44.41167" lon="4.37717">
        <ele>97</ele>
      </trkpt>
      <trkpt lat="44.41163" lon="4.37717">
        <ele>96.1</ele>
      </trkpt>
      <trkpt lat="44.41159" lon="4.3772">
        <ele>96.1</ele>
      </trkpt>
      <trkpt lat="44.41155" lon="4.37726">
        <ele>96</ele>
      </trkpt>
      <trkpt lat="44.41154" lon="4.37734">
        <ele>96</ele>
      </trkpt>
      <trkpt lat="44.41154" lon="4.3774">
        <ele>96</ele>
      </trkpt>
      <trkpt lat="44.41156" lon="4.37745">
        <ele>96</ele>
      </trkpt>
      <trkpt lat="44.41153" lon="4.37758">
        <ele>95.6</ele>
      </trkpt>
      <trkpt lat="44.40983" lon="4.38194">
        <ele>96.6</ele>
      </trkpt>
      <trkpt lat="44.40959" lon="4.38253">
        <ele>95</ele>
      </trkpt>
      <trkpt lat="44.40956" lon="4.38259">
        <ele>95</ele>
      </trkpt>
      <trkpt lat="44.40952" lon="4.38261">
        <ele>94.9</ele>
      </trkpt>
      <trkpt lat="44.40949" lon="4.38264">
        <ele>94.9</ele>
      </trkpt>
      <trkpt lat="44.40947" lon="4.38268">
        <ele>94.9</ele>
      </trkpt>
      <trkpt lat="44.40946" lon="4.38274">
        <ele>94.9</ele>
      </trkpt>
      <trkpt lat="44.40947" lon="4.3828">
        <ele>94.9</ele>
      </trkpt>
      <trkpt lat="44.40938" lon="4.3831">
        <ele>94.9</ele>
      </trkpt>
      <trkpt lat="44.40873" lon="4.3848">
        <ele>93.3</ele>
      </trkpt>
      <trkpt lat="44.4085" lon="4.38538">
        <ele>93.8</ele>
      </trkpt>
      <trkpt lat="44.40828" lon="4.38595">
        <ele>93.7</ele>
      </trkpt>
      <trkpt lat="44.40807" lon="4.38645">
        <ele>93.4</ele>
      </trkpt>
      <trkpt lat="44.40802" lon="4.38656">
        <ele>93.3</ele>
        <extensions>
          <visugpx:TrkExtension xmlns:visugpx="https://www.visugpx.com/editgpx/">
            <visugpx:node>23</visugpx:node>
            </visugpx:TrkExtension>
        </extensions>
      </trkpt>
      <trkpt lat="44.40787" lon="4.38689">
        <ele>94.3</ele>
      </trkpt>
      <trkpt lat="44.40777" lon="4.38706">
        <ele>94.5</ele>
      </trkpt>
      <trkpt lat="44.40772" lon="4.38711">
        <ele>94.5</ele>
      </trkpt>
      <trkpt lat="44.40768" lon="4.38716">
        <ele>94.6</ele>
      </trkpt>
      <trkpt lat="44.40763" lon="4.38717">
        <ele>94.6</ele>
      </trkpt>
      <trkpt lat="44.40759" lon="4.38719">
        <ele>94.6</ele>
      </trkpt>
      <trkpt lat="44.40755" lon="4.38723">
        <ele>94.6</ele>
      </trkpt>
      <trkpt lat="44.40751" lon="4.3872">
        <ele>94.6</ele>
      </trkpt>
      <trkpt lat="44.40747" lon="4.38717">
        <ele>94.9</ele>
      </trkpt>
      <trkpt lat="44.4074" lon="4.3871">
        <ele>94.9</ele>
      </trkpt>
      <trkpt lat="44.40734" lon="4.38702">
        <ele>94.8</ele>
      </trkpt>
      <trkpt lat="44.40723" lon="4.38682">
        <ele>94.6</ele>
      </trkpt>
      <trkpt lat="44.40707" lon="4.38641">
        <ele>93.7</ele>
      </trkpt>
      <trkpt lat="44.40694" lon="4.3859">
        <ele>93</ele>
      </trkpt>
      <trkpt lat="44.40678" lon="4.38526">
        <ele>90.4</ele>
      </trkpt>
      <trkpt lat="44.40671" lon="4.38509">
        <ele>89.7</ele>
      </trkpt>
      <trkpt lat="44.40663" lon="4.38495">
        <ele>89</ele>
      </trkpt>
      <trkpt lat="44.40636" lon="4.38462">
        <ele>88.7</ele>
      </trkpt>
      <trkpt lat="44.40608" lon="4.38439">
        <ele>88.6</ele>
      </trkpt>
      <trkpt lat="44.40575" lon="4.38419">
        <ele>88.4</ele>
      </trkpt>
      <trkpt lat="44.40557" lon="4.38411">
        <ele>88</ele>
      </trkpt>
      <trkpt lat="44.40538" lon="4.38407">
        <ele>88</ele>
      </trkpt>
      <trkpt lat="44.40516" lon="4.38404">
        <ele>88</ele>
      </trkpt>
      <trkpt lat="44.40461" lon="4.38403">
        <ele>90.6</ele>
      </trkpt>
      <trkpt lat="44.4043" lon="4.38398">
        <ele>92.6</ele>
      </trkpt>
      <trkpt lat="44.40409" lon="4.38391">
        <ele>94.9</ele>
      </trkpt>
      <trkpt lat="44.40364" lon="4.38368">
        <ele>94.4</ele>
      </trkpt>
      <trkpt lat="44.40345" lon="4.38367">
        <ele>94.7</ele>
      </trkpt>
      <trkpt lat="44.4033" lon="4.38368">
        <ele>94.3</ele>
      </trkpt>
      <trkpt lat="44.40311" lon="4.38373">
        <ele>94.3</ele>
      </trkpt>
      <trkpt lat="44.40267" lon="4.38406">
        <ele>94.4</ele>
      </trkpt>
      <trkpt lat="44.4024" lon="4.38434">
        <ele>95.6</ele>
      </trkpt>
      <trkpt lat="44.40224" lon="4.38458">
        <ele>96.4</ele>
      </trkpt>
      <trkpt lat="44.40215" lon="4.38478">
        <ele>97</ele>
      </trkpt>
      <trkpt lat="44.40207" lon="4.38505">
        <ele>101.6</ele>
      </trkpt>
      <trkpt lat="44.40195" lon="4.38554">
        <ele>102.5</ele>
      </trkpt>
      <trkpt lat="44.40183" lon="4.38589">
        <ele>105.3</ele>
      </trkpt>
      <trkpt lat="44.40178" lon="4.38596">
        <ele>105.2</ele>
      </trkpt>
      <trkpt lat="44.40158" lon="4.38627">
        <ele>104</ele>
      </trkpt>
      <trkpt lat="44.40121" lon="4.38687">
        <ele>107.7</ele>
      </trkpt>
      <trkpt lat="44.40094" lon="4.38735">
        <ele>106.7</ele>
      </trkpt>
      <trkpt lat="44.40085" lon="4.38748">
        <ele>105.3</ele>
      </trkpt>
      <trkpt lat="44.40076" lon="4.38758">
        <ele>104.6</ele>
      </trkpt>
      <trkpt lat="44.40069" lon="4.38761">
        <ele>104.4</ele>
      </trkpt>
      <trkpt lat="44.40052" lon="4.38767">
        <ele>103.9</ele>
      </trkpt>
      <trkpt lat="44.40047" lon="4.38767">
        <ele>103.8</ele>
      </trkpt>
      <trkpt lat="44.40041" lon="4.38764">
        <ele>103.7</ele>
      </trkpt>
      <trkpt lat="44.40034" lon="4.38765">
        <ele>103.5</ele>
      </trkpt>
      <trkpt lat="44.40029" lon="4.3877">
        <ele>103.4</ele>
      </trkpt>
      <trkpt lat="44.40025" lon="4.38778">
        <ele>103.4</ele>
      </trkpt>
      <trkpt lat="44.40026" lon="4.3879">
        <ele>103.4</ele>
      </trkpt>
      <trkpt lat="44.40021" lon="4.38802">
        <ele>103.3</ele>
      </trkpt>
      <trkpt lat="44.40013" lon="4.38815">
        <ele>103</ele>
      </trkpt>
      <trkpt lat="44.3999" lon="4.38848">
        <ele>100.6</ele>
      </trkpt>
      <trkpt lat="44.39975" lon="4.38873">
        <ele>99.6</ele>
      </trkpt>
      <trkpt lat="44.39958" lon="4.38907">
        <ele>99</ele>
      </trkpt>
      <trkpt lat="44.39938" lon="4.38949">
        <ele>97.5</ele>
      </trkpt>
      <trkpt lat="44.39931" lon="4.38968">
        <ele>97</ele>
      </trkpt>
      <trkpt lat="44.39926" lon="4.38983">
        <ele>96.2</ele>
      </trkpt>
      <trkpt lat="44.39921" lon="4.39001">
        <ele>94.5</ele>
      </trkpt>
      <trkpt lat="44.3991" lon="4.39042">
        <ele>92.2</ele>
      </trkpt>
      <trkpt lat="44.39905" lon="4.39066">
        <ele>92.2</ele>
      </trkpt>
      <trkpt lat="44.39898" lon="4.3912">
        <ele>91.3</ele>
      </trkpt>
      <trkpt lat="44.39895" lon="4.3915">
        <ele>91.1</ele>
      </trkpt>
      <trkpt lat="44.39885" lon="4.39238">
        <ele>89.7</ele>
      </trkpt>
      <trkpt lat="44.39862" lon="4.3945">
        <ele>87.6</ele>
      </trkpt>
      <trkpt lat="44.39861" lon="4.39462">
        <ele>87.7</ele>
      </trkpt>
      <trkpt lat="44.39855" lon="4.39511">
        <ele>88.2</ele>
      </trkpt>
      <trkpt lat="44.39853" lon="4.39534">
        <ele>88.1</ele>
      </trkpt>
      <trkpt lat="44.39853" lon="4.39547">
        <ele>88</ele>
      </trkpt>
      <trkpt lat="44.39853" lon="4.39562">
        <ele>87.9</ele>
      </trkpt>
      <trkpt lat="44.3985" lon="4.39567">
        <ele>87.8</ele>
      </trkpt>
      <trkpt lat="44.39849" lon="4.39579">
        <ele>87.6</ele>
      </trkpt>
      <trkpt lat="44.39851" lon="4.39584">
        <ele>88.6</ele>
      </trkpt>
      <trkpt lat="44.39849" lon="4.39598">
        <ele>88.9</ele>
      </trkpt>
      <trkpt lat="44.39843" lon="4.39626">
        <ele>89.9</ele>
      </trkpt>
      <trkpt lat="44.39838" lon="4.39652">
        <ele>90.2</ele>
      </trkpt>
      <trkpt lat="44.39836" lon="4.39683">
        <ele>92.7</ele>
      </trkpt>
      <trkpt lat="44.39835" lon="4.39795">
        <ele>96.8</ele>
      </trkpt>
      <trkpt lat="44.39834" lon="4.39829">
        <ele>93.2</ele>
      </trkpt>
      <trkpt lat="44.39828" lon="4.39872">
        <ele>90.6</ele>
      </trkpt>
      <trkpt lat="44.39813" lon="4.39951">
        <ele>89.3</ele>
      </trkpt>
      <trkpt lat="44.39809" lon="4.39971">
        <ele>89.1</ele>
      </trkpt>
      <trkpt lat="44.39798" lon="4.40016">
        <ele>88.7</ele>
      </trkpt>
      <trkpt lat="44.39789" lon="4.40041">
        <ele>88.7</ele>
      </trkpt>
      <trkpt lat="44.3977" lon="4.40089">
        <ele>88.7</ele>
      </trkpt>
      <trkpt lat="44.39751" lon="4.40135">
        <ele>88.2</ele>
      </trkpt>
      <trkpt lat="44.39733" lon="4.40177">
        <ele>86.1</ele>
      </trkpt>
      <trkpt lat="44.39724" lon="4.40196">
        <ele>86.1</ele>
      </trkpt>
      <trkpt lat="44.39712" lon="4.40213">
        <ele>86.3</ele>
      </trkpt>
      <trkpt lat="44.39696" lon="4.40232">
        <ele>86.6</ele>
      </trkpt>
      <trkpt lat="44.39649" lon="4.40288">
        <ele>88.8</ele>
      </trkpt>
      <trkpt lat="44.39625" lon="4.40311">
        <ele>89.2</ele>
      </trkpt>
      <trkpt lat="44.39596" lon="4.40329">
        <ele>90.2</ele>
      </trkpt>
      <trkpt lat="44.39573" lon="4.40337">
        <ele>89.5</ele>
      </trkpt>
      <trkpt lat="44.39557" lon="4.40343">
        <ele>88.1</ele>
      </trkpt>
      <trkpt lat="44.39512" lon="4.40353">
        <ele>86.2</ele>
      </trkpt>
      <trkpt lat="44.39455" lon="4.40364">
        <ele>85.7</ele>
      </trkpt>
      <trkpt lat="44.39404" lon="4.40376">
        <ele>87.9</ele>
      </trkpt>
      <trkpt lat="44.39358" lon="4.40385">
        <ele>89.2</ele>
      </trkpt>
      <trkpt lat="44.39339" lon="4.40385">
        <ele>89.7</ele>
      </trkpt>
      <trkpt lat="44.3933" lon="4.40382">
        <ele>98.4</ele>
      </trkpt>
      <trkpt lat="44.39322" lon="4.40377">
        <ele>98.9</ele>
      </trkpt>
      <trkpt lat="44.39314" lon="4.40366">
        <ele>99.2</ele>
      </trkpt>
      <trkpt lat="44.39298" lon="4.40322">
        <ele>96.8</ele>
      </trkpt>
      <trkpt lat="44.39282" lon="4.40282">
        <ele>97.8</ele>
      </trkpt>
      <trkpt lat="44.39272" lon="4.40263">
        <ele>98.6</ele>
      </trkpt>
      <trkpt lat="44.39216" lon="4.40186">
        <ele>100.3</ele>
      </trkpt>
      <trkpt lat="44.39203" lon="4.40175">
        <ele>100.7</ele>
      </trkpt>
      <trkpt lat="44.3919" lon="4.40168">
        <ele>100.9</ele>
      </trkpt>
      <trkpt lat="44.39177" lon="4.40166">
        <ele>96.5</ele>
      </trkpt>
      <trkpt lat="44.39163" lon="4.40171">
        <ele>100.1</ele>
      </trkpt>
      <trkpt lat="44.39151" lon="4.40183">
        <ele>100.2</ele>
      </trkpt>
      <trkpt lat="44.39138" lon="4.402">
        <ele>100.6</ele>
      </trkpt>
      <trkpt lat="44.39102" lon="4.40271">
        <ele>108.3</ele>
      </trkpt>
      <trkpt lat="44.39091" lon="4.40298">
        <ele>109.8</ele>
      </trkpt>
      <trkpt lat="44.39088" lon="4.40314">
        <ele>109.9</ele>
      </trkpt>
      <trkpt lat="44.39086" lon="4.40333">
        <ele>108.5</ele>
      </trkpt>
      <trkpt lat="44.39086" lon="4.40351">
        <ele>111</ele>
      </trkpt>
      <trkpt lat="44.39092" lon="4.40418">
        <ele>106.8</ele>
      </trkpt>
      <trkpt lat="44.39092" lon="4.40436">
        <ele>109</ele>
      </trkpt>
      <trkpt lat="44.3909" lon="4.40454">
        <ele>110</ele>
      </trkpt>
      <trkpt lat="44.39086" lon="4.40468">
        <ele>109.6</ele>
      </trkpt>
      <trkpt lat="44.39076" lon="4.40489">
        <ele>101</ele>
      </trkpt>
      <trkpt lat="44.39054" lon="4.40522">
        <ele>104</ele>
      </trkpt>
      <trkpt lat="44.39035" lon="4.40544">
        <ele>104.1</ele>
      </trkpt>
      <trkpt lat="44.39015" lon="4.40561">
        <ele>103.4</ele>
      </trkpt>
      <trkpt lat="44.39003" lon="4.40576">
        <ele>102.7</ele>
      </trkpt>
      <trkpt lat="44.38987" lon="4.40602">
        <ele>101.7</ele>
      </trkpt>
      <trkpt lat="44.38978" lon="4.40624">
        <ele>103.3</ele>
      </trkpt>
      <trkpt lat="44.38967" lon="4.40664">
        <ele>106.5</ele>
      </trkpt>
      <trkpt lat="44.38954" lon="4.40693">
        <ele>116.8</ele>
      </trkpt>
      <trkpt lat="44.38935" lon="4.40736">
        <ele>116.5</ele>
      </trkpt>
      <trkpt lat="44.38924" lon="4.40752">
        <ele>119.5</ele>
      </trkpt>
      <trkpt lat="44.38916" lon="4.40761">
        <ele>111.9</ele>
      </trkpt>
      <trkpt lat="44.38907" lon="4.40768">
        <ele>113.1</ele>
      </trkpt>
      <trkpt lat="44.38896" lon="4.40769">
        <ele>112.8</ele>
      </trkpt>
      <trkpt lat="44.38879" lon="4.40766">
        <ele>110.4</ele>
      </trkpt>
      <trkpt lat="44.38869" lon="4.40766">
        <ele>108.4</ele>
      </trkpt>
      <trkpt lat="44.3886" lon="4.40769">
        <ele>106.8</ele>
      </trkpt>
      <trkpt lat="44.38849" lon="4.40776">
        <ele>106</ele>
      </trkpt>
      <trkpt lat="44.38794" lon="4.40839">
        <ele>128.8</ele>
      </trkpt>
      <trkpt lat="44.38783" lon="4.40846">
        <ele>130.1</ele>
      </trkpt>
      <trkpt lat="44.38739" lon="4.40852">
        <ele>136.6</ele>
      </trkpt>
      <trkpt lat="44.3872" lon="4.40853">
        <ele>140.5</ele>
      </trkpt>
      <trkpt lat="44.38673" lon="4.40852">
        <ele>142.9</ele>
      </trkpt>
      <trkpt lat="44.38663" lon="4.40854">
        <ele>142.3</ele>
      </trkpt>
      <trkpt lat="44.38654" lon="4.40857">
        <ele>142.8</ele>
      </trkpt>
      <trkpt lat="44.3863" lon="4.40873">
        <ele>144.8</ele>
      </trkpt>
      <trkpt lat="44.38604" lon="4.4088">
        <ele>144.3</ele>
      </trkpt>
      <trkpt lat="44.38595" lon="4.4088">
        <ele>143.8</ele>
      </trkpt>
      <trkpt lat="44.38565" lon="4.40881">
        <ele>137.6</ele>
      </trkpt>
      <trkpt lat="44.38541" lon="4.4088">
        <ele>137</ele>
      </trkpt>
      <trkpt lat="44.38485" lon="4.40869">
        <ele>132.1</ele>
      </trkpt>
      <trkpt lat="44.38452" lon="4.40859">
        <ele>129.9</ele>
      </trkpt>
      <trkpt lat="44.3843" lon="4.40849">
        <ele>124.9</ele>
      </trkpt>
      <trkpt lat="44.38412" lon="4.40836">
        <ele>115.7</ele>
      </trkpt>
      <trkpt lat="44.38388" lon="4.40809">
        <ele>100.5</ele>
      </trkpt>
      <trkpt lat="44.38382" lon="4.40804">
        <ele>99.4</ele>
      </trkpt>
      <trkpt lat="44.38374" lon="4.40801">
        <ele>98.8</ele>
      </trkpt>
      <trkpt lat="44.38346" lon="4.40805">
        <ele>100</ele>
      </trkpt>
      <trkpt lat="44.38321" lon="4.40804">
        <ele>97.2</ele>
      </trkpt>
      <trkpt lat="44.38306" lon="4.40807">
        <ele>96.3</ele>
      </trkpt>
      <trkpt lat="44.38295" lon="4.40814">
        <ele>95.8</ele>
      </trkpt>
      <trkpt lat="44.38287" lon="4.40825">
        <ele>95.5</ele>
      </trkpt>
      <trkpt lat="44.38273" lon="4.40851">
        <ele>102.5</ele>
      </trkpt>
      <trkpt lat="44.38264" lon="4.40875">
        <ele>104.2</ele>
      </trkpt>
      <trkpt lat="44.3825" lon="4.40934">
        <ele>110.7</ele>
      </trkpt>
      <trkpt lat="44.38243" lon="4.40962">
        <ele>98.7</ele>
      </trkpt>
      <trkpt lat="44.38214" lon="4.41048">
        <ele>101.8</ele>
      </trkpt>
      <trkpt lat="44.38205" lon="4.41088">
        <ele>103.1</ele>
      </trkpt>
      <trkpt lat="44.38196" lon="4.41132">
        <ele>101.9</ele>
      </trkpt>
      <trkpt lat="44.38191" lon="4.41177">
        <ele>99.4</ele>
      </trkpt>
      <trkpt lat="44.38191" lon="4.41227">
        <ele>100.5</ele>
      </trkpt>
      <trkpt lat="44.38195" lon="4.41262">
        <ele>97.5</ele>
      </trkpt>
      <trkpt lat="44.38199" lon="4.4128">
        <ele>98.3</ele>
      </trkpt>
      <trkpt lat="44.38219" lon="4.41334">
        <ele>94.2</ele>
      </trkpt>
      <trkpt lat="44.38231" lon="4.41352">
        <ele>94.9</ele>
      </trkpt>
      <trkpt lat="44.38246" lon="4.41368">
        <ele>93.8</ele>
      </trkpt>
      <trkpt lat="44.38261" lon="4.41372">
        <ele>95.3</ele>
      </trkpt>
      <trkpt lat="44.38304" lon="4.41358">
        <ele>95</ele>
      </trkpt>
      <trkpt lat="44.38313" lon="4.41358">
        <ele>94.8</ele>
      </trkpt>
      <trkpt lat="44.38325" lon="4.41359">
        <ele>94.6</ele>
      </trkpt>
      <trkpt lat="44.38341" lon="4.41367">
        <ele>93.9</ele>
      </trkpt>
      <trkpt lat="44.38408" lon="4.41412">
        <ele>96.6</ele>
      </trkpt>
      <trkpt lat="44.38418" lon="4.41415">
        <ele>98.2</ele>
      </trkpt>
      <trkpt lat="44.38428" lon="4.41417">
        <ele>105</ele>
      </trkpt>
      <trkpt lat="44.38435" lon="4.41415">
        <ele>99.4</ele>
      </trkpt>
      <trkpt lat="44.38472" lon="4.41393">
        <ele>102.1</ele>
      </trkpt>
      <trkpt lat="44.38523" lon="4.41372">
        <ele>101.1</ele>
      </trkpt>
      <trkpt lat="44.38542" lon="4.41367">
        <ele>100</ele>
      </trkpt>
      <trkpt lat="44.38568" lon="4.41371">
        <ele>99.3</ele>
      </trkpt>
      <trkpt lat="44.38578" lon="4.4138">
        <ele>100.3</ele>
      </trkpt>
      <trkpt lat="44.38588" lon="4.41395">
        <ele>100.3</ele>
      </trkpt>
      <trkpt lat="44.386" lon="4.4142">
        <ele>105.2</ele>
      </trkpt>
      <trkpt lat="44.38612" lon="4.41465">
        <ele>106.6</ele>
      </trkpt>
      <trkpt lat="44.38624" lon="4.41532">
        <ele>107.6</ele>
      </trkpt>
      <trkpt lat="44.3863" lon="4.41589">
        <ele>105.3</ele>
      </trkpt>
      <trkpt lat="44.3863" lon="4.41607">
        <ele>105.1</ele>
      </trkpt>
      <trkpt lat="44.38626" lon="4.41624">
        <ele>105.2</ele>
      </trkpt>
      <trkpt lat="44.38621" lon="4.41639">
        <ele>105.2</ele>
      </trkpt>
      <trkpt lat="44.38602" lon="4.41685">
        <ele>103.2</ele>
      </trkpt>
      <trkpt lat="44.38578" lon="4.41728">
        <ele>104.3</ele>
      </trkpt>
      <trkpt lat="44.38554" lon="4.41758">
        <ele>98.5</ele>
      </trkpt>
      <trkpt lat="44.38503" lon="4.41794">
        <ele>98.6</ele>
      </trkpt>
      <trkpt lat="44.38439" lon="4.41813">
        <ele>98.7</ele>
      </trkpt>
      <trkpt lat="44.38423" lon="4.41822">
        <ele>96.8</ele>
      </trkpt>
      <trkpt lat="44.38381" lon="4.41853">
        <ele>122.8</ele>
      </trkpt>
      <trkpt lat="44.38364" lon="4.41862">
        <ele>127</ele>
      </trkpt>
      <trkpt lat="44.38345" lon="4.41865">
        <ele>128</ele>
      </trkpt>
      <trkpt lat="44.38313" lon="4.41863">
        <ele>132</ele>
      </trkpt>
      <trkpt lat="44.38198" lon="4.41836">
        <ele>123.4</ele>
      </trkpt>
      <trkpt lat="44.38094" lon="4.41831">
        <ele>106.1</ele>
      </trkpt>
      <trkpt lat="44.3806" lon="4.41826">
        <ele>101.7</ele>
      </trkpt>
      <trkpt lat="44.37979" lon="4.41831">
        <ele>98</ele>
      </trkpt>
      <trkpt lat="44.37959" lon="4.41835">
        <ele>110.8</ele>
      </trkpt>
      <trkpt lat="44.37943" lon="4.41839">
        <ele>109.6</ele>
      </trkpt>
      <trkpt lat="44.37868" lon="4.41864">
        <ele>106.3</ele>
      </trkpt>
      <trkpt lat="44.37838" lon="4.41877">
        <ele>106.9</ele>
      </trkpt>
      <trkpt lat="44.37814" lon="4.4189">
        <ele>103.8</ele>
      </trkpt>
      <trkpt lat="44.37793" lon="4.41904">
        <ele>103.3</ele>
      </trkpt>
      <trkpt lat="44.37745" lon="4.4197">
        <ele>105.3</ele>
      </trkpt>
      <trkpt lat="44.37727" lon="4.41988">
        <ele>105.7</ele>
      </trkpt>
      <trkpt lat="44.37717" lon="4.42006">
        <ele>110.4</ele>
      </trkpt>
      <trkpt lat="44.37699" lon="4.42048">
        <ele>110.3</ele>
      </trkpt>
      <trkpt lat="44.37682" lon="4.42088">
        <ele>111.8</ele>
      </trkpt>
      <trkpt lat="44.37662" lon="4.4214">
        <ele>104.8</ele>
      </trkpt>
      <trkpt lat="44.37635" lon="4.42207">
        <ele>107.4</ele>
      </trkpt>
      <trkpt lat="44.3763" lon="4.42224">
        <ele>107.4</ele>
      </trkpt>
      <trkpt lat="44.37628" lon="4.4224">
        <ele>107.6</ele>
      </trkpt>
      <trkpt lat="44.37624" lon="4.42275">
        <ele>108.1</ele>
      </trkpt>
      <trkpt lat="44.37627" lon="4.42324">
        <ele>108.6</ele>
      </trkpt>
      <trkpt lat="44.37634" lon="4.42361">
        <ele>106.1</ele>
      </trkpt>
      <trkpt lat="44.37643" lon="4.42392">
        <ele>105.7</ele>
      </trkpt>
      <trkpt lat="44.37679" lon="4.42479">
        <ele>109.9</ele>
      </trkpt>
      <trkpt lat="44.37684" lon="4.42536">
        <ele>102.1</ele>
      </trkpt>
      <trkpt lat="44.37689" lon="4.42562">
        <ele>100.6</ele>
      </trkpt>
      <trkpt lat="44.37736" lon="4.42661">
        <ele>99</ele>
      </trkpt>
      <trkpt lat="44.37762" lon="4.42721">
        <ele>104.4</ele>
      </trkpt>
      <trkpt lat="44.3777" lon="4.42738">
        <ele>103.3</ele>
      </trkpt>
      <trkpt lat="44.37823" lon="4.42856">
        <ele>96.8</ele>
      </trkpt>
      <trkpt lat="44.37855" lon="4.42933">
        <ele>103.8</ele>
      </trkpt>
      <trkpt lat="44.37882" lon="4.4302">
        <ele>99.6</ele>
      </trkpt>
      <trkpt lat="44.37897" lon="4.43075">
        <ele>96.4</ele>
      </trkpt>
      <trkpt lat="44.37907" lon="4.43143">
        <ele>90.9</ele>
      </trkpt>
      <trkpt lat="44.37929" lon="4.43298">
        <ele>110.4</ele>
      </trkpt>
      <trkpt lat="44.37934" lon="4.43369">
        <ele>106.4</ele>
      </trkpt>
      <trkpt lat="44.37936" lon="4.43453">
        <ele>101.2</ele>
      </trkpt>
      <trkpt lat="44.37935" lon="4.43469">
        <ele>100.2</ele>
      </trkpt>
      <trkpt lat="44.37932" lon="4.43484">
        <ele>97.5</ele>
      </trkpt>
      <trkpt lat="44.37927" lon="4.43495">
        <ele>93.6</ele>
      </trkpt>
      <trkpt lat="44.37913" lon="4.43524">
        <ele>85.6</ele>
      </trkpt>
      <trkpt lat="44.37896" lon="4.43558">
        <ele>85.3</ele>
      </trkpt>
      <trkpt lat="44.3789" lon="4.43576">
        <ele>85.3</ele>
      </trkpt>
      <trkpt lat="44.37888" lon="4.43595">
        <ele>92</ele>
      </trkpt>
      <trkpt lat="44.37893" lon="4.43608">
        <ele>93</ele>
      </trkpt>
      <trkpt lat="44.37907" lon="4.43634">
        <ele>95.6</ele>
      </trkpt>
      <trkpt lat="44.37963" lon="4.43711">
        <ele>104.2</ele>
      </trkpt>
      <trkpt lat="44.38029" lon="4.4379">
        <ele>110.1</ele>
      </trkpt>
      <trkpt lat="44.38085" lon="4.4385">
        <ele>112.4</ele>
      </trkpt>
      <trkpt lat="44.38129" lon="4.43902">
        <ele>115.7</ele>
      </trkpt>
      <trkpt lat="44.38199" lon="4.44005">
        <ele>139</ele>
      </trkpt>
      <trkpt lat="44.38211" lon="4.44028">
        <ele>139.5</ele>
      </trkpt>
      <trkpt lat="44.38236" lon="4.44092">
        <ele>151.9</ele>
      </trkpt>
      <trkpt lat="44.38246" lon="4.44108">
        <ele>154.9</ele>
      </trkpt>
      <trkpt lat="44.38281" lon="4.44138">
        <ele>141.5</ele>
      </trkpt>
      <trkpt lat="44.38292" lon="4.44153">
        <ele>140.9</ele>
      </trkpt>
      <trkpt lat="44.38301" lon="4.44169">
        <ele>154.1</ele>
      </trkpt>
      <trkpt lat="44.38333" lon="4.44258">
        <ele>167.9</ele>
      </trkpt>
      <trkpt lat="44.38339" lon="4.4428">
        <ele>153.8</ele>
      </trkpt>
      <trkpt lat="44.38351" lon="4.44336">
        <ele>169</ele>
      </trkpt>
      <trkpt lat="44.38396" lon="4.44591">
        <ele>195.3</ele>
      </trkpt>
      <trkpt lat="44.38402" lon="4.4461">
        <ele>198</ele>
      </trkpt>
      <trkpt lat="44.38411" lon="4.44631">
        <ele>200.3</ele>
      </trkpt>
      <trkpt lat="44.38426" lon="4.44656">
        <ele>182.1</ele>
      </trkpt>
      <trkpt lat="44.38433" lon="4.44678">
        <ele>188.8</ele>
      </trkpt>
      <trkpt lat="44.38437" lon="4.44698">
        <ele>188.1</ele>
      </trkpt>
      <trkpt lat="44.38441" lon="4.44727">
        <ele>191.6</ele>
      </trkpt>
      <trkpt lat="44.38444" lon="4.4478">
        <ele>207.2</ele>
      </trkpt>
      <trkpt lat="44.38438" lon="4.44799">
        <ele>211.2</ele>
      </trkpt>
      <trkpt lat="44.38427" lon="4.448">
        <ele>213.6</ele>
      </trkpt>
      <trkpt lat="44.38424" lon="4.44796">
        <ele>213</ele>
      </trkpt>
      <trkpt lat="44.38421" lon="4.44788">
        <ele>211.7</ele>
      </trkpt>
      <trkpt lat="44.38426" lon="4.44745">
        <ele>203.2</ele>
      </trkpt>
      <trkpt lat="44.38424" lon="4.4473">
        <ele>197.2</ele>
      </trkpt>
      <trkpt lat="44.38419" lon="4.44713">
        <ele>192.6</ele>
      </trkpt>
      <trkpt lat="44.38409" lon="4.44695">
        <ele>213.1</ele>
      </trkpt>
      <trkpt lat="44.38347" lon="4.44613">
        <ele>212.2</ele>
      </trkpt>
      <trkpt lat="44.38329" lon="4.44583">
        <ele>222.6</ele>
      </trkpt>
      <trkpt lat="44.38266" lon="4.44463">
        <ele>226.3</ele>
      </trkpt>
      <trkpt lat="44.38243" lon="4.44435">
        <ele>253.1</ele>
      </trkpt>
      <trkpt lat="44.38213" lon="4.44405">
        <ele>243.4</ele>
      </trkpt>
      <trkpt lat="44.3817" lon="4.44368">
        <ele>244.4</ele>
      </trkpt>
      <trkpt lat="44.38155" lon="4.44352">
        <ele>266.8</ele>
      </trkpt>
      <trkpt lat="44.3811" lon="4.44329">
        <ele>266.3</ele>
      </trkpt>
      <trkpt lat="44.3808" lon="4.44316">
        <ele>296.8</ele>
      </trkpt>
      <trkpt lat="44.38058" lon="4.44305">
        <ele>295.5</ele>
      </trkpt>
      <trkpt lat="44.38041" lon="4.44289">
        <ele>294.7</ele>
      </trkpt>
      <trkpt lat="44.38027" lon="4.44268">
        <ele>293.5</ele>
      </trkpt>
      <trkpt lat="44.38011" lon="4.44238">
        <ele>275</ele>
      </trkpt>
      <trkpt lat="44.37994" lon="4.4421">
        <ele>292</ele>
      </trkpt>
      <trkpt lat="44.37977" lon="4.44186">
        <ele>286.3</ele>
      </trkpt>
      <trkpt lat="44.37946" lon="4.44154">
        <ele>270.1</ele>
      </trkpt>
      <trkpt lat="44.37907" lon="4.44125">
        <ele>308.2</ele>
      </trkpt>
      <trkpt lat="44.37893" lon="4.44107">
        <ele>306</ele>
      </trkpt>
      <trkpt lat="44.37889" lon="4.44094">
        <ele>303.7</ele>
      </trkpt>
      <trkpt lat="44.3789" lon="4.4405">
        <ele>277.9</ele>
      </trkpt>
      <trkpt lat="44.37889" lon="4.44035">
        <ele>275.1</ele>
      </trkpt>
      <trkpt lat="44.37882" lon="4.4402">
        <ele>275.1</ele>
      </trkpt>
      <trkpt lat="44.37876" lon="4.44012">
        <ele>277.7</ele>
      </trkpt>
      <trkpt lat="44.37854" lon="4.43995">
        <ele>269.2</ele>
      </trkpt>
      <trkpt lat="44.37839" lon="4.43977">
        <ele>267.2</ele>
      </trkpt>
      <trkpt lat="44.37802" lon="4.43907">
        <ele>271.2</ele>
      </trkpt>
      <trkpt lat="44.37763" lon="4.43853">
        <ele>282.2</ele>
      </trkpt>
      <trkpt lat="44.37753" lon="4.43843">
        <ele>287.5</ele>
      </trkpt>
      <trkpt lat="44.37741" lon="4.43835">
        <ele>304.7</ele>
      </trkpt>
      <trkpt lat="44.377" lon="4.43816">
        <ele>290</ele>
      </trkpt>
      <trkpt lat="44.37687" lon="4.43812">
        <ele>291.4</ele>
      </trkpt>
      <trkpt lat="44.37672" lon="4.43812">
        <ele>293.9</ele>
      </trkpt>
      <trkpt lat="44.37648" lon="4.43818">
        <ele>298.8</ele>
      </trkpt>
      <trkpt lat="44.37488" lon="4.43895">
        <ele>317.2</ele>
      </trkpt>
      <trkpt lat="44.37473" lon="4.43896">
        <ele>316</ele>
      </trkpt>
      <trkpt lat="44.37435" lon="4.4389">
        <ele>314.4</ele>
      </trkpt>
      <trkpt lat="44.3742" lon="4.43894">
        <ele>315.7</ele>
      </trkpt>
      <trkpt lat="44.37406" lon="4.439">
        <ele>313.4</ele>
      </trkpt>
      <trkpt lat="44.37398" lon="4.43909">
        <ele>313.7</ele>
      </trkpt>
      <trkpt lat="44.37389" lon="4.43924">
        <ele>315.3</ele>
      </trkpt>
      <trkpt lat="44.3739" lon="4.43934">
        <ele>314.7</ele>
      </trkpt>
      <trkpt lat="44.37394" lon="4.43944">
        <ele>314.2</ele>
      </trkpt>
      <trkpt lat="44.374" lon="4.43951">
        <ele>313.9</ele>
      </trkpt>
      <trkpt lat="44.37451" lon="4.43992">
        <ele>321.2</ele>
      </trkpt>
      <trkpt lat="44.37455" lon="4.43999">
        <ele>321.6</ele>
      </trkpt>
      <trkpt lat="44.37462" lon="4.44014">
        <ele>321.5</ele>
      </trkpt>
      <trkpt lat="44.37464" lon="4.4403">
        <ele>321.6</ele>
      </trkpt>
      <trkpt lat="44.37463" lon="4.44048">
        <ele>321.6</ele>
      </trkpt>
      <trkpt lat="44.37457" lon="4.44065">
        <ele>320.8</ele>
      </trkpt>
      <trkpt lat="44.37384" lon="4.44172">
        <ele>309.7</ele>
      </trkpt>
      <trkpt lat="44.37377" lon="4.44186">
        <ele>307.6</ele>
      </trkpt>
      <trkpt lat="44.37372" lon="4.44202">
        <ele>306.7</ele>
      </trkpt>
      <trkpt lat="44.3737" lon="4.4422">
        <ele>306.6</ele>
      </trkpt>
      <trkpt lat="44.37371" lon="4.44316">
        <ele>309.3</ele>
      </trkpt>
      <trkpt lat="44.37368" lon="4.44334">
        <ele>311.4</ele>
      </trkpt>
      <trkpt lat="44.37364" lon="4.4435">
        <ele>311.2</ele>
      </trkpt>
      <trkpt lat="44.37355" lon="4.44366">
        <ele>311.1</ele>
      </trkpt>
      <trkpt lat="44.37342" lon="4.4438">
        <ele>311.1</ele>
      </trkpt>
      <trkpt lat="44.3733" lon="4.44387">
        <ele>299.1</ele>
      </trkpt>
      <trkpt lat="44.37315" lon="4.44389">
        <ele>298.2</ele>
      </trkpt>
      <trkpt lat="44.37273" lon="4.44374">
        <ele>292.7</ele>
      </trkpt>
      <trkpt lat="44.37262" lon="4.44374">
        <ele>291.9</ele>
      </trkpt>
      <trkpt lat="44.37252" lon="4.44379">
        <ele>291.8</ele>
      </trkpt>
      <trkpt lat="44.37241" lon="4.44393">
        <ele>281.3</ele>
      </trkpt>
      <trkpt lat="44.37237" lon="4.44406">
        <ele>283.1</ele>
      </trkpt>
      <trkpt lat="44.37234" lon="4.44434">
        <ele>281.4</ele>
      </trkpt>
      <trkpt lat="44.37233" lon="4.44472">
        <ele>279.8</ele>
      </trkpt>
      <trkpt lat="44.37236" lon="4.445">
        <ele>282</ele>
      </trkpt>
      <trkpt lat="44.37258" lon="4.44641">
        <ele>284.5</ele>
      </trkpt>
      <trkpt lat="44.37266" lon="4.44667">
        <ele>275.7</ele>
      </trkpt>
      <trkpt lat="44.37277" lon="4.44689">
        <ele>276.9</ele>
      </trkpt>
      <trkpt lat="44.37291" lon="4.44708">
        <ele>277.2</ele>
      </trkpt>
      <trkpt lat="44.37312" lon="4.44729">
        <ele>277.1</ele>
      </trkpt>
      <trkpt lat="44.37377" lon="4.44749">
        <ele>288.3</ele>
      </trkpt>
      <trkpt lat="44.37384" lon="4.44755">
        <ele>281.5</ele>
      </trkpt>
      <trkpt lat="44.3739" lon="4.44765">
        <ele>281.9</ele>
      </trkpt>
      <trkpt lat="44.37391" lon="4.44776">
        <ele>281.9</ele>
      </trkpt>
      <trkpt lat="44.37389" lon="4.44787">
        <ele>281.9</ele>
      </trkpt>
      <trkpt lat="44.37383" lon="4.44798">
        <ele>281.5</ele>
      </trkpt>
      <trkpt lat="44.37336" lon="4.44829">
        <ele>272.9</ele>
      </trkpt>
      <trkpt lat="44.37324" lon="4.44848">
        <ele>271.9</ele>
      </trkpt>
      <trkpt lat="44.37304" lon="4.44907">
        <ele>276.6</ele>
      </trkpt>
      <trkpt lat="44.37298" lon="4.4492">
        <ele>289.2</ele>
      </trkpt>
      <trkpt lat="44.3729" lon="4.44929">
        <ele>289.8</ele>
      </trkpt>
      <trkpt lat="44.3728" lon="4.44932">
        <ele>289.6</ele>
      </trkpt>
      <trkpt lat="44.37271" lon="4.4493">
        <ele>288.3</ele>
      </trkpt>
      <trkpt lat="44.37236" lon="4.44896">
        <ele>270</ele>
      </trkpt>
      <trkpt lat="44.37217" lon="4.44883">
        <ele>266.3</ele>
      </trkpt>
      <trkpt lat="44.37171" lon="4.44861">
        <ele>259.5</ele>
      </trkpt>
      <trkpt lat="44.37155" lon="4.44858">
        <ele>247.2</ele>
      </trkpt>
      <trkpt lat="44.37138" lon="4.4486">
        <ele>245.5</ele>
      </trkpt>
      <trkpt lat="44.37123" lon="4.44871">
        <ele>244.3</ele>
      </trkpt>
      <trkpt lat="44.37113" lon="4.44884">
        <ele>244</ele>
      </trkpt>
      <trkpt lat="44.37085" lon="4.44965">
        <ele>262.1</ele>
      </trkpt>
      <trkpt lat="44.37047" lon="4.4505">
        <ele>253.5</ele>
      </trkpt>
      <trkpt lat="44.3703" lon="4.45074">
        <ele>251.4</ele>
      </trkpt>
      <trkpt lat="44.36987" lon="4.45124">
        <ele>246.4</ele>
      </trkpt>
      <trkpt lat="44.36955" lon="4.45167">
        <ele>254.9</ele>
      </trkpt>
      <trkpt lat="44.36926" lon="4.45211">
        <ele>251.4</ele>
      </trkpt>
      <trkpt lat="44.36921" lon="4.45222">
        <ele>250.6</ele>
      </trkpt>
      <trkpt lat="44.36919" lon="4.45232">
        <ele>249</ele>
      </trkpt>
      <trkpt lat="44.36919" lon="4.45246">
        <ele>244.6</ele>
      </trkpt>
      <trkpt lat="44.36923" lon="4.45259">
        <ele>247</ele>
      </trkpt>
      <trkpt lat="44.36976" lon="4.45327">
        <ele>261.7</ele>
      </trkpt>
      <trkpt lat="44.36988" lon="4.4536">
        <ele>255.6</ele>
      </trkpt>
      <trkpt lat="44.36999" lon="4.4543">
        <ele>250.9</ele>
      </trkpt>
      <trkpt lat="44.37008" lon="4.4545">
        <ele>263.8</ele>
      </trkpt>
      <trkpt lat="44.37035" lon="4.45494">
        <ele>265.5</ele>
      </trkpt>
      <trkpt lat="44.3704" lon="4.45509">
        <ele>265</ele>
      </trkpt>
      <trkpt lat="44.37045" lon="4.4559">
        <ele>267.9</ele>
      </trkpt>
      <trkpt lat="44.37063" lon="4.45652">
        <ele>269</ele>
      </trkpt>
      <trkpt lat="44.37102" lon="4.45737">
        <ele>279.5</ele>
      </trkpt>
      <trkpt lat="44.37107" lon="4.45755">
        <ele>278.1</ele>
      </trkpt>
      <trkpt lat="44.37112" lon="4.45807">
        <ele>281.6</ele>
      </trkpt>
      <trkpt lat="44.37128" lon="4.45894">
        <ele>284.9</ele>
      </trkpt>
      <trkpt lat="44.37129" lon="4.45937">
        <ele>285.2</ele>
      </trkpt>
      <trkpt lat="44.37126" lon="4.45997">
        <ele>284.7</ele>
      </trkpt>
      <trkpt lat="44.37118" lon="4.46047">
        <ele>287.7</ele>
      </trkpt>
      <trkpt lat="44.37113" lon="4.46065">
        <ele>287.5</ele>
      </trkpt>
      <trkpt lat="44.37109" lon="4.46074">
        <ele>287</ele>
      </trkpt>
      <trkpt lat="44.37101" lon="4.46081">
        <ele>285.6</ele>
      </trkpt>
      <trkpt lat="44.3709" lon="4.46085">
        <ele>285.3</ele>
      </trkpt>
      <trkpt lat="44.3708" lon="4.46083">
        <ele>284</ele>
      </trkpt>
      <trkpt lat="44.37072" lon="4.46076">
        <ele>288.5</ele>
      </trkpt>
      <trkpt lat="44.37065" lon="4.46064">
        <ele>292</ele>
      </trkpt>
      <trkpt lat="44.37062" lon="4.46046">
        <ele>293.2</ele>
      </trkpt>
      <trkpt lat="44.37061" lon="4.46008">
        <ele>289.6</ele>
      </trkpt>
      <trkpt lat="44.37058" lon="4.45987">
        <ele>286.8</ele>
      </trkpt>
      <trkpt lat="44.37054" lon="4.45972">
        <ele>288.2</ele>
      </trkpt>
      <trkpt lat="44.37038" lon="4.4594">
        <ele>290.2</ele>
      </trkpt>
      <trkpt lat="44.36989" lon="4.45849">
        <ele>298.4</ele>
      </trkpt>
      <trkpt lat="44.36952" lon="4.45791">
        <ele>297.1</ele>
      </trkpt>
      <trkpt lat="44.36883" lon="4.45692">
        <ele>308.1</ele>
      </trkpt>
      <trkpt lat="44.36853" lon="4.45648">
        <ele>300.8</ele>
      </trkpt>
      <trkpt lat="44.36764" lon="4.4553">
        <ele>312.1</ele>
      </trkpt>
      <trkpt lat="44.36746" lon="4.45501">
        <ele>322.6</ele>
      </trkpt>
      <trkpt lat="44.36712" lon="4.45431">
        <ele>313.9</ele>
      </trkpt>
      <trkpt lat="44.36703" lon="4.4542">
        <ele>314.9</ele>
      </trkpt>
      <trkpt lat="44.36693" lon="4.45414">
        <ele>304.4</ele>
      </trkpt>
      <trkpt lat="44.36683" lon="4.45416">
        <ele>308.7</ele>
      </trkpt>
      <trkpt lat="44.36675" lon="4.45427">
        <ele>318.7</ele>
      </trkpt>
      <trkpt lat="44.36671" lon="4.45444">
        <ele>319.2</ele>
      </trkpt>
      <trkpt lat="44.36671" lon="4.45479">
        <ele>323.9</ele>
      </trkpt>
      <trkpt lat="44.36675" lon="4.455">
        <ele>330.9</ele>
        <extensions>
          <visugpx:TrkExtension xmlns:visugpx="https://www.visugpx.com/editgpx/">
            <visugpx:node>24</visugpx:node>
            </visugpx:TrkExtension>
        </extensions>
      </trkpt>
      <trkpt lat="44.36685" lon="4.45574">
        <ele>334.2</ele>
      </trkpt>
      <trkpt lat="44.36685" lon="4.45595">
        <ele>338.4</ele>
      </trkpt>
      <trkpt lat="44.36682" lon="4.45613">
        <ele>339</ele>
      </trkpt>
      <trkpt lat="44.36666" lon="4.45648">
        <ele>342.1</ele>
      </trkpt>
      <trkpt lat="44.36651" lon="4.45675">
        <ele>342.5</ele>
      </trkpt>
      <trkpt lat="44.36643" lon="4.45702">
        <ele>341.4</ele>
      </trkpt>
      <trkpt lat="44.36638" lon="4.45734">
        <ele>341</ele>
      </trkpt>
      <trkpt lat="44.36638" lon="4.45882">
        <ele>321.5</ele>
      </trkpt>
      <trkpt lat="44.36642" lon="4.4592">
        <ele>319.3</ele>
      </trkpt>
      <trkpt lat="44.36648" lon="4.45954">
        <ele>317.1</ele>
      </trkpt>
      <trkpt lat="44.36702" lon="4.4618">
        <ele>317.2</ele>
      </trkpt>
      <trkpt lat="44.36707" lon="4.46223">
        <ele>317.1</ele>
      </trkpt>
      <trkpt lat="44.36703" lon="4.46305">
        <ele>310.6</ele>
      </trkpt>
      <trkpt lat="44.36704" lon="4.46346">
        <ele>305.2</ele>
      </trkpt>
      <trkpt lat="44.3671" lon="4.46373">
        <ele>305.1</ele>
      </trkpt>
      <trkpt lat="44.36724" lon="4.46396">
        <ele>306.3</ele>
      </trkpt>
      <trkpt lat="44.36757" lon="4.46445">
        <ele>311</ele>
      </trkpt>
      <trkpt lat="44.3685" lon="4.4655">
        <ele>310.5</ele>
      </trkpt>
      <trkpt lat="44.36859" lon="4.46565">
        <ele>310</ele>
      </trkpt>
      <trkpt lat="44.36865" lon="4.46584">
        <ele>308.9</ele>
      </trkpt>
      <trkpt lat="44.36865" lon="4.46601">
        <ele>309.4</ele>
      </trkpt>
      <trkpt lat="44.36861" lon="4.46617">
        <ele>309.9</ele>
      </trkpt>
      <trkpt lat="44.36851" lon="4.46632">
        <ele>310.2</ele>
      </trkpt>
      <trkpt lat="44.36833" lon="4.46646">
        <ele>306.2</ele>
      </trkpt>
      <trkpt lat="44.36765" lon="4.46681">
        <ele>304</ele>
      </trkpt>
      <trkpt lat="44.36749" lon="4.46693">
        <ele>296.5</ele>
      </trkpt>
      <trkpt lat="44.36734" lon="4.4671">
        <ele>295.6</ele>
      </trkpt>
      <trkpt lat="44.36721" lon="4.46733">
        <ele>295.1</ele>
      </trkpt>
      <trkpt lat="44.36714" lon="4.46763">
        <ele>295.2</ele>
      </trkpt>
      <trkpt lat="44.36707" lon="4.46798">
        <ele>294.4</ele>
      </trkpt>
      <trkpt lat="44.36701" lon="4.46851">
        <ele>296.6</ele>
      </trkpt>
      <trkpt lat="44.36699" lon="4.46891">
        <ele>298.2</ele>
      </trkpt>
      <trkpt lat="44.36694" lon="4.46911">
        <ele>298.2</ele>
      </trkpt>
      <trkpt lat="44.36683" lon="4.46925">
        <ele>300.5</ele>
      </trkpt>
      <trkpt lat="44.36675" lon="4.46933">
        <ele>300.5</ele>
      </trkpt>
      <trkpt lat="44.36656" lon="4.4693">
        <ele>297.5</ele>
      </trkpt>
      <trkpt lat="44.36645" lon="4.46924">
        <ele>297.6</ele>
      </trkpt>
      <trkpt lat="44.36584" lon="4.46869">
        <ele>289.5</ele>
      </trkpt>
      <trkpt lat="44.36448" lon="4.468">
        <ele>282.6</ele>
      </trkpt>
      <trkpt lat="44.36415" lon="4.4678">
        <ele>282.4</ele>
      </trkpt>
      <trkpt lat="44.36401" lon="4.46776">
        <ele>282.2</ele>
      </trkpt>
      <trkpt lat="44.36392" lon="4.46775">
        <ele>282.1</ele>
      </trkpt>
      <trkpt lat="44.3638" lon="4.46777">
        <ele>282</ele>
      </trkpt>
      <trkpt lat="44.36366" lon="4.46783">
        <ele>281.9</ele>
      </trkpt>
      <trkpt lat="44.36348" lon="4.46803">
        <ele>281.8</ele>
      </trkpt>
      <trkpt lat="44.36343" lon="4.46826">
        <ele>281.6</ele>
      </trkpt>
      <trkpt lat="44.36344" lon="4.4684">
        <ele>281.5</ele>
      </trkpt>
      <trkpt lat="44.36344" lon="4.46849">
        <ele>281.5</ele>
      </trkpt>
      <trkpt lat="44.36353" lon="4.46877">
        <ele>281.1</ele>
      </trkpt>
      <trkpt lat="44.36426" lon="4.47033">
        <ele>283.8</ele>
      </trkpt>
      <trkpt lat="44.36439" lon="4.4707">
        <ele>282.7</ele>
      </trkpt>
      <trkpt lat="44.36462" lon="4.47158">
        <ele>281.5</ele>
      </trkpt>
      <trkpt lat="44.36511" lon="4.47357">
        <ele>280.5</ele>
      </trkpt>
      <trkpt lat="44.36513" lon="4.47393">
        <ele>280.8</ele>
      </trkpt>
      <trkpt lat="44.36507" lon="4.47424">
        <ele>280.2</ele>
      </trkpt>
      <trkpt lat="44.36491" lon="4.47448">
        <ele>278.5</ele>
      </trkpt>
      <trkpt lat="44.36474" lon="4.47458">
        <ele>278.4</ele>
      </trkpt>
      <trkpt lat="44.36446" lon="4.47459">
        <ele>277.7</ele>
      </trkpt>
      <trkpt lat="44.3642" lon="4.47453">
        <ele>277.1</ele>
      </trkpt>
      <trkpt lat="44.36295" lon="4.47435">
        <ele>274.3</ele>
      </trkpt>
      <trkpt lat="44.36277" lon="4.4744">
        <ele>273.8</ele>
      </trkpt>
      <trkpt lat="44.36263" lon="4.4745">
        <ele>273.6</ele>
      </trkpt>
      <trkpt lat="44.36251" lon="4.47463">
        <ele>273.6</ele>
      </trkpt>
      <trkpt lat="44.36244" lon="4.47499">
        <ele>270.1</ele>
      </trkpt>
      <trkpt lat="44.36245" lon="4.47519">
        <ele>265.3</ele>
      </trkpt>
      <trkpt lat="44.3625" lon="4.47537">
        <ele>262.7</ele>
      </trkpt>
      <trkpt lat="44.36295" lon="4.47632">
        <ele>266</ele>
      </trkpt>
      <trkpt lat="44.3631" lon="4.47659">
        <ele>267</ele>
      </trkpt>
      <trkpt lat="44.36331" lon="4.47726">
        <ele>263.3</ele>
      </trkpt>
      <trkpt lat="44.36355" lon="4.47813">
        <ele>265.5</ele>
      </trkpt>
      <trkpt lat="44.36352" lon="4.47837">
        <ele>262.3</ele>
      </trkpt>
      <trkpt lat="44.36348" lon="4.47849">
        <ele>262.3</ele>
      </trkpt>
      <trkpt lat="44.36339" lon="4.4786">
        <ele>262.5</ele>
      </trkpt>
      <trkpt lat="44.36329" lon="4.47865">
        <ele>264.1</ele>
      </trkpt>
      <trkpt lat="44.36317" lon="4.47867">
        <ele>264.8</ele>
      </trkpt>
      <trkpt lat="44.36308" lon="4.47864">
        <ele>265.3</ele>
      </trkpt>
      <trkpt lat="44.36297" lon="4.47855">
        <ele>266</ele>
      </trkpt>
      <trkpt lat="44.36288" lon="4.47837">
        <ele>266.5</ele>
      </trkpt>
      <trkpt lat="44.36244" lon="4.4774">
        <ele>262.1</ele>
      </trkpt>
      <trkpt lat="44.36225" lon="4.47711">
        <ele>262.9</ele>
      </trkpt>
      <trkpt lat="44.36129" lon="4.47622">
        <ele>263.2</ele>
      </trkpt>
      <trkpt lat="44.36092" lon="4.47593">
        <ele>263.9</ele>
      </trkpt>
      <trkpt lat="44.36081" lon="4.47576">
        <ele>266.1</ele>
      </trkpt>
      <trkpt lat="44.36075" lon="4.47555">
        <ele>268.5</ele>
      </trkpt>
      <trkpt lat="44.36071" lon="4.47525">
        <ele>267</ele>
      </trkpt>
      <trkpt lat="44.36064" lon="4.47499">
        <ele>261.2</ele>
      </trkpt>
      <trkpt lat="44.3605" lon="4.47471">
        <ele>263.1</ele>
      </trkpt>
      <trkpt lat="44.36035" lon="4.47444">
        <ele>263.6</ele>
      </trkpt>
      <trkpt lat="44.36022" lon="4.47428">
        <ele>265.6</ele>
      </trkpt>
      <trkpt lat="44.35976" lon="4.47402">
        <ele>270</ele>
      </trkpt>
      <trkpt lat="44.35962" lon="4.4739">
        <ele>270.3</ele>
      </trkpt>
      <trkpt lat="44.35951" lon="4.47372">
        <ele>269.7</ele>
      </trkpt>
      <trkpt lat="44.35945" lon="4.47352">
        <ele>269.1</ele>
      </trkpt>
      <trkpt lat="44.35937" lon="4.47335">
        <ele>270.3</ele>
      </trkpt>
      <trkpt lat="44.35928" lon="4.47323">
        <ele>261.3</ele>
      </trkpt>
      <trkpt lat="44.35898" lon="4.473">
        <ele>273.1</ele>
      </trkpt>
      <trkpt lat="44.35886" lon="4.47286">
        <ele>272.4</ele>
      </trkpt>
      <trkpt lat="44.35874" lon="4.47267">
        <ele>272.2</ele>
      </trkpt>
      <trkpt lat="44.35861" lon="4.47238">
        <ele>258.2</ele>
      </trkpt>
      <trkpt lat="44.3582" lon="4.47177">
        <ele>266.3</ele>
      </trkpt>
      <trkpt lat="44.35807" lon="4.47154">
        <ele>258.9</ele>
      </trkpt>
      <trkpt lat="44.35781" lon="4.47091">
        <ele>260.6</ele>
      </trkpt>
      <trkpt lat="44.35771" lon="4.47069">
        <ele>248.9</ele>
      </trkpt>
      <trkpt lat="44.35759" lon="4.47055">
        <ele>247.8</ele>
      </trkpt>
      <trkpt lat="44.35709" lon="4.47017">
        <ele>262.9</ele>
      </trkpt>
      <trkpt lat="44.35695" lon="4.47011">
        <ele>263.5</ele>
      </trkpt>
      <trkpt lat="44.35647" lon="4.47015">
        <ele>273.1</ele>
      </trkpt>
      <trkpt lat="44.35637" lon="4.47014">
        <ele>275</ele>
      </trkpt>
      <trkpt lat="44.35628" lon="4.47006">
        <ele>276</ele>
      </trkpt>
      <trkpt lat="44.35566" lon="4.46929">
        <ele>272.6</ele>
      </trkpt>
      <trkpt lat="44.35541" lon="4.46899">
        <ele>268.6</ele>
      </trkpt>
      <trkpt lat="44.35492" lon="4.46817">
        <ele>281</ele>
      </trkpt>
      <trkpt lat="44.35472" lon="4.46773">
        <ele>280.7</ele>
      </trkpt>
      <trkpt lat="44.35449" lon="4.46711">
        <ele>273.5</ele>
      </trkpt>
      <trkpt lat="44.35434" lon="4.46686">
        <ele>274.8</ele>
      </trkpt>
      <trkpt lat="44.35405" lon="4.46664">
        <ele>282.4</ele>
      </trkpt>
      <trkpt lat="44.35355" lon="4.46588">
        <ele>286</ele>
      </trkpt>
      <trkpt lat="44.35333" lon="4.46529">
        <ele>282.3</ele>
      </trkpt>
      <trkpt lat="44.35322" lon="4.46518">
        <ele>280.9</ele>
      </trkpt>
      <trkpt lat="44.3531" lon="4.46514">
        <ele>281.5</ele>
      </trkpt>
      <trkpt lat="44.3528" lon="4.46514">
        <ele>283</ele>
      </trkpt>
      <trkpt lat="44.35229" lon="4.46527">
        <ele>284.7</ele>
      </trkpt>
      <trkpt lat="44.35211" lon="4.46525">
        <ele>284.6</ele>
      </trkpt>
      <trkpt lat="44.35185" lon="4.46515">
        <ele>283</ele>
      </trkpt>
      <trkpt lat="44.35129" lon="4.46486">
        <ele>269.2</ele>
      </trkpt>
      <trkpt lat="44.35067" lon="4.4646">
        <ele>255.6</ele>
      </trkpt>
      <trkpt lat="44.35059" lon="4.4646">
        <ele>254.6</ele>
      </trkpt>
      <trkpt lat="44.35048" lon="4.46465">
        <ele>254.3</ele>
      </trkpt>
      <trkpt lat="44.3504" lon="4.46471">
        <ele>254.4</ele>
      </trkpt>
      <trkpt lat="44.35031" lon="4.46484">
        <ele>255.8</ele>
      </trkpt>
      <trkpt lat="44.35025" lon="4.46501">
        <ele>272</ele>
      </trkpt>
      <trkpt lat="44.35014" lon="4.46542">
        <ele>275.6</ele>
      </trkpt>
      <trkpt lat="44.35001" lon="4.46602">
        <ele>282</ele>
      </trkpt>
      <trkpt lat="44.34995" lon="4.46617">
        <ele>280.9</ele>
      </trkpt>
      <trkpt lat="44.34986" lon="4.46628">
        <ele>281.8</ele>
      </trkpt>
      <trkpt lat="44.34976" lon="4.46633">
        <ele>282.2</ele>
      </trkpt>
      <trkpt lat="44.34964" lon="4.46632">
        <ele>282.5</ele>
      </trkpt>
      <trkpt lat="44.34954" lon="4.46627">
        <ele>282.5</ele>
      </trkpt>
      <trkpt lat="44.34918" lon="4.46586">
        <ele>277.6</ele>
      </trkpt>
      <trkpt lat="44.34905" lon="4.46576">
        <ele>266.3</ele>
      </trkpt>
      <trkpt lat="44.34892" lon="4.46573">
        <ele>260.6</ele>
      </trkpt>
      <trkpt lat="44.34882" lon="4.46573">
        <ele>258.1</ele>
      </trkpt>
      <trkpt lat="44.34861" lon="4.4658">
        <ele>257</ele>
      </trkpt>
      <trkpt lat="44.34849" lon="4.46589">
        <ele>271.4</ele>
      </trkpt>
      <trkpt lat="44.34838" lon="4.46602">
        <ele>272.3</ele>
      </trkpt>
      <trkpt lat="44.34832" lon="4.46618">
        <ele>259.3</ele>
      </trkpt>
      <trkpt lat="44.34829" lon="4.46637">
        <ele>263.3</ele>
      </trkpt>
      <trkpt lat="44.34831" lon="4.46657">
        <ele>274</ele>
      </trkpt>
      <trkpt lat="44.34841" lon="4.46702">
        <ele>290.1</ele>
      </trkpt>
      <trkpt lat="44.34846" lon="4.46734">
        <ele>292.2</ele>
      </trkpt>
      <trkpt lat="44.34845" lon="4.46756">
        <ele>295</ele>
      </trkpt>
      <trkpt lat="44.3484" lon="4.46778">
        <ele>296.4</ele>
      </trkpt>
      <trkpt lat="44.34829" lon="4.46797">
        <ele>291.8</ele>
      </trkpt>
      <trkpt lat="44.34817" lon="4.46811">
        <ele>292.5</ele>
      </trkpt>
      <trkpt lat="44.34776" lon="4.46834">
        <ele>296.2</ele>
      </trkpt>
      <trkpt lat="44.34744" lon="4.46847">
        <ele>293</ele>
      </trkpt>
      <trkpt lat="44.34732" lon="4.46848">
        <ele>293.2</ele>
      </trkpt>
      <trkpt lat="44.34717" lon="4.46846">
        <ele>293.1</ele>
      </trkpt>
      <trkpt lat="44.3466" lon="4.46819">
        <ele>281.2</ele>
      </trkpt>
      <trkpt lat="44.34638" lon="4.4681">
        <ele>276.1</ele>
      </trkpt>
      <trkpt lat="44.34625" lon="4.46808">
        <ele>274.7</ele>
      </trkpt>
      <trkpt lat="44.34614" lon="4.4681">
        <ele>274.3</ele>
      </trkpt>
      <trkpt lat="44.34605" lon="4.46814">
        <ele>274.6</ele>
      </trkpt>
      <trkpt lat="44.34595" lon="4.46822">
        <ele>275.9</ele>
      </trkpt>
      <trkpt lat="44.34581" lon="4.46846">
        <ele>275.5</ele>
      </trkpt>
      <trkpt lat="44.34574" lon="4.46875">
        <ele>273</ele>
      </trkpt>
      <trkpt lat="44.34572" lon="4.46905">
        <ele>275.4</ele>
      </trkpt>
      <trkpt lat="44.34567" lon="4.47002">
        <ele>275</ele>
      </trkpt>
      <trkpt lat="44.34563" lon="4.47054">
        <ele>269.9</ele>
      </trkpt>
      <trkpt lat="44.34563" lon="4.47075">
        <ele>270.9</ele>
      </trkpt>
      <trkpt lat="44.34567" lon="4.47094">
        <ele>266.7</ele>
      </trkpt>
      <trkpt lat="44.34589" lon="4.47146">
        <ele>278.2</ele>
      </trkpt>
      <trkpt lat="44.34593" lon="4.47167">
        <ele>274</ele>
      </trkpt>
      <trkpt lat="44.346" lon="4.47216">
        <ele>276.8</ele>
      </trkpt>
      <trkpt lat="44.34606" lon="4.47239">
        <ele>276</ele>
      </trkpt>
      <trkpt lat="44.34614" lon="4.47253">
        <ele>275.5</ele>
      </trkpt>
      <trkpt lat="44.34654" lon="4.473">
        <ele>280.6</ele>
      </trkpt>
      <trkpt lat="44.34658" lon="4.4731">
        <ele>281.6</ele>
      </trkpt>
      <trkpt lat="44.34659" lon="4.47323">
        <ele>283.6</ele>
      </trkpt>
      <trkpt lat="44.34658" lon="4.47336">
        <ele>283.8</ele>
      </trkpt>
      <trkpt lat="44.34654" lon="4.47348">
        <ele>280.7</ele>
      </trkpt>
      <trkpt lat="44.3464" lon="4.47375">
        <ele>276.5</ele>
      </trkpt>
      <trkpt lat="44.34634" lon="4.47393">
        <ele>275.7</ele>
      </trkpt>
      <trkpt lat="44.34632" lon="4.47407">
        <ele>275.4</ele>
      </trkpt>
      <trkpt lat="44.34634" lon="4.47418">
        <ele>274.6</ele>
      </trkpt>
      <trkpt lat="44.34638" lon="4.47427">
        <ele>275.1</ele>
      </trkpt>
      <trkpt lat="44.34646" lon="4.47438">
        <ele>275.7</ele>
      </trkpt>
      <trkpt lat="44.3467" lon="4.47461">
        <ele>284.3</ele>
      </trkpt>
      <trkpt lat="44.34678" lon="4.47473">
        <ele>283.6</ele>
      </trkpt>
      <trkpt lat="44.34683" lon="4.47486">
        <ele>282.7</ele>
      </trkpt>
      <trkpt lat="44.34683" lon="4.47498">
        <ele>281.7</ele>
      </trkpt>
      <trkpt lat="44.34681" lon="4.47508">
        <ele>283</ele>
      </trkpt>
      <trkpt lat="44.34678" lon="4.47518">
        <ele>284.2</ele>
      </trkpt>
      <trkpt lat="44.34669" lon="4.47527">
        <ele>285.3</ele>
      </trkpt>
      <trkpt lat="44.34525" lon="4.47584">
        <ele>284.7</ele>
      </trkpt>
      <trkpt lat="44.34505" lon="4.47594">
        <ele>281.5</ele>
      </trkpt>
      <trkpt lat="44.34496" lon="4.47602">
        <ele>276.6</ele>
      </trkpt>
      <trkpt lat="44.34487" lon="4.47615">
        <ele>277.7</ele>
      </trkpt>
      <trkpt lat="44.34478" lon="4.47633">
        <ele>280.1</ele>
      </trkpt>
      <trkpt lat="44.34474" lon="4.47642">
        <ele>281.4</ele>
      </trkpt>
      <trkpt lat="44.3447" lon="4.47649">
        <ele>282</ele>
      </trkpt>
      <trkpt lat="44.34464" lon="4.47656">
        <ele>282.1</ele>
      </trkpt>
      <trkpt lat="44.34452" lon="4.47664">
        <ele>281.8</ele>
      </trkpt>
      <trkpt lat="44.3438" lon="4.47695">
        <ele>291.4</ele>
      </trkpt>
      <trkpt lat="44.34357" lon="4.47695">
        <ele>289.9</ele>
      </trkpt>
      <trkpt lat="44.34326" lon="4.4769">
        <ele>278.1</ele>
      </trkpt>
      <trkpt lat="44.34313" lon="4.47692">
        <ele>277.3</ele>
      </trkpt>
      <trkpt lat="44.34283" lon="4.47704">
        <ele>275</ele>
      </trkpt>
      <trkpt lat="44.34224" lon="4.47755">
        <ele>284.5</ele>
      </trkpt>
      <trkpt lat="44.34213" lon="4.47772">
        <ele>282.5</ele>
      </trkpt>
      <trkpt lat="44.34198" lon="4.47824">
        <ele>289.1</ele>
      </trkpt>
      <trkpt lat="44.34193" lon="4.47835">
        <ele>300</ele>
      </trkpt>
      <trkpt lat="44.34185" lon="4.47839">
        <ele>299</ele>
      </trkpt>
      <trkpt lat="44.34175" lon="4.47846">
        <ele>298.4</ele>
      </trkpt>
      <trkpt lat="44.34134" lon="4.47878">
        <ele>289.8</ele>
      </trkpt>
      <trkpt lat="44.341" lon="4.47897">
        <ele>291.8</ele>
      </trkpt>
      <trkpt lat="44.34043" lon="4.47915">
        <ele>250.2</ele>
      </trkpt>
      <trkpt lat="44.34015" lon="4.47936">
        <ele>269.7</ele>
      </trkpt>
      <trkpt lat="44.34007" lon="4.47951">
        <ele>274.6</ele>
      </trkpt>
      <trkpt lat="44.34004" lon="4.47963">
        <ele>278.8</ele>
      </trkpt>
      <trkpt lat="44.34001" lon="4.47989">
        <ele>285.9</ele>
      </trkpt>
      <trkpt lat="44.33998" lon="4.48018">
        <ele>272.7</ele>
      </trkpt>
      <trkpt lat="44.33995" lon="4.48045">
        <ele>267.6</ele>
      </trkpt>
      <trkpt lat="44.33996" lon="4.48059">
        <ele>270.8</ele>
      </trkpt>
      <trkpt lat="44.34" lon="4.48065">
        <ele>290.3</ele>
      </trkpt>
      <trkpt lat="44.34007" lon="4.4807">
        <ele>290.2</ele>
      </trkpt>
      <trkpt lat="44.34015" lon="4.48071">
        <ele>290.3</ele>
      </trkpt>
      <trkpt lat="44.34028" lon="4.48064">
        <ele>290.4</ele>
      </trkpt>
      <trkpt lat="44.3405" lon="4.48045">
        <ele>291</ele>
      </trkpt>
      <trkpt lat="44.34062" lon="4.48036">
        <ele>291.7</ele>
      </trkpt>
      <trkpt lat="44.34087" lon="4.48027">
        <ele>293.1</ele>
      </trkpt>
      <trkpt lat="44.34098" lon="4.48026">
        <ele>292.9</ele>
      </trkpt>
      <trkpt lat="44.34112" lon="4.48031">
        <ele>292</ele>
      </trkpt>
      <trkpt lat="44.34124" lon="4.48033">
        <ele>291.5</ele>
      </trkpt>
      <trkpt lat="44.3425" lon="4.48077">
        <ele>286.7</ele>
      </trkpt>
      <trkpt lat="44.34264" lon="4.48084">
        <ele>283.4</ele>
      </trkpt>
      <trkpt lat="44.34287" lon="4.48109">
        <ele>281.8</ele>
      </trkpt>
      <trkpt lat="44.34326" lon="4.48169">
        <ele>275.8</ele>
      </trkpt>
      <trkpt lat="44.3433" lon="4.48177">
        <ele>275</ele>
      </trkpt>
      <trkpt lat="44.34385" lon="4.48262">
        <ele>270.5</ele>
      </trkpt>
      <trkpt lat="44.3439" lon="4.48274">
        <ele>270.5</ele>
      </trkpt>
      <trkpt lat="44.34392" lon="4.48288">
        <ele>270.3</ele>
      </trkpt>
      <trkpt lat="44.34392" lon="4.48302">
        <ele>270.1</ele>
      </trkpt>
      <trkpt lat="44.34389" lon="4.48316">
        <ele>269.9</ele>
      </trkpt>
      <trkpt lat="44.34384" lon="4.48328">
        <ele>269.7</ele>
      </trkpt>
      <trkpt lat="44.34375" lon="4.48339">
        <ele>269</ele>
      </trkpt>
      <trkpt lat="44.34324" lon="4.48395">
        <ele>265.5</ele>
      </trkpt>
      <trkpt lat="44.34314" lon="4.48412">
        <ele>265.6</ele>
      </trkpt>
      <trkpt lat="44.34305" lon="4.4843">
        <ele>265.1</ele>
      </trkpt>
      <trkpt lat="44.34299" lon="4.48448">
        <ele>264.7</ele>
      </trkpt>
      <trkpt lat="44.34296" lon="4.48467">
        <ele>264.5</ele>
      </trkpt>
      <trkpt lat="44.34278" lon="4.48598">
        <ele>259</ele>
      </trkpt>
      <trkpt lat="44.34273" lon="4.48616">
        <ele>258.9</ele>
      </trkpt>
      <trkpt lat="44.34263" lon="4.48635">
        <ele>257.9</ele>
      </trkpt>
      <trkpt lat="44.34222" lon="4.487">
        <ele>248</ele>
      </trkpt>
      <trkpt lat="44.34215" lon="4.48718">
        <ele>247.5</ele>
      </trkpt>
      <trkpt lat="44.3421" lon="4.4874">
        <ele>247.1</ele>
      </trkpt>
      <trkpt lat="44.34209" lon="4.48763">
        <ele>245.9</ele>
      </trkpt>
      <trkpt lat="44.34213" lon="4.48784">
        <ele>245.8</ele>
      </trkpt>
      <trkpt lat="44.34229" lon="4.48812">
        <ele>246.3</ele>
      </trkpt>
      <trkpt lat="44.34402" lon="4.49082">
        <ele>249</ele>
      </trkpt>
      <trkpt lat="44.3448" lon="4.49225">
        <ele>248.6</ele>
      </trkpt>
      <trkpt lat="44.3457" lon="4.49417">
        <ele>247.6</ele>
      </trkpt>
      <trkpt lat="44.34575" lon="4.49436">
        <ele>247.2</ele>
      </trkpt>
      <trkpt lat="44.34576" lon="4.49454">
        <ele>246.6</ele>
      </trkpt>
      <trkpt lat="44.34575" lon="4.49467">
        <ele>246.4</ele>
      </trkpt>
      <trkpt lat="44.34569" lon="4.49482">
        <ele>246.2</ele>
      </trkpt>
      <trkpt lat="44.34559" lon="4.49497">
        <ele>246.2</ele>
      </trkpt>
      <trkpt lat="44.34545" lon="4.49503">
        <ele>248.8</ele>
      </trkpt>
      <trkpt lat="44.34528" lon="4.49503">
        <ele>248.9</ele>
      </trkpt>
      <trkpt lat="44.34369" lon="4.49477">
        <ele>244.7</ele>
      </trkpt>
      <trkpt lat="44.34279" lon="4.49445">
        <ele>246.1</ele>
      </trkpt>
      <trkpt lat="44.34265" lon="4.49438">
        <ele>246.3</ele>
      </trkpt>
      <trkpt lat="44.34223" lon="4.4941">
        <ele>243.9</ele>
      </trkpt>
      <trkpt lat="44.34198" lon="4.49387">
        <ele>243.4</ele>
      </trkpt>
      <trkpt lat="44.34164" lon="4.49361">
        <ele>236.6</ele>
      </trkpt>
      <trkpt lat="44.34148" lon="4.49356">
        <ele>235.2</ele>
      </trkpt>
      <trkpt lat="44.3413" lon="4.49361">
        <ele>232.7</ele>
      </trkpt>
      <trkpt lat="44.34119" lon="4.49375">
        <ele>231.3</ele>
      </trkpt>
      <trkpt lat="44.34114" lon="4.49393">
        <ele>230.4</ele>
      </trkpt>
      <trkpt lat="44.34112" lon="4.4942">
        <ele>230.4</ele>
      </trkpt>
      <trkpt lat="44.34118" lon="4.49443">
        <ele>232.7</ele>
      </trkpt>
      <trkpt lat="44.34167" lon="4.49548">
        <ele>254.4</ele>
      </trkpt>
      <trkpt lat="44.34181" lon="4.4957">
        <ele>254.5</ele>
      </trkpt>
      <trkpt lat="44.34218" lon="4.49617">
        <ele>256.1</ele>
      </trkpt>
      <trkpt lat="44.3438" lon="4.49804">
        <ele>256.4</ele>
      </trkpt>
      <trkpt lat="44.34445" lon="4.49873">
        <ele>253.8</ele>
      </trkpt>
      <trkpt lat="44.34479" lon="4.49904">
        <ele>253.5</ele>
      </trkpt>
      <trkpt lat="44.34489" lon="4.49915">
        <ele>253.3</ele>
      </trkpt>
      <trkpt lat="44.34583" lon="4.50028">
        <ele>239</ele>
      </trkpt>
      <trkpt lat="44.34642" lon="4.50094">
        <ele>246.7</ele>
      </trkpt>
      <trkpt lat="44.34693" lon="4.50138">
        <ele>258.7</ele>
      </trkpt>
      <trkpt lat="44.34775" lon="4.50178">
        <ele>269.2</ele>
      </trkpt>
      <trkpt lat="44.34792" lon="4.50191">
        <ele>272.7</ele>
      </trkpt>
      <trkpt lat="44.34807" lon="4.50207">
        <ele>274.2</ele>
      </trkpt>
      <trkpt lat="44.34818" lon="4.50247">
        <ele>275.4</ele>
      </trkpt>
      <trkpt lat="44.34819" lon="4.5028">
        <ele>271.3</ele>
      </trkpt>
      <trkpt lat="44.3481" lon="4.50313">
        <ele>270.1</ele>
      </trkpt>
      <trkpt lat="44.34789" lon="4.50338">
        <ele>271.4</ele>
      </trkpt>
      <trkpt lat="44.347" lon="4.50361">
        <ele>258.4</ele>
      </trkpt>
      <trkpt lat="44.34686" lon="4.50373">
        <ele>257.2</ele>
      </trkpt>
      <trkpt lat="44.34681" lon="4.50387">
        <ele>256.5</ele>
      </trkpt>
      <trkpt lat="44.34679" lon="4.50404">
        <ele>254.6</ele>
      </trkpt>
      <trkpt lat="44.34681" lon="4.50427">
        <ele>254.6</ele>
      </trkpt>
      <trkpt lat="44.34688" lon="4.50447">
        <ele>257</ele>
      </trkpt>
      <trkpt lat="44.3471" lon="4.50489">
        <ele>260.7</ele>
      </trkpt>
      <trkpt lat="44.34713" lon="4.50504">
        <ele>264.5</ele>
      </trkpt>
      <trkpt lat="44.34713" lon="4.50524">
        <ele>264.9</ele>
      </trkpt>
      <trkpt lat="44.3471" lon="4.50538">
        <ele>264.9</ele>
      </trkpt>
      <trkpt lat="44.34703" lon="4.50555">
        <ele>264.4</ele>
      </trkpt>
      <trkpt lat="44.34632" lon="4.50674">
        <ele>286.9</ele>
      </trkpt>
      <trkpt lat="44.34604" lon="4.50722">
        <ele>287.5</ele>
      </trkpt>
      <trkpt lat="44.34589" lon="4.50752">
        <ele>289.9</ele>
      </trkpt>
      <trkpt lat="44.34558" lon="4.50791">
        <ele>285.4</ele>
      </trkpt>
      <trkpt lat="44.3454" lon="4.50809">
        <ele>284.6</ele>
      </trkpt>
      <trkpt lat="44.34498" lon="4.50838">
        <ele>280.5</ele>
      </trkpt>
      <trkpt lat="44.3437" lon="4.50925">
        <ele>277.5</ele>
      </trkpt>
      <trkpt lat="44.34328" lon="4.5095">
        <ele>274.3</ele>
      </trkpt>
      <trkpt lat="44.34312" lon="4.50957">
        <ele>274.1</ele>
      </trkpt>
      <trkpt lat="44.34259" lon="4.50965">
        <ele>272.7</ele>
      </trkpt>
      <trkpt lat="44.34019" lon="4.5097">
        <ele>261.8</ele>
      </trkpt>
      <trkpt lat="44.33964" lon="4.50974">
        <ele>258.1</ele>
      </trkpt>
      <trkpt lat="44.3395" lon="4.50977">
        <ele>257.6</ele>
      </trkpt>
      <trkpt lat="44.33932" lon="4.50986">
        <ele>257</ele>
      </trkpt>
      <trkpt lat="44.3391" lon="4.51002">
        <ele>257.2</ele>
      </trkpt>
      <trkpt lat="44.33874" lon="4.51049">
        <ele>261.3</ele>
      </trkpt>
      <trkpt lat="44.33851" lon="4.51093">
        <ele>265.5</ele>
      </trkpt>
      <trkpt lat="44.33825" lon="4.51146">
        <ele>265.5</ele>
      </trkpt>
      <trkpt lat="44.33814" lon="4.51179">
        <ele>263.8</ele>
      </trkpt>
      <trkpt lat="44.33811" lon="4.51196">
        <ele>262.7</ele>
      </trkpt>
      <trkpt lat="44.3381" lon="4.51213">
        <ele>262</ele>
      </trkpt>
      <trkpt lat="44.33811" lon="4.51232">
        <ele>261.7</ele>
      </trkpt>
      <trkpt lat="44.33815" lon="4.51254">
        <ele>257.1</ele>
      </trkpt>
      <trkpt lat="44.33827" lon="4.51287">
        <ele>253.8</ele>
      </trkpt>
      <trkpt lat="44.33849" lon="4.51327">
        <ele>257.6</ele>
      </trkpt>
      <trkpt lat="44.3386" lon="4.51351">
        <ele>255.6</ele>
      </trkpt>
      <trkpt lat="44.33864" lon="4.51366">
        <ele>255.7</ele>
      </trkpt>
      <trkpt lat="44.33868" lon="4.51399">
        <ele>254.7</ele>
      </trkpt>
      <trkpt lat="44.33883" lon="4.51468">
        <ele>250.4</ele>
      </trkpt>
      <trkpt lat="44.33895" lon="4.51489">
        <ele>250.2</ele>
      </trkpt>
      <trkpt lat="44.33912" lon="4.51508">
        <ele>249.4</ele>
      </trkpt>
      <trkpt lat="44.33928" lon="4.5152">
        <ele>251.9</ele>
      </trkpt>
      <trkpt lat="44.33932" lon="4.51523">
        <ele>252.1</ele>
      </trkpt>
      <trkpt lat="44.33941" lon="4.51536">
        <ele>252.5</ele>
      </trkpt>
      <trkpt lat="44.33945" lon="4.51552">
        <ele>252.4</ele>
      </trkpt>
      <trkpt lat="44.33946" lon="4.51571">
        <ele>252</ele>
      </trkpt>
      <trkpt lat="44.33942" lon="4.51588">
        <ele>252.9</ele>
      </trkpt>
      <trkpt lat="44.33934" lon="4.51601">
        <ele>253.1</ele>
      </trkpt>
      <trkpt lat="44.33904" lon="4.5161">
        <ele>253.2</ele>
      </trkpt>
      <trkpt lat="44.33833" lon="4.51621">
        <ele>257.2</ele>
      </trkpt>
      <trkpt lat="44.33816" lon="4.51617">
        <ele>257.6</ele>
      </trkpt>
      <trkpt lat="44.33748" lon="4.51585">
        <ele>264.3</ele>
      </trkpt>
      <trkpt lat="44.33588" lon="4.515">
        <ele>261.3</ele>
      </trkpt>
      <trkpt lat="44.33573" lon="4.51497">
        <ele>262.3</ele>
      </trkpt>
      <trkpt lat="44.33554" lon="4.5149">
        <ele>262</ele>
      </trkpt>
      <trkpt lat="44.33428" lon="4.51499">
        <ele>267.8</ele>
      </trkpt>
      <trkpt lat="44.33398" lon="4.51496">
        <ele>269</ele>
      </trkpt>
      <trkpt lat="44.33373" lon="4.51485">
        <ele>269.3</ele>
      </trkpt>
      <trkpt lat="44.33356" lon="4.51478">
        <ele>269.6</ele>
      </trkpt>
      <trkpt lat="44.33331" lon="4.51464">
        <ele>268.2</ele>
      </trkpt>
      <trkpt lat="44.33319" lon="4.51462">
        <ele>267.8</ele>
      </trkpt>
      <trkpt lat="44.33296" lon="4.51454">
        <ele>266.8</ele>
      </trkpt>
      <trkpt lat="44.33275" lon="4.51464">
        <ele>265.6</ele>
      </trkpt>
      <trkpt lat="44.3326" lon="4.5148">
        <ele>264.2</ele>
      </trkpt>
      <trkpt lat="44.33249" lon="4.51504">
        <ele>259.3</ele>
      </trkpt>
      <trkpt lat="44.33247" lon="4.51596">
        <ele>257.3</ele>
      </trkpt>
      <trkpt lat="44.33247" lon="4.51659">
        <ele>259.2</ele>
      </trkpt>
      <trkpt lat="44.33252" lon="4.51689">
        <ele>262.5</ele>
      </trkpt>
      <trkpt lat="44.33263" lon="4.51719">
        <ele>261.5</ele>
      </trkpt>
      <trkpt lat="44.33277" lon="4.51736">
        <ele>261.5</ele>
      </trkpt>
      <trkpt lat="44.33302" lon="4.51756">
        <ele>257.2</ele>
      </trkpt>
      <trkpt lat="44.33365" lon="4.51799">
        <ele>265.9</ele>
      </trkpt>
      <trkpt lat="44.33381" lon="4.51815">
        <ele>266.5</ele>
      </trkpt>
      <trkpt lat="44.33394" lon="4.51836">
        <ele>264.2</ele>
      </trkpt>
      <trkpt lat="44.33398" lon="4.51859">
        <ele>263.4</ele>
      </trkpt>
      <trkpt lat="44.33396" lon="4.51878">
        <ele>262.5</ele>
      </trkpt>
      <trkpt lat="44.33385" lon="4.51898">
        <ele>261.6</ele>
      </trkpt>
      <trkpt lat="44.33359" lon="4.5193">
        <ele>259.5</ele>
      </trkpt>
      <trkpt lat="44.33342" lon="4.51964">
        <ele>260.4</ele>
      </trkpt>
      <trkpt lat="44.33333" lon="4.51993">
        <ele>254.3</ele>
      </trkpt>
      <trkpt lat="44.33324" lon="4.52041">
        <ele>248.9</ele>
      </trkpt>
      <trkpt lat="44.33318" lon="4.52085">
        <ele>254.4</ele>
      </trkpt>
      <trkpt lat="44.3331" lon="4.52148">
        <ele>250</ele>
      </trkpt>
      <trkpt lat="44.33311" lon="4.52187">
        <ele>254</ele>
      </trkpt>
      <trkpt lat="44.33322" lon="4.52211">
        <ele>254.8</ele>
      </trkpt>
      <trkpt lat="44.33341" lon="4.52225">
        <ele>264.1</ele>
      </trkpt>
      <trkpt lat="44.33367" lon="4.5223">
        <ele>264.5</ele>
      </trkpt>
      <trkpt lat="44.33489" lon="4.52208">
        <ele>266.5</ele>
      </trkpt>
      <trkpt lat="44.33536" lon="4.52211">
        <ele>267</ele>
      </trkpt>
      <trkpt lat="44.33576" lon="4.52222">
        <ele>266.3</ele>
      </trkpt>
      <trkpt lat="44.33612" lon="4.52243">
        <ele>268.8</ele>
      </trkpt>
      <trkpt lat="44.33826" lon="4.52436">
        <ele>277.8</ele>
      </trkpt>
      <trkpt lat="44.3387" lon="4.52482">
        <ele>280.5</ele>
      </trkpt>
      <trkpt lat="44.33902" lon="4.52529">
        <ele>283.3</ele>
      </trkpt>
      <trkpt lat="44.33911" lon="4.52545">
        <ele>283.8</ele>
      </trkpt>
      <trkpt lat="44.33918" lon="4.5256">
        <ele>285.6</ele>
      </trkpt>
      <trkpt lat="44.33954" lon="4.5268">
        <ele>285.9</ele>
      </trkpt>
      <trkpt lat="44.3398" lon="4.52763">
        <ele>284.6</ele>
      </trkpt>
      <trkpt lat="44.33982" lon="4.5277">
        <ele>284.5</ele>
      </trkpt>
      <trkpt lat="44.34003" lon="4.52842">
        <ele>282.6</ele>
      </trkpt>
      <trkpt lat="44.34014" lon="4.52907">
        <ele>280.8</ele>
      </trkpt>
      <trkpt lat="44.34035" lon="4.53033">
        <ele>273.7</ele>
      </trkpt>
      <trkpt lat="44.34082" lon="4.53302">
        <ele>262.7</ele>
      </trkpt>
      <trkpt lat="44.34113" lon="4.5345">
        <ele>260.9</ele>
      </trkpt>
      <trkpt lat="44.34137" lon="4.53552">
        <ele>256.7</ele>
      </trkpt>
      <trkpt lat="44.34146" lon="4.53614">
        <ele>255.5</ele>
      </trkpt>
      <trkpt lat="44.34143" lon="4.53637">
        <ele>256</ele>
      </trkpt>
      <trkpt lat="44.34136" lon="4.53656">
        <ele>256.2</ele>
      </trkpt>
      <trkpt lat="44.34115" lon="4.53673">
        <ele>258.7</ele>
      </trkpt>
      <trkpt lat="44.33985" lon="4.53737">
        <ele>249.6</ele>
      </trkpt>
      <trkpt lat="44.33958" lon="4.53744">
        <ele>247.9</ele>
      </trkpt>
      <trkpt lat="44.33747" lon="4.53759">
        <ele>245</ele>
      </trkpt>
      <trkpt lat="44.33548" lon="4.53774">
        <ele>242.7</ele>
      </trkpt>
      <trkpt lat="44.33497" lon="4.53777">
        <ele>241.6</ele>
      </trkpt>
      <trkpt lat="44.33453" lon="4.53789">
        <ele>241.4</ele>
      </trkpt>
      <trkpt lat="44.33408" lon="4.53806">
        <ele>238.9</ele>
      </trkpt>
      <trkpt lat="44.3336" lon="4.53828">
        <ele>237.9</ele>
      </trkpt>
      <trkpt lat="44.33351" lon="4.53832">
        <ele>237.7</ele>
      </trkpt>
      <trkpt lat="44.33318" lon="4.53847">
        <ele>234.2</ele>
      </trkpt>
      <trkpt lat="44.3318" lon="4.5391">
        <ele>226.5</ele>
      </trkpt>
      <trkpt lat="44.33125" lon="4.53933">
        <ele>220.3</ele>
      </trkpt>
      <trkpt lat="44.32943" lon="4.54011">
        <ele>205.6</ele>
        <extensions>
          <visugpx:TrkExtension xmlns:visugpx="https://www.visugpx.com/editgpx/">
            <visugpx:node>25</visugpx:node>
            </visugpx:TrkExtension>
        </extensions>
      </trkpt>
      <trkpt lat="44.32931" lon="4.54017">
        <ele>204.6</ele>
      </trkpt>
      <trkpt lat="44.32916" lon="4.54031">
        <ele>194.3</ele>
      </trkpt>
      <trkpt lat="44.32907" lon="4.54047">
        <ele>194.1</ele>
      </trkpt>
      <trkpt lat="44.32902" lon="4.54072">
        <ele>196.9</ele>
      </trkpt>
      <trkpt lat="44.32906" lon="4.54093">
        <ele>197.5</ele>
      </trkpt>
      <trkpt lat="44.32915" lon="4.5411">
        <ele>194.5</ele>
      </trkpt>
      <trkpt lat="44.3293" lon="4.54121">
        <ele>200.4</ele>
      </trkpt>
      <trkpt lat="44.3295" lon="4.54128">
        <ele>199.9</ele>
      </trkpt>
      <trkpt lat="44.32992" lon="4.54132">
        <ele>199.3</ele>
      </trkpt>
      <trkpt lat="44.3302" lon="4.54129">
        <ele>200.1</ele>
      </trkpt>
      <trkpt lat="44.33049" lon="4.54122">
        <ele>200.8</ele>
      </trkpt>
      <trkpt lat="44.33158" lon="4.54078">
        <ele>203.3</ele>
      </trkpt>
      <trkpt lat="44.33175" lon="4.54077">
        <ele>202.4</ele>
      </trkpt>
      <trkpt lat="44.33187" lon="4.54082">
        <ele>204.1</ele>
      </trkpt>
      <trkpt lat="44.33193" lon="4.54089">
        <ele>201.4</ele>
      </trkpt>
      <trkpt lat="44.33197" lon="4.54098">
        <ele>201.7</ele>
      </trkpt>
      <trkpt lat="44.332" lon="4.5411">
        <ele>202</ele>
      </trkpt>
      <trkpt lat="44.33199" lon="4.5412">
        <ele>202.2</ele>
      </trkpt>
      <trkpt lat="44.33195" lon="4.54133">
        <ele>202.2</ele>
      </trkpt>
      <trkpt lat="44.33186" lon="4.54146">
        <ele>202</ele>
      </trkpt>
      <trkpt lat="44.33171" lon="4.54154">
        <ele>201.6</ele>
      </trkpt>
      <trkpt lat="44.3312" lon="4.54173">
        <ele>199.5</ele>
      </trkpt>
      <trkpt lat="44.33086" lon="4.54193">
        <ele>198</ele>
      </trkpt>
      <trkpt lat="44.33035" lon="4.54238">
        <ele>191.1</ele>
      </trkpt>
      <trkpt lat="44.33018" lon="4.54257">
        <ele>190.2</ele>
      </trkpt>
      <trkpt lat="44.33011" lon="4.54272">
        <ele>190.7</ele>
      </trkpt>
      <trkpt lat="44.33008" lon="4.54287">
        <ele>191.6</ele>
      </trkpt>
      <trkpt lat="44.3301" lon="4.54302">
        <ele>191.9</ele>
      </trkpt>
      <trkpt lat="44.33016" lon="4.54327">
        <ele>191.2</ele>
      </trkpt>
      <trkpt lat="44.33018" lon="4.54342">
        <ele>194.5</ele>
      </trkpt>
      <trkpt lat="44.33016" lon="4.54353">
        <ele>195.4</ele>
      </trkpt>
      <trkpt lat="44.3301" lon="4.54363">
        <ele>196</ele>
      </trkpt>
      <trkpt lat="44.32986" lon="4.54378">
        <ele>183.5</ele>
      </trkpt>
      <trkpt lat="44.32941" lon="4.544">
        <ele>179.4</ele>
      </trkpt>
      <trkpt lat="44.32926" lon="4.54413">
        <ele>177.5</ele>
      </trkpt>
      <trkpt lat="44.32913" lon="4.54428">
        <ele>174.3</ele>
      </trkpt>
      <trkpt lat="44.32906" lon="4.54444">
        <ele>173.5</ele>
      </trkpt>
      <trkpt lat="44.32898" lon="4.54471">
        <ele>174.8</ele>
      </trkpt>
      <trkpt lat="44.32892" lon="4.54478">
        <ele>174.7</ele>
      </trkpt>
      <trkpt lat="44.32885" lon="4.54482">
        <ele>173.9</ele>
      </trkpt>
      <trkpt lat="44.32876" lon="4.54482">
        <ele>172.5</ele>
      </trkpt>
      <trkpt lat="44.3286" lon="4.54476">
        <ele>170.1</ele>
      </trkpt>
      <trkpt lat="44.32842" lon="4.54466">
        <ele>168.2</ele>
      </trkpt>
      <trkpt lat="44.3283" lon="4.54465">
        <ele>154.5</ele>
      </trkpt>
      <trkpt lat="44.3282" lon="4.5447">
        <ele>154.3</ele>
      </trkpt>
      <trkpt lat="44.32814" lon="4.54479">
        <ele>154.5</ele>
      </trkpt>
      <trkpt lat="44.3281" lon="4.54491">
        <ele>155</ele>
      </trkpt>
      <trkpt lat="44.32811" lon="4.54503">
        <ele>153.5</ele>
      </trkpt>
      <trkpt lat="44.32817" lon="4.54515">
        <ele>153.8</ele>
      </trkpt>
      <trkpt lat="44.32855" lon="4.54557">
        <ele>169.2</ele>
      </trkpt>
      <trkpt lat="44.32871" lon="4.54581">
        <ele>171.4</ele>
      </trkpt>
      <trkpt lat="44.32875" lon="4.54595">
        <ele>172.2</ele>
      </trkpt>
      <trkpt lat="44.32876" lon="4.54609">
        <ele>172.7</ele>
      </trkpt>
      <trkpt lat="44.32873" lon="4.54624">
        <ele>172.3</ele>
      </trkpt>
      <trkpt lat="44.32867" lon="4.54639">
        <ele>171.2</ele>
      </trkpt>
      <trkpt lat="44.32852" lon="4.54659">
        <ele>165.9</ele>
      </trkpt>
      <trkpt lat="44.32805" lon="4.54703">
        <ele>148</ele>
      </trkpt>
      <trkpt lat="44.32795" lon="4.54721">
        <ele>147.3</ele>
      </trkpt>
      <trkpt lat="44.32749" lon="4.54833">
        <ele>145.4</ele>
      </trkpt>
      <trkpt lat="44.32743" lon="4.54854">
        <ele>133.4</ele>
      </trkpt>
      <trkpt lat="44.32741" lon="4.54875">
        <ele>130.5</ele>
      </trkpt>
      <trkpt lat="44.32753" lon="4.55049">
        <ele>136</ele>
      </trkpt>
      <trkpt lat="44.32756" lon="4.55062">
        <ele>133.2</ele>
      </trkpt>
      <trkpt lat="44.32762" lon="4.55073">
        <ele>131.2</ele>
      </trkpt>
      <trkpt lat="44.32772" lon="4.55081">
        <ele>133.4</ele>
      </trkpt>
      <trkpt lat="44.32814" lon="4.551">
        <ele>135</ele>
      </trkpt>
      <trkpt lat="44.32822" lon="4.55109">
        <ele>135</ele>
      </trkpt>
      <trkpt lat="44.32827" lon="4.55121">
        <ele>134.3</ele>
      </trkpt>
      <trkpt lat="44.32827" lon="4.55132">
        <ele>133.8</ele>
      </trkpt>
      <trkpt lat="44.32825" lon="4.55144">
        <ele>134</ele>
      </trkpt>
      <trkpt lat="44.3282" lon="4.55152">
        <ele>134.1</ele>
      </trkpt>
      <trkpt lat="44.32812" lon="4.55157">
        <ele>133</ele>
      </trkpt>
      <trkpt lat="44.32769" lon="4.55172">
        <ele>125</ele>
      </trkpt>
      <trkpt lat="44.32758" lon="4.55181">
        <ele>123.6</ele>
      </trkpt>
      <trkpt lat="44.32748" lon="4.55191">
        <ele>114.2</ele>
      </trkpt>
      <trkpt lat="44.32742" lon="4.55207">
        <ele>114.6</ele>
      </trkpt>
      <trkpt lat="44.32738" lon="4.55223">
        <ele>115.8</ele>
      </trkpt>
      <trkpt lat="44.32718" lon="4.5543">
        <ele>118.3</ele>
      </trkpt>
      <trkpt lat="44.32701" lon="4.55542">
        <ele>117.9</ele>
      </trkpt>
      <trkpt lat="44.32695" lon="4.556">
        <ele>116.6</ele>
      </trkpt>
      <trkpt lat="44.32692" lon="4.55619">
        <ele>117</ele>
      </trkpt>
      <trkpt lat="44.32686" lon="4.55632">
        <ele>117</ele>
      </trkpt>
      <trkpt lat="44.32677" lon="4.55641">
        <ele>116.8</ele>
      </trkpt>
      <trkpt lat="44.32664" lon="4.55644">
        <ele>119.7</ele>
      </trkpt>
      <trkpt lat="44.3265" lon="4.55641">
        <ele>121</ele>
      </trkpt>
      <trkpt lat="44.3264" lon="4.55633">
        <ele>122</ele>
      </trkpt>
      <trkpt lat="44.32631" lon="4.55619">
        <ele>122.7</ele>
      </trkpt>
      <trkpt lat="44.32626" lon="4.55598">
        <ele>122.8</ele>
      </trkpt>
      <trkpt lat="44.32615" lon="4.55512">
        <ele>122.2</ele>
      </trkpt>
      <trkpt lat="44.32608" lon="4.5548">
        <ele>121.3</ele>
      </trkpt>
      <trkpt lat="44.32591" lon="4.55427">
        <ele>123.4</ele>
      </trkpt>
      <trkpt lat="44.32577" lon="4.55378">
        <ele>134.3</ele>
      </trkpt>
      <trkpt lat="44.32573" lon="4.55339">
        <ele>131.7</ele>
      </trkpt>
      <trkpt lat="44.32574" lon="4.55277">
        <ele>133.3</ele>
      </trkpt>
      <trkpt lat="44.32582" lon="4.55172">
        <ele>130</ele>
      </trkpt>
      <trkpt lat="44.3258" lon="4.55153">
        <ele>125.8</ele>
      </trkpt>
      <trkpt lat="44.32575" lon="4.55139">
        <ele>123.2</ele>
      </trkpt>
      <trkpt lat="44.32565" lon="4.55128">
        <ele>121.5</ele>
      </trkpt>
      <trkpt lat="44.32553" lon="4.55126">
        <ele>120.5</ele>
      </trkpt>
      <trkpt lat="44.32541" lon="4.55132">
        <ele>120</ele>
      </trkpt>
      <trkpt lat="44.32505" lon="4.55183">
        <ele>127.3</ele>
      </trkpt>
      <trkpt lat="44.32468" lon="4.55221">
        <ele>122.5</ele>
      </trkpt>
      <trkpt lat="44.32394" lon="4.55286">
        <ele>118.5</ele>
      </trkpt>
      <trkpt lat="44.32384" lon="4.55303">
        <ele>119.2</ele>
      </trkpt>
      <trkpt lat="44.32359" lon="4.55337">
        <ele>126.5</ele>
      </trkpt>
      <trkpt lat="44.32344" lon="4.55353">
        <ele>125.1</ele>
      </trkpt>
      <trkpt lat="44.32269" lon="4.5541">
        <ele>108.2</ele>
      </trkpt>
      <trkpt lat="44.32259" lon="4.55422">
        <ele>109.8</ele>
      </trkpt>
      <trkpt lat="44.32251" lon="4.55436">
        <ele>112.3</ele>
      </trkpt>
      <trkpt lat="44.32243" lon="4.55459">
        <ele>103.7</ele>
      </trkpt>
      <trkpt lat="44.32242" lon="4.55485">
        <ele>105.3</ele>
      </trkpt>
      <trkpt lat="44.32245" lon="4.55532">
        <ele>106.2</ele>
      </trkpt>
      <trkpt lat="44.32258" lon="4.5568">
        <ele>104.5</ele>
      </trkpt>
      <trkpt lat="44.32261" lon="4.55728">
        <ele>107.2</ele>
      </trkpt>
      <trkpt lat="44.32259" lon="4.55749">
        <ele>104.8</ele>
      </trkpt>
      <trkpt lat="44.32253" lon="4.55764">
        <ele>106.6</ele>
      </trkpt>
      <trkpt lat="44.32242" lon="4.55777">
        <ele>102.9</ele>
      </trkpt>
      <trkpt lat="44.3223" lon="4.55782">
        <ele>103</ele>
      </trkpt>
      <trkpt lat="44.32225" lon="4.55785">
        <ele>103</ele>
      </trkpt>
      <trkpt lat="44.32212" lon="4.55782">
        <ele>103</ele>
      </trkpt>
      <trkpt lat="44.322" lon="4.55772">
        <ele>102.9</ele>
      </trkpt>
      <trkpt lat="44.32192" lon="4.55756">
        <ele>102.9</ele>
      </trkpt>
      <trkpt lat="44.32189" lon="4.55741">
        <ele>103.4</ele>
      </trkpt>
      <trkpt lat="44.32187" lon="4.55681">
        <ele>105.6</ele>
      </trkpt>
      <trkpt lat="44.32183" lon="4.55662">
        <ele>107.3</ele>
      </trkpt>
      <trkpt lat="44.3217" lon="4.5562">
        <ele>105.9</ele>
      </trkpt>
      <trkpt lat="44.32149" lon="4.55567">
        <ele>115.3</ele>
      </trkpt>
      <trkpt lat="44.32133" lon="4.5547">
        <ele>114.3</ele>
      </trkpt>
      <trkpt lat="44.32126" lon="4.55448">
        <ele>114.8</ele>
      </trkpt>
      <trkpt lat="44.32117" lon="4.55433">
        <ele>116.2</ele>
      </trkpt>
      <trkpt lat="44.32103" lon="4.55417">
        <ele>119.7</ele>
      </trkpt>
      <trkpt lat="44.32082" lon="4.554">
        <ele>131.4</ele>
      </trkpt>
      <trkpt lat="44.32073" lon="4.55389">
        <ele>133.7</ele>
      </trkpt>
      <trkpt lat="44.3207" lon="4.55379">
        <ele>134.6</ele>
      </trkpt>
      <trkpt lat="44.32071" lon="4.55366">
        <ele>134.6</ele>
      </trkpt>
      <trkpt lat="44.32075" lon="4.55356">
        <ele>133.8</ele>
      </trkpt>
      <trkpt lat="44.32114" lon="4.55327">
        <ele>124.4</ele>
      </trkpt>
      <trkpt lat="44.32151" lon="4.55288">
        <ele>122.3</ele>
      </trkpt>
      <trkpt lat="44.32179" lon="4.55246">
        <ele>119.6</ele>
      </trkpt>
      <trkpt lat="44.32207" lon="4.552">
        <ele>117.2</ele>
      </trkpt>
      <trkpt lat="44.3221" lon="4.55171">
        <ele>118.1</ele>
      </trkpt>
      <trkpt lat="44.32204" lon="4.55151">
        <ele>123.9</ele>
      </trkpt>
      <trkpt lat="44.3217" lon="4.55103">
        <ele>128.4</ele>
      </trkpt>
      <trkpt lat="44.32166" lon="4.55092">
        <ele>135.3</ele>
      </trkpt>
      <trkpt lat="44.32168" lon="4.55074">
        <ele>132</ele>
      </trkpt>
      <trkpt lat="44.32173" lon="4.55067">
        <ele>131.5</ele>
      </trkpt>
      <trkpt lat="44.32224" lon="4.5504">
        <ele>127.7</ele>
      </trkpt>
      <trkpt lat="44.32238" lon="4.5503">
        <ele>126.7</ele>
      </trkpt>
      <trkpt lat="44.32246" lon="4.55018">
        <ele>125.9</ele>
      </trkpt>
      <trkpt lat="44.32248" lon="4.54998">
        <ele>124.1</ele>
      </trkpt>
      <trkpt lat="44.32228" lon="4.54929">
        <ele>128.5</ele>
      </trkpt>
      <trkpt lat="44.32218" lon="4.54884">
        <ele>126.2</ele>
      </trkpt>
      <trkpt lat="44.32217" lon="4.54868">
        <ele>125.2</ele>
      </trkpt>
      <trkpt lat="44.32221" lon="4.54852">
        <ele>122.5</ele>
      </trkpt>
      <trkpt lat="44.32222" lon="4.54838">
        <ele>120.7</ele>
      </trkpt>
      <trkpt lat="44.32223" lon="4.5483">
        <ele>109.6</ele>
      </trkpt>
      <trkpt lat="44.32221" lon="4.54823">
        <ele>109.7</ele>
      </trkpt>
      <trkpt lat="44.32215" lon="4.54809">
        <ele>109.9</ele>
      </trkpt>
      <trkpt lat="44.32214" lon="4.54808">
        <ele>110</ele>
      </trkpt>
      <trkpt lat="44.32196" lon="4.5479">
        <ele>111.3</ele>
      </trkpt>
      <trkpt lat="44.32133" lon="4.5477">
        <ele>126.6</ele>
      </trkpt>
      <trkpt lat="44.32064" lon="4.54754">
        <ele>126.3</ele>
      </trkpt>
      <trkpt lat="44.3204" lon="4.54754">
        <ele>127.3</ele>
      </trkpt>
      <trkpt lat="44.32019" lon="4.54757">
        <ele>125.5</ele>
      </trkpt>
      <trkpt lat="44.3199" lon="4.54768">
        <ele>117.4</ele>
      </trkpt>
      <trkpt lat="44.3196" lon="4.54788">
        <ele>115.2</ele>
      </trkpt>
      <trkpt lat="44.31944" lon="4.54806">
        <ele>115.4</ele>
      </trkpt>
      <trkpt lat="44.31938" lon="4.54825">
        <ele>116.5</ele>
      </trkpt>
      <trkpt lat="44.31937" lon="4.54843">
        <ele>126</ele>
      </trkpt>
      <trkpt lat="44.31942" lon="4.54878">
        <ele>130.8</ele>
      </trkpt>
      <trkpt lat="44.3194" lon="4.5489">
        <ele>131.5</ele>
      </trkpt>
      <trkpt lat="44.31933" lon="4.549">
        <ele>131.5</ele>
      </trkpt>
      <trkpt lat="44.31922" lon="4.54906">
        <ele>131.2</ele>
      </trkpt>
      <trkpt lat="44.31899" lon="4.54913">
        <ele>120.2</ele>
      </trkpt>
      <trkpt lat="44.31872" lon="4.54925">
        <ele>124.9</ele>
      </trkpt>
      <trkpt lat="44.3186" lon="4.54939">
        <ele>123.9</ele>
      </trkpt>
      <trkpt lat="44.31835" lon="4.54989">
        <ele>127.1</ele>
      </trkpt>
      <trkpt lat="44.31826" lon="4.55">
        <ele>121.6</ele>
      </trkpt>
      <trkpt lat="44.31816" lon="4.55008">
        <ele>124.9</ele>
      </trkpt>
      <trkpt lat="44.31784" lon="4.55021">
        <ele>120.8</ele>
      </trkpt>
      <trkpt lat="44.3177" lon="4.55033">
        <ele>120</ele>
      </trkpt>
      <trkpt lat="44.31752" lon="4.55059">
        <ele>120.8</ele>
      </trkpt>
      <trkpt lat="44.31737" lon="4.55087">
        <ele>116</ele>
      </trkpt>
      <trkpt lat="44.31729" lon="4.55109">
        <ele>114.3</ele>
      </trkpt>
      <trkpt lat="44.3172" lon="4.55152">
        <ele>116</ele>
      </trkpt>
      <trkpt lat="44.31712" lon="4.55166">
        <ele>114.9</ele>
      </trkpt>
      <trkpt lat="44.31682" lon="4.55207">
        <ele>118.8</ele>
      </trkpt>
      <trkpt lat="44.3166" lon="4.55243">
        <ele>110</ele>
      </trkpt>
      <trkpt lat="44.31652" lon="4.55269">
        <ele>109.5</ele>
      </trkpt>
      <trkpt lat="44.31649" lon="4.55291">
        <ele>108.8</ele>
      </trkpt>
      <trkpt lat="44.31648" lon="4.55308">
        <ele>109.6</ele>
      </trkpt>
      <trkpt lat="44.31651" lon="4.55348">
        <ele>116</ele>
      </trkpt>
      <trkpt lat="44.31648" lon="4.55362">
        <ele>116</ele>
      </trkpt>
      <trkpt lat="44.31642" lon="4.5537">
        <ele>116</ele>
      </trkpt>
      <trkpt lat="44.31635" lon="4.55374">
        <ele>115.7</ele>
      </trkpt>
      <trkpt lat="44.31624" lon="4.55375">
        <ele>114.9</ele>
      </trkpt>
      <trkpt lat="44.31607" lon="4.55371">
        <ele>113.2</ele>
      </trkpt>
      <trkpt lat="44.31591" lon="4.5537">
        <ele>112</ele>
      </trkpt>
      <trkpt lat="44.31577" lon="4.55374">
        <ele>103.5</ele>
      </trkpt>
      <trkpt lat="44.31521" lon="4.55418">
        <ele>109.4</ele>
      </trkpt>
      <trkpt lat="44.31474" lon="4.55452">
        <ele>98.7</ele>
      </trkpt>
      <trkpt lat="44.31421" lon="4.55491">
        <ele>93.8</ele>
      </trkpt>
      <trkpt lat="44.31382" lon="4.55525">
        <ele>90.7</ele>
      </trkpt>
      <trkpt lat="44.31339" lon="4.55555">
        <ele>89.6</ele>
      </trkpt>
      <trkpt lat="44.31272" lon="4.55594">
        <ele>83.5</ele>
      </trkpt>
      <trkpt lat="44.31254" lon="4.55612">
        <ele>83.8</ele>
      </trkpt>
      <trkpt lat="44.3117" lon="4.55711">
        <ele>84</ele>
      </trkpt>
      <trkpt lat="44.31159" lon="4.5572">
        <ele>79.1</ele>
      </trkpt>
      <trkpt lat="44.31148" lon="4.55727">
        <ele>79.2</ele>
      </trkpt>
      <trkpt lat="44.31128" lon="4.55732">
        <ele>78.2</ele>
      </trkpt>
      <trkpt lat="44.3111" lon="4.55729">
        <ele>77.2</ele>
      </trkpt>
      <trkpt lat="44.31063" lon="4.55713">
        <ele>70.5</ele>
      </trkpt>
      <trkpt lat="44.31051" lon="4.55714">
        <ele>70</ele>
      </trkpt>
      <trkpt lat="44.31037" lon="4.55719">
        <ele>69.6</ele>
      </trkpt>
      <trkpt lat="44.30992" lon="4.55758">
        <ele>69.8</ele>
      </trkpt>
      <trkpt lat="44.30987" lon="4.55761">
        <ele>69.7</ele>
      </trkpt>
      <trkpt lat="44.30977" lon="4.55769">
        <ele>69.6</ele>
      </trkpt>
      <trkpt lat="44.30939" lon="4.5579">
        <ele>68.8</ele>
      </trkpt>
      <trkpt lat="44.30906" lon="4.55809">
        <ele>65.6</ele>
      </trkpt>
      <trkpt lat="44.30899" lon="4.55813">
        <ele>65.6</ele>
      </trkpt>
      <trkpt lat="44.30849" lon="4.55844">
        <ele>67.1</ele>
      </trkpt>
      <trkpt lat="44.30839" lon="4.55858">
        <ele>67.5</ele>
      </trkpt>
      <trkpt lat="44.30833" lon="4.5587">
        <ele>65.3</ele>
      </trkpt>
      <trkpt lat="44.30813" lon="4.55972">
        <ele>69.2</ele>
      </trkpt>
      <trkpt lat="44.30808" lon="4.55989">
        <ele>69.5</ele>
      </trkpt>
      <trkpt lat="44.30797" lon="4.56018">
        <ele>71.1</ele>
      </trkpt>
      <trkpt lat="44.3078" lon="4.56046">
        <ele>70.9</ele>
      </trkpt>
      <trkpt lat="44.30755" lon="4.56079">
        <ele>70.3</ele>
      </trkpt>
      <trkpt lat="44.3073" lon="4.5611">
        <ele>69.3</ele>
      </trkpt>
      <trkpt lat="44.307" lon="4.56143">
        <ele>68.7</ele>
      </trkpt>
      <trkpt lat="44.30649" lon="4.5619">
        <ele>65.8</ele>
      </trkpt>
      <trkpt lat="44.30628" lon="4.56209">
        <ele>65.6</ele>
      </trkpt>
      <trkpt lat="44.3058" lon="4.56254">
        <ele>63.7</ele>
      </trkpt>
      <trkpt lat="44.30555" lon="4.56282">
        <ele>62.9</ele>
      </trkpt>
      <trkpt lat="44.30527" lon="4.56323">
        <ele>61.7</ele>
      </trkpt>
      <trkpt lat="44.30518" lon="4.56342">
        <ele>62.4</ele>
      </trkpt>
      <trkpt lat="44.30508" lon="4.56366">
        <ele>63.3</ele>
      </trkpt>
      <trkpt lat="44.30502" lon="4.56394">
        <ele>63.6</ele>
      </trkpt>
      <trkpt lat="44.30501" lon="4.56397">
        <ele>63.5</ele>
      </trkpt>
      <trkpt lat="44.30492" lon="4.56432">
        <ele>61.3</ele>
      </trkpt>
      <trkpt lat="44.30482" lon="4.56476">
        <ele>61.5</ele>
      </trkpt>
      <trkpt lat="44.30481" lon="4.56483">
        <ele>61.7</ele>
      </trkpt>
      <trkpt lat="44.30479" lon="4.56494">
        <ele>61.9</ele>
      </trkpt>
      <trkpt lat="44.30474" lon="4.56509">
        <ele>62.9</ele>
      </trkpt>
      <trkpt lat="44.30464" lon="4.56557">
        <ele>63.3</ele>
      </trkpt>
      <trkpt lat="44.30449" lon="4.56605">
        <ele>65.8</ele>
      </trkpt>
      <trkpt lat="44.30432" lon="4.56642">
        <ele>66.3</ele>
      </trkpt>
      <trkpt lat="44.30409" lon="4.5668">
        <ele>65.1</ele>
      </trkpt>
      <trkpt lat="44.30397" lon="4.56703">
        <ele>64.8</ele>
      </trkpt>
      <trkpt lat="44.30383" lon="4.56727">
        <ele>64.7</ele>
      </trkpt>
      <trkpt lat="44.30335" lon="4.56812">
        <ele>67.3</ele>
      </trkpt>
      <trkpt lat="44.30327" lon="4.56827">
        <ele>65.5</ele>
      </trkpt>
      <trkpt lat="44.30321" lon="4.56838">
        <ele>66.5</ele>
      </trkpt>
      <trkpt lat="44.30268" lon="4.56935">
        <ele>66.4</ele>
      </trkpt>
      <trkpt lat="44.30258" lon="4.5695">
        <ele>66.7</ele>
      </trkpt>
      <trkpt lat="44.30164" lon="4.57115">
        <ele>61.8</ele>
      </trkpt>
      <trkpt lat="44.30161" lon="4.57115">
        <ele>61.7</ele>
      </trkpt>
      <trkpt lat="44.30129" lon="4.57163">
        <ele>61.6</ele>
      </trkpt>
      <trkpt lat="44.3012" lon="4.57179">
        <ele>62</ele>
      </trkpt>
      <trkpt lat="44.30113" lon="4.57199">
        <ele>61.7</ele>
      </trkpt>
      <trkpt lat="44.30108" lon="4.57219">
        <ele>61.3</ele>
      </trkpt>
      <trkpt lat="44.30106" lon="4.57243">
        <ele>60.6</ele>
      </trkpt>
      <trkpt lat="44.30106" lon="4.57259">
        <ele>59.1</ele>
      </trkpt>
      <trkpt lat="44.30098" lon="4.57258">
        <ele>58.5</ele>
      </trkpt>
      <trkpt lat="44.30093" lon="4.57256">
        <ele>58.1</ele>
      </trkpt>
      <trkpt lat="44.30091" lon="4.57255">
        <ele>57.9</ele>
      </trkpt>
      <trkpt lat="44.30086" lon="4.57242">
        <ele>58.5</ele>
      </trkpt>
      <trkpt lat="44.30053" lon="4.57132">
        <ele>55</ele>
      </trkpt>
      <trkpt lat="44.30051" lon="4.57128">
        <ele>54.9</ele>
      </trkpt>
      <trkpt lat="44.30036" lon="4.57086">
        <ele>54.6</ele>
      </trkpt>
      <trkpt lat="44.30031" lon="4.5707">
        <ele>53</ele>
      </trkpt>
      <trkpt lat="44.3003" lon="4.57051">
        <ele>52.6</ele>
      </trkpt>
      <trkpt lat="44.30031" lon="4.57032">
        <ele>52.1</ele>
      </trkpt>
      <trkpt lat="44.30041" lon="4.56981">
        <ele>50.5</ele>
      </trkpt>
      <trkpt lat="44.30044" lon="4.56967">
        <ele>50.6</ele>
      </trkpt>
      <trkpt lat="44.30046" lon="4.56961">
        <ele>50.6</ele>
      </trkpt>
      <trkpt lat="44.30048" lon="4.56952">
        <ele>50.7</ele>
      </trkpt>
      <trkpt lat="44.30056" lon="4.56904">
        <ele>51.3</ele>
      </trkpt>
      <trkpt lat="44.30071" lon="4.56838">
        <ele>52.6</ele>
      </trkpt>
      <trkpt lat="44.30096" lon="4.5675">
        <ele>54.9</ele>
      </trkpt>
      <trkpt lat="44.30091" lon="4.56738">
        <ele>54.8</ele>
      </trkpt>
      <trkpt lat="44.30028" lon="4.56707">
        <ele>50.1</ele>
      </trkpt>
      <trkpt lat="44.29943" lon="4.56667">
        <ele>52.1</ele>
      </trkpt>
      <trkpt lat="44.29928" lon="4.56659">
        <ele>54.9</ele>
      </trkpt>
      <trkpt lat="44.29913" lon="4.56651">
        <ele>56.1</ele>
      </trkpt>
      <trkpt lat="44.29894" lon="4.56639">
        <ele>56.1</ele>
      </trkpt>
      <trkpt lat="44.29887" lon="4.56635">
        <ele>56.1</ele>
      </trkpt>
      <trkpt lat="44.29846" lon="4.56615">
        <ele>55.5</ele>
      </trkpt>
      <trkpt lat="44.29827" lon="4.56603">
        <ele>54.2</ele>
      </trkpt>
      <trkpt lat="44.29825" lon="4.56601">
        <ele>54.2</ele>
      </trkpt>
      <trkpt lat="44.29818" lon="4.56588">
        <ele>54.3</ele>
      </trkpt>
      <trkpt lat="44.2981" lon="4.56567">
        <ele>54.4</ele>
      </trkpt>
      <trkpt lat="44.29803" lon="4.56542">
        <ele>54.5</ele>
      </trkpt>
      <trkpt lat="44.29802" lon="4.56537">
        <ele>54.5</ele>
      </trkpt>
      <trkpt lat="44.29751" lon="4.56333">
        <ele>58.3</ele>
      </trkpt>
      <trkpt lat="44.29706" lon="4.56162">
        <ele>62.3</ele>
      </trkpt>
      <trkpt lat="44.2969" lon="4.56131">
        <ele>63</ele>
      </trkpt>
      <trkpt lat="44.29638" lon="4.5608">
        <ele>64.4</ele>
      </trkpt>
      <trkpt lat="44.29605" lon="4.56033">
        <ele>64</ele>
      </trkpt>
      <trkpt lat="44.29585" lon="4.5601">
        <ele>62.9</ele>
      </trkpt>
      <trkpt lat="44.29579" lon="4.55998">
        <ele>61.6</ele>
      </trkpt>
      <trkpt lat="44.29572" lon="4.55981">
        <ele>60.6</ele>
      </trkpt>
      <trkpt lat="44.29561" lon="4.55998">
        <ele>60.4</ele>
      </trkpt>
      <trkpt lat="44.29555" lon="4.56011">
        <ele>59.8</ele>
      </trkpt>
      <trkpt lat="44.29551" lon="4.56022">
        <ele>59.5</ele>
      </trkpt>
      <trkpt lat="44.29545" lon="4.56039">
        <ele>59.1</ele>
      </trkpt>
      <trkpt lat="44.29538" lon="4.56058">
        <ele>58.7</ele>
      </trkpt>
      <trkpt lat="44.29531" lon="4.56079">
        <ele>58.4</ele>
      </trkpt>
      <trkpt lat="44.29529" lon="4.56091">
        <ele>57.5</ele>
      </trkpt>
      <trkpt lat="44.2952" lon="4.56147">
        <ele>57</ele>
      </trkpt>
      <trkpt lat="44.29511" lon="4.56231">
        <ele>56.6</ele>
      </trkpt>
      <trkpt lat="44.29505" lon="4.56272">
        <ele>56.6</ele>
      </trkpt>
      <trkpt lat="44.29503" lon="4.56289">
        <ele>56.7</ele>
      </trkpt>
      <trkpt lat="44.29502" lon="4.56293">
        <ele>56.8</ele>
      </trkpt>
      <trkpt lat="44.29496" lon="4.5632">
        <ele>60.9</ele>
      </trkpt>
      <trkpt lat="44.29433" lon="4.56508">
        <ele>67.1</ele>
        <extensions>
          <visugpx:TrkExtension xmlns:visugpx="https://www.visugpx.com/editgpx/">
            <visugpx:node>26</visugpx:node>
            </visugpx:TrkExtension>
        </extensions>
      </trkpt>
      <trkpt lat="44.2939" lon="4.56635">
        <ele>70.1</ele>
      </trkpt>
      <trkpt lat="44.29387" lon="4.56638">
        <ele>70.1</ele>
      </trkpt>
      <trkpt lat="44.29344" lon="4.56724">
        <ele>68.7</ele>
      </trkpt>
      <trkpt lat="44.2934" lon="4.5673">
        <ele>68.6</ele>
      </trkpt>
      <trkpt lat="44.29331" lon="4.56747">
        <ele>69</ele>
      </trkpt>
      <trkpt lat="44.29327" lon="4.56755">
        <ele>69</ele>
      </trkpt>
      <trkpt lat="44.29299" lon="4.56812">
        <ele>70.3</ele>
      </trkpt>
      <trkpt lat="44.29286" lon="4.56845">
        <ele>68.7</ele>
      </trkpt>
      <trkpt lat="44.29281" lon="4.56857">
        <ele>68.8</ele>
      </trkpt>
      <trkpt lat="44.29275" lon="4.56876">
        <ele>68.6</ele>
      </trkpt>
      <trkpt lat="44.29264" lon="4.56908">
        <ele>68.2</ele>
      </trkpt>
      <trkpt lat="44.29245" lon="4.56976">
        <ele>66.9</ele>
      </trkpt>
      <trkpt lat="44.29225" lon="4.57061">
        <ele>65.4</ele>
      </trkpt>
      <trkpt lat="44.29219" lon="4.57094">
        <ele>65.8</ele>
      </trkpt>
      <trkpt lat="44.29218" lon="4.57098">
        <ele>65.8</ele>
      </trkpt>
      <trkpt lat="44.29196" lon="4.5718">
        <ele>65.8</ele>
      </trkpt>
      <trkpt lat="44.29187" lon="4.57213">
        <ele>65.6</ele>
      </trkpt>
      <trkpt lat="44.29172" lon="4.57266">
        <ele>64.5</ele>
      </trkpt>
      <trkpt lat="44.29155" lon="4.57312">
        <ele>64.7</ele>
      </trkpt>
      <trkpt lat="44.29149" lon="4.57327">
        <ele>64.6</ele>
      </trkpt>
      <trkpt lat="44.29113" lon="4.57421">
        <ele>62.1</ele>
      </trkpt>
      <trkpt lat="44.29107" lon="4.57438">
        <ele>62</ele>
      </trkpt>
      <trkpt lat="44.29074" lon="4.57528">
        <ele>61.1</ele>
      </trkpt>
      <trkpt lat="44.29055" lon="4.57567">
        <ele>60.1</ele>
      </trkpt>
      <trkpt lat="44.29046" lon="4.57584">
        <ele>57.8</ele>
      </trkpt>
      <trkpt lat="44.29024" lon="4.57609">
        <ele>57.8</ele>
      </trkpt>
      <trkpt lat="44.28911" lon="4.57743">
        <ele>57.2</ele>
      </trkpt>
      <trkpt lat="44.28878" lon="4.57782">
        <ele>55.6</ele>
      </trkpt>
      <trkpt lat="44.28835" lon="4.57833">
        <ele>56</ele>
      </trkpt>
      <trkpt lat="44.28813" lon="4.5786">
        <ele>57</ele>
      </trkpt>
      <trkpt lat="44.28594" lon="4.5812">
        <ele>55.5</ele>
      </trkpt>
      <trkpt lat="44.28592" lon="4.58121">
        <ele>55.5</ele>
      </trkpt>
      <trkpt lat="44.2859" lon="4.58123">
        <ele>55.5</ele>
      </trkpt>
      <trkpt lat="44.2858" lon="4.58136">
        <ele>56.6</ele>
      </trkpt>
      <trkpt lat="44.28573" lon="4.58144">
        <ele>56.6</ele>
      </trkpt>
      <trkpt lat="44.28551" lon="4.58175">
        <ele>56.6</ele>
      </trkpt>
      <trkpt lat="44.28535" lon="4.58201">
        <ele>56.7</ele>
      </trkpt>
      <trkpt lat="44.28523" lon="4.58222">
        <ele>56.5</ele>
      </trkpt>
      <trkpt lat="44.28519" lon="4.58228">
        <ele>56.4</ele>
      </trkpt>
      <trkpt lat="44.28496" lon="4.58266">
        <ele>55.6</ele>
      </trkpt>
      <trkpt lat="44.28413" lon="4.58414">
        <ele>52.4</ele>
      </trkpt>
      <trkpt lat="44.28406" lon="4.58428">
        <ele>52.9</ele>
      </trkpt>
      <trkpt lat="44.28348" lon="4.58533">
        <ele>52.6</ele>
      </trkpt>
      <trkpt lat="44.2826" lon="4.5869">
        <ele>52.7</ele>
      </trkpt>
      <trkpt lat="44.28244" lon="4.58715">
        <ele>53.5</ele>
      </trkpt>
      <trkpt lat="44.28234" lon="4.5873">
        <ele>53.3</ele>
      </trkpt>
      <trkpt lat="44.28187" lon="4.58801">
        <ele>53.5</ele>
      </trkpt>
      <trkpt lat="44.28174" lon="4.58828">
        <ele>54.4</ele>
      </trkpt>
      <trkpt lat="44.28168" lon="4.58848">
        <ele>54.7</ele>
      </trkpt>
      <trkpt lat="44.28162" lon="4.58874">
        <ele>57.3</ele>
      </trkpt>
      <trkpt lat="44.28156" lon="4.58934">
        <ele>58</ele>
      </trkpt>
      <trkpt lat="44.28152" lon="4.58966">
        <ele>57.8</ele>
      </trkpt>
      <trkpt lat="44.28148" lon="4.58983">
        <ele>57.6</ele>
      </trkpt>
      <trkpt lat="44.28143" lon="4.58998">
        <ele>57.6</ele>
      </trkpt>
      <trkpt lat="44.2813" lon="4.59022">
        <ele>56.5</ele>
      </trkpt>
      <trkpt lat="44.28116" lon="4.59051">
        <ele>56.2</ele>
      </trkpt>
      <trkpt lat="44.28107" lon="4.59076">
        <ele>56</ele>
      </trkpt>
      <trkpt lat="44.28104" lon="4.59091">
        <ele>55.3</ele>
      </trkpt>
      <trkpt lat="44.28102" lon="4.59104">
        <ele>55.2</ele>
      </trkpt>
      <trkpt lat="44.28099" lon="4.59169">
        <ele>54.9</ele>
      </trkpt>
      <trkpt lat="44.28097" lon="4.59274">
        <ele>53.5</ele>
      </trkpt>
      <trkpt lat="44.28095" lon="4.59319">
        <ele>53.6</ele>
      </trkpt>
      <trkpt lat="44.28092" lon="4.59341">
        <ele>53.4</ele>
      </trkpt>
      <trkpt lat="44.2808" lon="4.59388">
        <ele>53.7</ele>
      </trkpt>
      <trkpt lat="44.28078" lon="4.59392">
        <ele>53.6</ele>
      </trkpt>
      <trkpt lat="44.28071" lon="4.59406">
        <ele>53.2</ele>
      </trkpt>
      <trkpt lat="44.28045" lon="4.59446">
        <ele>52</ele>
      </trkpt>
      <trkpt lat="44.2795" lon="4.59576">
        <ele>52.3</ele>
      </trkpt>
      <trkpt lat="44.27665" lon="4.59978">
        <ele>57.1</ele>
      </trkpt>
      <trkpt lat="44.27518" lon="4.60186">
        <ele>55.9</ele>
      </trkpt>
      <trkpt lat="44.27453" lon="4.60276">
        <ele>55.1</ele>
      </trkpt>
      <trkpt lat="44.27443" lon="4.6029">
        <ele>54.9</ele>
      </trkpt>
      <trkpt lat="44.27411" lon="4.60338">
        <ele>53.6</ele>
      </trkpt>
      <trkpt lat="44.27407" lon="4.60349">
        <ele>53.2</ele>
      </trkpt>
      <trkpt lat="44.27403" lon="4.60361">
        <ele>52.9</ele>
      </trkpt>
      <trkpt lat="44.27401" lon="4.60384">
        <ele>52.5</ele>
      </trkpt>
      <trkpt lat="44.27403" lon="4.6041">
        <ele>52.2</ele>
      </trkpt>
      <trkpt lat="44.27421" lon="4.60674">
        <ele>55.4</ele>
      </trkpt>
      <trkpt lat="44.27422" lon="4.60687">
        <ele>54.9</ele>
      </trkpt>
      <trkpt lat="44.27429" lon="4.60798">
        <ele>54</ele>
      </trkpt>
      <trkpt lat="44.2746" lon="4.61255">
        <ele>54.3</ele>
        <extensions>
          <visugpx:TrkExtension xmlns:visugpx="https://www.visugpx.com/editgpx/">
            <visugpx:node>27</visugpx:node>
            </visugpx:TrkExtension>
        </extensions>
      </trkpt>
      <trkpt lat="44.2748" lon="4.61548">
        <ele>55.7</ele>
      </trkpt>
      <trkpt lat="44.2749" lon="4.61695">
        <ele>59.2</ele>
      </trkpt>
      <trkpt lat="44.27495" lon="4.61775">
        <ele>59.7</ele>
      </trkpt>
      <trkpt lat="44.27508" lon="4.61961">
        <ele>60.2</ele>
      </trkpt>
      <trkpt lat="44.27526" lon="4.62235">
        <ele>61.6</ele>
      </trkpt>
      <trkpt lat="44.27532" lon="4.6232">
        <ele>62</ele>
      </trkpt>
      <trkpt lat="44.27541" lon="4.62465">
        <ele>59.5</ele>
      </trkpt>
      <trkpt lat="44.27542" lon="4.62493">
        <ele>59.3</ele>
      </trkpt>
      <trkpt lat="44.27543" lon="4.62517">
        <ele>58.4</ele>
      </trkpt>
      <trkpt lat="44.27545" lon="4.62536">
        <ele>58.2</ele>
      </trkpt>
      <trkpt lat="44.2755" lon="4.62546">
        <ele>58</ele>
      </trkpt>
      <trkpt lat="44.27554" lon="4.62554">
        <ele>57.8</ele>
      </trkpt>
      <trkpt lat="44.27549" lon="4.6256">
        <ele>57.9</ele>
      </trkpt>
      <trkpt lat="44.27488" lon="4.6264">
        <ele>60.1</ele>
      </trkpt>
      <trkpt lat="44.27361" lon="4.62799">
        <ele>62.4</ele>
      </trkpt>
      <trkpt lat="44.2729" lon="4.62893">
        <ele>63.5</ele>
      </trkpt>
      <trkpt lat="44.27266" lon="4.62923">
        <ele>62</ele>
      </trkpt>
      <trkpt lat="44.2726" lon="4.62932">
        <ele>62</ele>
      </trkpt>
      <trkpt lat="44.27243" lon="4.62952">
        <ele>64.5</ele>
      </trkpt>
      <trkpt lat="44.2724" lon="4.62955">
        <ele>64.5</ele>
      </trkpt>
      <trkpt lat="44.27234" lon="4.62963">
        <ele>64.6</ele>
      </trkpt>
      <trkpt lat="44.27136" lon="4.63091">
        <ele>64.1</ele>
      </trkpt>
      <trkpt lat="44.26954" lon="4.63325">
        <ele>66.4</ele>
      </trkpt>
      <trkpt lat="44.26937" lon="4.63348">
        <ele>64.7</ele>
      </trkpt>
      <trkpt lat="44.26901" lon="4.63396">
        <ele>65.1</ele>
      </trkpt>
      <trkpt lat="44.26889" lon="4.63411">
        <ele>65.2</ele>
      </trkpt>
      <trkpt lat="44.26841" lon="4.63474">
        <ele>63.3</ele>
      </trkpt>
      <trkpt lat="44.26703" lon="4.63652">
        <ele>64.9</ele>
      </trkpt>
      <trkpt lat="44.26688" lon="4.63671">
        <ele>62.8</ele>
      </trkpt>
      <trkpt lat="44.26674" lon="4.6369">
        <ele>62.5</ele>
      </trkpt>
      <trkpt lat="44.26633" lon="4.63744">
        <ele>62.8</ele>
      </trkpt>
      <trkpt lat="44.2659" lon="4.638">
        <ele>60.2</ele>
      </trkpt>
      <trkpt lat="44.26581" lon="4.63811">
        <ele>60.8</ele>
      </trkpt>
      <trkpt lat="44.26541" lon="4.63868">
        <ele>59.5</ele>
      </trkpt>
      <trkpt lat="44.26497" lon="4.63932">
        <ele>58.9</ele>
      </trkpt>
      <trkpt lat="44.26489" lon="4.63944">
        <ele>58.8</ele>
      </trkpt>
      <trkpt lat="44.26475" lon="4.63964">
        <ele>58.7</ele>
      </trkpt>
      <trkpt lat="44.26468" lon="4.63975">
        <ele>58.6</ele>
      </trkpt>
      <trkpt lat="44.26464" lon="4.63981">
        <ele>58.7</ele>
      </trkpt>
      <trkpt lat="44.26357" lon="4.64138">
        <ele>57</ele>
      </trkpt>
      <trkpt lat="44.2635" lon="4.64149">
        <ele>56.8</ele>
      </trkpt>
      <trkpt lat="44.26338" lon="4.64166">
        <ele>56.2</ele>
      </trkpt>
      <trkpt lat="44.26335" lon="4.6417">
        <ele>56</ele>
      </trkpt>
      <trkpt lat="44.26327" lon="4.64182">
        <ele>56.4</ele>
      </trkpt>
      <trkpt lat="44.26314" lon="4.642">
        <ele>56.6</ele>
      </trkpt>
      <trkpt lat="44.26304" lon="4.64214">
        <ele>56.6</ele>
      </trkpt>
      <trkpt lat="44.26293" lon="4.64231">
        <ele>56.7</ele>
      </trkpt>
      <trkpt lat="44.26249" lon="4.64298">
        <ele>56.5</ele>
      </trkpt>
      <trkpt lat="44.26213" lon="4.6435">
        <ele>55.9</ele>
      </trkpt>
      <trkpt lat="44.26189" lon="4.64386">
        <ele>55.6</ele>
      </trkpt>
      <trkpt lat="44.26165" lon="4.64419">
        <ele>55.2</ele>
      </trkpt>
      <trkpt lat="44.26152" lon="4.64438">
        <ele>55.9</ele>
      </trkpt>
      <trkpt lat="44.2612" lon="4.64486">
        <ele>56.6</ele>
      </trkpt>
      <trkpt lat="44.26057" lon="4.6458">
        <ele>56.9</ele>
      </trkpt>
      <trkpt lat="44.26047" lon="4.64595">
        <ele>56.4</ele>
      </trkpt>
      <trkpt lat="44.26043" lon="4.646">
        <ele>56.3</ele>
      </trkpt>
      <trkpt lat="44.2604" lon="4.64604">
        <ele>56.3</ele>
      </trkpt>
      <trkpt lat="44.26035" lon="4.64612">
        <ele>56.2</ele>
      </trkpt>
      <trkpt lat="44.26027" lon="4.64623">
        <ele>56.1</ele>
      </trkpt>
      <trkpt lat="44.26017" lon="4.64638">
        <ele>55.7</ele>
      </trkpt>
      <trkpt lat="44.26002" lon="4.64662">
        <ele>54.4</ele>
      </trkpt>
      <trkpt lat="44.2597" lon="4.64704">
        <ele>53.8</ele>
      </trkpt>
      <trkpt lat="44.25963" lon="4.6471">
        <ele>53.8</ele>
      </trkpt>
      <trkpt lat="44.25949" lon="4.64726">
        <ele>53.6</ele>
      </trkpt>
      <trkpt lat="44.25942" lon="4.64732">
        <ele>53.6</ele>
      </trkpt>
      <trkpt lat="44.25903" lon="4.64762">
        <ele>53.7</ele>
      </trkpt>
      <trkpt lat="44.25888" lon="4.64773">
        <ele>54</ele>
      </trkpt>
      <trkpt lat="44.25878" lon="4.64782">
        <ele>54.2</ele>
      </trkpt>
      <trkpt lat="44.25873" lon="4.64784">
        <ele>54.2</ele>
      </trkpt>
      <trkpt lat="44.25869" lon="4.64785">
        <ele>54.3</ele>
      </trkpt>
      <trkpt lat="44.25862" lon="4.64779">
        <ele>54.4</ele>
      </trkpt>
      <trkpt lat="44.25856" lon="4.64776">
        <ele>54.4</ele>
      </trkpt>
      <trkpt lat="44.25849" lon="4.64777">
        <ele>54.5</ele>
      </trkpt>
      <trkpt lat="44.25843" lon="4.64779">
        <ele>54.5</ele>
      </trkpt>
      <trkpt lat="44.25838" lon="4.64784">
        <ele>54.5</ele>
      </trkpt>
      <trkpt lat="44.25828" lon="4.64784">
        <ele>55.6</ele>
      </trkpt>
      <trkpt lat="44.25813" lon="4.64786">
        <ele>55.8</ele>
      </trkpt>
      <trkpt lat="44.25802" lon="4.64786">
        <ele>55.9</ele>
      </trkpt>
      <trkpt lat="44.25736" lon="4.6477">
        <ele>57.3</ele>
      </trkpt>
      <trkpt lat="44.2573" lon="4.64769">
        <ele>57.3</ele>
      </trkpt>
      <trkpt lat="44.25656" lon="4.64751">
        <ele>57.1</ele>
      </trkpt>
      <trkpt lat="44.25651" lon="4.6475">
        <ele>57</ele>
      </trkpt>
      <trkpt lat="44.25641" lon="4.64749">
        <ele>57</ele>
      </trkpt>
      <trkpt lat="44.25615" lon="4.64753">
        <ele>57.2</ele>
      </trkpt>
      <trkpt lat="44.25571" lon="4.64762">
        <ele>57.4</ele>
      </trkpt>
      <trkpt lat="44.25561" lon="4.64764">
        <ele>57.5</ele>
      </trkpt>
      <trkpt lat="44.25556" lon="4.64765">
        <ele>57.6</ele>
      </trkpt>
      <trkpt lat="44.25508" lon="4.64779">
        <ele>57.8</ele>
      </trkpt>
      <trkpt lat="44.255" lon="4.64786">
        <ele>57.8</ele>
      </trkpt>
      <trkpt lat="44.25486" lon="4.64792">
        <ele>57.5</ele>
      </trkpt>
      <trkpt lat="44.25476" lon="4.64797">
        <ele>57.4</ele>
      </trkpt>
      <trkpt lat="44.25467" lon="4.64804">
        <ele>57.4</ele>
      </trkpt>
      <trkpt lat="44.25462" lon="4.6481">
        <ele>57.3</ele>
      </trkpt>
      <trkpt lat="44.25455" lon="4.64804">
        <ele>57.3</ele>
      </trkpt>
      <trkpt lat="44.2538" lon="4.64777">
        <ele>55.9</ele>
      </trkpt>
      <trkpt lat="44.25325" lon="4.64754">
        <ele>54.9</ele>
      </trkpt>
      <trkpt lat="44.25297" lon="4.64743">
        <ele>54.7</ele>
      </trkpt>
      <trkpt lat="44.25293" lon="4.64742">
        <ele>54.7</ele>
      </trkpt>
      <trkpt lat="44.25266" lon="4.64732">
        <ele>54.5</ele>
      </trkpt>
      <trkpt lat="44.25186" lon="4.64702">
        <ele>54.2</ele>
      </trkpt>
      <trkpt lat="44.25118" lon="4.64677">
        <ele>54.2</ele>
      </trkpt>
      <trkpt lat="44.25113" lon="4.64674">
        <ele>54.2</ele>
      </trkpt>
      <trkpt lat="44.25049" lon="4.64637">
        <ele>53.3</ele>
      </trkpt>
      <trkpt lat="44.25044" lon="4.64634">
        <ele>53.2</ele>
      </trkpt>
      <trkpt lat="44.2503" lon="4.64626">
        <ele>53.1</ele>
      </trkpt>
      <trkpt lat="44.24983" lon="4.64597">
        <ele>53.2</ele>
      </trkpt>
      <trkpt lat="44.24972" lon="4.64591">
        <ele>53.3</ele>
      </trkpt>
      <trkpt lat="44.24802" lon="4.64486">
        <ele>54.1</ele>
      </trkpt>
      <trkpt lat="44.24766" lon="4.64465">
        <ele>53.8</ele>
      </trkpt>
      <trkpt lat="44.24477" lon="4.64285">
        <ele>51.2</ele>
      </trkpt>
      <trkpt lat="44.24463" lon="4.64281">
        <ele>51.4</ele>
      </trkpt>
      <trkpt lat="44.24447" lon="4.64267">
        <ele>51.9</ele>
      </trkpt>
      <trkpt lat="44.24397" lon="4.64235">
        <ele>54.4</ele>
      </trkpt>
      <trkpt lat="44.24387" lon="4.64229">
        <ele>54.5</ele>
      </trkpt>
      <trkpt lat="44.24387" lon="4.64222">
        <ele>54.6</ele>
      </trkpt>
      <trkpt lat="44.24382" lon="4.6421">
        <ele>54.7</ele>
      </trkpt>
      <trkpt lat="44.24378" lon="4.64206">
        <ele>54.8</ele>
      </trkpt>
      <trkpt lat="44.24372" lon="4.64204">
        <ele>54.8</ele>
      </trkpt>
      <trkpt lat="44.24365" lon="4.64207">
        <ele>54.7</ele>
      </trkpt>
      <trkpt lat="44.2436" lon="4.64212">
        <ele>54.6</ele>
      </trkpt>
      <trkpt lat="44.24358" lon="4.64218">
        <ele>54.5</ele>
      </trkpt>
      <trkpt lat="44.24357" lon="4.64224">
        <ele>54.4</ele>
      </trkpt>
      <trkpt lat="44.24357" lon="4.64231">
        <ele>54.3</ele>
      </trkpt>
      <trkpt lat="44.24359" lon="4.64237">
        <ele>54.2</ele>
      </trkpt>
      <trkpt lat="44.24363" lon="4.64243">
        <ele>54.2</ele>
      </trkpt>
      <trkpt lat="44.24368" lon="4.64247">
        <ele>54.2</ele>
      </trkpt>
      <trkpt lat="44.24374" lon="4.64247">
        <ele>54.3</ele>
      </trkpt>
      <trkpt lat="44.24379" lon="4.64245">
        <ele>54.3</ele>
      </trkpt>
      <trkpt lat="44.24384" lon="4.64239">
        <ele>54.4</ele>
      </trkpt>
      <trkpt lat="44.24394" lon="4.64245">
        <ele>54.3</ele>
      </trkpt>
      <trkpt lat="44.24409" lon="4.64255">
        <ele>53.4</ele>
        <extensions>
          <visugpx:TrkExtension xmlns:visugpx="https://www.visugpx.com/editgpx/">
            <visugpx:node>28</visugpx:node>
            </visugpx:TrkExtension>
        </extensions>
      </trkpt>
      <trkpt lat="44.24443" lon="4.64275">
        <ele>51.8</ele>
      </trkpt>
      <trkpt lat="44.24463" lon="4.64281">
        <ele>51.4</ele>
      </trkpt>
      <trkpt lat="44.24477" lon="4.64285">
        <ele>51.2</ele>
      </trkpt>
      <trkpt lat="44.24766" lon="4.64465">
        <ele>53.8</ele>
      </trkpt>
      <trkpt lat="44.24802" lon="4.64486">
        <ele>54.1</ele>
      </trkpt>
      <trkpt lat="44.24972" lon="4.64591">
        <ele>53.3</ele>
      </trkpt>
      <trkpt lat="44.24983" lon="4.64597">
        <ele>53.2</ele>
      </trkpt>
      <trkpt lat="44.2503" lon="4.64626">
        <ele>53.1</ele>
      </trkpt>
      <trkpt lat="44.25044" lon="4.64634">
        <ele>53.2</ele>
      </trkpt>
      <trkpt lat="44.25049" lon="4.64637">
        <ele>53.3</ele>
      </trkpt>
      <trkpt lat="44.25113" lon="4.64674">
        <ele>54.2</ele>
      </trkpt>
      <trkpt lat="44.25118" lon="4.64677">
        <ele>54.2</ele>
      </trkpt>
      <trkpt lat="44.25186" lon="4.64702">
        <ele>54.2</ele>
      </trkpt>
      <trkpt lat="44.25266" lon="4.64732">
        <ele>54.5</ele>
      </trkpt>
      <trkpt lat="44.25293" lon="4.64742">
        <ele>54.7</ele>
      </trkpt>
      <trkpt lat="44.25297" lon="4.64743">
        <ele>54.7</ele>
      </trkpt>
      <trkpt lat="44.25325" lon="4.64754">
        <ele>54.9</ele>
      </trkpt>
      <trkpt lat="44.2538" lon="4.64777">
        <ele>55.9</ele>
      </trkpt>
      <trkpt lat="44.25455" lon="4.64804">
        <ele>57.3</ele>
      </trkpt>
      <trkpt lat="44.25462" lon="4.6481">
        <ele>57.3</ele>
      </trkpt>
      <trkpt lat="44.25467" lon="4.64804">
        <ele>57.4</ele>
      </trkpt>
      <trkpt lat="44.25476" lon="4.64797">
        <ele>57.4</ele>
      </trkpt>
      <trkpt lat="44.25486" lon="4.64792">
        <ele>57.5</ele>
      </trkpt>
      <trkpt lat="44.255" lon="4.64786">
        <ele>57.8</ele>
      </trkpt>
      <trkpt lat="44.25508" lon="4.64779">
        <ele>57.8</ele>
      </trkpt>
      <trkpt lat="44.25556" lon="4.64765">
        <ele>57.6</ele>
      </trkpt>
      <trkpt lat="44.25561" lon="4.64764">
        <ele>57.5</ele>
      </trkpt>
      <trkpt lat="44.25571" lon="4.64762">
        <ele>57.4</ele>
      </trkpt>
      <trkpt lat="44.25615" lon="4.64753">
        <ele>57.2</ele>
      </trkpt>
      <trkpt lat="44.25641" lon="4.64749">
        <ele>57</ele>
      </trkpt>
      <trkpt lat="44.25651" lon="4.6475">
        <ele>57</ele>
      </trkpt>
      <trkpt lat="44.25656" lon="4.64751">
        <ele>57.1</ele>
      </trkpt>
      <trkpt lat="44.2573" lon="4.64769">
        <ele>57.3</ele>
      </trkpt>
      <trkpt lat="44.25736" lon="4.6477">
        <ele>57.3</ele>
      </trkpt>
      <trkpt lat="44.25802" lon="4.64786">
        <ele>55.9</ele>
      </trkpt>
      <trkpt lat="44.25809" lon="4.6479">
        <ele>55.8</ele>
      </trkpt>
      <trkpt lat="44.25818" lon="4.64797">
        <ele>55.7</ele>
      </trkpt>
      <trkpt lat="44.25827" lon="4.64804">
        <ele>55.6</ele>
      </trkpt>
      <trkpt lat="44.25831" lon="4.64812">
        <ele>55.5</ele>
      </trkpt>
      <trkpt lat="44.25833" lon="4.6482">
        <ele>55.4</ele>
      </trkpt>
      <trkpt lat="44.25836" lon="4.64827">
        <ele>54.8</ele>
      </trkpt>
      <trkpt lat="44.25837" lon="4.64834">
        <ele>54.8</ele>
      </trkpt>
      <trkpt lat="44.25837" lon="4.64843">
        <ele>54.6</ele>
      </trkpt>
      <trkpt lat="44.25839" lon="4.64851">
        <ele>54.4</ele>
      </trkpt>
      <trkpt lat="44.25842" lon="4.64885">
        <ele>53.8</ele>
      </trkpt>
      <trkpt lat="44.25844" lon="4.64898">
        <ele>53.6</ele>
      </trkpt>
      <trkpt lat="44.25847" lon="4.64917">
        <ele>51.6</ele>
      </trkpt>
      <trkpt lat="44.25854" lon="4.64943">
        <ele>50.3</ele>
      </trkpt>
      <trkpt lat="44.25856" lon="4.64955">
        <ele>49.7</ele>
      </trkpt>
      <trkpt lat="44.25856" lon="4.64958">
        <ele>49.6</ele>
      </trkpt>
      <trkpt lat="44.25863" lon="4.64987">
        <ele>48.4</ele>
      </trkpt>
      <trkpt lat="44.25873" lon="4.65026">
        <ele>42.4</ele>
      </trkpt>
      <trkpt lat="44.25875" lon="4.65035">
        <ele>42</ele>
      </trkpt>
      <trkpt lat="44.25892" lon="4.65093">
        <ele>39</ele>
      </trkpt>
      <trkpt lat="44.25969" lon="4.65367">
        <ele>40.9</ele>
      </trkpt>
      <trkpt lat="44.26011" lon="4.65528">
        <ele>40.9</ele>
      </trkpt>
      <trkpt lat="44.26041" lon="4.65629">
        <ele>40.5</ele>
      </trkpt>
      <trkpt lat="44.26051" lon="4.65734">
        <ele>42.4</ele>
      </trkpt>
      <trkpt lat="44.26057" lon="4.6584">
        <ele>45.1</ele>
      </trkpt>
      <trkpt lat="44.26062" lon="4.65974">
        <ele>43.2</ele>
      </trkpt>
      <trkpt lat="44.26064" lon="4.65992">
        <ele>43.1</ele>
      </trkpt>
      <trkpt lat="44.26067" lon="4.66008">
        <ele>43</ele>
      </trkpt>
      <trkpt lat="44.26082" lon="4.66074">
        <ele>43.7</ele>
      </trkpt>
      <trkpt lat="44.26085" lon="4.66086">
        <ele>43.7</ele>
      </trkpt>
      <trkpt lat="44.26088" lon="4.66098">
        <ele>43</ele>
      </trkpt>
      <trkpt lat="44.26094" lon="4.66125">
        <ele>42.3</ele>
      </trkpt>
      <trkpt lat="44.26105" lon="4.66178">
        <ele>42.4</ele>
      </trkpt>
      <trkpt lat="44.26105" lon="4.66212">
        <ele>42.6</ele>
      </trkpt>
      <trkpt lat="44.26104" lon="4.66229">
        <ele>42.6</ele>
      </trkpt>
      <trkpt lat="44.26096" lon="4.66247">
        <ele>42.4</ele>
      </trkpt>
      <trkpt lat="44.26092" lon="4.66252">
        <ele>42.4</ele>
      </trkpt>
      <trkpt lat="44.26086" lon="4.66255">
        <ele>42.3</ele>
      </trkpt>
      <trkpt lat="44.26079" lon="4.66259">
        <ele>41.5</ele>
      </trkpt>
      <trkpt lat="44.26074" lon="4.66266">
        <ele>41.3</ele>
      </trkpt>
      <trkpt lat="44.26069" lon="4.66276">
        <ele>41.1</ele>
      </trkpt>
      <trkpt lat="44.26066" lon="4.66289">
        <ele>41</ele>
      </trkpt>
      <trkpt lat="44.26066" lon="4.66299">
        <ele>41.1</ele>
      </trkpt>
      <trkpt lat="44.26067" lon="4.66308">
        <ele>41.2</ele>
      </trkpt>
      <trkpt lat="44.26071" lon="4.66319">
        <ele>41.6</ele>
      </trkpt>
      <trkpt lat="44.26074" lon="4.66326">
        <ele>42</ele>
      </trkpt>
      <trkpt lat="44.2608" lon="4.66332">
        <ele>42.6</ele>
      </trkpt>
      <trkpt lat="44.26088" lon="4.66337">
        <ele>43</ele>
      </trkpt>
      <trkpt lat="44.26098" lon="4.66339">
        <ele>42.9</ele>
      </trkpt>
      <trkpt lat="44.26108" lon="4.66336">
        <ele>42.9</ele>
      </trkpt>
      <trkpt lat="44.26116" lon="4.66339">
        <ele>42.9</ele>
      </trkpt>
      <trkpt lat="44.26125" lon="4.66344">
        <ele>42.8</ele>
      </trkpt>
      <trkpt lat="44.26133" lon="4.66353">
        <ele>42.8</ele>
      </trkpt>
      <trkpt lat="44.26154" lon="4.66397">
        <ele>42.5</ele>
      </trkpt>
      <trkpt lat="44.26184" lon="4.66492">
        <ele>43.1</ele>
      </trkpt>
      <trkpt lat="44.26218" lon="4.66642">
        <ele>41.3</ele>
      </trkpt>
      <trkpt lat="44.26288" lon="4.66934">
        <ele>42.4</ele>
      </trkpt>
      <trkpt lat="44.26334" lon="4.67122">
        <ele>41.9</ele>
      </trkpt>
      <trkpt lat="44.26341" lon="4.67153">
        <ele>42.7</ele>
      </trkpt>
      <trkpt lat="44.26417" lon="4.67475">
        <ele>43.5</ele>
      </trkpt>
      <trkpt lat="44.2647" lon="4.67704">
        <ele>43.4</ele>
      </trkpt>
      <trkpt lat="44.26501" lon="4.67833">
        <ele>43</ele>
      </trkpt>
      <trkpt lat="44.26508" lon="4.67855">
        <ele>41.5</ele>
      </trkpt>
      <trkpt lat="44.26517" lon="4.67876">
        <ele>40.9</ele>
      </trkpt>
      <trkpt lat="44.26532" lon="4.67903">
        <ele>40.5</ele>
      </trkpt>
      <trkpt lat="44.26546" lon="4.67922">
        <ele>40.3</ele>
      </trkpt>
      <trkpt lat="44.26561" lon="4.67942">
        <ele>40.2</ele>
      </trkpt>
      <trkpt lat="44.26563" lon="4.6795">
        <ele>40.4</ele>
      </trkpt>
      <trkpt lat="44.26566" lon="4.6796">
        <ele>40.5</ele>
      </trkpt>
      <trkpt lat="44.26567" lon="4.67968">
        <ele>40.7</ele>
      </trkpt>
      <trkpt lat="44.26562" lon="4.67982">
        <ele>40.9</ele>
      </trkpt>
      <trkpt lat="44.26561" lon="4.67993">
        <ele>41</ele>
      </trkpt>
      <trkpt lat="44.26562" lon="4.68004">
        <ele>41.6</ele>
      </trkpt>
      <trkpt lat="44.26564" lon="4.68014">
        <ele>41.6</ele>
      </trkpt>
      <trkpt lat="44.26568" lon="4.68024">
        <ele>41.6</ele>
      </trkpt>
      <trkpt lat="44.26573" lon="4.68032">
        <ele>41.7</ele>
      </trkpt>
      <trkpt lat="44.26576" lon="4.68047">
        <ele>41.7</ele>
      </trkpt>
      <trkpt lat="44.26577" lon="4.68079">
        <ele>41.9</ele>
      </trkpt>
      <trkpt lat="44.26574" lon="4.68101">
        <ele>41.7</ele>
      </trkpt>
      <trkpt lat="44.26574" lon="4.68125">
        <ele>41.5</ele>
      </trkpt>
      <trkpt lat="44.26577" lon="4.68147">
        <ele>41.3</ele>
      </trkpt>
      <trkpt lat="44.26596" lon="4.68236">
        <ele>40.9</ele>
      </trkpt>
      <trkpt lat="44.26648" lon="4.68452">
        <ele>42.2</ele>
      </trkpt>
      <trkpt lat="44.26679" lon="4.68582">
        <ele>44.3</ele>
      </trkpt>
      <trkpt lat="44.26734" lon="4.6881">
        <ele>41.9</ele>
      </trkpt>
      <trkpt lat="44.26764" lon="4.68936">
        <ele>42.6</ele>
      </trkpt>
      <trkpt lat="44.2685" lon="4.69294">
        <ele>42.5</ele>
      </trkpt>
      <trkpt lat="44.26882" lon="4.69424">
        <ele>41.5</ele>
      </trkpt>
      <trkpt lat="44.26921" lon="4.69552">
        <ele>42.3</ele>
      </trkpt>
      <trkpt lat="44.26951" lon="4.6963">
        <ele>42.5</ele>
      </trkpt>
      <trkpt lat="44.26995" lon="4.69717">
        <ele>42.4</ele>
      </trkpt>
      <trkpt lat="44.2702" lon="4.69759">
        <ele>43.8</ele>
      </trkpt>
      <trkpt lat="44.27056" lon="4.6983">
        <ele>44.5</ele>
      </trkpt>
      <trkpt lat="44.2707" lon="4.69853">
        <ele>44.8</ele>
      </trkpt>
      <trkpt lat="44.27075" lon="4.69861">
        <ele>44.8</ele>
      </trkpt>
      <trkpt lat="44.27087" lon="4.69882">
        <ele>44.2</ele>
      </trkpt>
      <trkpt lat="44.27092" lon="4.6989">
        <ele>44.3</ele>
      </trkpt>
      <trkpt lat="44.27125" lon="4.69964">
        <ele>44.3</ele>
      </trkpt>
      <trkpt lat="44.27139" lon="4.69998">
        <ele>44.5</ele>
      </trkpt>
      <trkpt lat="44.2715" lon="4.70027">
        <ele>44.6</ele>
      </trkpt>
      <trkpt lat="44.27155" lon="4.7004">
        <ele>44.5</ele>
      </trkpt>
      <trkpt lat="44.27173" lon="4.70084">
        <ele>44.1</ele>
      </trkpt>
      <trkpt lat="44.27199" lon="4.70151">
        <ele>44.4</ele>
      </trkpt>
      <trkpt lat="44.27223" lon="4.70224">
        <ele>44.6</ele>
      </trkpt>
      <trkpt lat="44.27227" lon="4.70237">
        <ele>44.6</ele>
      </trkpt>
      <trkpt lat="44.27233" lon="4.70258">
        <ele>44.7</ele>
      </trkpt>
      <trkpt lat="44.27236" lon="4.70267">
        <ele>44.7</ele>
      </trkpt>
      <trkpt lat="44.2724" lon="4.70281">
        <ele>44.7</ele>
      </trkpt>
      <trkpt lat="44.27251" lon="4.70322">
        <ele>44.8</ele>
      </trkpt>
      <trkpt lat="44.2726" lon="4.70365">
        <ele>44.4</ele>
      </trkpt>
      <trkpt lat="44.27267" lon="4.70379">
        <ele>44.3</ele>
      </trkpt>
      <trkpt lat="44.27281" lon="4.7045">
        <ele>44.2</ele>
      </trkpt>
      <trkpt lat="44.27313" lon="4.70645">
        <ele>45.9</ele>
      </trkpt>
      <trkpt lat="44.27328" lon="4.70723">
        <ele>46.3</ele>
      </trkpt>
      <trkpt lat="44.2734" lon="4.70787">
        <ele>45.5</ele>
      </trkpt>
      <trkpt lat="44.27349" lon="4.70833">
        <ele>45.7</ele>
      </trkpt>
      <trkpt lat="44.27357" lon="4.70891">
        <ele>45.2</ele>
      </trkpt>
      <trkpt lat="44.27363" lon="4.70944">
        <ele>44.4</ele>
      </trkpt>
      <trkpt lat="44.27366" lon="4.71004">
        <ele>43.7</ele>
      </trkpt>
      <trkpt lat="44.2737" lon="4.71108">
        <ele>44.6</ele>
      </trkpt>
      <trkpt lat="44.27372" lon="4.71173">
        <ele>45.2</ele>
      </trkpt>
      <trkpt lat="44.27373" lon="4.71189">
        <ele>45.1</ele>
      </trkpt>
      <trkpt lat="44.27373" lon="4.712">
        <ele>45</ele>
      </trkpt>
      <trkpt lat="44.27374" lon="4.71227">
        <ele>44.9</ele>
      </trkpt>
      <trkpt lat="44.27376" lon="4.71251">
        <ele>45</ele>
      </trkpt>
      <trkpt lat="44.27381" lon="4.71286">
        <ele>45.1</ele>
      </trkpt>
      <trkpt lat="44.27388" lon="4.7132">
        <ele>45.3</ele>
      </trkpt>
      <trkpt lat="44.27397" lon="4.71354">
        <ele>45.6</ele>
      </trkpt>
      <trkpt lat="44.27415" lon="4.71414">
        <ele>46</ele>
      </trkpt>
      <trkpt lat="44.27445" lon="4.71508">
        <ele>46.2</ele>
      </trkpt>
      <trkpt lat="44.27463" lon="4.71558">
        <ele>45.9</ele>
      </trkpt>
      <trkpt lat="44.2747" lon="4.71577">
        <ele>45.8</ele>
      </trkpt>
      <trkpt lat="44.27481" lon="4.71602">
        <ele>45.7</ele>
      </trkpt>
      <trkpt lat="44.27493" lon="4.71626">
        <ele>45.8</ele>
      </trkpt>
      <trkpt lat="44.27508" lon="4.71655">
        <ele>45.8</ele>
      </trkpt>
      <trkpt lat="44.27531" lon="4.71694">
        <ele>46.4</ele>
      </trkpt>
      <trkpt lat="44.27548" lon="4.71718">
        <ele>46.5</ele>
      </trkpt>
      <trkpt lat="44.27584" lon="4.71762">
        <ele>45.8</ele>
      </trkpt>
      <trkpt lat="44.27602" lon="4.71781">
        <ele>45.5</ele>
      </trkpt>
      <trkpt lat="44.27625" lon="4.71802">
        <ele>45.3</ele>
      </trkpt>
      <trkpt lat="44.27637" lon="4.71813">
        <ele>45.1</ele>
      </trkpt>
      <trkpt lat="44.27674" lon="4.7184">
        <ele>44</ele>
      </trkpt>
      <trkpt lat="44.27787" lon="4.71909">
        <ele>44.6</ele>
      </trkpt>
      <trkpt lat="44.27835" lon="4.71939">
        <ele>46</ele>
      </trkpt>
      <trkpt lat="44.27857" lon="4.71952">
        <ele>46</ele>
      </trkpt>
      <trkpt lat="44.27866" lon="4.71957">
        <ele>46</ele>
      </trkpt>
      <trkpt lat="44.27928" lon="4.71996">
        <ele>46.1</ele>
      </trkpt>
      <trkpt lat="44.28196" lon="4.72162">
        <ele>45.4</ele>
      </trkpt>
      <trkpt lat="44.28199" lon="4.72164">
        <ele>45.3</ele>
      </trkpt>
      <trkpt lat="44.2827" lon="4.72208">
        <ele>44.9</ele>
      </trkpt>
      <trkpt lat="44.28308" lon="4.72235">
        <ele>45.8</ele>
      </trkpt>
      <trkpt lat="44.28351" lon="4.72272">
        <ele>45.4</ele>
      </trkpt>
      <trkpt lat="44.28384" lon="4.72309">
        <ele>44.4</ele>
      </trkpt>
      <trkpt lat="44.28412" lon="4.72345">
        <ele>43.4</ele>
      </trkpt>
      <trkpt lat="44.2843" lon="4.72372">
        <ele>44.8</ele>
      </trkpt>
      <trkpt lat="44.28457" lon="4.7242">
        <ele>46.1</ele>
      </trkpt>
      <trkpt lat="44.28486" lon="4.72486">
        <ele>46.2</ele>
      </trkpt>
      <trkpt lat="44.28503" lon="4.72536">
        <ele>45.4</ele>
      </trkpt>
      <trkpt lat="44.28512" lon="4.72567">
        <ele>45.2</ele>
      </trkpt>
      <trkpt lat="44.28522" lon="4.72605">
        <ele>46.5</ele>
      </trkpt>
      <trkpt lat="44.28524" lon="4.72612">
        <ele>46.8</ele>
      </trkpt>
      <trkpt lat="44.28535" lon="4.72661">
        <ele>47.9</ele>
      </trkpt>
      <trkpt lat="44.28537" lon="4.72687">
        <ele>51.2</ele>
      </trkpt>
      <trkpt lat="44.28538" lon="4.72696">
        <ele>51.4</ele>
      </trkpt>
      <trkpt lat="44.28533" lon="4.72705">
        <ele>51.8</ele>
      </trkpt>
      <trkpt lat="44.28531" lon="4.72717">
        <ele>52.3</ele>
      </trkpt>
      <trkpt lat="44.28532" lon="4.72726">
        <ele>52.6</ele>
      </trkpt>
      <trkpt lat="44.28536" lon="4.72734">
        <ele>52.7</ele>
      </trkpt>
      <trkpt lat="44.28541" lon="4.72739">
        <ele>52.6</ele>
      </trkpt>
      <trkpt lat="44.28543" lon="4.72755">
        <ele>55.8</ele>
      </trkpt>
      <trkpt lat="44.28543" lon="4.72784">
        <ele>56.3</ele>
      </trkpt>
      <trkpt lat="44.28538" lon="4.72837">
        <ele>57.7</ele>
      </trkpt>
      <trkpt lat="44.28535" lon="4.72873">
        <ele>57.2</ele>
      </trkpt>
      <trkpt lat="44.28527" lon="4.72919">
        <ele>53.1</ele>
      </trkpt>
      <trkpt lat="44.2852" lon="4.7296">
        <ele>50.8</ele>
      </trkpt>
      <trkpt lat="44.28519" lon="4.72965">
        <ele>50.3</ele>
      </trkpt>
      <trkpt lat="44.28503" lon="4.73041">
        <ele>43.8</ele>
      </trkpt>
      <trkpt lat="44.28476" lon="4.73162">
        <ele>42</ele>
      </trkpt>
      <trkpt lat="44.28458" lon="4.73236">
        <ele>41.7</ele>
      </trkpt>
      <trkpt lat="44.28447" lon="4.73291">
        <ele>44.1</ele>
      </trkpt>
      <trkpt lat="44.28437" lon="4.73362">
        <ele>48</ele>
      </trkpt>
      <trkpt lat="44.28434" lon="4.7344">
        <ele>50.6</ele>
      </trkpt>
      <trkpt lat="44.28437" lon="4.73507">
        <ele>52.6</ele>
      </trkpt>
      <trkpt lat="44.28442" lon="4.73557">
        <ele>53.8</ele>
      </trkpt>
      <trkpt lat="44.28452" lon="4.73631">
        <ele>53.9</ele>
      </trkpt>
      <trkpt lat="44.28459" lon="4.7368">
        <ele>52.6</ele>
      </trkpt>
      <trkpt lat="44.28471" lon="4.73746">
        <ele>52.1</ele>
      </trkpt>
      <trkpt lat="44.28494" lon="4.73864">
        <ele>52.1</ele>
      </trkpt>
      <trkpt lat="44.28502" lon="4.73898">
        <ele>52.4</ele>
      </trkpt>
      <trkpt lat="44.28515" lon="4.73949">
        <ele>52.5</ele>
      </trkpt>
      <trkpt lat="44.28532" lon="4.74004">
        <ele>52.8</ele>
      </trkpt>
      <trkpt lat="44.28564" lon="4.74081">
        <ele>53</ele>
      </trkpt>
      <trkpt lat="44.28583" lon="4.74122">
        <ele>53</ele>
      </trkpt>
      <trkpt lat="44.28606" lon="4.74173">
        <ele>52.5</ele>
      </trkpt>
      <trkpt lat="44.28611" lon="4.74184">
        <ele>52.4</ele>
      </trkpt>
      <trkpt lat="44.28624" lon="4.74206">
        <ele>52.3</ele>
      </trkpt>
      <trkpt lat="44.28636" lon="4.74229">
        <ele>52.2</ele>
      </trkpt>
      <trkpt lat="44.28641" lon="4.74236">
        <ele>52.1</ele>
      </trkpt>
      <trkpt lat="44.28652" lon="4.74252">
        <ele>52.4</ele>
      </trkpt>
      <trkpt lat="44.28658" lon="4.74265">
        <ele>52.5</ele>
      </trkpt>
      <trkpt lat="44.28661" lon="4.74273">
        <ele>52.6</ele>
      </trkpt>
      <trkpt lat="44.28661" lon="4.74279">
        <ele>52.7</ele>
      </trkpt>
      <trkpt lat="44.28662" lon="4.74284">
        <ele>52.7</ele>
      </trkpt>
      <trkpt lat="44.28666" lon="4.74291">
        <ele>52.8</ele>
      </trkpt>
      <trkpt lat="44.2867" lon="4.74292">
        <ele>52.2</ele>
      </trkpt>
      <trkpt lat="44.28672" lon="4.74293">
        <ele>52.2</ele>
      </trkpt>
      <trkpt lat="44.28677" lon="4.74302">
        <ele>52.2</ele>
      </trkpt>
      <trkpt lat="44.28685" lon="4.74318">
        <ele>52.3</ele>
      </trkpt>
      <trkpt lat="44.28705" lon="4.74364">
        <ele>52.3</ele>
      </trkpt>
      <trkpt lat="44.2873" lon="4.7443">
        <ele>52.9</ele>
      </trkpt>
      <trkpt lat="44.28745" lon="4.74475">
        <ele>53.6</ele>
      </trkpt>
      <trkpt lat="44.28754" lon="4.74504">
        <ele>54.2</ele>
      </trkpt>
      <trkpt lat="44.28772" lon="4.74569">
        <ele>55.2</ele>
      </trkpt>
      <trkpt lat="44.28781" lon="4.74608">
        <ele>56.9</ele>
      </trkpt>
      <trkpt lat="44.28789" lon="4.74639">
        <ele>57.5</ele>
      </trkpt>
      <trkpt lat="44.28796" lon="4.74678">
        <ele>59.6</ele>
      </trkpt>
      <trkpt lat="44.28798" lon="4.74691">
        <ele>59.7</ele>
      </trkpt>
      <trkpt lat="44.28802" lon="4.74713">
        <ele>59.9</ele>
      </trkpt>
      <trkpt lat="44.2882" lon="4.74826">
        <ele>62.5</ele>
      </trkpt>
      <trkpt lat="44.28827" lon="4.74882">
        <ele>62.4</ele>
      </trkpt>
      <trkpt lat="44.28831" lon="4.74962">
        <ele>60.6</ele>
      </trkpt>
      <trkpt lat="44.28829" lon="4.74979">
        <ele>60.1</ele>
      </trkpt>
      <trkpt lat="44.28825" lon="4.74988">
        <ele>59.8</ele>
      </trkpt>
      <trkpt lat="44.28815" lon="4.74996">
        <ele>59.9</ele>
      </trkpt>
      <trkpt lat="44.28803" lon="4.75012">
        <ele>59.4</ele>
      </trkpt>
      <trkpt lat="44.28794" lon="4.75035">
        <ele>59.5</ele>
      </trkpt>
      <trkpt lat="44.2879" lon="4.75059">
        <ele>59.5</ele>
      </trkpt>
      <trkpt lat="44.28788" lon="4.75087">
        <ele>60</ele>
      </trkpt>
      <trkpt lat="44.28789" lon="4.75113">
        <ele>60.2</ele>
      </trkpt>
      <trkpt lat="44.28794" lon="4.75143">
        <ele>60.4</ele>
      </trkpt>
      <trkpt lat="44.28803" lon="4.75169">
        <ele>61.3</ele>
      </trkpt>
      <trkpt lat="44.28816" lon="4.75191">
        <ele>61.3</ele>
      </trkpt>
      <trkpt lat="44.2883" lon="4.75203">
        <ele>61.5</ele>
      </trkpt>
      <trkpt lat="44.28844" lon="4.75206">
        <ele>61.8</ele>
      </trkpt>
      <trkpt lat="44.28857" lon="4.75203">
        <ele>61.8</ele>
      </trkpt>
      <trkpt lat="44.28866" lon="4.75198">
        <ele>61.8</ele>
      </trkpt>
      <trkpt lat="44.2888" lon="4.75199">
        <ele>61.9</ele>
      </trkpt>
      <trkpt lat="44.28891" lon="4.75206">
        <ele>62.1</ele>
      </trkpt>
      <trkpt lat="44.289" lon="4.75218">
        <ele>62.2</ele>
      </trkpt>
      <trkpt lat="44.28926" lon="4.75248">
        <ele>62.9</ele>
      </trkpt>
      <trkpt lat="44.28958" lon="4.7528">
        <ele>63</ele>
      </trkpt>
      <trkpt lat="44.28977" lon="4.75295">
        <ele>63</ele>
      </trkpt>
      <trkpt lat="44.29" lon="4.75308">
        <ele>63</ele>
      </trkpt>
      <trkpt lat="44.29015" lon="4.75316">
        <ele>63.5</ele>
      </trkpt>
      <trkpt lat="44.29039" lon="4.75325">
        <ele>63.8</ele>
      </trkpt>
      <trkpt lat="44.29059" lon="4.7533">
        <ele>64.2</ele>
      </trkpt>
      <trkpt lat="44.29072" lon="4.75331">
        <ele>64.5</ele>
      </trkpt>
      <trkpt lat="44.29105" lon="4.75336">
        <ele>64.1</ele>
      </trkpt>
      <trkpt lat="44.29124" lon="4.75338">
        <ele>63.7</ele>
      </trkpt>
      <trkpt lat="44.29158" lon="4.75338">
        <ele>63.2</ele>
      </trkpt>
      <trkpt lat="44.29214" lon="4.75333">
        <ele>62.8</ele>
      </trkpt>
      <trkpt lat="44.29253" lon="4.75329">
        <ele>62.2</ele>
      </trkpt>
      <trkpt lat="44.29272" lon="4.75328">
        <ele>62.7</ele>
      </trkpt>
      <trkpt lat="44.2931" lon="4.75326">
        <ele>63.1</ele>
      </trkpt>
      <trkpt lat="44.29316" lon="4.75328">
        <ele>63.1</ele>
      </trkpt>
      <trkpt lat="44.2932" lon="4.75334">
        <ele>62.9</ele>
      </trkpt>
      <trkpt lat="44.29324" lon="4.75338">
        <ele>62.9</ele>
      </trkpt>
      <trkpt lat="44.29333" lon="4.7534">
        <ele>62.9</ele>
      </trkpt>
      <trkpt lat="44.29337" lon="4.75338">
        <ele>63.1</ele>
      </trkpt>
      <trkpt lat="44.29341" lon="4.75336">
        <ele>63.1</ele>
      </trkpt>
      <trkpt lat="44.29343" lon="4.75333">
        <ele>63.3</ele>
      </trkpt>
      <trkpt lat="44.29347" lon="4.75326">
        <ele>63.5</ele>
      </trkpt>
      <trkpt lat="44.29348" lon="4.75322">
        <ele>63.6</ele>
      </trkpt>
      <trkpt lat="44.29349" lon="4.75315">
        <ele>63.7</ele>
      </trkpt>
      <trkpt lat="44.29348" lon="4.75309">
        <ele>63.8</ele>
      </trkpt>
      <trkpt lat="44.29347" lon="4.75302">
        <ele>63.9</ele>
      </trkpt>
      <trkpt lat="44.29343" lon="4.75297">
        <ele>63.9</ele>
      </trkpt>
      <trkpt lat="44.29339" lon="4.75292">
        <ele>64</ele>
      </trkpt>
      <trkpt lat="44.29335" lon="4.75291">
        <ele>64</ele>
      </trkpt>
      <trkpt lat="44.29326" lon="4.75291">
        <ele>63.5</ele>
      </trkpt>
      <trkpt lat="44.29322" lon="4.75293">
        <ele>63.5</ele>
      </trkpt>
      <trkpt lat="44.2932" lon="4.75296">
        <ele>63.4</ele>
      </trkpt>
      <trkpt lat="44.29317" lon="4.753">
        <ele>63.3</ele>
      </trkpt>
      <trkpt lat="44.29315" lon="4.75304">
        <ele>63.3</ele>
      </trkpt>
      <trkpt lat="44.29312" lon="4.75307">
        <ele>63.2</ele>
      </trkpt>
      <trkpt lat="44.29306" lon="4.7531">
        <ele>63.2</ele>
      </trkpt>
      <trkpt lat="44.29289" lon="4.75315">
        <ele>63</ele>
      </trkpt>
      <trkpt lat="44.29214" lon="4.75326">
        <ele>62.8</ele>
      </trkpt>
      <trkpt lat="44.29161" lon="4.7533">
        <ele>63.3</ele>
      </trkpt>
      <trkpt lat="44.29102" lon="4.75328">
        <ele>64.4</ele>
      </trkpt>
      <trkpt lat="44.29074" lon="4.75325">
        <ele>64.5</ele>
      </trkpt>
      <trkpt lat="44.2906" lon="4.75323">
        <ele>64.2</ele>
      </trkpt>
      <trkpt lat="44.2904" lon="4.75318">
        <ele>63.8</ele>
      </trkpt>
      <trkpt lat="44.29" lon="4.753">
        <ele>63</ele>
      </trkpt>
      <trkpt lat="44.28981" lon="4.75289">
        <ele>63</ele>
      </trkpt>
      <trkpt lat="44.28965" lon="4.75277">
        <ele>63</ele>
      </trkpt>
      <trkpt lat="44.28946" lon="4.75261">
        <ele>63</ele>
      </trkpt>
      <trkpt lat="44.28944" lon="4.75256">
        <ele>63</ele>
        <extensions>
          <visugpx:TrkExtension xmlns:visugpx="https://www.visugpx.com/editgpx/">
            <visugpx:node>29</visugpx:node>
            </visugpx:TrkExtension>
        </extensions>
      </trkpt>
      <trkpt lat="44.28941" lon="4.75251">
        <ele>63</ele>
      </trkpt>
      <trkpt lat="44.28938" lon="4.75244">
        <ele>62.9</ele>
      </trkpt>
      <trkpt lat="44.28938" lon="4.75236">
        <ele>62.8</ele>
      </trkpt>
      <trkpt lat="44.28939" lon="4.7523">
        <ele>62.8</ele>
      </trkpt>
      <trkpt lat="44.28934" lon="4.75233">
        <ele>62.8</ele>
      </trkpt>
      <trkpt lat="44.28929" lon="4.75235">
        <ele>62.8</ele>
      </trkpt>
      <trkpt lat="44.28923" lon="4.75233">
        <ele>62.8</ele>
      </trkpt>
      <trkpt lat="44.28911" lon="4.75219">
        <ele>62.3</ele>
      </trkpt>
      <trkpt lat="44.28891" lon="4.75187">
        <ele>61.9</ele>
      </trkpt>
      <trkpt lat="44.28887" lon="4.75177">
        <ele>61.8</ele>
      </trkpt>
      <trkpt lat="44.28885" lon="4.75168">
        <ele>61.8</ele>
      </trkpt>
      <trkpt lat="44.28892" lon="4.75143">
        <ele>61.1</ele>
      </trkpt>
      <trkpt lat="44.28896" lon="4.75126">
        <ele>61</ele>
      </trkpt>
      <trkpt lat="44.28896" lon="4.75122">
        <ele>61</ele>
      </trkpt>
      <trkpt lat="44.28897" lon="4.751">
        <ele>61.2</ele>
      </trkpt>
      <trkpt lat="44.28897" lon="4.75079">
        <ele>61.3</ele>
      </trkpt>
      <trkpt lat="44.28895" lon="4.7506">
        <ele>61.1</ele>
      </trkpt>
      <trkpt lat="44.28894" lon="4.75053">
        <ele>61.1</ele>
      </trkpt>
      <trkpt lat="44.2889" lon="4.75033">
        <ele>61.1</ele>
      </trkpt>
      <trkpt lat="44.28882" lon="4.75015">
        <ele>61</ele>
      </trkpt>
      <trkpt lat="44.28875" lon="4.75003">
        <ele>60.8</ele>
      </trkpt>
      <trkpt lat="44.28867" lon="4.74994">
        <ele>61.1</ele>
      </trkpt>
      <trkpt lat="44.28858" lon="4.74989">
        <ele>60.8</ele>
      </trkpt>
      <trkpt lat="44.28843" lon="4.74984">
        <ele>60.4</ele>
      </trkpt>
      <trkpt lat="44.28835" lon="4.74985">
        <ele>60.2</ele>
      </trkpt>
      <trkpt lat="44.28825" lon="4.74988">
        <ele>59.8</ele>
      </trkpt>
      <trkpt lat="44.28815" lon="4.74996">
        <ele>59.9</ele>
      </trkpt>
      <trkpt lat="44.28803" lon="4.75012">
        <ele>59.4</ele>
      </trkpt>
      <trkpt lat="44.28794" lon="4.75035">
        <ele>59.5</ele>
      </trkpt>
      <trkpt lat="44.2879" lon="4.75059">
        <ele>59.5</ele>
      </trkpt>
      <trkpt lat="44.28788" lon="4.75087">
        <ele>60</ele>
      </trkpt>
      <trkpt lat="44.28789" lon="4.75113">
        <ele>60.2</ele>
      </trkpt>
      <trkpt lat="44.28794" lon="4.75143">
        <ele>60.4</ele>
      </trkpt>
      <trkpt lat="44.28803" lon="4.75169">
        <ele>61.3</ele>
      </trkpt>
      <trkpt lat="44.28816" lon="4.75191">
        <ele>61.3</ele>
      </trkpt>
      <trkpt lat="44.2883" lon="4.75203">
        <ele>61.5</ele>
      </trkpt>
      <trkpt lat="44.28838" lon="4.75219">
        <ele>62.1</ele>
      </trkpt>
      <trkpt lat="44.2884" lon="4.75224">
        <ele>62.2</ele>
      </trkpt>
      <trkpt lat="44.28842" lon="4.75234">
        <ele>62.4</ele>
      </trkpt>
      <trkpt lat="44.28843" lon="4.75245">
        <ele>62.6</ele>
      </trkpt>
      <trkpt lat="44.28844" lon="4.7528">
        <ele>62.5</ele>
      </trkpt>
      <trkpt lat="44.28842" lon="4.7532">
        <ele>61.7</ele>
      </trkpt>
      <trkpt lat="44.28838" lon="4.7535">
        <ele>61.5</ele>
      </trkpt>
      <trkpt lat="44.28833" lon="4.75395">
        <ele>61.4</ele>
      </trkpt>
      <trkpt lat="44.28831" lon="4.75406">
        <ele>61.6</ele>
      </trkpt>
      <trkpt lat="44.2883" lon="4.75419">
        <ele>61.8</ele>
      </trkpt>
      <trkpt lat="44.28822" lon="4.75484">
        <ele>60.9</ele>
      </trkpt>
      <trkpt lat="44.28821" lon="4.75496">
        <ele>60.9</ele>
      </trkpt>
      <trkpt lat="44.28817" lon="4.75522">
        <ele>61.6</ele>
      </trkpt>
      <trkpt lat="44.28816" lon="4.7553">
        <ele>61.7</ele>
      </trkpt>
      <trkpt lat="44.28815" lon="4.75539">
        <ele>61.9</ele>
      </trkpt>
      <trkpt lat="44.28796" lon="4.75705">
        <ele>61.9</ele>
      </trkpt>
      <trkpt lat="44.28786" lon="4.75756">
        <ele>63</ele>
      </trkpt>
      <trkpt lat="44.28776" lon="4.75786">
        <ele>63.2</ele>
      </trkpt>
      <trkpt lat="44.28773" lon="4.75793">
        <ele>63.2</ele>
      </trkpt>
      <trkpt lat="44.28766" lon="4.7581">
        <ele>63.4</ele>
      </trkpt>
      <trkpt lat="44.28756" lon="4.75828">
        <ele>63.7</ele>
      </trkpt>
      <trkpt lat="44.28747" lon="4.75842">
        <ele>64.1</ele>
      </trkpt>
      <trkpt lat="44.28721" lon="4.75872">
        <ele>64.2</ele>
      </trkpt>
      <trkpt lat="44.28702" lon="4.75889">
        <ele>64.2</ele>
      </trkpt>
      <trkpt lat="44.28694" lon="4.75894">
        <ele>64.2</ele>
      </trkpt>
      <trkpt lat="44.28678" lon="4.75903">
        <ele>64.2</ele>
      </trkpt>
      <trkpt lat="44.28651" lon="4.75912">
        <ele>63.8</ele>
      </trkpt>
      <trkpt lat="44.28637" lon="4.75916">
        <ele>63.5</ele>
      </trkpt>
      <trkpt lat="44.28626" lon="4.75917">
        <ele>63</ele>
      </trkpt>
      <trkpt lat="44.28606" lon="4.75916">
        <ele>62.9</ele>
      </trkpt>
      <trkpt lat="44.28597" lon="4.75915">
        <ele>62.6</ele>
      </trkpt>
      <trkpt lat="44.28588" lon="4.75914">
        <ele>62.3</ele>
      </trkpt>
      <trkpt lat="44.28576" lon="4.75912">
        <ele>61.9</ele>
      </trkpt>
      <trkpt lat="44.28478" lon="4.75895">
        <ele>61.2</ele>
      </trkpt>
      <trkpt lat="44.28435" lon="4.75891">
        <ele>61.2</ele>
      </trkpt>
      <trkpt lat="44.28406" lon="4.75891">
        <ele>61.2</ele>
      </trkpt>
      <trkpt lat="44.28398" lon="4.75891">
        <ele>61.2</ele>
      </trkpt>
      <trkpt lat="44.28386" lon="4.75892">
        <ele>61.2</ele>
      </trkpt>
      <trkpt lat="44.28312" lon="4.759">
        <ele>61</ele>
      </trkpt>
      <trkpt lat="44.28306" lon="4.75901">
        <ele>61</ele>
      </trkpt>
      <trkpt lat="44.28261" lon="4.75906">
        <ele>61</ele>
      </trkpt>
      <trkpt lat="44.28219" lon="4.7591">
        <ele>59.7</ele>
      </trkpt>
      <trkpt lat="44.28197" lon="4.75912">
        <ele>58.9</ele>
      </trkpt>
      <trkpt lat="44.28151" lon="4.75917">
        <ele>57.1</ele>
      </trkpt>
      <trkpt lat="44.28142" lon="4.75918">
        <ele>57.1</ele>
      </trkpt>
      <trkpt lat="44.2813" lon="4.7592">
        <ele>57.2</ele>
      </trkpt>
      <trkpt lat="44.281" lon="4.75923">
        <ele>57.1</ele>
      </trkpt>
      <trkpt lat="44.28036" lon="4.75929">
        <ele>57.7</ele>
      </trkpt>
      <trkpt lat="44.27977" lon="4.75925">
        <ele>58.2</ele>
      </trkpt>
      <trkpt lat="44.27954" lon="4.75921">
        <ele>58.2</ele>
      </trkpt>
      <trkpt lat="44.27943" lon="4.75919">
        <ele>58.1</ele>
      </trkpt>
      <trkpt lat="44.27935" lon="4.75917">
        <ele>58.1</ele>
      </trkpt>
      <trkpt lat="44.27928" lon="4.75915">
        <ele>58.1</ele>
      </trkpt>
      <trkpt lat="44.27914" lon="4.75911">
        <ele>58</ele>
      </trkpt>
      <trkpt lat="44.27866" lon="4.75895">
        <ele>58</ele>
      </trkpt>
      <trkpt lat="44.27843" lon="4.75886">
        <ele>58</ele>
      </trkpt>
      <trkpt lat="44.27814" lon="4.75871">
        <ele>59.3</ele>
      </trkpt>
      <trkpt lat="44.27762" lon="4.75842">
        <ele>61</ele>
      </trkpt>
      <trkpt lat="44.27755" lon="4.75835">
        <ele>61.6</ele>
      </trkpt>
      <trkpt lat="44.27752" lon="4.7583">
        <ele>61.9</ele>
      </trkpt>
      <trkpt lat="44.27749" lon="4.75825">
        <ele>65.1</ele>
      </trkpt>
      <trkpt lat="44.27748" lon="4.75822">
        <ele>65.9</ele>
      </trkpt>
      <trkpt lat="44.27747" lon="4.75819">
        <ele>66.7</ele>
      </trkpt>
      <trkpt lat="44.27745" lon="4.75816">
        <ele>67.4</ele>
      </trkpt>
      <trkpt lat="44.27743" lon="4.75813">
        <ele>68.1</ele>
      </trkpt>
      <trkpt lat="44.27737" lon="4.75812">
        <ele>68.8</ele>
      </trkpt>
      <trkpt lat="44.27733" lon="4.75813">
        <ele>69.2</ele>
      </trkpt>
      <trkpt lat="44.2773" lon="4.75816">
        <ele>69.4</ele>
      </trkpt>
      <trkpt lat="44.27727" lon="4.75825">
        <ele>69.2</ele>
      </trkpt>
      <trkpt lat="44.27727" lon="4.75831">
        <ele>69</ele>
      </trkpt>
      <trkpt lat="44.27725" lon="4.7584">
        <ele>68.7</ele>
      </trkpt>
      <trkpt lat="44.27696" lon="4.75926">
        <ele>73.4</ele>
      </trkpt>
      <trkpt lat="44.27692" lon="4.75943">
        <ele>73.1</ele>
      </trkpt>
      <trkpt lat="44.27689" lon="4.75971">
        <ele>72.5</ele>
      </trkpt>
      <trkpt lat="44.27689" lon="4.75983">
        <ele>72.8</ele>
      </trkpt>
      <trkpt lat="44.27691" lon="4.75998">
        <ele>72.8</ele>
      </trkpt>
      <trkpt lat="44.27692" lon="4.76014">
        <ele>70.4</ele>
      </trkpt>
      <trkpt lat="44.27695" lon="4.76043">
        <ele>68.7</ele>
      </trkpt>
      <trkpt lat="44.27697" lon="4.76063">
        <ele>68.3</ele>
      </trkpt>
      <trkpt lat="44.27707" lon="4.76169">
        <ele>63.6</ele>
      </trkpt>
      <trkpt lat="44.27709" lon="4.76196">
        <ele>63.3</ele>
      </trkpt>
      <trkpt lat="44.27721" lon="4.76318">
        <ele>63.5</ele>
      </trkpt>
      <trkpt lat="44.27721" lon="4.76323">
        <ele>63.5</ele>
      </trkpt>
      <trkpt lat="44.27734" lon="4.76466">
        <ele>64.6</ele>
      </trkpt>
      <trkpt lat="44.27739" lon="4.76515">
        <ele>64.2</ele>
      </trkpt>
      <trkpt lat="44.27741" lon="4.76537">
        <ele>64.6</ele>
      </trkpt>
      <trkpt lat="44.27752" lon="4.76662">
        <ele>64.3</ele>
      </trkpt>
      <trkpt lat="44.27754" lon="4.76677">
        <ele>64</ele>
      </trkpt>
      <trkpt lat="44.27763" lon="4.76771">
        <ele>63.5</ele>
      </trkpt>
      <trkpt lat="44.27763" lon="4.76774">
        <ele>63.3</ele>
      </trkpt>
      <trkpt lat="44.27766" lon="4.76814">
        <ele>62.9</ele>
      </trkpt>
      <trkpt lat="44.27776" lon="4.76915">
        <ele>63.3</ele>
      </trkpt>
      <trkpt lat="44.27777" lon="4.76931">
        <ele>64.6</ele>
      </trkpt>
      <trkpt lat="44.27785" lon="4.77018">
        <ele>66.7</ele>
      </trkpt>
      <trkpt lat="44.27787" lon="4.77033">
        <ele>66.6</ele>
      </trkpt>
      <trkpt lat="44.27813" lon="4.77305">
        <ele>65.3</ele>
      </trkpt>
      <trkpt lat="44.27814" lon="4.77322">
        <ele>64.9</ele>
      </trkpt>
      <trkpt lat="44.27819" lon="4.77364">
        <ele>65.1</ele>
      </trkpt>
      <trkpt lat="44.27823" lon="4.77396">
        <ele>65.1</ele>
      </trkpt>
      <trkpt lat="44.27826" lon="4.77415">
        <ele>64.5</ele>
      </trkpt>
      <trkpt lat="44.27823" lon="4.77416">
        <ele>64.7</ele>
      </trkpt>
      <trkpt lat="44.27671" lon="4.77431">
        <ele>72</ele>
      </trkpt>
      <trkpt lat="44.27589" lon="4.77441">
        <ele>80</ele>
      </trkpt>
      <trkpt lat="44.27549" lon="4.77445">
        <ele>86.1</ele>
      </trkpt>
      <trkpt lat="44.2749" lon="4.77451">
        <ele>90.8</ele>
      </trkpt>
      <trkpt lat="44.27458" lon="4.77456">
        <ele>91.6</ele>
      </trkpt>
      <trkpt lat="44.27437" lon="4.77462">
        <ele>92.3</ele>
      </trkpt>
      <trkpt lat="44.27306" lon="4.77514">
        <ele>103.6</ele>
      </trkpt>
      <trkpt lat="44.27285" lon="4.77519">
        <ele>104.3</ele>
      </trkpt>
      <trkpt lat="44.27103" lon="4.7755">
        <ele>104.6</ele>
      </trkpt>
      <trkpt lat="44.2709" lon="4.77553">
        <ele>104.7</ele>
      </trkpt>
      <trkpt lat="44.27077" lon="4.77561">
        <ele>103.6</ele>
      </trkpt>
      <trkpt lat="44.27067" lon="4.77571">
        <ele>103.7</ele>
      </trkpt>
      <trkpt lat="44.27058" lon="4.77583">
        <ele>103.4</ele>
      </trkpt>
      <trkpt lat="44.27049" lon="4.77606">
        <ele>102.8</ele>
      </trkpt>
      <trkpt lat="44.26975" lon="4.77826">
        <ele>94</ele>
      </trkpt>
      <trkpt lat="44.26971" lon="4.77841">
        <ele>93.2</ele>
      </trkpt>
      <trkpt lat="44.26953" lon="4.77897">
        <ele>92.5</ele>
      </trkpt>
      <trkpt lat="44.26902" lon="4.78056">
        <ele>96.1</ele>
      </trkpt>
      <trkpt lat="44.26894" lon="4.78104">
        <ele>98.6</ele>
      </trkpt>
      <trkpt lat="44.26891" lon="4.78147">
        <ele>99.4</ele>
      </trkpt>
      <trkpt lat="44.26885" lon="4.78296">
        <ele>95.1</ele>
      </trkpt>
      <trkpt lat="44.26877" lon="4.78507">
        <ele>93.6</ele>
      </trkpt>
      <trkpt lat="44.26874" lon="4.78585">
        <ele>93.5</ele>
      </trkpt>
      <trkpt lat="44.26873" lon="4.7863">
        <ele>93.4</ele>
      </trkpt>
      <trkpt lat="44.26871" lon="4.78649">
        <ele>93.6</ele>
      </trkpt>
      <trkpt lat="44.26862" lon="4.7868">
        <ele>94.4</ele>
      </trkpt>
      <trkpt lat="44.26854" lon="4.78695">
        <ele>94.5</ele>
      </trkpt>
      <trkpt lat="44.26843" lon="4.78711">
        <ele>94.6</ele>
      </trkpt>
      <trkpt lat="44.2673" lon="4.78832">
        <ele>100.7</ele>
      </trkpt>
      <trkpt lat="44.26698" lon="4.78872">
        <ele>102.7</ele>
      </trkpt>
      <trkpt lat="44.26663" lon="4.7892">
        <ele>105.2</ele>
      </trkpt>
      <trkpt lat="44.26645" lon="4.78935">
        <ele>108.7</ele>
      </trkpt>
      <trkpt lat="44.26634" lon="4.78939">
        <ele>109.6</ele>
      </trkpt>
      <trkpt lat="44.26622" lon="4.78941">
        <ele>110.2</ele>
      </trkpt>
      <trkpt lat="44.26611" lon="4.7894">
        <ele>110.6</ele>
      </trkpt>
      <trkpt lat="44.26378" lon="4.78893">
        <ele>129.6</ele>
      </trkpt>
      <trkpt lat="44.26367" lon="4.78888">
        <ele>130.3</ele>
      </trkpt>
      <trkpt lat="44.26318" lon="4.78853">
        <ele>134.6</ele>
      </trkpt>
      <trkpt lat="44.26272" lon="4.78845">
        <ele>135.2</ele>
      </trkpt>
      <trkpt lat="44.26191" lon="4.78816">
        <ele>135.7</ele>
      </trkpt>
      <trkpt lat="44.26171" lon="4.78816">
        <ele>135.5</ele>
      </trkpt>
      <trkpt lat="44.26158" lon="4.78818">
        <ele>135.6</ele>
      </trkpt>
      <trkpt lat="44.26125" lon="4.78831">
        <ele>136</ele>
      </trkpt>
      <trkpt lat="44.26083" lon="4.78859">
        <ele>138</ele>
      </trkpt>
      <trkpt lat="44.2607" lon="4.7887">
        <ele>138.6</ele>
      </trkpt>
      <trkpt lat="44.26057" lon="4.78889">
        <ele>139</ele>
        <extensions>
          <visugpx:TrkExtension xmlns:visugpx="https://www.visugpx.com/editgpx/">
            <visugpx:node>33</visugpx:node>
            </visugpx:TrkExtension>
        </extensions>
      </trkpt>
      <trkpt lat="44.25983" lon="4.78989">
        <ele>141.7</ele>
      </trkpt>
      <trkpt lat="44.2593" lon="4.79059">
        <ele>141.2</ele>
      </trkpt>
      <trkpt lat="44.2587" lon="4.79139">
        <ele>141</ele>
      </trkpt>
      <trkpt lat="44.25851" lon="4.79158">
        <ele>140.7</ele>
      </trkpt>
      <trkpt lat="44.25834" lon="4.79173">
        <ele>138.8</ele>
      </trkpt>
      <trkpt lat="44.25823" lon="4.79179">
        <ele>140.3</ele>
      </trkpt>
      <trkpt lat="44.25811" lon="4.79183">
        <ele>140.6</ele>
      </trkpt>
      <trkpt lat="44.25778" lon="4.79186">
        <ele>142.5</ele>
      </trkpt>
      <trkpt lat="44.25762" lon="4.79188">
        <ele>143.6</ele>
      </trkpt>
      <trkpt lat="44.25735" lon="4.79185">
        <ele>145.4</ele>
      </trkpt>
      <trkpt lat="44.25696" lon="4.79171">
        <ele>144.5</ele>
      </trkpt>
      <trkpt lat="44.25674" lon="4.79165">
        <ele>146.5</ele>
      </trkpt>
      <trkpt lat="44.25665" lon="4.79165">
        <ele>145.5</ele>
      </trkpt>
      <trkpt lat="44.25661" lon="4.79166">
        <ele>146.1</ele>
      </trkpt>
      <trkpt lat="44.25651" lon="4.79169">
        <ele>145.7</ele>
      </trkpt>
      <trkpt lat="44.25639" lon="4.79176">
        <ele>146.2</ele>
      </trkpt>
      <trkpt lat="44.25602" lon="4.79207">
        <ele>147.1</ele>
      </trkpt>
      <trkpt lat="44.25579" lon="4.79234">
        <ele>152.8</ele>
      </trkpt>
      <trkpt lat="44.2557" lon="4.79255">
        <ele>152.3</ele>
      </trkpt>
      <trkpt lat="44.25556" lon="4.79293">
        <ele>155.9</ele>
      </trkpt>
      <trkpt lat="44.25539" lon="4.79328">
        <ele>157.8</ele>
      </trkpt>
      <trkpt lat="44.25528" lon="4.79343">
        <ele>158.1</ele>
      </trkpt>
      <trkpt lat="44.25515" lon="4.79354">
        <ele>159.2</ele>
      </trkpt>
      <trkpt lat="44.2549" lon="4.7937">
        <ele>165.4</ele>
      </trkpt>
      <trkpt lat="44.25476" lon="4.79375">
        <ele>165.6</ele>
      </trkpt>
      <trkpt lat="44.25463" lon="4.79376">
        <ele>166</ele>
      </trkpt>
      <trkpt lat="44.25448" lon="4.79376">
        <ele>166.6</ele>
      </trkpt>
      <trkpt lat="44.25373" lon="4.79363">
        <ele>167.9</ele>
      </trkpt>
      <trkpt lat="44.25359" lon="4.79363">
        <ele>167.6</ele>
      </trkpt>
      <trkpt lat="44.25342" lon="4.79367">
        <ele>167.4</ele>
      </trkpt>
      <trkpt lat="44.25328" lon="4.79374">
        <ele>163.4</ele>
      </trkpt>
      <trkpt lat="44.25295" lon="4.794">
        <ele>162.2</ele>
      </trkpt>
      <trkpt lat="44.25251" lon="4.79437">
        <ele>162.5</ele>
      </trkpt>
      <trkpt lat="44.25213" lon="4.79473">
        <ele>157.5</ele>
      </trkpt>
      <trkpt lat="44.25189" lon="4.79507">
        <ele>158.8</ele>
      </trkpt>
      <trkpt lat="44.25177" lon="4.79527">
        <ele>159</ele>
      </trkpt>
      <trkpt lat="44.25158" lon="4.79563">
        <ele>154.3</ele>
      </trkpt>
      <trkpt lat="44.25123" lon="4.79628">
        <ele>153.4</ele>
      </trkpt>
      <trkpt lat="44.25115" lon="4.79642">
        <ele>153</ele>
      </trkpt>
      <trkpt lat="44.25104" lon="4.79676">
        <ele>152.1</ele>
      </trkpt>
      <trkpt lat="44.25087" lon="4.7976">
        <ele>151.4</ele>
      </trkpt>
      <trkpt lat="44.25082" lon="4.79773">
        <ele>150.7</ele>
      </trkpt>
      <trkpt lat="44.25076" lon="4.79784">
        <ele>151.1</ele>
      </trkpt>
      <trkpt lat="44.25069" lon="4.79791">
        <ele>151.3</ele>
      </trkpt>
      <trkpt lat="44.25057" lon="4.79798">
        <ele>151.4</ele>
      </trkpt>
      <trkpt lat="44.25042" lon="4.79803">
        <ele>151.4</ele>
      </trkpt>
      <trkpt lat="44.24915" lon="4.79844">
        <ele>153.4</ele>
      </trkpt>
      <trkpt lat="44.24839" lon="4.79868">
        <ele>155.1</ele>
      </trkpt>
      <trkpt lat="44.24765" lon="4.7989">
        <ele>157.1</ele>
      </trkpt>
      <trkpt lat="44.24738" lon="4.79898">
        <ele>160.4</ele>
      </trkpt>
      <trkpt lat="44.24716" lon="4.79894">
        <ele>161.2</ele>
      </trkpt>
      <trkpt lat="44.24698" lon="4.79882">
        <ele>161.7</ele>
      </trkpt>
      <trkpt lat="44.24662" lon="4.79841">
        <ele>164.7</ele>
      </trkpt>
      <trkpt lat="44.24612" lon="4.79783">
        <ele>167.4</ele>
      </trkpt>
      <trkpt lat="44.24595" lon="4.79763">
        <ele>168.9</ele>
      </trkpt>
      <trkpt lat="44.24562" lon="4.79727">
        <ele>171.7</ele>
      </trkpt>
      <trkpt lat="44.24542" lon="4.79715">
        <ele>171.8</ele>
      </trkpt>
      <trkpt lat="44.24504" lon="4.79697">
        <ele>171.4</ele>
      </trkpt>
      <trkpt lat="44.24479" lon="4.79685">
        <ele>170.1</ele>
      </trkpt>
      <trkpt lat="44.24437" lon="4.79669">
        <ele>168.8</ele>
      </trkpt>
      <trkpt lat="44.24401" lon="4.79658">
        <ele>165.2</ele>
      </trkpt>
      <trkpt lat="44.24377" lon="4.79655">
        <ele>164</ele>
      </trkpt>
      <trkpt lat="44.24149" lon="4.79656">
        <ele>153.3</ele>
      </trkpt>
      <trkpt lat="44.24116" lon="4.79662">
        <ele>152.7</ele>
      </trkpt>
      <trkpt lat="44.24066" lon="4.79673">
        <ele>150.5</ele>
      </trkpt>
      <trkpt lat="44.24031" lon="4.79684">
        <ele>149.1</ele>
      </trkpt>
      <trkpt lat="44.23985" lon="4.79697">
        <ele>145.5</ele>
      </trkpt>
      <trkpt lat="44.23919" lon="4.79716">
        <ele>143.3</ele>
      </trkpt>
      <trkpt lat="44.239" lon="4.79725">
        <ele>139.5</ele>
      </trkpt>
      <trkpt lat="44.23879" lon="4.7974">
        <ele>138.8</ele>
      </trkpt>
      <trkpt lat="44.23865" lon="4.79752">
        <ele>137.6</ele>
      </trkpt>
      <trkpt lat="44.23821" lon="4.79804">
        <ele>132.7</ele>
      </trkpt>
      <trkpt lat="44.23779" lon="4.79854">
        <ele>130.9</ele>
      </trkpt>
      <trkpt lat="44.23649" lon="4.80011">
        <ele>125.7</ele>
      </trkpt>
      <trkpt lat="44.23607" lon="4.80062">
        <ele>125.6</ele>
      </trkpt>
      <trkpt lat="44.23598" lon="4.80072">
        <ele>125.7</ele>
      </trkpt>
      <trkpt lat="44.23571" lon="4.80105">
        <ele>127.6</ele>
      </trkpt>
      <trkpt lat="44.23532" lon="4.80151">
        <ele>128.9</ele>
      </trkpt>
      <trkpt lat="44.23507" lon="4.80166">
        <ele>129.6</ele>
      </trkpt>
      <trkpt lat="44.23495" lon="4.8017">
        <ele>130.3</ele>
      </trkpt>
      <trkpt lat="44.23481" lon="4.80173">
        <ele>130.6</ele>
      </trkpt>
      <trkpt lat="44.2346" lon="4.80174">
        <ele>130.8</ele>
      </trkpt>
      <trkpt lat="44.23441" lon="4.80174">
        <ele>130.7</ele>
      </trkpt>
      <trkpt lat="44.23421" lon="4.80178">
        <ele>130.5</ele>
      </trkpt>
      <trkpt lat="44.23406" lon="4.80181">
        <ele>131.5</ele>
      </trkpt>
      <trkpt lat="44.23379" lon="4.80189">
        <ele>132.6</ele>
      </trkpt>
      <trkpt lat="44.23312" lon="4.80206">
        <ele>136</ele>
      </trkpt>
      <trkpt lat="44.23252" lon="4.80222">
        <ele>138.2</ele>
      </trkpt>
      <trkpt lat="44.23242" lon="4.80227">
        <ele>140.7</ele>
      </trkpt>
      <trkpt lat="44.23241" lon="4.80231">
        <ele>140.8</ele>
      </trkpt>
      <trkpt lat="44.23229" lon="4.8022">
        <ele>140.4</ele>
      </trkpt>
      <trkpt lat="44.23093" lon="4.80101">
        <ele>140.9</ele>
      </trkpt>
      <trkpt lat="44.23079" lon="4.80089">
        <ele>142.2</ele>
      </trkpt>
      <trkpt lat="44.2306" lon="4.80078">
        <ele>140.5</ele>
      </trkpt>
      <trkpt lat="44.23042" lon="4.80069">
        <ele>140.6</ele>
      </trkpt>
      <trkpt lat="44.23009" lon="4.8006">
        <ele>141.1</ele>
      </trkpt>
      <trkpt lat="44.22987" lon="4.80055">
        <ele>141.4</ele>
      </trkpt>
      <trkpt lat="44.22902" lon="4.80038">
        <ele>139.8</ele>
      </trkpt>
      <trkpt lat="44.22865" lon="4.80031">
        <ele>139.6</ele>
      </trkpt>
      <trkpt lat="44.22821" lon="4.80032">
        <ele>140</ele>
      </trkpt>
      <trkpt lat="44.22736" lon="4.8004">
        <ele>140.6</ele>
      </trkpt>
      <trkpt lat="44.2268" lon="4.80048">
        <ele>140.2</ele>
      </trkpt>
      <trkpt lat="44.22659" lon="4.80051">
        <ele>139.8</ele>
      </trkpt>
      <trkpt lat="44.22607" lon="4.80058">
        <ele>140.1</ele>
      </trkpt>
      <trkpt lat="44.22597" lon="4.80059">
        <ele>140.3</ele>
      </trkpt>
      <trkpt lat="44.22519" lon="4.80062">
        <ele>140.4</ele>
      </trkpt>
      <trkpt lat="44.22362" lon="4.80059">
        <ele>138.9</ele>
      </trkpt>
      <trkpt lat="44.2231" lon="4.80059">
        <ele>136.9</ele>
      </trkpt>
      <trkpt lat="44.2229" lon="4.8006">
        <ele>136.1</ele>
      </trkpt>
      <trkpt lat="44.22273" lon="4.80062">
        <ele>135.6</ele>
      </trkpt>
      <trkpt lat="44.22216" lon="4.80072">
        <ele>133.4</ele>
      </trkpt>
      <trkpt lat="44.22127" lon="4.8009">
        <ele>133.6</ele>
      </trkpt>
      <trkpt lat="44.21989" lon="4.80116">
        <ele>135.7</ele>
      </trkpt>
      <trkpt lat="44.2197" lon="4.80116">
        <ele>135.8</ele>
      </trkpt>
      <trkpt lat="44.21957" lon="4.80114">
        <ele>135.8</ele>
      </trkpt>
      <trkpt lat="44.21923" lon="4.80103">
        <ele>134.7</ele>
      </trkpt>
      <trkpt lat="44.21907" lon="4.80096">
        <ele>135.1</ele>
      </trkpt>
      <trkpt lat="44.21894" lon="4.80085">
        <ele>135.6</ele>
      </trkpt>
      <trkpt lat="44.21861" lon="4.80048">
        <ele>136.2</ele>
      </trkpt>
      <trkpt lat="44.21845" lon="4.80035">
        <ele>136.1</ele>
      </trkpt>
      <trkpt lat="44.2182" lon="4.80018">
        <ele>133.2</ele>
        <extensions>
          <visugpx:TrkExtension xmlns:visugpx="https://www.visugpx.com/editgpx/">
            <visugpx:node>34</visugpx:node>
            </visugpx:TrkExtension>
        </extensions>
      </trkpt>
      <trkpt lat="44.21768" lon="4.79982">
        <ele>127.8</ele>
      </trkpt>
      <trkpt lat="44.21752" lon="4.79973">
        <ele>127.3</ele>
      </trkpt>
      <trkpt lat="44.21692" lon="4.79956">
        <ele>119</ele>
      </trkpt>
      <trkpt lat="44.21665" lon="4.79951">
        <ele>113.9</ele>
      </trkpt>
      <trkpt lat="44.2165" lon="4.79949">
        <ele>113.6</ele>
      </trkpt>
      <trkpt lat="44.21627" lon="4.79952">
        <ele>113</ele>
      </trkpt>
      <trkpt lat="44.2159" lon="4.79971">
        <ele>112.1</ele>
      </trkpt>
      <trkpt lat="44.21432" lon="4.80054">
        <ele>104.3</ele>
      </trkpt>
      <trkpt lat="44.21235" lon="4.80158">
        <ele>99.3</ele>
      </trkpt>
      <trkpt lat="44.21219" lon="4.80164">
        <ele>98.3</ele>
      </trkpt>
      <trkpt lat="44.21208" lon="4.80166">
        <ele>97.6</ele>
      </trkpt>
      <trkpt lat="44.21193" lon="4.80167">
        <ele>96.4</ele>
      </trkpt>
      <trkpt lat="44.21178" lon="4.80165">
        <ele>95.4</ele>
      </trkpt>
      <trkpt lat="44.21078" lon="4.80145">
        <ele>91.2</ele>
      </trkpt>
      <trkpt lat="44.20994" lon="4.80127">
        <ele>89.1</ele>
      </trkpt>
      <trkpt lat="44.20964" lon="4.80121">
        <ele>89.5</ele>
      </trkpt>
      <trkpt lat="44.20933" lon="4.80115">
        <ele>90.2</ele>
      </trkpt>
      <trkpt lat="44.20919" lon="4.80112">
        <ele>90.5</ele>
      </trkpt>
      <trkpt lat="44.20908" lon="4.80113">
        <ele>92.1</ele>
      </trkpt>
      <trkpt lat="44.20893" lon="4.80115">
        <ele>92.2</ele>
      </trkpt>
      <trkpt lat="44.2088" lon="4.80119">
        <ele>92.3</ele>
      </trkpt>
      <trkpt lat="44.20868" lon="4.80125">
        <ele>92.4</ele>
      </trkpt>
      <trkpt lat="44.20812" lon="4.80166">
        <ele>92</ele>
      </trkpt>
      <trkpt lat="44.20792" lon="4.80177">
        <ele>90.8</ele>
      </trkpt>
      <trkpt lat="44.20778" lon="4.8018">
        <ele>90.5</ele>
      </trkpt>
      <trkpt lat="44.20766" lon="4.8018">
        <ele>90.2</ele>
      </trkpt>
      <trkpt lat="44.20754" lon="4.80176">
        <ele>89.7</ele>
      </trkpt>
      <trkpt lat="44.20742" lon="4.80169">
        <ele>89</ele>
      </trkpt>
      <trkpt lat="44.20716" lon="4.80148">
        <ele>89</ele>
      </trkpt>
      <trkpt lat="44.20713" lon="4.80146">
        <ele>89</ele>
      </trkpt>
      <trkpt lat="44.20697" lon="4.80133">
        <ele>89</ele>
      </trkpt>
      <trkpt lat="44.20678" lon="4.80125">
        <ele>88.9</ele>
      </trkpt>
      <trkpt lat="44.20639" lon="4.80114">
        <ele>85.2</ele>
      </trkpt>
      <trkpt lat="44.20587" lon="4.80102">
        <ele>82.7</ele>
      </trkpt>
      <trkpt lat="44.20552" lon="4.80097">
        <ele>77.9</ele>
      </trkpt>
      <trkpt lat="44.20544" lon="4.80095">
        <ele>77.5</ele>
      </trkpt>
      <trkpt lat="44.20537" lon="4.80091">
        <ele>77</ele>
      </trkpt>
      <trkpt lat="44.20532" lon="4.80083">
        <ele>77.2</ele>
      </trkpt>
      <trkpt lat="44.20498" lon="4.79984">
        <ele>72.4</ele>
      </trkpt>
      <trkpt lat="44.20487" lon="4.79961">
        <ele>71.6</ele>
      </trkpt>
      <trkpt lat="44.2047" lon="4.79945">
        <ele>71.1</ele>
      </trkpt>
      <trkpt lat="44.20452" lon="4.79936">
        <ele>70.3</ele>
      </trkpt>
      <trkpt lat="44.20445" lon="4.79936">
        <ele>70</ele>
      </trkpt>
      <trkpt lat="44.20429" lon="4.79943">
        <ele>69.5</ele>
      </trkpt>
      <trkpt lat="44.20378" lon="4.79989">
        <ele>64.9</ele>
      </trkpt>
      <trkpt lat="44.20376" lon="4.79991">
        <ele>64.9</ele>
      </trkpt>
      <trkpt lat="44.20272" lon="4.80085">
        <ele>59.8</ele>
      </trkpt>
      <trkpt lat="44.20247" lon="4.80105">
        <ele>58.2</ele>
      </trkpt>
      <trkpt lat="44.20239" lon="4.8011">
        <ele>57.8</ele>
      </trkpt>
      <trkpt lat="44.20233" lon="4.80111">
        <ele>57.6</ele>
      </trkpt>
      <trkpt lat="44.20225" lon="4.80112">
        <ele>57.4</ele>
      </trkpt>
      <trkpt lat="44.20215" lon="4.80111">
        <ele>57.1</ele>
      </trkpt>
      <trkpt lat="44.20137" lon="4.80094">
        <ele>53.9</ele>
      </trkpt>
      <trkpt lat="44.20131" lon="4.80093">
        <ele>53.8</ele>
      </trkpt>
      <trkpt lat="44.20097" lon="4.80087">
        <ele>53.2</ele>
      </trkpt>
      <trkpt lat="44.20068" lon="4.80083">
        <ele>52.2</ele>
      </trkpt>
      <trkpt lat="44.20052" lon="4.80083">
        <ele>51.7</ele>
      </trkpt>
      <trkpt lat="44.19989" lon="4.80079">
        <ele>49.4</ele>
      </trkpt>
      <trkpt lat="44.19941" lon="4.80077">
        <ele>49.6</ele>
      </trkpt>
      <trkpt lat="44.19924" lon="4.80078">
        <ele>49.3</ele>
      </trkpt>
      <trkpt lat="44.19905" lon="4.80081">
        <ele>49.4</ele>
      </trkpt>
      <trkpt lat="44.19858" lon="4.80096">
        <ele>48.1</ele>
      </trkpt>
      <trkpt lat="44.19777" lon="4.80139">
        <ele>48.3</ele>
      </trkpt>
      <trkpt lat="44.19763" lon="4.80144">
        <ele>48.5</ele>
      </trkpt>
      <trkpt lat="44.19751" lon="4.80144">
        <ele>48.6</ele>
      </trkpt>
      <trkpt lat="44.19738" lon="4.80143">
        <ele>48.2</ele>
      </trkpt>
      <trkpt lat="44.19722" lon="4.80139">
        <ele>48</ele>
      </trkpt>
      <trkpt lat="44.19638" lon="4.80094">
        <ele>46.7</ele>
      </trkpt>
      <trkpt lat="44.19611" lon="4.80086">
        <ele>47.1</ele>
      </trkpt>
      <trkpt lat="44.19378" lon="4.80092">
        <ele>45</ele>
      </trkpt>
      <trkpt lat="44.19196" lon="4.80096">
        <ele>45.1</ele>
      </trkpt>
      <trkpt lat="44.19093" lon="4.801">
        <ele>45</ele>
      </trkpt>
      <trkpt lat="44.18619" lon="4.80112">
        <ele>46</ele>
      </trkpt>
      <trkpt lat="44.18569" lon="4.80113">
        <ele>46.1</ele>
      </trkpt>
      <trkpt lat="44.18539" lon="4.80111">
        <ele>45.9</ele>
      </trkpt>
      <trkpt lat="44.1853" lon="4.80107">
        <ele>45.8</ele>
      </trkpt>
      <trkpt lat="44.18519" lon="4.80102">
        <ele>45.7</ele>
      </trkpt>
      <trkpt lat="44.18514" lon="4.801">
        <ele>45.6</ele>
      </trkpt>
      <trkpt lat="44.18511" lon="4.80096">
        <ele>45.5</ele>
      </trkpt>
      <trkpt lat="44.18507" lon="4.80093">
        <ele>45.4</ele>
      </trkpt>
      <trkpt lat="44.18503" lon="4.80092">
        <ele>45.3</ele>
      </trkpt>
      <trkpt lat="44.18499" lon="4.80093">
        <ele>45.2</ele>
      </trkpt>
      <trkpt lat="44.18495" lon="4.80095">
        <ele>45.3</ele>
      </trkpt>
      <trkpt lat="44.18492" lon="4.80099">
        <ele>45.4</ele>
      </trkpt>
      <trkpt lat="44.1849" lon="4.80105">
        <ele>45.5</ele>
      </trkpt>
      <trkpt lat="44.18485" lon="4.80108">
        <ele>45.5</ele>
      </trkpt>
      <trkpt lat="44.18471" lon="4.80114">
        <ele>45.6</ele>
      </trkpt>
      <trkpt lat="44.1846" lon="4.80118">
        <ele>45.7</ele>
      </trkpt>
      <trkpt lat="44.18405" lon="4.80119">
        <ele>46.4</ele>
      </trkpt>
      <trkpt lat="44.18063" lon="4.80127">
        <ele>47.4</ele>
      </trkpt>
      <trkpt lat="44.18046" lon="4.80128">
        <ele>47.5</ele>
      </trkpt>
      <trkpt lat="44.18014" lon="4.80129">
        <ele>47.7</ele>
      </trkpt>
      <trkpt lat="44.1786" lon="4.80134">
        <ele>48.7</ele>
      </trkpt>
      <trkpt lat="44.178" lon="4.80137">
        <ele>47.8</ele>
      </trkpt>
      <trkpt lat="44.17786" lon="4.80137">
        <ele>47.7</ele>
      </trkpt>
      <trkpt lat="44.17783" lon="4.80137">
        <ele>47.6</ele>
        <extensions>
          <visugpx:TrkExtension xmlns:visugpx="https://www.visugpx.com/editgpx/">
            <visugpx:node>35</visugpx:node>
            </visugpx:TrkExtension>
        </extensions>
      </trkpt>
      <trkpt lat="44.17665" lon="4.80139">
        <ele>48.9</ele>
      </trkpt>
      <trkpt lat="44.17589" lon="4.8014">
        <ele>49</ele>
      </trkpt>
      <trkpt lat="44.17587" lon="4.8014">
        <ele>49</ele>
      </trkpt>
      <trkpt lat="44.17245" lon="4.8015">
        <ele>48.7</ele>
      </trkpt>
      <trkpt lat="44.17223" lon="4.8015">
        <ele>48.7</ele>
      </trkpt>
      <trkpt lat="44.17106" lon="4.80153">
        <ele>50.9</ele>
      </trkpt>
      <trkpt lat="44.17089" lon="4.80154">
        <ele>51.3</ele>
      </trkpt>
      <trkpt lat="44.16746" lon="4.80164">
        <ele>50.1</ele>
      </trkpt>
      <trkpt lat="44.16741" lon="4.80164">
        <ele>50.3</ele>
      </trkpt>
      <trkpt lat="44.16706" lon="4.80166">
        <ele>50.9</ele>
      </trkpt>
      <trkpt lat="44.16663" lon="4.80167">
        <ele>51.8</ele>
      </trkpt>
      <trkpt lat="44.16651" lon="4.80167">
        <ele>51.3</ele>
      </trkpt>
      <trkpt lat="44.16597" lon="4.80168">
        <ele>50.2</ele>
      </trkpt>
      <trkpt lat="44.16562" lon="4.80169">
        <ele>49.6</ele>
      </trkpt>
      <trkpt lat="44.16525" lon="4.8017">
        <ele>49.2</ele>
      </trkpt>
      <trkpt lat="44.16384" lon="4.80172">
        <ele>48.6</ele>
      </trkpt>
      <trkpt lat="44.16256" lon="4.80174">
        <ele>48.2</ele>
      </trkpt>
      <trkpt lat="44.16231" lon="4.80175">
        <ele>48.1</ele>
      </trkpt>
      <trkpt lat="44.162" lon="4.80175">
        <ele>48.2</ele>
      </trkpt>
      <trkpt lat="44.16188" lon="4.80174">
        <ele>48.1</ele>
      </trkpt>
      <trkpt lat="44.16171" lon="4.80176">
        <ele>48.1</ele>
      </trkpt>
      <trkpt lat="44.16168" lon="4.80177">
        <ele>48.1</ele>
      </trkpt>
      <trkpt lat="44.16154" lon="4.80147">
        <ele>48</ele>
      </trkpt>
      <trkpt lat="44.16131" lon="4.80093">
        <ele>47.8</ele>
      </trkpt>
      <trkpt lat="44.16129" lon="4.80088">
        <ele>47.8</ele>
      </trkpt>
      <trkpt lat="44.16126" lon="4.8008">
        <ele>47.3</ele>
      </trkpt>
      <trkpt lat="44.16106" lon="4.80032">
        <ele>47.4</ele>
      </trkpt>
      <trkpt lat="44.16089" lon="4.79987">
        <ele>47.5</ele>
      </trkpt>
      <trkpt lat="44.16078" lon="4.79958">
        <ele>47.7</ele>
      </trkpt>
      <trkpt lat="44.16068" lon="4.79933">
        <ele>47.7</ele>
      </trkpt>
      <trkpt lat="44.16051" lon="4.79897">
        <ele>47</ele>
      </trkpt>
      <trkpt lat="44.16033" lon="4.79866">
        <ele>46.6</ele>
      </trkpt>
      <trkpt lat="44.16008" lon="4.79835">
        <ele>46.2</ele>
      </trkpt>
      <trkpt lat="44.15983" lon="4.79807">
        <ele>47.6</ele>
      </trkpt>
      <trkpt lat="44.15955" lon="4.79777">
        <ele>48.3</ele>
      </trkpt>
      <trkpt lat="44.15945" lon="4.7976">
        <ele>48.6</ele>
      </trkpt>
      <trkpt lat="44.15939" lon="4.79749">
        <ele>48.4</ele>
      </trkpt>
      <trkpt lat="44.15936" lon="4.79743">
        <ele>48.5</ele>
      </trkpt>
      <trkpt lat="44.15934" lon="4.79741">
        <ele>48.6</ele>
      </trkpt>
      <trkpt lat="44.15927" lon="4.79739">
        <ele>48.8</ele>
      </trkpt>
      <trkpt lat="44.15923" lon="4.79739">
        <ele>48.9</ele>
      </trkpt>
      <trkpt lat="44.15917" lon="4.79739">
        <ele>49.1</ele>
      </trkpt>
      <trkpt lat="44.15909" lon="4.79741">
        <ele>49.3</ele>
      </trkpt>
      <trkpt lat="44.15899" lon="4.79755">
        <ele>49.3</ele>
      </trkpt>
      <trkpt lat="44.15874" lon="4.79787">
        <ele>48.7</ele>
      </trkpt>
      <trkpt lat="44.15864" lon="4.79803">
        <ele>48.5</ele>
      </trkpt>
      <trkpt lat="44.15859" lon="4.79809">
        <ele>48.4</ele>
      </trkpt>
      <trkpt lat="44.1585" lon="4.7982">
        <ele>48</ele>
      </trkpt>
      <trkpt lat="44.1584" lon="4.7983">
        <ele>47.5</ele>
      </trkpt>
      <trkpt lat="44.15782" lon="4.79896">
        <ele>47.3</ele>
      </trkpt>
      <trkpt lat="44.15719" lon="4.79965">
        <ele>48.4</ele>
      </trkpt>
      <trkpt lat="44.15708" lon="4.79977">
        <ele>48.3</ele>
      </trkpt>
      <trkpt lat="44.15702" lon="4.79984">
        <ele>48.3</ele>
      </trkpt>
      <trkpt lat="44.15673" lon="4.80016">
        <ele>48.1</ele>
      </trkpt>
      <trkpt lat="44.15668" lon="4.80022">
        <ele>48.1</ele>
      </trkpt>
      <trkpt lat="44.15657" lon="4.80029">
        <ele>48.3</ele>
      </trkpt>
      <trkpt lat="44.15642" lon="4.80038">
        <ele>48.4</ele>
      </trkpt>
      <trkpt lat="44.15637" lon="4.80041">
        <ele>48.4</ele>
      </trkpt>
      <trkpt lat="44.15632" lon="4.8004">
        <ele>48.5</ele>
      </trkpt>
      <trkpt lat="44.15627" lon="4.8004">
        <ele>48.5</ele>
      </trkpt>
      <trkpt lat="44.15622" lon="4.80042">
        <ele>48.5</ele>
      </trkpt>
      <trkpt lat="44.15617" lon="4.80046">
        <ele>48.5</ele>
      </trkpt>
      <trkpt lat="44.15614" lon="4.80052">
        <ele>48.6</ele>
      </trkpt>
      <trkpt lat="44.15612" lon="4.80058">
        <ele>48.6</ele>
      </trkpt>
      <trkpt lat="44.15611" lon="4.80066">
        <ele>48.6</ele>
      </trkpt>
      <trkpt lat="44.15612" lon="4.80073">
        <ele>48.6</ele>
      </trkpt>
      <trkpt lat="44.15605" lon="4.80082">
        <ele>48.7</ele>
      </trkpt>
      <trkpt lat="44.15591" lon="4.80106">
        <ele>49</ele>
      </trkpt>
      <trkpt lat="44.15571" lon="4.80132">
        <ele>49.7</ele>
      </trkpt>
      <trkpt lat="44.15485" lon="4.80225">
        <ele>47.1</ele>
      </trkpt>
      <trkpt lat="44.15452" lon="4.8025">
        <ele>45.7</ele>
      </trkpt>
      <trkpt lat="44.15436" lon="4.80258">
        <ele>45.5</ele>
      </trkpt>
      <trkpt lat="44.15427" lon="4.80262">
        <ele>45.4</ele>
      </trkpt>
      <trkpt lat="44.15386" lon="4.80272">
        <ele>45.4</ele>
      </trkpt>
      <trkpt lat="44.15372" lon="4.80274">
        <ele>45.5</ele>
      </trkpt>
      <trkpt lat="44.1532" lon="4.80278">
        <ele>45.8</ele>
      </trkpt>
      <trkpt lat="44.1525" lon="4.80285">
        <ele>45.6</ele>
      </trkpt>
      <trkpt lat="44.15237" lon="4.80286">
        <ele>45.6</ele>
      </trkpt>
      <trkpt lat="44.15224" lon="4.80288">
        <ele>45.7</ele>
      </trkpt>
      <trkpt lat="44.15211" lon="4.80289">
        <ele>45.7</ele>
      </trkpt>
      <trkpt lat="44.152" lon="4.8029">
        <ele>45.8</ele>
      </trkpt>
      <trkpt lat="44.15166" lon="4.80293">
        <ele>45</ele>
      </trkpt>
      <trkpt lat="44.15143" lon="4.80295">
        <ele>44.8</ele>
      </trkpt>
      <trkpt lat="44.15129" lon="4.80295">
        <ele>44.5</ele>
      </trkpt>
      <trkpt lat="44.15078" lon="4.80295">
        <ele>42.8</ele>
      </trkpt>
      <trkpt lat="44.15062" lon="4.80295">
        <ele>42.8</ele>
      </trkpt>
      <trkpt lat="44.15033" lon="4.80296">
        <ele>42.7</ele>
      </trkpt>
      <trkpt lat="44.15024" lon="4.80296">
        <ele>42.7</ele>
      </trkpt>
      <trkpt lat="44.14985" lon="4.80297">
        <ele>43.1</ele>
      </trkpt>
      <trkpt lat="44.1497" lon="4.80297">
        <ele>43.2</ele>
      </trkpt>
      <trkpt lat="44.14947" lon="4.80294">
        <ele>43.4</ele>
      </trkpt>
      <trkpt lat="44.14878" lon="4.80272">
        <ele>44.4</ele>
      </trkpt>
      <trkpt lat="44.14859" lon="4.80267">
        <ele>44.4</ele>
      </trkpt>
      <trkpt lat="44.14837" lon="4.80265">
        <ele>44.3</ele>
      </trkpt>
      <trkpt lat="44.1483" lon="4.80265">
        <ele>44.5</ele>
      </trkpt>
      <trkpt lat="44.14821" lon="4.80265">
        <ele>44.5</ele>
      </trkpt>
      <trkpt lat="44.1481" lon="4.80266">
        <ele>44.7</ele>
      </trkpt>
      <trkpt lat="44.14796" lon="4.80268">
        <ele>44.7</ele>
      </trkpt>
      <trkpt lat="44.14789" lon="4.8027">
        <ele>44.8</ele>
      </trkpt>
      <trkpt lat="44.14766" lon="4.80277">
        <ele>44.8</ele>
      </trkpt>
      <trkpt lat="44.14735" lon="4.80288">
        <ele>44.4</ele>
      </trkpt>
      <trkpt lat="44.14729" lon="4.8029">
        <ele>44.4</ele>
      </trkpt>
      <trkpt lat="44.14715" lon="4.80295">
        <ele>44.3</ele>
      </trkpt>
      <trkpt lat="44.14709" lon="4.80297">
        <ele>44.3</ele>
      </trkpt>
      <trkpt lat="44.14673" lon="4.80311">
        <ele>43.8</ele>
      </trkpt>
      <trkpt lat="44.14636" lon="4.80324">
        <ele>42.8</ele>
      </trkpt>
      <trkpt lat="44.14579" lon="4.80345">
        <ele>42.3</ele>
      </trkpt>
      <trkpt lat="44.14549" lon="4.80356">
        <ele>42.6</ele>
      </trkpt>
      <trkpt lat="44.14536" lon="4.80361">
        <ele>42.8</ele>
      </trkpt>
      <trkpt lat="44.14502" lon="4.80373">
        <ele>43</ele>
      </trkpt>
      <trkpt lat="44.14488" lon="4.80378">
        <ele>43.2</ele>
      </trkpt>
      <trkpt lat="44.14477" lon="4.80383">
        <ele>43.2</ele>
      </trkpt>
      <trkpt lat="44.14465" lon="4.80388">
        <ele>43.1</ele>
      </trkpt>
      <trkpt lat="44.14447" lon="4.80396">
        <ele>43</ele>
      </trkpt>
      <trkpt lat="44.1443" lon="4.80403">
        <ele>43</ele>
      </trkpt>
      <trkpt lat="44.1442" lon="4.80406">
        <ele>43</ele>
      </trkpt>
      <trkpt lat="44.14392" lon="4.80416">
        <ele>42.9</ele>
      </trkpt>
      <trkpt lat="44.14371" lon="4.80423">
        <ele>43</ele>
      </trkpt>
      <trkpt lat="44.14353" lon="4.8043">
        <ele>43</ele>
      </trkpt>
      <trkpt lat="44.14317" lon="4.80443">
        <ele>44</ele>
      </trkpt>
      <trkpt lat="44.14293" lon="4.80453">
        <ele>44.4</ele>
      </trkpt>
      <trkpt lat="44.14276" lon="4.80459">
        <ele>44.8</ele>
      </trkpt>
      <trkpt lat="44.1427" lon="4.80461">
        <ele>44.9</ele>
      </trkpt>
      <trkpt lat="44.14262" lon="4.80461">
        <ele>45</ele>
      </trkpt>
      <trkpt lat="44.14257" lon="4.80458">
        <ele>45</ele>
      </trkpt>
      <trkpt lat="44.14252" lon="4.80455">
        <ele>45</ele>
      </trkpt>
      <trkpt lat="44.14248" lon="4.80446">
        <ele>45.5</ele>
      </trkpt>
      <trkpt lat="44.14245" lon="4.80441">
        <ele>45.4</ele>
      </trkpt>
      <trkpt lat="44.14239" lon="4.80435">
        <ele>45.3</ele>
      </trkpt>
      <trkpt lat="44.14226" lon="4.80426">
        <ele>45.2</ele>
      </trkpt>
      <trkpt lat="44.14211" lon="4.80424">
        <ele>45.2</ele>
      </trkpt>
      <trkpt lat="44.14204" lon="4.80426">
        <ele>45.1</ele>
      </trkpt>
      <trkpt lat="44.1419" lon="4.80435">
        <ele>45</ele>
      </trkpt>
      <trkpt lat="44.1418" lon="4.80451">
        <ele>45.2</ele>
      </trkpt>
      <trkpt lat="44.14177" lon="4.80459">
        <ele>45.3</ele>
      </trkpt>
      <trkpt lat="44.14174" lon="4.80472">
        <ele>45.5</ele>
      </trkpt>
      <trkpt lat="44.14173" lon="4.80479">
        <ele>45.6</ele>
      </trkpt>
      <trkpt lat="44.14173" lon="4.80485">
        <ele>45.7</ele>
      </trkpt>
      <trkpt lat="44.14169" lon="4.80494">
        <ele>45.9</ele>
      </trkpt>
      <trkpt lat="44.14166" lon="4.80499">
        <ele>45.9</ele>
      </trkpt>
      <trkpt lat="44.14161" lon="4.80503">
        <ele>45.6</ele>
      </trkpt>
      <trkpt lat="44.14152" lon="4.80507">
        <ele>45.2</ele>
      </trkpt>
      <trkpt lat="44.14144" lon="4.8051">
        <ele>45</ele>
      </trkpt>
      <trkpt lat="44.14136" lon="4.80513">
        <ele>44.7</ele>
      </trkpt>
      <trkpt lat="44.14116" lon="4.80519">
        <ele>44.3</ele>
      </trkpt>
      <trkpt lat="44.14107" lon="4.80523">
        <ele>44.2</ele>
      </trkpt>
      <trkpt lat="44.14101" lon="4.80524">
        <ele>44.1</ele>
      </trkpt>
      <trkpt lat="44.14077" lon="4.80533">
        <ele>44</ele>
      </trkpt>
      <trkpt lat="44.14072" lon="4.80535">
        <ele>44.1</ele>
      </trkpt>
      <trkpt lat="44.14061" lon="4.80538">
        <ele>44.2</ele>
      </trkpt>
      <trkpt lat="44.14054" lon="4.8054">
        <ele>44.3</ele>
      </trkpt>
      <trkpt lat="44.13983" lon="4.80565">
        <ele>46.2</ele>
      </trkpt>
      <trkpt lat="44.13969" lon="4.8057">
        <ele>46.1</ele>
      </trkpt>
      <trkpt lat="44.13927" lon="4.80585">
        <ele>47.1</ele>
      </trkpt>
      <trkpt lat="44.13919" lon="4.80588">
        <ele>47.1</ele>
      </trkpt>
      <trkpt lat="44.1391" lon="4.80591">
        <ele>47.5</ele>
      </trkpt>
      <trkpt lat="44.13897" lon="4.80596">
        <ele>47.9</ele>
      </trkpt>
      <trkpt lat="44.13887" lon="4.806">
        <ele>48.1</ele>
      </trkpt>
      <trkpt lat="44.13883" lon="4.80602">
        <ele>48.2</ele>
      </trkpt>
      <trkpt lat="44.13869" lon="4.80608">
        <ele>48.3</ele>
      </trkpt>
      <trkpt lat="44.1386" lon="4.8061">
        <ele>48.4</ele>
      </trkpt>
      <trkpt lat="44.13851" lon="4.80613">
        <ele>48.5</ele>
      </trkpt>
      <trkpt lat="44.1385" lon="4.80614">
        <ele>48.5</ele>
        <extensions>
          <visugpx:TrkExtension xmlns:visugpx="https://www.visugpx.com/editgpx/">
            <visugpx:node>36</visugpx:node>
            </visugpx:TrkExtension>
        </extensions>
      </trkpt>
    </trkseg>
  </trk>
</gpx>